<?xml version="1.0" encoding="UTF-8" standalone="no" ?><gpx xmlns="http://www.topografix.com/GPX/1/1" xmlns:gpxx="http://www.garmin.com/xmlschemas/GpxExtensions/v3" xmlns:wptx1="http://www.garmin.com/xmlschemas/WaypointExtension/v1" xmlns:gpxtpx="http://www.garmin.com/xmlschemas/TrackPointExtension/v1" creator="GuideVTT.com" version="1.1" xmlns:xsi="http://www.w3.org/2001/XMLSchema-instance" xsi:schemaLocation="http://www.topografix.com/GPX/1/1 http://www.topografix.com/GPX/1/1/gpx.xsd http://www.garmin.com/xmlschemas/GpxExtensions/v3 http://www8.garmin.com/xmlschemas/GpxExtensionsv3.xsd http://www.garmin.com/xmlschemas/WaypointExtension/v1 http://www8.garmin.com/xmlschemas/WaypointExtensionv1.xsd http://www.garmin.com/xmlschemas/TrackPointExtension/v1 http://www.garmin.com/xmlschemas/TrackPointExtensionv1.xsd">
<metadata><link href="http://www.garmin.com"><text>Garmin International</text></link><time>2013-06-22T15:13:50Z</time></metadata>
<trk><name>grone_-_eison.gpx</name><extensions><gpxx:TrackExtension><gpxx:DisplayColor>Cyan</gpxx:DisplayColor></gpxx:TrackExtension></extensions><trkseg>
<trkpt lat="46.251700000" lon="7.462820000"><ele></ele><time>2013-8-7T23:31:58Z</time></trkpt>
<trkpt lat="46.251700000" lon="7.462820000"><ele></ele><time>2013-8-7T23:32:1Z</time></trkpt>
<trkpt lat="46.251700000" lon="7.462820000"><ele></ele><time>2013-8-7T23:32:4Z</time></trkpt>
<trkpt lat="46.251700000" lon="7.462820000"><ele></ele><time>2013-8-7T23:32:7Z</time></trkpt>
<trkpt lat="46.251700000" lon="7.462820000"><ele></ele><time>2013-8-7T23:32:10Z</time></trkpt>
<trkpt lat="46.251700000" lon="7.462780000"><ele></ele><time>2013-8-7T23:32:13Z</time></trkpt>
<trkpt lat="46.251650000" lon="7.462630000"><ele></ele><time>2013-8-7T23:32:16Z</time></trkpt>
<trkpt lat="46.251640000" lon="7.462490000"><ele></ele><time>2013-8-7T23:32:19Z</time></trkpt>
<trkpt lat="46.251640000" lon="7.462440000"><ele></ele><time>2013-8-7T23:32:22Z</time></trkpt>
<trkpt lat="46.251630000" lon="7.462080000"><ele></ele><time>2013-8-7T23:32:25Z</time></trkpt>
<trkpt lat="46.251610000" lon="7.461590000"><ele></ele><time>2013-8-7T23:32:28Z</time></trkpt>
<trkpt lat="46.251580000" lon="7.461240000"><ele></ele><time>2013-8-7T23:32:31Z</time></trkpt>
<trkpt lat="46.251550000" lon="7.461050000"><ele></ele><time>2013-8-7T23:32:34Z</time></trkpt>
<trkpt lat="46.251540000" lon="7.461000000"><ele></ele><time>2013-8-7T23:32:37Z</time></trkpt>
<trkpt lat="46.251530000" lon="7.460950000"><ele></ele><time>2013-8-7T23:32:40Z</time></trkpt>
<trkpt lat="46.251520000" lon="7.460850000"><ele></ele><time>2013-8-7T23:32:43Z</time></trkpt>
<trkpt lat="46.251520000" lon="7.460850000"><ele></ele><time>2013-8-7T23:32:46Z</time></trkpt>
<trkpt lat="46.251450000" lon="7.460480000"><ele></ele><time>2013-8-7T23:32:49Z</time></trkpt>
<trkpt lat="46.251430000" lon="7.460430000"><ele></ele><time>2013-8-7T23:32:52Z</time></trkpt>
<trkpt lat="46.251420000" lon="7.460390000"><ele></ele><time>2013-8-7T23:32:55Z</time></trkpt>
<trkpt lat="46.251420000" lon="7.460340000"><ele></ele><time>2013-8-7T23:32:58Z</time></trkpt>
<trkpt lat="46.251400000" lon="7.460290000"><ele></ele><time>2013-8-7T23:33:1Z</time></trkpt>
<trkpt lat="46.251380000" lon="7.460150000"><ele></ele><time>2013-8-7T23:33:4Z</time></trkpt>
<trkpt lat="46.251370000" lon="7.460110000"><ele></ele><time>2013-8-7T23:33:7Z</time></trkpt>
<trkpt lat="46.251360000" lon="7.460060000"><ele></ele><time>2013-8-7T23:33:10Z</time></trkpt>
<trkpt lat="46.251310000" lon="7.459800000"><ele></ele><time>2013-8-7T23:33:13Z</time></trkpt>
<trkpt lat="46.251250000" lon="7.459580000"><ele></ele><time>2013-8-7T23:33:16Z</time></trkpt>
<trkpt lat="46.251230000" lon="7.459540000"><ele></ele><time>2013-8-7T23:33:19Z</time></trkpt>
<trkpt lat="46.251220000" lon="7.459500000"><ele></ele><time>2013-8-7T23:33:22Z</time></trkpt>
<trkpt lat="46.251200000" lon="7.459460000"><ele></ele><time>2013-8-7T23:33:25Z</time></trkpt>
<trkpt lat="46.251180000" lon="7.459420000"><ele></ele><time>2013-8-7T23:33:28Z</time></trkpt>
<trkpt lat="46.251080000" lon="7.459300000"><ele></ele><time>2013-8-7T23:33:31Z</time></trkpt>
<trkpt lat="46.251050000" lon="7.459290000"><ele></ele><time>2013-8-7T23:33:34Z</time></trkpt>
<trkpt lat="46.251020000" lon="7.459310000"><ele></ele><time>2013-8-7T23:33:37Z</time></trkpt>
<trkpt lat="46.250990000" lon="7.459330000"><ele></ele><time>2013-8-7T23:33:40Z</time></trkpt>
<trkpt lat="46.250970000" lon="7.459360000"><ele></ele><time>2013-8-7T23:33:43Z</time></trkpt>
<trkpt lat="46.250920000" lon="7.459470000"><ele></ele><time>2013-8-7T23:33:46Z</time></trkpt>
<trkpt lat="46.250890000" lon="7.459560000"><ele></ele><time>2013-8-7T23:33:49Z</time></trkpt>
<trkpt lat="46.250870000" lon="7.459590000"><ele></ele><time>2013-8-7T23:33:52Z</time></trkpt>
<trkpt lat="46.250860000" lon="7.459610000"><ele></ele><time>2013-8-7T23:33:55Z</time></trkpt>
<trkpt lat="46.250850000" lon="7.459640000"><ele></ele><time>2013-8-7T23:33:58Z</time></trkpt>
<trkpt lat="46.250840000" lon="7.459670000"><ele></ele><time>2013-8-7T23:34:1Z</time></trkpt>
<trkpt lat="46.250820000" lon="7.459730000"><ele></ele><time>2013-8-7T23:34:4Z</time></trkpt>
<trkpt lat="46.250770000" lon="7.459880000"><ele></ele><time>2013-8-7T23:34:7Z</time></trkpt>
<trkpt lat="46.250760000" lon="7.459910000"><ele></ele><time>2013-8-7T23:34:10Z</time></trkpt>
<trkpt lat="46.250750000" lon="7.459940000"><ele></ele><time>2013-8-7T23:34:13Z</time></trkpt>
<trkpt lat="46.250740000" lon="7.459970000"><ele></ele><time>2013-8-7T23:34:16Z</time></trkpt>
<trkpt lat="46.250740000" lon="7.460010000"><ele></ele><time>2013-8-7T23:34:19Z</time></trkpt>
<trkpt lat="46.250730000" lon="7.460040000"><ele></ele><time>2013-8-7T23:34:22Z</time></trkpt>
<trkpt lat="46.250720000" lon="7.460100000"><ele></ele><time>2013-8-7T23:34:25Z</time></trkpt>
<trkpt lat="46.250710000" lon="7.460130000"><ele></ele><time>2013-8-7T23:34:28Z</time></trkpt>
<trkpt lat="46.250700000" lon="7.460160000"><ele></ele><time>2013-8-7T23:34:31Z</time></trkpt>
<trkpt lat="46.250690000" lon="7.460190000"><ele></ele><time>2013-8-7T23:34:34Z</time></trkpt>
<trkpt lat="46.250690000" lon="7.460220000"><ele></ele><time>2013-8-7T23:34:37Z</time></trkpt>
<trkpt lat="46.250690000" lon="7.460250000"><ele></ele><time>2013-8-7T23:34:40Z</time></trkpt>
<trkpt lat="46.250680000" lon="7.460290000"><ele></ele><time>2013-8-7T23:34:43Z</time></trkpt>
<trkpt lat="46.250670000" lon="7.460320000"><ele></ele><time>2013-8-7T23:34:46Z</time></trkpt>
<trkpt lat="46.250650000" lon="7.460400000"><ele></ele><time>2013-8-7T23:34:49Z</time></trkpt>
<trkpt lat="46.250640000" lon="7.460430000"><ele></ele><time>2013-8-7T23:34:52Z</time></trkpt>
<trkpt lat="46.250630000" lon="7.460460000"><ele></ele><time>2013-8-7T23:34:55Z</time></trkpt>
<trkpt lat="46.250620000" lon="7.460490000"><ele></ele><time>2013-8-7T23:34:58Z</time></trkpt>
<trkpt lat="46.250610000" lon="7.460510000"><ele></ele><time>2013-8-7T23:35:1Z</time></trkpt>
<trkpt lat="46.250570000" lon="7.460630000"><ele></ele><time>2013-8-7T23:35:4Z</time></trkpt>
<trkpt lat="46.250560000" lon="7.460660000"><ele></ele><time>2013-8-7T23:35:7Z</time></trkpt>
<trkpt lat="46.250560000" lon="7.460690000"><ele></ele><time>2013-8-7T23:35:10Z</time></trkpt>
<trkpt lat="46.250550000" lon="7.460730000"><ele></ele><time>2013-8-7T23:35:13Z</time></trkpt>
<trkpt lat="46.250540000" lon="7.460760000"><ele></ele><time>2013-8-7T23:35:16Z</time></trkpt>
<trkpt lat="46.250530000" lon="7.460790000"><ele></ele><time>2013-8-7T23:35:19Z</time></trkpt>
<trkpt lat="46.250510000" lon="7.460880000"><ele></ele><time>2013-8-7T23:35:22Z</time></trkpt>
<trkpt lat="46.250500000" lon="7.460940000"><ele></ele><time>2013-8-7T23:35:25Z</time></trkpt>
<trkpt lat="46.250500000" lon="7.460970000"><ele></ele><time>2013-8-7T23:35:28Z</time></trkpt>
<trkpt lat="46.250490000" lon="7.461010000"><ele></ele><time>2013-8-7T23:35:31Z</time></trkpt>
<trkpt lat="46.250490000" lon="7.461040000"><ele></ele><time>2013-8-7T23:35:34Z</time></trkpt>
<trkpt lat="46.250490000" lon="7.461070000"><ele></ele><time>2013-8-7T23:35:37Z</time></trkpt>
<trkpt lat="46.250490000" lon="7.461100000"><ele></ele><time>2013-8-7T23:35:40Z</time></trkpt>
<trkpt lat="46.250470000" lon="7.461250000"><ele></ele><time>2013-8-7T23:35:43Z</time></trkpt>
<trkpt lat="46.250470000" lon="7.461350000"><ele></ele><time>2013-8-7T23:35:46Z</time></trkpt>
<trkpt lat="46.250460000" lon="7.461370000"><ele></ele><time>2013-8-7T23:35:49Z</time></trkpt>
<trkpt lat="46.250460000" lon="7.461400000"><ele></ele><time>2013-8-7T23:35:52Z</time></trkpt>
<trkpt lat="46.250450000" lon="7.461430000"><ele></ele><time>2013-8-7T23:35:55Z</time></trkpt>
<trkpt lat="46.250440000" lon="7.461460000"><ele></ele><time>2013-8-7T23:35:58Z</time></trkpt>
<trkpt lat="46.250430000" lon="7.461490000"><ele></ele><time>2013-8-7T23:36:1Z</time></trkpt>
<trkpt lat="46.250390000" lon="7.461570000"><ele></ele><time>2013-8-7T23:36:4Z</time></trkpt>
<trkpt lat="46.250380000" lon="7.461600000"><ele></ele><time>2013-8-7T23:36:7Z</time></trkpt>
<trkpt lat="46.250370000" lon="7.461630000"><ele></ele><time>2013-8-7T23:36:10Z</time></trkpt>
<trkpt lat="46.250360000" lon="7.461650000"><ele></ele><time>2013-8-7T23:36:13Z</time></trkpt>
<trkpt lat="46.250350000" lon="7.461680000"><ele></ele><time>2013-8-7T23:36:16Z</time></trkpt>
<trkpt lat="46.250340000" lon="7.461710000"><ele></ele><time>2013-8-7T23:36:19Z</time></trkpt>
<trkpt lat="46.250310000" lon="7.461850000"><ele></ele><time>2013-8-7T23:36:22Z</time></trkpt>
<trkpt lat="46.250300000" lon="7.461880000"><ele></ele><time>2013-8-7T23:36:25Z</time></trkpt>
<trkpt lat="46.250290000" lon="7.461910000"><ele></ele><time>2013-8-7T23:36:28Z</time></trkpt>
<trkpt lat="46.250290000" lon="7.461940000"><ele></ele><time>2013-8-7T23:36:31Z</time></trkpt>
<trkpt lat="46.250290000" lon="7.461970000"><ele></ele><time>2013-8-7T23:36:34Z</time></trkpt>
<trkpt lat="46.250280000" lon="7.462130000"><ele></ele><time>2013-8-7T23:36:37Z</time></trkpt>
<trkpt lat="46.250290000" lon="7.462170000"><ele></ele><time>2013-8-7T23:36:40Z</time></trkpt>
<trkpt lat="46.250290000" lon="7.462200000"><ele></ele><time>2013-8-7T23:36:43Z</time></trkpt>
<trkpt lat="46.250290000" lon="7.462230000"><ele></ele><time>2013-8-7T23:36:46Z</time></trkpt>
<trkpt lat="46.250310000" lon="7.462380000"><ele></ele><time>2013-8-7T23:36:49Z</time></trkpt>
<trkpt lat="46.250320000" lon="7.462410000"><ele></ele><time>2013-8-7T23:36:52Z</time></trkpt>
<trkpt lat="46.250320000" lon="7.462440000"><ele></ele><time>2013-8-7T23:36:55Z</time></trkpt>
<trkpt lat="46.250320000" lon="7.462470000"><ele></ele><time>2013-8-7T23:36:58Z</time></trkpt>
<trkpt lat="46.250330000" lon="7.462500000"><ele></ele><time>2013-8-7T23:37:1Z</time></trkpt>
<trkpt lat="46.250330000" lon="7.462540000"><ele></ele><time>2013-8-7T23:37:4Z</time></trkpt>
<trkpt lat="46.250340000" lon="7.462630000"><ele></ele><time>2013-8-7T23:37:7Z</time></trkpt>
<trkpt lat="46.250350000" lon="7.462660000"><ele></ele><time>2013-8-7T23:37:10Z</time></trkpt>
<trkpt lat="46.250350000" lon="7.462690000"><ele></ele><time>2013-8-7T23:37:13Z</time></trkpt>
<trkpt lat="46.250350000" lon="7.462730000"><ele></ele><time>2013-8-7T23:37:16Z</time></trkpt>
<trkpt lat="46.250350000" lon="7.462760000"><ele></ele><time>2013-8-7T23:37:19Z</time></trkpt>
<trkpt lat="46.250360000" lon="7.462790000"><ele></ele><time>2013-8-7T23:37:22Z</time></trkpt>
<trkpt lat="46.250360000" lon="7.462820000"><ele></ele><time>2013-8-7T23:37:25Z</time></trkpt>
<trkpt lat="46.250360000" lon="7.462860000"><ele></ele><time>2013-8-7T23:37:28Z</time></trkpt>
<trkpt lat="46.250360000" lon="7.462890000"><ele></ele><time>2013-8-7T23:37:31Z</time></trkpt>
<trkpt lat="46.250360000" lon="7.462920000"><ele></ele><time>2013-8-7T23:37:34Z</time></trkpt>
<trkpt lat="46.250360000" lon="7.462950000"><ele></ele><time>2013-8-7T23:37:37Z</time></trkpt>
<trkpt lat="46.250360000" lon="7.463010000"><ele></ele><time>2013-8-7T23:37:40Z</time></trkpt>
<trkpt lat="46.250360000" lon="7.463070000"><ele></ele><time>2013-8-7T23:37:43Z</time></trkpt>
<trkpt lat="46.250360000" lon="7.463110000"><ele></ele><time>2013-8-7T23:37:46Z</time></trkpt>
<trkpt lat="46.250360000" lon="7.463140000"><ele></ele><time>2013-8-7T23:37:49Z</time></trkpt>
<trkpt lat="46.250360000" lon="7.463170000"><ele></ele><time>2013-8-7T23:37:52Z</time></trkpt>
<trkpt lat="46.250360000" lon="7.463200000"><ele></ele><time>2013-8-7T23:37:55Z</time></trkpt>
<trkpt lat="46.250360000" lon="7.463360000"><ele></ele><time>2013-8-7T23:37:58Z</time></trkpt>
<trkpt lat="46.250360000" lon="7.463390000"><ele></ele><time>2013-8-7T23:38:1Z</time></trkpt>
<trkpt lat="46.250360000" lon="7.463420000"><ele></ele><time>2013-8-7T23:38:4Z</time></trkpt>
<trkpt lat="46.250350000" lon="7.463450000"><ele></ele><time>2013-8-7T23:38:7Z</time></trkpt>
<trkpt lat="46.250350000" lon="7.463480000"><ele></ele><time>2013-8-7T23:38:10Z</time></trkpt>
<trkpt lat="46.250390000" lon="7.463700000"><ele></ele><time>2013-8-7T23:38:13Z</time></trkpt>
<trkpt lat="46.250390000" lon="7.463730000"><ele></ele><time>2013-8-7T23:38:16Z</time></trkpt>
<trkpt lat="46.250400000" lon="7.463760000"><ele></ele><time>2013-8-7T23:38:19Z</time></trkpt>
<trkpt lat="46.250420000" lon="7.463780000"><ele></ele><time>2013-8-7T23:38:22Z</time></trkpt>
<trkpt lat="46.250460000" lon="7.463870000"><ele></ele><time>2013-8-7T23:38:25Z</time></trkpt>
<trkpt lat="46.250510000" lon="7.463980000"><ele></ele><time>2013-8-7T23:38:28Z</time></trkpt>
<trkpt lat="46.250520000" lon="7.464010000"><ele></ele><time>2013-8-7T23:38:31Z</time></trkpt>
<trkpt lat="46.250530000" lon="7.464040000"><ele></ele><time>2013-8-7T23:38:34Z</time></trkpt>
<trkpt lat="46.250540000" lon="7.464070000"><ele></ele><time>2013-8-7T23:38:37Z</time></trkpt>
<trkpt lat="46.250550000" lon="7.464090000"><ele></ele><time>2013-8-7T23:38:40Z</time></trkpt>
<trkpt lat="46.250560000" lon="7.464200000"><ele></ele><time>2013-8-7T23:38:43Z</time></trkpt>
<trkpt lat="46.250570000" lon="7.464230000"><ele></ele><time>2013-8-7T23:38:46Z</time></trkpt>
<trkpt lat="46.250570000" lon="7.464250000"><ele></ele><time>2013-8-7T23:38:49Z</time></trkpt>
<trkpt lat="46.250570000" lon="7.464290000"><ele></ele><time>2013-8-7T23:38:52Z</time></trkpt>
<trkpt lat="46.250570000" lon="7.464320000"><ele></ele><time>2013-8-7T23:38:55Z</time></trkpt>
<trkpt lat="46.250570000" lon="7.464350000"><ele></ele><time>2013-8-7T23:38:58Z</time></trkpt>
<trkpt lat="46.250570000" lon="7.464380000"><ele></ele><time>2013-8-7T23:39:1Z</time></trkpt>
<trkpt lat="46.250570000" lon="7.464410000"><ele></ele><time>2013-8-7T23:39:4Z</time></trkpt>
<trkpt lat="46.250570000" lon="7.464490000"><ele></ele><time>2013-8-7T23:39:7Z</time></trkpt>
<trkpt lat="46.250570000" lon="7.464540000"><ele></ele><time>2013-8-7T23:39:10Z</time></trkpt>
<trkpt lat="46.250560000" lon="7.464570000"><ele></ele><time>2013-8-7T23:39:13Z</time></trkpt>
<trkpt lat="46.250560000" lon="7.464610000"><ele></ele><time>2013-8-7T23:39:16Z</time></trkpt>
<trkpt lat="46.250560000" lon="7.464640000"><ele></ele><time>2013-8-7T23:39:19Z</time></trkpt>
<trkpt lat="46.250560000" lon="7.464680000"><ele></ele><time>2013-8-7T23:39:22Z</time></trkpt>
<trkpt lat="46.250570000" lon="7.464740000"><ele></ele><time>2013-8-7T23:39:25Z</time></trkpt>
<trkpt lat="46.250610000" lon="7.464890000"><ele></ele><time>2013-8-7T23:39:28Z</time></trkpt>
<trkpt lat="46.250620000" lon="7.464920000"><ele></ele><time>2013-8-7T23:39:31Z</time></trkpt>
<trkpt lat="46.250630000" lon="7.464950000"><ele></ele><time>2013-8-7T23:39:34Z</time></trkpt>
<trkpt lat="46.250640000" lon="7.464980000"><ele></ele><time>2013-8-7T23:39:37Z</time></trkpt>
<trkpt lat="46.250660000" lon="7.465010000"><ele></ele><time>2013-8-7T23:39:40Z</time></trkpt>
<trkpt lat="46.250690000" lon="7.465090000"><ele></ele><time>2013-8-7T23:39:43Z</time></trkpt>
<trkpt lat="46.250730000" lon="7.465200000"><ele></ele><time>2013-8-7T23:39:46Z</time></trkpt>
<trkpt lat="46.250740000" lon="7.465230000"><ele></ele><time>2013-8-7T23:39:49Z</time></trkpt>
<trkpt lat="46.250750000" lon="7.465260000"><ele></ele><time>2013-8-7T23:39:52Z</time></trkpt>
<trkpt lat="46.250760000" lon="7.465290000"><ele></ele><time>2013-8-7T23:39:55Z</time></trkpt>
<trkpt lat="46.250820000" lon="7.465490000"><ele></ele><time>2013-8-7T23:39:58Z</time></trkpt>
<trkpt lat="46.250820000" lon="7.465530000"><ele></ele><time>2013-8-7T23:40:1Z</time></trkpt>
<trkpt lat="46.250830000" lon="7.465560000"><ele></ele><time>2013-8-7T23:40:4Z</time></trkpt>
<trkpt lat="46.250840000" lon="7.465590000"><ele></ele><time>2013-8-7T23:40:7Z</time></trkpt>
<trkpt lat="46.250840000" lon="7.465620000"><ele></ele><time>2013-8-7T23:40:10Z</time></trkpt>
<trkpt lat="46.250870000" lon="7.465750000"><ele></ele><time>2013-8-7T23:40:13Z</time></trkpt>
<trkpt lat="46.250880000" lon="7.465820000"><ele></ele><time>2013-8-7T23:40:16Z</time></trkpt>
<trkpt lat="46.250890000" lon="7.465850000"><ele></ele><time>2013-8-7T23:40:19Z</time></trkpt>
<trkpt lat="46.250900000" lon="7.465890000"><ele></ele><time>2013-8-7T23:40:22Z</time></trkpt>
<trkpt lat="46.250910000" lon="7.465920000"><ele></ele><time>2013-8-7T23:40:25Z</time></trkpt>
<trkpt lat="46.250920000" lon="7.465950000"><ele></ele><time>2013-8-7T23:40:28Z</time></trkpt>
<trkpt lat="46.250920000" lon="7.465980000"><ele></ele><time>2013-8-7T23:40:31Z</time></trkpt>
<trkpt lat="46.250970000" lon="7.466160000"><ele></ele><time>2013-8-7T23:40:34Z</time></trkpt>
<trkpt lat="46.250970000" lon="7.466190000"><ele></ele><time>2013-8-7T23:40:37Z</time></trkpt>
<trkpt lat="46.250980000" lon="7.466220000"><ele></ele><time>2013-8-7T23:40:40Z</time></trkpt>
<trkpt lat="46.250980000" lon="7.466250000"><ele></ele><time>2013-8-7T23:40:43Z</time></trkpt>
<trkpt lat="46.250980000" lon="7.466280000"><ele></ele><time>2013-8-7T23:40:46Z</time></trkpt>
<trkpt lat="46.251000000" lon="7.466400000"><ele></ele><time>2013-8-7T23:40:49Z</time></trkpt>
<trkpt lat="46.251010000" lon="7.466470000"><ele></ele><time>2013-8-7T23:40:52Z</time></trkpt>
<trkpt lat="46.251010000" lon="7.466510000"><ele></ele><time>2013-8-7T23:40:55Z</time></trkpt>
<trkpt lat="46.251020000" lon="7.466540000"><ele></ele><time>2013-8-7T23:40:58Z</time></trkpt>
<trkpt lat="46.251020000" lon="7.466570000"><ele></ele><time>2013-8-7T23:41:1Z</time></trkpt>
<trkpt lat="46.251020000" lon="7.466610000"><ele></ele><time>2013-8-7T23:41:4Z</time></trkpt>
<trkpt lat="46.251030000" lon="7.466640000"><ele></ele><time>2013-8-7T23:41:7Z</time></trkpt>
<trkpt lat="46.251030000" lon="7.466780000"><ele></ele><time>2013-8-7T23:41:10Z</time></trkpt>
<trkpt lat="46.251020000" lon="7.466820000"><ele></ele><time>2013-8-7T23:41:13Z</time></trkpt>
<trkpt lat="46.251010000" lon="7.466850000"><ele></ele><time>2013-8-7T23:41:16Z</time></trkpt>
<trkpt lat="46.251000000" lon="7.466890000"><ele></ele><time>2013-8-7T23:41:19Z</time></trkpt>
<trkpt lat="46.251000000" lon="7.466910000"><ele></ele><time>2013-8-7T23:41:22Z</time></trkpt>
<trkpt lat="46.250940000" lon="7.467020000"><ele></ele><time>2013-8-7T23:41:25Z</time></trkpt>
<trkpt lat="46.250920000" lon="7.467040000"><ele></ele><time>2013-8-7T23:41:28Z</time></trkpt>
<trkpt lat="46.250900000" lon="7.467070000"><ele></ele><time>2013-8-7T23:41:31Z</time></trkpt>
<trkpt lat="46.250890000" lon="7.467100000"><ele></ele><time>2013-8-7T23:41:34Z</time></trkpt>
<trkpt lat="46.250870000" lon="7.467130000"><ele></ele><time>2013-8-7T23:41:37Z</time></trkpt>
<trkpt lat="46.250860000" lon="7.467190000"><ele></ele><time>2013-8-7T23:41:40Z</time></trkpt>
<trkpt lat="46.250840000" lon="7.467320000"><ele></ele><time>2013-8-7T23:41:43Z</time></trkpt>
<trkpt lat="46.250840000" lon="7.467350000"><ele></ele><time>2013-8-7T23:41:46Z</time></trkpt>
<trkpt lat="46.250840000" lon="7.467390000"><ele></ele><time>2013-8-7T23:41:49Z</time></trkpt>
<trkpt lat="46.250840000" lon="7.467430000"><ele></ele><time>2013-8-7T23:41:52Z</time></trkpt>
<trkpt lat="46.250850000" lon="7.467460000"><ele></ele><time>2013-8-7T23:41:55Z</time></trkpt>
<trkpt lat="46.250860000" lon="7.467490000"><ele></ele><time>2013-8-7T23:41:58Z</time></trkpt>
<trkpt lat="46.250990000" lon="7.467630000"><ele></ele><time>2013-8-7T23:42:1Z</time></trkpt>
<trkpt lat="46.251010000" lon="7.467650000"><ele></ele><time>2013-8-7T23:42:4Z</time></trkpt>
<trkpt lat="46.251030000" lon="7.467670000"><ele></ele><time>2013-8-7T23:42:7Z</time></trkpt>
<trkpt lat="46.251050000" lon="7.467690000"><ele></ele><time>2013-8-7T23:42:10Z</time></trkpt>
<trkpt lat="46.251070000" lon="7.467700000"><ele></ele><time>2013-8-7T23:42:13Z</time></trkpt>
<trkpt lat="46.251140000" lon="7.467730000"><ele></ele><time>2013-8-7T23:42:16Z</time></trkpt>
<trkpt lat="46.251170000" lon="7.467780000"><ele></ele><time>2013-8-7T23:42:19Z</time></trkpt>
<trkpt lat="46.251180000" lon="7.467810000"><ele></ele><time>2013-8-7T23:42:22Z</time></trkpt>
<trkpt lat="46.251200000" lon="7.467840000"><ele></ele><time>2013-8-7T23:42:25Z</time></trkpt>
<trkpt lat="46.251210000" lon="7.467870000"><ele></ele><time>2013-8-7T23:42:28Z</time></trkpt>
<trkpt lat="46.251220000" lon="7.467900000"><ele></ele><time>2013-8-7T23:42:31Z</time></trkpt>
<trkpt lat="46.251230000" lon="7.467970000"><ele></ele><time>2013-8-7T23:42:34Z</time></trkpt>
<trkpt lat="46.251230000" lon="7.468040000"><ele></ele><time>2013-8-7T23:42:37Z</time></trkpt>
<trkpt lat="46.251240000" lon="7.468080000"><ele></ele><time>2013-8-7T23:42:40Z</time></trkpt>
<trkpt lat="46.251240000" lon="7.468120000"><ele></ele><time>2013-8-7T23:42:43Z</time></trkpt>
<trkpt lat="46.251240000" lon="7.468150000"><ele></ele><time>2013-8-7T23:42:46Z</time></trkpt>
<trkpt lat="46.251240000" lon="7.468190000"><ele></ele><time>2013-8-7T23:42:49Z</time></trkpt>
<trkpt lat="46.251260000" lon="7.468330000"><ele></ele><time>2013-8-7T23:42:52Z</time></trkpt>
<trkpt lat="46.251260000" lon="7.468430000"><ele></ele><time>2013-8-7T23:42:55Z</time></trkpt>
<trkpt lat="46.251260000" lon="7.468470000"><ele></ele><time>2013-8-7T23:42:58Z</time></trkpt>
<trkpt lat="46.251260000" lon="7.468500000"><ele></ele><time>2013-8-7T23:43:1Z</time></trkpt>
<trkpt lat="46.251260000" lon="7.468540000"><ele></ele><time>2013-8-7T23:43:4Z</time></trkpt>
<trkpt lat="46.251260000" lon="7.468570000"><ele></ele><time>2013-8-7T23:43:7Z</time></trkpt>
<trkpt lat="46.251270000" lon="7.468780000"><ele></ele><time>2013-8-7T23:43:10Z</time></trkpt>
<trkpt lat="46.251270000" lon="7.468810000"><ele></ele><time>2013-8-7T23:43:13Z</time></trkpt>
<trkpt lat="46.251270000" lon="7.468850000"><ele></ele><time>2013-8-7T23:43:16Z</time></trkpt>
<trkpt lat="46.251270000" lon="7.468880000"><ele></ele><time>2013-8-7T23:43:19Z</time></trkpt>
<trkpt lat="46.251260000" lon="7.468910000"><ele></ele><time>2013-8-7T23:43:22Z</time></trkpt>
<trkpt lat="46.251260000" lon="7.468940000"><ele></ele><time>2013-8-7T23:43:25Z</time></trkpt>
<trkpt lat="46.251250000" lon="7.469030000"><ele></ele><time>2013-8-7T23:43:28Z</time></trkpt>
<trkpt lat="46.251250000" lon="7.469070000"><ele></ele><time>2013-8-7T23:43:31Z</time></trkpt>
<trkpt lat="46.251240000" lon="7.469100000"><ele></ele><time>2013-8-7T23:43:34Z</time></trkpt>
<trkpt lat="46.251230000" lon="7.469120000"><ele></ele><time>2013-8-7T23:43:37Z</time></trkpt>
<trkpt lat="46.251220000" lon="7.469150000"><ele></ele><time>2013-8-7T23:43:40Z</time></trkpt>
<trkpt lat="46.251220000" lon="7.469180000"><ele></ele><time>2013-8-7T23:43:43Z</time></trkpt>
<trkpt lat="46.251210000" lon="7.469200000"><ele></ele><time>2013-8-7T23:43:46Z</time></trkpt>
<trkpt lat="46.251170000" lon="7.469350000"><ele></ele><time>2013-8-7T23:43:49Z</time></trkpt>
<trkpt lat="46.251170000" lon="7.469380000"><ele></ele><time>2013-8-7T23:43:52Z</time></trkpt>
<trkpt lat="46.251160000" lon="7.469410000"><ele></ele><time>2013-8-7T23:43:55Z</time></trkpt>
<trkpt lat="46.251150000" lon="7.469440000"><ele></ele><time>2013-8-7T23:43:58Z</time></trkpt>
<trkpt lat="46.251140000" lon="7.469470000"><ele></ele><time>2013-8-7T23:44:1Z</time></trkpt>
<trkpt lat="46.251140000" lon="7.469540000"><ele></ele><time>2013-8-7T23:44:4Z</time></trkpt>
<trkpt lat="46.251140000" lon="7.469640000"><ele></ele><time>2013-8-7T23:44:7Z</time></trkpt>
<trkpt lat="46.251140000" lon="7.469680000"><ele></ele><time>2013-8-7T23:44:10Z</time></trkpt>
<trkpt lat="46.251140000" lon="7.469710000"><ele></ele><time>2013-8-7T23:44:13Z</time></trkpt>
<trkpt lat="46.251150000" lon="7.469750000"><ele></ele><time>2013-8-7T23:44:16Z</time></trkpt>
<trkpt lat="46.251170000" lon="7.469930000"><ele></ele><time>2013-8-7T23:44:19Z</time></trkpt>
<trkpt lat="46.251180000" lon="7.469960000"><ele></ele><time>2013-8-7T23:44:22Z</time></trkpt>
<trkpt lat="46.251190000" lon="7.469990000"><ele></ele><time>2013-8-7T23:44:25Z</time></trkpt>
<trkpt lat="46.251200000" lon="7.470020000"><ele></ele><time>2013-8-7T23:44:28Z</time></trkpt>
<trkpt lat="46.251210000" lon="7.470050000"><ele></ele><time>2013-8-7T23:44:31Z</time></trkpt>
<trkpt lat="46.251280000" lon="7.470170000"><ele></ele><time>2013-8-7T23:44:34Z</time></trkpt>
<trkpt lat="46.251310000" lon="7.470230000"><ele></ele><time>2013-8-7T23:44:37Z</time></trkpt>
<trkpt lat="46.251320000" lon="7.470260000"><ele></ele><time>2013-8-7T23:44:40Z</time></trkpt>
<trkpt lat="46.251340000" lon="7.470280000"><ele></ele><time>2013-8-7T23:44:43Z</time></trkpt>
<trkpt lat="46.251350000" lon="7.470310000"><ele></ele><time>2013-8-7T23:44:46Z</time></trkpt>
<trkpt lat="46.251370000" lon="7.470340000"><ele></ele><time>2013-8-7T23:44:49Z</time></trkpt>
<trkpt lat="46.251410000" lon="7.470430000"><ele></ele><time>2013-8-7T23:44:52Z</time></trkpt>
<trkpt lat="46.251420000" lon="7.470460000"><ele></ele><time>2013-8-7T23:44:55Z</time></trkpt>
<trkpt lat="46.251420000" lon="7.470500000"><ele></ele><time>2013-8-7T23:44:58Z</time></trkpt>
<trkpt lat="46.251430000" lon="7.470530000"><ele></ele><time>2013-8-7T23:45:1Z</time></trkpt>
<trkpt lat="46.251430000" lon="7.470560000"><ele></ele><time>2013-8-7T23:45:4Z</time></trkpt>
<trkpt lat="46.251430000" lon="7.470590000"><ele></ele><time>2013-8-7T23:45:7Z</time></trkpt>
<trkpt lat="46.251440000" lon="7.470650000"><ele></ele><time>2013-8-7T23:45:10Z</time></trkpt>
<trkpt lat="46.251460000" lon="7.470780000"><ele></ele><time>2013-8-7T23:45:13Z</time></trkpt>
<trkpt lat="46.251470000" lon="7.470820000"><ele></ele><time>2013-8-7T23:45:16Z</time></trkpt>
<trkpt lat="46.251470000" lon="7.470850000"><ele></ele><time>2013-8-7T23:45:19Z</time></trkpt>
<trkpt lat="46.251480000" lon="7.470880000"><ele></ele><time>2013-8-7T23:45:22Z</time></trkpt>
<trkpt lat="46.251480000" lon="7.470920000"><ele></ele><time>2013-8-7T23:45:25Z</time></trkpt>
<trkpt lat="46.251510000" lon="7.471110000"><ele></ele><time>2013-8-7T23:45:28Z</time></trkpt>
<trkpt lat="46.251510000" lon="7.471150000"><ele></ele><time>2013-8-7T23:45:31Z</time></trkpt>
<trkpt lat="46.251510000" lon="7.471180000"><ele></ele><time>2013-8-7T23:45:34Z</time></trkpt>
<trkpt lat="46.251520000" lon="7.471210000"><ele></ele><time>2013-8-7T23:45:37Z</time></trkpt>
<trkpt lat="46.251510000" lon="7.471240000"><ele></ele><time>2013-8-7T23:45:40Z</time></trkpt>
<trkpt lat="46.251490000" lon="7.471330000"><ele></ele><time>2013-8-7T23:45:43Z</time></trkpt>
<trkpt lat="46.251480000" lon="7.471360000"><ele></ele><time>2013-8-7T23:45:46Z</time></trkpt>
<trkpt lat="46.251470000" lon="7.471390000"><ele></ele><time>2013-8-7T23:45:49Z</time></trkpt>
<trkpt lat="46.251460000" lon="7.471420000"><ele></ele><time>2013-8-7T23:45:52Z</time></trkpt>
<trkpt lat="46.251450000" lon="7.471440000"><ele></ele><time>2013-8-7T23:45:55Z</time></trkpt>
<trkpt lat="46.251380000" lon="7.471580000"><ele></ele><time>2013-8-7T23:45:58Z</time></trkpt>
<trkpt lat="46.251370000" lon="7.471620000"><ele></ele><time>2013-8-7T23:46:1Z</time></trkpt>
<trkpt lat="46.251350000" lon="7.471640000"><ele></ele><time>2013-8-7T23:46:4Z</time></trkpt>
<trkpt lat="46.251340000" lon="7.471670000"><ele></ele><time>2013-8-7T23:46:7Z</time></trkpt>
<trkpt lat="46.251330000" lon="7.471700000"><ele></ele><time>2013-8-7T23:46:10Z</time></trkpt>
<trkpt lat="46.251310000" lon="7.471720000"><ele></ele><time>2013-8-7T23:46:13Z</time></trkpt>
<trkpt lat="46.251280000" lon="7.471770000"><ele></ele><time>2013-8-7T23:46:16Z</time></trkpt>
<trkpt lat="46.251220000" lon="7.471850000"><ele></ele><time>2013-8-7T23:46:19Z</time></trkpt>
<trkpt lat="46.251200000" lon="7.471880000"><ele></ele><time>2013-8-7T23:46:22Z</time></trkpt>
<trkpt lat="46.251180000" lon="7.471900000"><ele></ele><time>2013-8-7T23:46:25Z</time></trkpt>
<trkpt lat="46.251160000" lon="7.471920000"><ele></ele><time>2013-8-7T23:46:28Z</time></trkpt>
<trkpt lat="46.251060000" lon="7.472020000"><ele></ele><time>2013-8-7T23:46:31Z</time></trkpt>
<trkpt lat="46.251040000" lon="7.472050000"><ele></ele><time>2013-8-7T23:46:34Z</time></trkpt>
<trkpt lat="46.251030000" lon="7.472070000"><ele></ele><time>2013-8-7T23:46:37Z</time></trkpt>
<trkpt lat="46.251010000" lon="7.472100000"><ele></ele><time>2013-8-7T23:46:40Z</time></trkpt>
<trkpt lat="46.251000000" lon="7.472130000"><ele></ele><time>2013-8-7T23:46:43Z</time></trkpt>
<trkpt lat="46.250990000" lon="7.472200000"><ele></ele><time>2013-8-7T23:46:46Z</time></trkpt>
<trkpt lat="46.251010000" lon="7.472340000"><ele></ele><time>2013-8-7T23:46:49Z</time></trkpt>
<trkpt lat="46.251030000" lon="7.472400000"><ele></ele><time>2013-8-7T23:46:52Z</time></trkpt>
<trkpt lat="46.251050000" lon="7.472440000"><ele></ele><time>2013-8-7T23:46:55Z</time></trkpt>
<trkpt lat="46.251060000" lon="7.472460000"><ele></ele><time>2013-8-7T23:46:58Z</time></trkpt>
<trkpt lat="46.251070000" lon="7.472480000"><ele></ele><time>2013-8-7T23:47:1Z</time></trkpt>
<trkpt lat="46.251090000" lon="7.472500000"><ele></ele><time>2013-8-7T23:47:4Z</time></trkpt>
<trkpt lat="46.251120000" lon="7.472510000"><ele></ele><time>2013-8-7T23:47:7Z</time></trkpt>
<trkpt lat="46.251190000" lon="7.472520000"><ele></ele><time>2013-8-7T23:47:10Z</time></trkpt>
<trkpt lat="46.251280000" lon="7.472490000"><ele></ele><time>2013-8-7T23:47:13Z</time></trkpt>
<trkpt lat="46.251300000" lon="7.472490000"><ele></ele><time>2013-8-7T23:47:16Z</time></trkpt>
<trkpt lat="46.251330000" lon="7.472490000"><ele></ele><time>2013-8-7T23:47:19Z</time></trkpt>
<trkpt lat="46.251350000" lon="7.472490000"><ele></ele><time>2013-8-7T23:47:22Z</time></trkpt>
<trkpt lat="46.251370000" lon="7.472480000"><ele></ele><time>2013-8-7T23:47:25Z</time></trkpt>
<trkpt lat="46.251480000" lon="7.472500000"><ele></ele><time>2013-8-7T23:47:28Z</time></trkpt>
<trkpt lat="46.251520000" lon="7.472520000"><ele></ele><time>2013-8-7T23:47:31Z</time></trkpt>
<trkpt lat="46.251540000" lon="7.472520000"><ele></ele><time>2013-8-7T23:47:34Z</time></trkpt>
<trkpt lat="46.251560000" lon="7.472540000"><ele></ele><time>2013-8-7T23:47:37Z</time></trkpt>
<trkpt lat="46.251580000" lon="7.472550000"><ele></ele><time>2013-8-7T23:47:40Z</time></trkpt>
<trkpt lat="46.251600000" lon="7.472570000"><ele></ele><time>2013-8-7T23:47:43Z</time></trkpt>
<trkpt lat="46.251660000" lon="7.472670000"><ele></ele><time>2013-8-7T23:47:46Z</time></trkpt>
<trkpt lat="46.251680000" lon="7.472700000"><ele></ele><time>2013-8-7T23:47:49Z</time></trkpt>
<trkpt lat="46.251690000" lon="7.472730000"><ele></ele><time>2013-8-7T23:47:52Z</time></trkpt>
<trkpt lat="46.251700000" lon="7.472760000"><ele></ele><time>2013-8-7T23:47:55Z</time></trkpt>
<trkpt lat="46.251720000" lon="7.472910000"><ele></ele><time>2013-8-7T23:47:58Z</time></trkpt>
<trkpt lat="46.251720000" lon="7.472940000"><ele></ele><time>2013-8-7T23:48:1Z</time></trkpt>
<trkpt lat="46.251730000" lon="7.472970000"><ele></ele><time>2013-8-7T23:48:4Z</time></trkpt>
<trkpt lat="46.251730000" lon="7.473000000"><ele></ele><time>2013-8-7T23:48:7Z</time></trkpt>
<trkpt lat="46.251730000" lon="7.473030000"><ele></ele><time>2013-8-7T23:48:10Z</time></trkpt>
<trkpt lat="46.251740000" lon="7.473060000"><ele></ele><time>2013-8-7T23:48:13Z</time></trkpt>
<trkpt lat="46.251740000" lon="7.473150000"><ele></ele><time>2013-8-7T23:48:16Z</time></trkpt>
<trkpt lat="46.251750000" lon="7.473210000"><ele></ele><time>2013-8-7T23:48:19Z</time></trkpt>
<trkpt lat="46.251750000" lon="7.473250000"><ele></ele><time>2013-8-7T23:48:22Z</time></trkpt>
<trkpt lat="46.251750000" lon="7.473280000"><ele></ele><time>2013-8-7T23:48:25Z</time></trkpt>
<trkpt lat="46.251760000" lon="7.473310000"><ele></ele><time>2013-8-7T23:48:28Z</time></trkpt>
<trkpt lat="46.251770000" lon="7.473340000"><ele></ele><time>2013-8-7T23:48:31Z</time></trkpt>
<trkpt lat="46.251770000" lon="7.473370000"><ele></ele><time>2013-8-7T23:48:34Z</time></trkpt>
<trkpt lat="46.251790000" lon="7.473460000"><ele></ele><time>2013-8-7T23:48:37Z</time></trkpt>
<trkpt lat="46.251790000" lon="7.473490000"><ele></ele><time>2013-8-7T23:48:40Z</time></trkpt>
<trkpt lat="46.251800000" lon="7.473520000"><ele></ele><time>2013-8-7T23:48:43Z</time></trkpt>
<trkpt lat="46.251800000" lon="7.473560000"><ele></ele><time>2013-8-7T23:48:46Z</time></trkpt>
<trkpt lat="46.251820000" lon="7.473590000"><ele></ele><time>2013-8-7T23:48:49Z</time></trkpt>
<trkpt lat="46.251820000" lon="7.473620000"><ele></ele><time>2013-8-7T23:48:52Z</time></trkpt>
<trkpt lat="46.251880000" lon="7.473800000"><ele></ele><time>2013-8-7T23:48:55Z</time></trkpt>
<trkpt lat="46.251900000" lon="7.473830000"><ele></ele><time>2013-8-7T23:48:58Z</time></trkpt>
<trkpt lat="46.251910000" lon="7.473860000"><ele></ele><time>2013-8-7T23:49:1Z</time></trkpt>
<trkpt lat="46.251910000" lon="7.473890000"><ele></ele><time>2013-8-7T23:49:4Z</time></trkpt>
<trkpt lat="46.251920000" lon="7.473920000"><ele></ele><time>2013-8-7T23:49:7Z</time></trkpt>
<trkpt lat="46.251970000" lon="7.474070000"><ele></ele><time>2013-8-7T23:49:10Z</time></trkpt>
<trkpt lat="46.251980000" lon="7.474100000"><ele></ele><time>2013-8-7T23:49:13Z</time></trkpt>
<trkpt lat="46.251980000" lon="7.474120000"><ele></ele><time>2013-8-7T23:49:16Z</time></trkpt>
<trkpt lat="46.251990000" lon="7.474150000"><ele></ele><time>2013-8-7T23:49:19Z</time></trkpt>
<trkpt lat="46.252030000" lon="7.474300000"><ele></ele><time>2013-8-7T23:49:22Z</time></trkpt>
<trkpt lat="46.252030000" lon="7.474330000"><ele></ele><time>2013-8-7T23:49:25Z</time></trkpt>
<trkpt lat="46.252040000" lon="7.474370000"><ele></ele><time>2013-8-7T23:49:28Z</time></trkpt>
<trkpt lat="46.252050000" lon="7.474400000"><ele></ele><time>2013-8-7T23:49:31Z</time></trkpt>
<trkpt lat="46.252060000" lon="7.474430000"><ele></ele><time>2013-8-7T23:49:34Z</time></trkpt>
<trkpt lat="46.252070000" lon="7.474460000"><ele></ele><time>2013-8-7T23:49:37Z</time></trkpt>
<trkpt lat="46.252090000" lon="7.474520000"><ele></ele><time>2013-8-7T23:49:40Z</time></trkpt>
<trkpt lat="46.252110000" lon="7.474590000"><ele></ele><time>2013-8-7T23:49:43Z</time></trkpt>
<trkpt lat="46.252120000" lon="7.474620000"><ele></ele><time>2013-8-7T23:49:46Z</time></trkpt>
<trkpt lat="46.252120000" lon="7.474650000"><ele></ele><time>2013-8-7T23:49:49Z</time></trkpt>
<trkpt lat="46.252130000" lon="7.474690000"><ele></ele><time>2013-8-7T23:49:52Z</time></trkpt>
<trkpt lat="46.252140000" lon="7.474720000"><ele></ele><time>2013-8-7T23:49:55Z</time></trkpt>
<trkpt lat="46.252160000" lon="7.474790000"><ele></ele><time>2013-8-7T23:49:58Z</time></trkpt>
<trkpt lat="46.252190000" lon="7.474940000"><ele></ele><time>2013-8-7T23:50:1Z</time></trkpt>
<trkpt lat="46.252190000" lon="7.474970000"><ele></ele><time>2013-8-7T23:50:4Z</time></trkpt>
<trkpt lat="46.252200000" lon="7.475000000"><ele></ele><time>2013-8-7T23:50:7Z</time></trkpt>
<trkpt lat="46.252200000" lon="7.475040000"><ele></ele><time>2013-8-7T23:50:10Z</time></trkpt>
<trkpt lat="46.252270000" lon="7.475250000"><ele></ele><time>2013-8-7T23:50:13Z</time></trkpt>
<trkpt lat="46.252270000" lon="7.475280000"><ele></ele><time>2013-8-7T23:50:16Z</time></trkpt>
<trkpt lat="46.252280000" lon="7.475310000"><ele></ele><time>2013-8-7T23:50:19Z</time></trkpt>
<trkpt lat="46.252290000" lon="7.475330000"><ele></ele><time>2013-8-7T23:50:22Z</time></trkpt>
<trkpt lat="46.252300000" lon="7.475360000"><ele></ele><time>2013-8-7T23:50:25Z</time></trkpt>
<trkpt lat="46.252340000" lon="7.475490000"><ele></ele><time>2013-8-7T23:50:28Z</time></trkpt>
<trkpt lat="46.252340000" lon="7.475530000"><ele></ele><time>2013-8-7T23:50:31Z</time></trkpt>
<trkpt lat="46.252350000" lon="7.475560000"><ele></ele><time>2013-8-7T23:50:34Z</time></trkpt>
<trkpt lat="46.252350000" lon="7.475590000"><ele></ele><time>2013-8-7T23:50:37Z</time></trkpt>
<trkpt lat="46.252350000" lon="7.475630000"><ele></ele><time>2013-8-7T23:50:40Z</time></trkpt>
<trkpt lat="46.252350000" lon="7.475660000"><ele></ele><time>2013-8-7T23:50:43Z</time></trkpt>
<trkpt lat="46.252350000" lon="7.475730000"><ele></ele><time>2013-8-7T23:50:46Z</time></trkpt>
<trkpt lat="46.252340000" lon="7.475790000"><ele></ele><time>2013-8-7T23:50:49Z</time></trkpt>
<trkpt lat="46.252330000" lon="7.475820000"><ele></ele><time>2013-8-7T23:50:52Z</time></trkpt>
<trkpt lat="46.252330000" lon="7.475860000"><ele></ele><time>2013-8-7T23:50:55Z</time></trkpt>
<trkpt lat="46.252320000" lon="7.475890000"><ele></ele><time>2013-8-7T23:50:58Z</time></trkpt>
<trkpt lat="46.252310000" lon="7.475920000"><ele></ele><time>2013-8-7T23:51:1Z</time></trkpt>
<trkpt lat="46.252260000" lon="7.476070000"><ele></ele><time>2013-8-7T23:51:4Z</time></trkpt>
<trkpt lat="46.252250000" lon="7.476100000"><ele></ele><time>2013-8-7T23:51:7Z</time></trkpt>
<trkpt lat="46.252240000" lon="7.476130000"><ele></ele><time>2013-8-7T23:51:10Z</time></trkpt>
<trkpt lat="46.252230000" lon="7.476160000"><ele></ele><time>2013-8-7T23:51:13Z</time></trkpt>
<trkpt lat="46.252220000" lon="7.476190000"><ele></ele><time>2013-8-7T23:51:16Z</time></trkpt>
<trkpt lat="46.252170000" lon="7.476390000"><ele></ele><time>2013-8-7T23:51:19Z</time></trkpt>
<trkpt lat="46.252170000" lon="7.476420000"><ele></ele><time>2013-8-7T23:51:22Z</time></trkpt>
<trkpt lat="46.252160000" lon="7.476460000"><ele></ele><time>2013-8-7T23:51:25Z</time></trkpt>
<trkpt lat="46.252160000" lon="7.476490000"><ele></ele><time>2013-8-7T23:51:28Z</time></trkpt>
<trkpt lat="46.252160000" lon="7.476520000"><ele></ele><time>2013-8-7T23:51:31Z</time></trkpt>
<trkpt lat="46.252170000" lon="7.476630000"><ele></ele><time>2013-8-7T23:51:34Z</time></trkpt>
<trkpt lat="46.252190000" lon="7.476690000"><ele></ele><time>2013-8-7T23:51:37Z</time></trkpt>
<trkpt lat="46.252200000" lon="7.476720000"><ele></ele><time>2013-8-7T23:51:40Z</time></trkpt>
<trkpt lat="46.252210000" lon="7.476750000"><ele></ele><time>2013-8-7T23:51:43Z</time></trkpt>
<trkpt lat="46.252220000" lon="7.476780000"><ele></ele><time>2013-8-7T23:51:46Z</time></trkpt>
<trkpt lat="46.252240000" lon="7.476800000"><ele></ele><time>2013-8-7T23:51:49Z</time></trkpt>
<trkpt lat="46.252360000" lon="7.476930000"><ele></ele><time>2013-8-7T23:51:52Z</time></trkpt>
<trkpt lat="46.252420000" lon="7.476980000"><ele></ele><time>2013-8-7T23:51:55Z</time></trkpt>
<trkpt lat="46.252440000" lon="7.477000000"><ele></ele><time>2013-8-7T23:51:58Z</time></trkpt>
<trkpt lat="46.252460000" lon="7.477020000"><ele></ele><time>2013-8-7T23:52:1Z</time></trkpt>
<trkpt lat="46.252480000" lon="7.477030000"><ele></ele><time>2013-8-7T23:52:4Z</time></trkpt>
<trkpt lat="46.252510000" lon="7.477050000"><ele></ele><time>2013-8-7T23:52:7Z</time></trkpt>
<trkpt lat="46.252570000" lon="7.477100000"><ele></ele><time>2013-8-7T23:52:10Z</time></trkpt>
<trkpt lat="46.252590000" lon="7.477120000"><ele></ele><time>2013-8-7T23:52:13Z</time></trkpt>
<trkpt lat="46.252610000" lon="7.477150000"><ele></ele><time>2013-8-7T23:52:16Z</time></trkpt>
<trkpt lat="46.252630000" lon="7.477170000"><ele></ele><time>2013-8-7T23:52:19Z</time></trkpt>
<trkpt lat="46.252640000" lon="7.477200000"><ele></ele><time>2013-8-7T23:52:22Z</time></trkpt>
<trkpt lat="46.252660000" lon="7.477220000"><ele></ele><time>2013-8-7T23:52:25Z</time></trkpt>
<trkpt lat="46.252720000" lon="7.477330000"><ele></ele><time>2013-8-7T23:52:28Z</time></trkpt>
<trkpt lat="46.252730000" lon="7.477360000"><ele></ele><time>2013-8-7T23:52:31Z</time></trkpt>
<trkpt lat="46.252740000" lon="7.477390000"><ele></ele><time>2013-8-7T23:52:34Z</time></trkpt>
<trkpt lat="46.252750000" lon="7.477420000"><ele></ele><time>2013-8-7T23:52:37Z</time></trkpt>
<trkpt lat="46.252760000" lon="7.477450000"><ele></ele><time>2013-8-7T23:52:40Z</time></trkpt>
<trkpt lat="46.252830000" lon="7.477630000"><ele></ele><time>2013-8-7T23:52:43Z</time></trkpt>
<trkpt lat="46.252840000" lon="7.477660000"><ele></ele><time>2013-8-7T23:52:46Z</time></trkpt>
<trkpt lat="46.252850000" lon="7.477690000"><ele></ele><time>2013-8-7T23:52:49Z</time></trkpt>
<trkpt lat="46.252860000" lon="7.477720000"><ele></ele><time>2013-8-7T23:52:52Z</time></trkpt>
<trkpt lat="46.252870000" lon="7.477760000"><ele></ele><time>2013-8-7T23:52:55Z</time></trkpt>
<trkpt lat="46.252910000" lon="7.477950000"><ele></ele><time>2013-8-7T23:52:58Z</time></trkpt>
<trkpt lat="46.252920000" lon="7.477990000"><ele></ele><time>2013-8-7T23:53:1Z</time></trkpt>
<trkpt lat="46.252930000" lon="7.478020000"><ele></ele><time>2013-8-7T23:53:4Z</time></trkpt>
<trkpt lat="46.252930000" lon="7.478050000"><ele></ele><time>2013-8-7T23:53:7Z</time></trkpt>
<trkpt lat="46.252940000" lon="7.478080000"><ele></ele><time>2013-8-7T23:53:10Z</time></trkpt>
<trkpt lat="46.252940000" lon="7.478250000"><ele></ele><time>2013-8-7T23:53:13Z</time></trkpt>
<trkpt lat="46.252940000" lon="7.478280000"><ele></ele><time>2013-8-7T23:53:16Z</time></trkpt>
<trkpt lat="46.252940000" lon="7.478320000"><ele></ele><time>2013-8-7T23:53:19Z</time></trkpt>
<trkpt lat="46.252940000" lon="7.478350000"><ele></ele><time>2013-8-7T23:53:22Z</time></trkpt>
<trkpt lat="46.252930000" lon="7.478390000"><ele></ele><time>2013-8-7T23:53:25Z</time></trkpt>
<trkpt lat="46.252910000" lon="7.478520000"><ele></ele><time>2013-8-7T23:53:28Z</time></trkpt>
<trkpt lat="46.252900000" lon="7.478580000"><ele></ele><time>2013-8-7T23:53:31Z</time></trkpt>
<trkpt lat="46.252890000" lon="7.478610000"><ele></ele><time>2013-8-7T23:53:34Z</time></trkpt>
<trkpt lat="46.252880000" lon="7.478640000"><ele></ele><time>2013-8-7T23:53:37Z</time></trkpt>
<trkpt lat="46.252880000" lon="7.478670000"><ele></ele><time>2013-8-7T23:53:40Z</time></trkpt>
<trkpt lat="46.252840000" lon="7.478760000"><ele></ele><time>2013-8-7T23:53:43Z</time></trkpt>
<trkpt lat="46.252830000" lon="7.478780000"><ele></ele><time>2013-8-7T23:53:46Z</time></trkpt>
<trkpt lat="46.252820000" lon="7.478810000"><ele></ele><time>2013-8-7T23:53:49Z</time></trkpt>
<trkpt lat="46.252810000" lon="7.478840000"><ele></ele><time>2013-8-7T23:53:52Z</time></trkpt>
<trkpt lat="46.252800000" lon="7.478870000"><ele></ele><time>2013-8-7T23:53:55Z</time></trkpt>
<trkpt lat="46.252780000" lon="7.478890000"><ele></ele><time>2013-8-7T23:53:58Z</time></trkpt>
<trkpt lat="46.252750000" lon="7.478940000"><ele></ele><time>2013-8-7T23:54:1Z</time></trkpt>
<trkpt lat="46.252710000" lon="7.479030000"><ele></ele><time>2013-8-7T23:54:4Z</time></trkpt>
<trkpt lat="46.252700000" lon="7.479060000"><ele></ele><time>2013-8-7T23:54:7Z</time></trkpt>
<trkpt lat="46.252700000" lon="7.479100000"><ele></ele><time>2013-8-7T23:54:10Z</time></trkpt>
<trkpt lat="46.252700000" lon="7.479140000"><ele></ele><time>2013-8-7T23:54:13Z</time></trkpt>
<trkpt lat="46.252700000" lon="7.479170000"><ele></ele><time>2013-8-7T23:54:16Z</time></trkpt>
<trkpt lat="46.252710000" lon="7.479300000"><ele></ele><time>2013-8-7T23:54:19Z</time></trkpt>
<trkpt lat="46.252720000" lon="7.479410000"><ele></ele><time>2013-8-7T23:54:22Z</time></trkpt>
<trkpt lat="46.252720000" lon="7.479430000"><ele></ele><time>2013-8-7T23:54:25Z</time></trkpt>
<trkpt lat="46.252730000" lon="7.479470000"><ele></ele><time>2013-8-7T23:54:28Z</time></trkpt>
<trkpt lat="46.252730000" lon="7.479500000"><ele></ele><time>2013-8-7T23:54:31Z</time></trkpt>
<trkpt lat="46.252740000" lon="7.479540000"><ele></ele><time>2013-8-7T23:54:34Z</time></trkpt>
<trkpt lat="46.252750000" lon="7.479730000"><ele></ele><time>2013-8-7T23:54:37Z</time></trkpt>
<trkpt lat="46.252750000" lon="7.479760000"><ele></ele><time>2013-8-7T23:54:40Z</time></trkpt>
<trkpt lat="46.252750000" lon="7.479790000"><ele></ele><time>2013-8-7T23:54:43Z</time></trkpt>
<trkpt lat="46.252750000" lon="7.479820000"><ele></ele><time>2013-8-7T23:54:46Z</time></trkpt>
<trkpt lat="46.252760000" lon="7.479860000"><ele></ele><time>2013-8-7T23:54:49Z</time></trkpt>
<trkpt lat="46.252770000" lon="7.480020000"><ele></ele><time>2013-8-7T23:54:52Z</time></trkpt>
<trkpt lat="46.252770000" lon="7.480050000"><ele></ele><time>2013-8-7T23:54:55Z</time></trkpt>
<trkpt lat="46.252770000" lon="7.480080000"><ele></ele><time>2013-8-7T23:54:58Z</time></trkpt>
<trkpt lat="46.252780000" lon="7.480120000"><ele></ele><time>2013-8-7T23:55:1Z</time></trkpt>
<trkpt lat="46.252780000" lon="7.480150000"><ele></ele><time>2013-8-7T23:55:4Z</time></trkpt>
<trkpt lat="46.252780000" lon="7.480190000"><ele></ele><time>2013-8-7T23:55:7Z</time></trkpt>
<trkpt lat="46.252790000" lon="7.480280000"><ele></ele><time>2013-8-7T23:55:10Z</time></trkpt>
<trkpt lat="46.252800000" lon="7.480310000"><ele></ele><time>2013-8-7T23:55:13Z</time></trkpt>
<trkpt lat="46.252800000" lon="7.480350000"><ele></ele><time>2013-8-7T23:55:16Z</time></trkpt>
<trkpt lat="46.252800000" lon="7.480380000"><ele></ele><time>2013-8-7T23:55:19Z</time></trkpt>
<trkpt lat="46.252800000" lon="7.480410000"><ele></ele><time>2013-8-7T23:55:22Z</time></trkpt>
<trkpt lat="46.252800000" lon="7.480450000"><ele></ele><time>2013-8-7T23:55:25Z</time></trkpt>
<trkpt lat="46.252800000" lon="7.480520000"><ele></ele><time>2013-8-7T23:55:28Z</time></trkpt>
<trkpt lat="46.252780000" lon="7.480650000"><ele></ele><time>2013-8-7T23:55:31Z</time></trkpt>
<trkpt lat="46.252780000" lon="7.480680000"><ele></ele><time>2013-8-7T23:55:34Z</time></trkpt>
<trkpt lat="46.252780000" lon="7.480710000"><ele></ele><time>2013-8-7T23:55:37Z</time></trkpt>
<trkpt lat="46.252770000" lon="7.480750000"><ele></ele><time>2013-8-7T23:55:40Z</time></trkpt>
<trkpt lat="46.252770000" lon="7.480780000"><ele></ele><time>2013-8-7T23:55:43Z</time></trkpt>
<trkpt lat="46.252760000" lon="7.480940000"><ele></ele><time>2013-8-7T23:55:46Z</time></trkpt>
<trkpt lat="46.252760000" lon="7.480980000"><ele></ele><time>2013-8-7T23:55:49Z</time></trkpt>
<trkpt lat="46.252760000" lon="7.481010000"><ele></ele><time>2013-8-7T23:55:52Z</time></trkpt>
<trkpt lat="46.252760000" lon="7.481050000"><ele></ele><time>2013-8-7T23:55:55Z</time></trkpt>
<trkpt lat="46.252760000" lon="7.481080000"><ele></ele><time>2013-8-7T23:55:58Z</time></trkpt>
<trkpt lat="46.252750000" lon="7.481180000"><ele></ele><time>2013-8-7T23:56:1Z</time></trkpt>
<trkpt lat="46.252760000" lon="7.481280000"><ele></ele><time>2013-8-7T23:56:4Z</time></trkpt>
<trkpt lat="46.252760000" lon="7.481320000"><ele></ele><time>2013-8-7T23:56:7Z</time></trkpt>
<trkpt lat="46.252760000" lon="7.481350000"><ele></ele><time>2013-8-7T23:56:10Z</time></trkpt>
<trkpt lat="46.252760000" lon="7.481380000"><ele></ele><time>2013-8-7T23:56:13Z</time></trkpt>
<trkpt lat="46.252770000" lon="7.481420000"><ele></ele><time>2013-8-7T23:56:16Z</time></trkpt>
<trkpt lat="46.252780000" lon="7.481590000"><ele></ele><time>2013-8-7T23:56:19Z</time></trkpt>
<trkpt lat="46.252790000" lon="7.481620000"><ele></ele><time>2013-8-7T23:56:22Z</time></trkpt>
<trkpt lat="46.252790000" lon="7.481650000"><ele></ele><time>2013-8-7T23:56:25Z</time></trkpt>
<trkpt lat="46.252800000" lon="7.481690000"><ele></ele><time>2013-8-7T23:56:28Z</time></trkpt>
<trkpt lat="46.252800000" lon="7.481720000"><ele></ele><time>2013-8-7T23:56:31Z</time></trkpt>
<trkpt lat="46.252830000" lon="7.481890000"><ele></ele><time>2013-8-7T23:56:34Z</time></trkpt>
<trkpt lat="46.252840000" lon="7.481920000"><ele></ele><time>2013-8-7T23:56:37Z</time></trkpt>
<trkpt lat="46.252850000" lon="7.481950000"><ele></ele><time>2013-8-7T23:56:40Z</time></trkpt>
<trkpt lat="46.252850000" lon="7.481980000"><ele></ele><time>2013-8-7T23:56:43Z</time></trkpt>
<trkpt lat="46.252860000" lon="7.482010000"><ele></ele><time>2013-8-7T23:56:46Z</time></trkpt>
<trkpt lat="46.252890000" lon="7.482140000"><ele></ele><time>2013-8-7T23:56:49Z</time></trkpt>
<trkpt lat="46.252900000" lon="7.482170000"><ele></ele><time>2013-8-7T23:56:52Z</time></trkpt>
<trkpt lat="46.252900000" lon="7.482200000"><ele></ele><time>2013-8-7T23:56:55Z</time></trkpt>
<trkpt lat="46.252910000" lon="7.482240000"><ele></ele><time>2013-8-7T23:56:58Z</time></trkpt>
<trkpt lat="46.252910000" lon="7.482270000"><ele></ele><time>2013-8-7T23:57:1Z</time></trkpt>
<trkpt lat="46.252920000" lon="7.482310000"><ele></ele><time>2013-8-7T23:57:4Z</time></trkpt>
<trkpt lat="46.252920000" lon="7.482450000"><ele></ele><time>2013-8-7T23:57:7Z</time></trkpt>
<trkpt lat="46.252910000" lon="7.482480000"><ele></ele><time>2013-8-7T23:57:10Z</time></trkpt>
<trkpt lat="46.252910000" lon="7.482520000"><ele></ele><time>2013-8-7T23:57:13Z</time></trkpt>
<trkpt lat="46.252900000" lon="7.482550000"><ele></ele><time>2013-8-7T23:57:16Z</time></trkpt>
<trkpt lat="46.252890000" lon="7.482580000"><ele></ele><time>2013-8-7T23:57:19Z</time></trkpt>
<trkpt lat="46.252850000" lon="7.482700000"><ele></ele><time>2013-8-7T23:57:22Z</time></trkpt>
<trkpt lat="46.252840000" lon="7.482730000"><ele></ele><time>2013-8-7T23:57:25Z</time></trkpt>
<trkpt lat="46.252830000" lon="7.482760000"><ele></ele><time>2013-8-7T23:57:28Z</time></trkpt>
<trkpt lat="46.252820000" lon="7.482780000"><ele></ele><time>2013-8-7T23:57:31Z</time></trkpt>
<trkpt lat="46.252800000" lon="7.482820000"><ele></ele><time>2013-8-7T23:57:34Z</time></trkpt>
<trkpt lat="46.252790000" lon="7.482840000"><ele></ele><time>2013-8-7T23:57:37Z</time></trkpt>
<trkpt lat="46.252770000" lon="7.482900000"><ele></ele><time>2013-8-7T23:57:40Z</time></trkpt>
<trkpt lat="46.252730000" lon="7.482990000"><ele></ele><time>2013-8-7T23:57:43Z</time></trkpt>
<trkpt lat="46.252700000" lon="7.483010000"><ele></ele><time>2013-8-7T23:57:46Z</time></trkpt>
<trkpt lat="46.252690000" lon="7.483040000"><ele></ele><time>2013-8-7T23:57:49Z</time></trkpt>
<trkpt lat="46.252680000" lon="7.483070000"><ele></ele><time>2013-8-7T23:57:52Z</time></trkpt>
<trkpt lat="46.252670000" lon="7.483110000"><ele></ele><time>2013-8-7T23:57:55Z</time></trkpt>
<trkpt lat="46.252690000" lon="7.483290000"><ele></ele><time>2013-8-7T23:57:58Z</time></trkpt>
<trkpt lat="46.252700000" lon="7.483350000"><ele></ele><time>2013-8-7T23:58:1Z</time></trkpt>
<trkpt lat="46.252710000" lon="7.483390000"><ele></ele><time>2013-8-7T23:58:4Z</time></trkpt>
<trkpt lat="46.252730000" lon="7.483420000"><ele></ele><time>2013-8-7T23:58:7Z</time></trkpt>
<trkpt lat="46.252740000" lon="7.483450000"><ele></ele><time>2013-8-7T23:58:10Z</time></trkpt>
<trkpt lat="46.252750000" lon="7.483480000"><ele></ele><time>2013-8-7T23:58:13Z</time></trkpt>
<trkpt lat="46.252760000" lon="7.483520000"><ele></ele><time>2013-8-7T23:58:16Z</time></trkpt>
<trkpt lat="46.252800000" lon="7.483610000"><ele></ele><time>2013-8-7T23:58:19Z</time></trkpt>
<trkpt lat="46.252810000" lon="7.483650000"><ele></ele><time>2013-8-7T23:58:22Z</time></trkpt>
<trkpt lat="46.252820000" lon="7.483690000"><ele></ele><time>2013-8-7T23:58:25Z</time></trkpt>
<trkpt lat="46.252820000" lon="7.483720000"><ele></ele><time>2013-8-7T23:58:28Z</time></trkpt>
<trkpt lat="46.252830000" lon="7.483750000"><ele></ele><time>2013-8-7T23:58:31Z</time></trkpt>
<trkpt lat="46.252820000" lon="7.483880000"><ele></ele><time>2013-8-7T23:58:34Z</time></trkpt>
<trkpt lat="46.252820000" lon="7.483910000"><ele></ele><time>2013-8-7T23:58:37Z</time></trkpt>
<trkpt lat="46.252810000" lon="7.483940000"><ele></ele><time>2013-8-7T23:58:40Z</time></trkpt>
<trkpt lat="46.252810000" lon="7.483970000"><ele></ele><time>2013-8-7T23:58:43Z</time></trkpt>
<trkpt lat="46.252810000" lon="7.484000000"><ele></ele><time>2013-8-7T23:58:46Z</time></trkpt>
<trkpt lat="46.252800000" lon="7.484130000"><ele></ele><time>2013-8-7T23:58:49Z</time></trkpt>
<trkpt lat="46.252800000" lon="7.484160000"><ele></ele><time>2013-8-7T23:58:52Z</time></trkpt>
<trkpt lat="46.252800000" lon="7.484190000"><ele></ele><time>2013-8-7T23:58:55Z</time></trkpt>
<trkpt lat="46.252800000" lon="7.484220000"><ele></ele><time>2013-8-7T23:58:58Z</time></trkpt>
<trkpt lat="46.252800000" lon="7.484260000"><ele></ele><time>2013-8-7T23:59:1Z</time></trkpt>
<trkpt lat="46.252790000" lon="7.484410000"><ele></ele><time>2013-8-7T23:59:4Z</time></trkpt>
<trkpt lat="46.252780000" lon="7.484440000"><ele></ele><time>2013-8-7T23:59:7Z</time></trkpt>
<trkpt lat="46.252770000" lon="7.484470000"><ele></ele><time>2013-8-7T23:59:10Z</time></trkpt>
<trkpt lat="46.252760000" lon="7.484500000"><ele></ele><time>2013-8-7T23:59:13Z</time></trkpt>
<trkpt lat="46.252750000" lon="7.484520000"><ele></ele><time>2013-8-7T23:59:16Z</time></trkpt>
<trkpt lat="46.252710000" lon="7.484600000"><ele></ele><time>2013-8-7T23:59:19Z</time></trkpt>
<trkpt lat="46.252680000" lon="7.484640000"><ele></ele><time>2013-8-7T23:59:22Z</time></trkpt>
<trkpt lat="46.252670000" lon="7.484670000"><ele></ele><time>2013-8-7T23:59:25Z</time></trkpt>
<trkpt lat="46.252650000" lon="7.484700000"><ele></ele><time>2013-8-7T23:59:28Z</time></trkpt>
<trkpt lat="46.252640000" lon="7.484730000"><ele></ele><time>2013-8-7T23:59:31Z</time></trkpt>
<trkpt lat="46.252620000" lon="7.484760000"><ele></ele><time>2013-8-7T23:59:34Z</time></trkpt>
<trkpt lat="46.252610000" lon="7.484790000"><ele></ele><time>2013-8-7T23:59:37Z</time></trkpt>
<trkpt lat="46.252590000" lon="7.484890000"><ele></ele><time>2013-8-7T23:59:40Z</time></trkpt>
<trkpt lat="46.252580000" lon="7.484920000"><ele></ele><time>2013-8-7T23:59:43Z</time></trkpt>
<trkpt lat="46.252580000" lon="7.484960000"><ele></ele><time>2013-8-7T23:59:46Z</time></trkpt>
<trkpt lat="46.252580000" lon="7.484990000"><ele></ele><time>2013-8-7T23:59:49Z</time></trkpt>
<trkpt lat="46.252590000" lon="7.485020000"><ele></ele><time>2013-8-7T23:59:52Z</time></trkpt>
<trkpt lat="46.252630000" lon="7.485240000"><ele></ele><time>2013-8-7T23:59:55Z</time></trkpt>
<trkpt lat="46.252640000" lon="7.485270000"><ele></ele><time>2013-8-7T23:59:58Z</time></trkpt>
<trkpt lat="46.252660000" lon="7.485300000"><ele></ele><time>2013-8-8T0:0:1Z</time></trkpt>
<trkpt lat="46.252670000" lon="7.485330000"><ele></ele><time>2013-8-8T0:0:4Z</time></trkpt>
<trkpt lat="46.252680000" lon="7.485360000"><ele></ele><time>2013-8-8T0:0:7Z</time></trkpt>
<trkpt lat="46.252690000" lon="7.485390000"><ele></ele><time>2013-8-8T0:0:10Z</time></trkpt>
<trkpt lat="46.252700000" lon="7.485460000"><ele></ele><time>2013-8-8T0:0:13Z</time></trkpt>
<trkpt lat="46.252720000" lon="7.485550000"><ele></ele><time>2013-8-8T0:0:16Z</time></trkpt>
<trkpt lat="46.252720000" lon="7.485590000"><ele></ele><time>2013-8-8T0:0:19Z</time></trkpt>
<trkpt lat="46.252720000" lon="7.485620000"><ele></ele><time>2013-8-8T0:0:22Z</time></trkpt>
<trkpt lat="46.252710000" lon="7.485650000"><ele></ele><time>2013-8-8T0:0:25Z</time></trkpt>
<trkpt lat="46.252710000" lon="7.485690000"><ele></ele><time>2013-8-8T0:0:28Z</time></trkpt>
<trkpt lat="46.252700000" lon="7.485860000"><ele></ele><time>2013-8-8T0:0:31Z</time></trkpt>
<trkpt lat="46.252710000" lon="7.485890000"><ele></ele><time>2013-8-8T0:0:34Z</time></trkpt>
<trkpt lat="46.252710000" lon="7.485920000"><ele></ele><time>2013-8-8T0:0:37Z</time></trkpt>
<trkpt lat="46.252720000" lon="7.485960000"><ele></ele><time>2013-8-8T0:0:40Z</time></trkpt>
<trkpt lat="46.252730000" lon="7.485990000"><ele></ele><time>2013-8-8T0:0:43Z</time></trkpt>
<trkpt lat="46.252750000" lon="7.486160000"><ele></ele><time>2013-8-8T0:0:46Z</time></trkpt>
<trkpt lat="46.252750000" lon="7.486190000"><ele></ele><time>2013-8-8T0:0:49Z</time></trkpt>
<trkpt lat="46.252750000" lon="7.486230000"><ele></ele><time>2013-8-8T0:0:52Z</time></trkpt>
<trkpt lat="46.252740000" lon="7.486260000"><ele></ele><time>2013-8-8T0:0:55Z</time></trkpt>
<trkpt lat="46.252740000" lon="7.486300000"><ele></ele><time>2013-8-8T0:0:58Z</time></trkpt>
<trkpt lat="46.252750000" lon="7.486470000"><ele></ele><time>2013-8-8T0:1:1Z</time></trkpt>
<trkpt lat="46.252750000" lon="7.486500000"><ele></ele><time>2013-8-8T0:1:4Z</time></trkpt>
<trkpt lat="46.252760000" lon="7.486530000"><ele></ele><time>2013-8-8T0:1:7Z</time></trkpt>
<trkpt lat="46.252760000" lon="7.486560000"><ele></ele><time>2013-8-8T0:1:10Z</time></trkpt>
<trkpt lat="46.252770000" lon="7.486590000"><ele></ele><time>2013-8-8T0:1:13Z</time></trkpt>
<trkpt lat="46.252800000" lon="7.486680000"><ele></ele><time>2013-8-8T0:1:16Z</time></trkpt>
<trkpt lat="46.252830000" lon="7.486810000"><ele></ele><time>2013-8-8T0:1:19Z</time></trkpt>
<trkpt lat="46.252840000" lon="7.486840000"><ele></ele><time>2013-8-8T0:1:22Z</time></trkpt>
<trkpt lat="46.252840000" lon="7.486870000"><ele></ele><time>2013-8-8T0:1:25Z</time></trkpt>
<trkpt lat="46.252840000" lon="7.486890000"><ele></ele><time>2013-8-8T0:1:28Z</time></trkpt>
<trkpt lat="46.252840000" lon="7.486920000"><ele></ele><time>2013-8-8T0:1:31Z</time></trkpt>
<trkpt lat="46.252850000" lon="7.487070000"><ele></ele><time>2013-8-8T0:1:34Z</time></trkpt>
<trkpt lat="46.252860000" lon="7.487100000"><ele></ele><time>2013-8-8T0:1:37Z</time></trkpt>
<trkpt lat="46.252860000" lon="7.487120000"><ele></ele><time>2013-8-8T0:1:40Z</time></trkpt>
<trkpt lat="46.252880000" lon="7.487150000"><ele></ele><time>2013-8-8T0:1:43Z</time></trkpt>
<trkpt lat="46.252890000" lon="7.487180000"><ele></ele><time>2013-8-8T0:1:46Z</time></trkpt>
<trkpt lat="46.252940000" lon="7.487270000"><ele></ele><time>2013-8-8T0:1:49Z</time></trkpt>
<trkpt lat="46.253020000" lon="7.487420000"><ele></ele><time>2013-8-8T0:1:52Z</time></trkpt>
<trkpt lat="46.253030000" lon="7.487450000"><ele></ele><time>2013-8-8T0:1:55Z</time></trkpt>
<trkpt lat="46.253040000" lon="7.487470000"><ele></ele><time>2013-8-8T0:1:58Z</time></trkpt>
<trkpt lat="46.253050000" lon="7.487500000"><ele></ele><time>2013-8-8T0:2:1Z</time></trkpt>
<trkpt lat="46.253050000" lon="7.487520000"><ele></ele><time>2013-8-8T0:2:4Z</time></trkpt>
<trkpt lat="46.253090000" lon="7.487610000"><ele></ele><time>2013-8-8T0:2:7Z</time></trkpt>
<trkpt lat="46.253100000" lon="7.487670000"><ele></ele><time>2013-8-8T0:2:10Z</time></trkpt>
<trkpt lat="46.253100000" lon="7.487700000"><ele></ele><time>2013-8-8T0:2:13Z</time></trkpt>
<trkpt lat="46.253110000" lon="7.487740000"><ele></ele><time>2013-8-8T0:2:16Z</time></trkpt>
<trkpt lat="46.253130000" lon="7.487770000"><ele></ele><time>2013-8-8T0:2:19Z</time></trkpt>
<trkpt lat="46.253140000" lon="7.487790000"><ele></ele><time>2013-8-8T0:2:22Z</time></trkpt>
<trkpt lat="46.253260000" lon="7.487890000"><ele></ele><time>2013-8-8T0:2:25Z</time></trkpt>
<trkpt lat="46.253280000" lon="7.487900000"><ele></ele><time>2013-8-8T0:2:28Z</time></trkpt>
<trkpt lat="46.253300000" lon="7.487910000"><ele></ele><time>2013-8-8T0:2:31Z</time></trkpt>
<trkpt lat="46.253330000" lon="7.487920000"><ele></ele><time>2013-8-8T0:2:34Z</time></trkpt>
<trkpt lat="46.253360000" lon="7.487920000"><ele></ele><time>2013-8-8T0:2:37Z</time></trkpt>
<trkpt lat="46.253390000" lon="7.487930000"><ele></ele><time>2013-8-8T0:2:40Z</time></trkpt>
<trkpt lat="46.253410000" lon="7.487930000"><ele></ele><time>2013-8-8T0:2:43Z</time></trkpt>
<trkpt lat="46.253510000" lon="7.487970000"><ele></ele><time>2013-8-8T0:2:46Z</time></trkpt>
<trkpt lat="46.253530000" lon="7.487980000"><ele></ele><time>2013-8-8T0:2:49Z</time></trkpt>
<trkpt lat="46.253560000" lon="7.487990000"><ele></ele><time>2013-8-8T0:2:52Z</time></trkpt>
<trkpt lat="46.253590000" lon="7.488000000"><ele></ele><time>2013-8-8T0:2:55Z</time></trkpt>
<trkpt lat="46.253610000" lon="7.488000000"><ele></ele><time>2013-8-8T0:2:58Z</time></trkpt>
<trkpt lat="46.253730000" lon="7.487980000"><ele></ele><time>2013-8-8T0:3:1Z</time></trkpt>
<trkpt lat="46.253760000" lon="7.487970000"><ele></ele><time>2013-8-8T0:3:4Z</time></trkpt>
<trkpt lat="46.253790000" lon="7.487970000"><ele></ele><time>2013-8-8T0:3:7Z</time></trkpt>
<trkpt lat="46.253810000" lon="7.487970000"><ele></ele><time>2013-8-8T0:3:10Z</time></trkpt>
<trkpt lat="46.253840000" lon="7.487960000"><ele></ele><time>2013-8-8T0:3:13Z</time></trkpt>
<trkpt lat="46.253940000" lon="7.487980000"><ele></ele><time>2013-8-8T0:3:16Z</time></trkpt>
<trkpt lat="46.253960000" lon="7.488080000"><ele></ele><time>2013-8-8T0:3:19Z</time></trkpt>
<trkpt lat="46.253900000" lon="7.488120000"><ele></ele><time>2013-8-8T0:3:22Z</time></trkpt>
<trkpt lat="46.253880000" lon="7.488130000"><ele></ele><time>2013-8-8T0:3:25Z</time></trkpt>
<trkpt lat="46.253850000" lon="7.488130000"><ele></ele><time>2013-8-8T0:3:28Z</time></trkpt>
<trkpt lat="46.253830000" lon="7.488120000"><ele></ele><time>2013-8-8T0:3:31Z</time></trkpt>
<trkpt lat="46.253800000" lon="7.488120000"><ele></ele><time>2013-8-8T0:3:34Z</time></trkpt>
<trkpt lat="46.253720000" lon="7.488110000"><ele></ele><time>2013-8-8T0:3:37Z</time></trkpt>
<trkpt lat="46.253670000" lon="7.488100000"><ele></ele><time>2013-8-8T0:3:40Z</time></trkpt>
<trkpt lat="46.253650000" lon="7.488100000"><ele></ele><time>2013-8-8T0:3:43Z</time></trkpt>
<trkpt lat="46.253620000" lon="7.488100000"><ele></ele><time>2013-8-8T0:3:46Z</time></trkpt>
<trkpt lat="46.253590000" lon="7.488090000"><ele></ele><time>2013-8-8T0:3:49Z</time></trkpt>
<trkpt lat="46.253540000" lon="7.488080000"><ele></ele><time>2013-8-8T0:3:52Z</time></trkpt>
<trkpt lat="46.253450000" lon="7.488080000"><ele></ele><time>2013-8-8T0:3:55Z</time></trkpt>
<trkpt lat="46.253420000" lon="7.488080000"><ele></ele><time>2013-8-8T0:3:58Z</time></trkpt>
<trkpt lat="46.253400000" lon="7.488080000"><ele></ele><time>2013-8-8T0:4:1Z</time></trkpt>
<trkpt lat="46.253370000" lon="7.488080000"><ele></ele><time>2013-8-8T0:4:4Z</time></trkpt>
<trkpt lat="46.253340000" lon="7.488090000"><ele></ele><time>2013-8-8T0:4:7Z</time></trkpt>
<trkpt lat="46.253190000" lon="7.488120000"><ele></ele><time>2013-8-8T0:4:10Z</time></trkpt>
<trkpt lat="46.253110000" lon="7.488060000"><ele></ele><time>2013-8-8T0:4:13Z</time></trkpt>
<trkpt lat="46.253080000" lon="7.488040000"><ele></ele><time>2013-8-8T0:4:16Z</time></trkpt>
<trkpt lat="46.253070000" lon="7.488020000"><ele></ele><time>2013-8-8T0:4:19Z</time></trkpt>
<trkpt lat="46.253050000" lon="7.487990000"><ele></ele><time>2013-8-8T0:4:22Z</time></trkpt>
<trkpt lat="46.253040000" lon="7.487960000"><ele></ele><time>2013-8-8T0:4:25Z</time></trkpt>
<trkpt lat="46.253030000" lon="7.487930000"><ele></ele><time>2013-8-8T0:4:28Z</time></trkpt>
<trkpt lat="46.253010000" lon="7.487890000"><ele></ele><time>2013-8-8T0:4:31Z</time></trkpt>
<trkpt lat="46.253000000" lon="7.487850000"><ele></ele><time>2013-8-8T0:4:34Z</time></trkpt>
<trkpt lat="46.252980000" lon="7.487820000"><ele></ele><time>2013-8-8T0:4:37Z</time></trkpt>
<trkpt lat="46.252960000" lon="7.487790000"><ele></ele><time>2013-8-8T0:4:40Z</time></trkpt>
<trkpt lat="46.252870000" lon="7.487700000"><ele></ele><time>2013-8-8T0:4:43Z</time></trkpt>
<trkpt lat="46.252830000" lon="7.487660000"><ele></ele><time>2013-8-8T0:4:46Z</time></trkpt>
<trkpt lat="46.252810000" lon="7.487620000"><ele></ele><time>2013-8-8T0:4:49Z</time></trkpt>
<trkpt lat="46.252780000" lon="7.487600000"><ele></ele><time>2013-8-8T0:4:52Z</time></trkpt>
<trkpt lat="46.252760000" lon="7.487570000"><ele></ele><time>2013-8-8T0:4:55Z</time></trkpt>
<trkpt lat="46.252740000" lon="7.487540000"><ele></ele><time>2013-8-8T0:4:58Z</time></trkpt>
<trkpt lat="46.252660000" lon="7.487440000"><ele></ele><time>2013-8-8T0:5:1Z</time></trkpt>
<trkpt lat="46.252640000" lon="7.487410000"><ele></ele><time>2013-8-8T0:5:4Z</time></trkpt>
<trkpt lat="46.252620000" lon="7.487380000"><ele></ele><time>2013-8-8T0:5:7Z</time></trkpt>
<trkpt lat="46.252610000" lon="7.487340000"><ele></ele><time>2013-8-8T0:5:10Z</time></trkpt>
<trkpt lat="46.252590000" lon="7.487310000"><ele></ele><time>2013-8-8T0:5:13Z</time></trkpt>
<trkpt lat="46.252570000" lon="7.487240000"><ele></ele><time>2013-8-8T0:5:16Z</time></trkpt>
<trkpt lat="46.252550000" lon="7.487100000"><ele></ele><time>2013-8-8T0:5:19Z</time></trkpt>
<trkpt lat="46.252550000" lon="7.487060000"><ele></ele><time>2013-8-8T0:5:22Z</time></trkpt>
<trkpt lat="46.252540000" lon="7.487030000"><ele></ele><time>2013-8-8T0:5:25Z</time></trkpt>
<trkpt lat="46.252540000" lon="7.486990000"><ele></ele><time>2013-8-8T0:5:28Z</time></trkpt>
<trkpt lat="46.252530000" lon="7.486960000"><ele></ele><time>2013-8-8T0:5:31Z</time></trkpt>
<trkpt lat="46.252460000" lon="7.486840000"><ele></ele><time>2013-8-8T0:5:34Z</time></trkpt>
<trkpt lat="46.252450000" lon="7.486820000"><ele></ele><time>2013-8-8T0:5:37Z</time></trkpt>
<trkpt lat="46.252430000" lon="7.486790000"><ele></ele><time>2013-8-8T0:5:40Z</time></trkpt>
<trkpt lat="46.252410000" lon="7.486770000"><ele></ele><time>2013-8-8T0:5:43Z</time></trkpt>
<trkpt lat="46.252390000" lon="7.486740000"><ele></ele><time>2013-8-8T0:5:46Z</time></trkpt>
<trkpt lat="46.252370000" lon="7.486710000"><ele></ele><time>2013-8-8T0:5:49Z</time></trkpt>
<trkpt lat="46.252350000" lon="7.486690000"><ele></ele><time>2013-8-8T0:5:52Z</time></trkpt>
<trkpt lat="46.252240000" lon="7.486520000"><ele></ele><time>2013-8-8T0:5:55Z</time></trkpt>
<trkpt lat="46.252220000" lon="7.486500000"><ele></ele><time>2013-8-8T0:5:58Z</time></trkpt>
<trkpt lat="46.252210000" lon="7.486460000"><ele></ele><time>2013-8-8T0:6:1Z</time></trkpt>
<trkpt lat="46.252210000" lon="7.486430000"><ele></ele><time>2013-8-8T0:6:4Z</time></trkpt>
<trkpt lat="46.252180000" lon="7.486330000"><ele></ele><time>2013-8-8T0:6:7Z</time></trkpt>
<trkpt lat="46.252170000" lon="7.486300000"><ele></ele><time>2013-8-8T0:6:10Z</time></trkpt>
<trkpt lat="46.252170000" lon="7.486270000"><ele></ele><time>2013-8-8T0:6:13Z</time></trkpt>
<trkpt lat="46.252160000" lon="7.486230000"><ele></ele><time>2013-8-8T0:6:16Z</time></trkpt>
<trkpt lat="46.252150000" lon="7.486200000"><ele></ele><time>2013-8-8T0:6:19Z</time></trkpt>
<trkpt lat="46.252130000" lon="7.486070000"><ele></ele><time>2013-8-8T0:6:22Z</time></trkpt>
<trkpt lat="46.252140000" lon="7.485890000"><ele></ele><time>2013-8-8T0:6:25Z</time></trkpt>
<trkpt lat="46.252140000" lon="7.485850000"><ele></ele><time>2013-8-8T0:6:28Z</time></trkpt>
<trkpt lat="46.252140000" lon="7.485820000"><ele></ele><time>2013-8-8T0:6:31Z</time></trkpt>
<trkpt lat="46.252140000" lon="7.485790000"><ele></ele><time>2013-8-8T0:6:34Z</time></trkpt>
<trkpt lat="46.252140000" lon="7.485750000"><ele></ele><time>2013-8-8T0:6:37Z</time></trkpt>
<trkpt lat="46.252140000" lon="7.485580000"><ele></ele><time>2013-8-8T0:6:40Z</time></trkpt>
<trkpt lat="46.252120000" lon="7.485450000"><ele></ele><time>2013-8-8T0:6:43Z</time></trkpt>
<trkpt lat="46.252120000" lon="7.485410000"><ele></ele><time>2013-8-8T0:6:46Z</time></trkpt>
<trkpt lat="46.252100000" lon="7.485380000"><ele></ele><time>2013-8-8T0:6:49Z</time></trkpt>
<trkpt lat="46.252090000" lon="7.485360000"><ele></ele><time>2013-8-8T0:6:52Z</time></trkpt>
<trkpt lat="46.252070000" lon="7.485340000"><ele></ele><time>2013-8-8T0:6:55Z</time></trkpt>
<trkpt lat="46.252010000" lon="7.485290000"><ele></ele><time>2013-8-8T0:6:58Z</time></trkpt>
<trkpt lat="46.251970000" lon="7.485270000"><ele></ele><time>2013-8-8T0:7:1Z</time></trkpt>
<trkpt lat="46.251900000" lon="7.485230000"><ele></ele><time>2013-8-8T0:7:4Z</time></trkpt>
<trkpt lat="46.251880000" lon="7.485220000"><ele></ele><time>2013-8-8T0:7:7Z</time></trkpt>
<trkpt lat="46.251860000" lon="7.485200000"><ele></ele><time>2013-8-8T0:7:10Z</time></trkpt>
<trkpt lat="46.251830000" lon="7.485190000"><ele></ele><time>2013-8-8T0:7:13Z</time></trkpt>
<trkpt lat="46.251810000" lon="7.485180000"><ele></ele><time>2013-8-8T0:7:16Z</time></trkpt>
<trkpt lat="46.251720000" lon="7.485110000"><ele></ele><time>2013-8-8T0:7:19Z</time></trkpt>
<trkpt lat="46.251710000" lon="7.485090000"><ele></ele><time>2013-8-8T0:7:22Z</time></trkpt>
<trkpt lat="46.251690000" lon="7.485060000"><ele></ele><time>2013-8-8T0:7:25Z</time></trkpt>
<trkpt lat="46.251670000" lon="7.485030000"><ele></ele><time>2013-8-8T0:7:28Z</time></trkpt>
<trkpt lat="46.251670000" lon="7.484990000"><ele></ele><time>2013-8-8T0:7:31Z</time></trkpt>
<trkpt lat="46.251670000" lon="7.484920000"><ele></ele><time>2013-8-8T0:7:34Z</time></trkpt>
<trkpt lat="46.251670000" lon="7.484850000"><ele></ele><time>2013-8-8T0:7:37Z</time></trkpt>
<trkpt lat="46.251670000" lon="7.484820000"><ele></ele><time>2013-8-8T0:7:40Z</time></trkpt>
<trkpt lat="46.251680000" lon="7.484780000"><ele></ele><time>2013-8-8T0:7:43Z</time></trkpt>
<trkpt lat="46.251690000" lon="7.484750000"><ele></ele><time>2013-8-8T0:7:46Z</time></trkpt>
<trkpt lat="46.251700000" lon="7.484720000"><ele></ele><time>2013-8-8T0:7:49Z</time></trkpt>
<trkpt lat="46.251710000" lon="7.484680000"><ele></ele><time>2013-8-8T0:7:52Z</time></trkpt>
<trkpt lat="46.251760000" lon="7.484460000"><ele></ele><time>2013-8-8T0:7:55Z</time></trkpt>
<trkpt lat="46.251770000" lon="7.484420000"><ele></ele><time>2013-8-8T0:7:58Z</time></trkpt>
<trkpt lat="46.251800000" lon="7.484320000"><ele></ele><time>2013-8-8T0:8:1Z</time></trkpt>
<trkpt lat="46.251800000" lon="7.484290000"><ele></ele><time>2013-8-8T0:8:4Z</time></trkpt>
<trkpt lat="46.251820000" lon="7.484250000"><ele></ele><time>2013-8-8T0:8:7Z</time></trkpt>
<trkpt lat="46.251830000" lon="7.484220000"><ele></ele><time>2013-8-8T0:8:10Z</time></trkpt>
<trkpt lat="46.251840000" lon="7.484190000"><ele></ele><time>2013-8-8T0:8:13Z</time></trkpt>
<trkpt lat="46.251850000" lon="7.484160000"><ele></ele><time>2013-8-8T0:8:16Z</time></trkpt>
<trkpt lat="46.251880000" lon="7.484100000"><ele></ele><time>2013-8-8T0:8:19Z</time></trkpt>
<trkpt lat="46.251890000" lon="7.484080000"><ele></ele><time>2013-8-8T0:8:22Z</time></trkpt>
<trkpt lat="46.251900000" lon="7.484040000"><ele></ele><time>2013-8-8T0:8:25Z</time></trkpt>
<trkpt lat="46.251900000" lon="7.484010000"><ele></ele><time>2013-8-8T0:8:28Z</time></trkpt>
<trkpt lat="46.251910000" lon="7.483970000"><ele></ele><time>2013-8-8T0:8:31Z</time></trkpt>
<trkpt lat="46.251920000" lon="7.483940000"><ele></ele><time>2013-8-8T0:8:34Z</time></trkpt>
<trkpt lat="46.251920000" lon="7.483750000"><ele></ele><time>2013-8-8T0:8:37Z</time></trkpt>
<trkpt lat="46.251910000" lon="7.483710000"><ele></ele><time>2013-8-8T0:8:40Z</time></trkpt>
<trkpt lat="46.251910000" lon="7.483670000"><ele></ele><time>2013-8-8T0:8:43Z</time></trkpt>
<trkpt lat="46.251900000" lon="7.483640000"><ele></ele><time>2013-8-8T0:8:46Z</time></trkpt>
<trkpt lat="46.251900000" lon="7.483600000"><ele></ele><time>2013-8-8T0:8:49Z</time></trkpt>
<trkpt lat="46.251860000" lon="7.483450000"><ele></ele><time>2013-8-8T0:8:52Z</time></trkpt>
<trkpt lat="46.251860000" lon="7.483420000"><ele></ele><time>2013-8-8T0:8:55Z</time></trkpt>
<trkpt lat="46.251840000" lon="7.483350000"><ele></ele><time>2013-8-8T0:8:58Z</time></trkpt>
<trkpt lat="46.251830000" lon="7.483310000"><ele></ele><time>2013-8-8T0:9:1Z</time></trkpt>
<trkpt lat="46.251810000" lon="7.483170000"><ele></ele><time>2013-8-8T0:9:4Z</time></trkpt>
<trkpt lat="46.251770000" lon="7.482930000"><ele></ele><time>2013-8-8T0:9:7Z</time></trkpt>
<trkpt lat="46.251740000" lon="7.482840000"><ele></ele><time>2013-8-8T0:9:10Z</time></trkpt>
<trkpt lat="46.251730000" lon="7.482810000"><ele></ele><time>2013-8-8T0:9:13Z</time></trkpt>
<trkpt lat="46.251720000" lon="7.482770000"><ele></ele><time>2013-8-8T0:9:16Z</time></trkpt>
<trkpt lat="46.251720000" lon="7.482740000"><ele></ele><time>2013-8-8T0:9:19Z</time></trkpt>
<trkpt lat="46.251710000" lon="7.482700000"><ele></ele><time>2013-8-8T0:9:22Z</time></trkpt>
<trkpt lat="46.251680000" lon="7.482600000"><ele></ele><time>2013-8-8T0:9:25Z</time></trkpt>
<trkpt lat="46.251670000" lon="7.482570000"><ele></ele><time>2013-8-8T0:9:28Z</time></trkpt>
<trkpt lat="46.251660000" lon="7.482540000"><ele></ele><time>2013-8-8T0:9:31Z</time></trkpt>
<trkpt lat="46.251650000" lon="7.482510000"><ele></ele><time>2013-8-8T0:9:34Z</time></trkpt>
<trkpt lat="46.251640000" lon="7.482470000"><ele></ele><time>2013-8-8T0:9:37Z</time></trkpt>
<trkpt lat="46.251590000" lon="7.482260000"><ele></ele><time>2013-8-8T0:9:40Z</time></trkpt>
<trkpt lat="46.251580000" lon="7.482230000"><ele></ele><time>2013-8-8T0:9:43Z</time></trkpt>
<trkpt lat="46.251580000" lon="7.482190000"><ele></ele><time>2013-8-8T0:9:46Z</time></trkpt>
<trkpt lat="46.251570000" lon="7.482160000"><ele></ele><time>2013-8-8T0:9:49Z</time></trkpt>
<trkpt lat="46.251560000" lon="7.482130000"><ele></ele><time>2013-8-8T0:9:52Z</time></trkpt>
<trkpt lat="46.251540000" lon="7.482060000"><ele></ele><time>2013-8-8T0:9:55Z</time></trkpt>
<trkpt lat="46.251510000" lon="7.481870000"><ele></ele><time>2013-8-8T0:9:58Z</time></trkpt>
<trkpt lat="46.251500000" lon="7.481840000"><ele></ele><time>2013-8-8T0:10:1Z</time></trkpt>
<trkpt lat="46.251500000" lon="7.481800000"><ele></ele><time>2013-8-8T0:10:4Z</time></trkpt>
<trkpt lat="46.251490000" lon="7.481770000"><ele></ele><time>2013-8-8T0:10:7Z</time></trkpt>
<trkpt lat="46.251490000" lon="7.481730000"><ele></ele><time>2013-8-8T0:10:10Z</time></trkpt>
<trkpt lat="46.251460000" lon="7.481560000"><ele></ele><time>2013-8-8T0:10:13Z</time></trkpt>
<trkpt lat="46.251450000" lon="7.481520000"><ele></ele><time>2013-8-8T0:10:16Z</time></trkpt>
<trkpt lat="46.251450000" lon="7.481490000"><ele></ele><time>2013-8-8T0:10:19Z</time></trkpt>
<trkpt lat="46.251440000" lon="7.481460000"><ele></ele><time>2013-8-8T0:10:22Z</time></trkpt>
<trkpt lat="46.251430000" lon="7.481430000"><ele></ele><time>2013-8-8T0:10:25Z</time></trkpt>
<trkpt lat="46.251420000" lon="7.481390000"><ele></ele><time>2013-8-8T0:10:28Z</time></trkpt>
<trkpt lat="46.251410000" lon="7.481360000"><ele></ele><time>2013-8-8T0:10:31Z</time></trkpt>
<trkpt lat="46.251380000" lon="7.481200000"><ele></ele><time>2013-8-8T0:10:34Z</time></trkpt>
<trkpt lat="46.251370000" lon="7.481160000"><ele></ele><time>2013-8-8T0:10:37Z</time></trkpt>
<trkpt lat="46.251360000" lon="7.481130000"><ele></ele><time>2013-8-8T0:10:40Z</time></trkpt>
<trkpt lat="46.251350000" lon="7.481090000"><ele></ele><time>2013-8-8T0:10:43Z</time></trkpt>
<trkpt lat="46.251340000" lon="7.481060000"><ele></ele><time>2013-8-8T0:10:46Z</time></trkpt>
<trkpt lat="46.251320000" lon="7.480920000"><ele></ele><time>2013-8-8T0:10:49Z</time></trkpt>
<trkpt lat="46.251310000" lon="7.480880000"><ele></ele><time>2013-8-8T0:10:52Z</time></trkpt>
<trkpt lat="46.251310000" lon="7.480840000"><ele></ele><time>2013-8-8T0:10:55Z</time></trkpt>
<trkpt lat="46.251300000" lon="7.480810000"><ele></ele><time>2013-8-8T0:10:58Z</time></trkpt>
<trkpt lat="46.251300000" lon="7.480770000"><ele></ele><time>2013-8-8T0:11:1Z</time></trkpt>
<trkpt lat="46.251280000" lon="7.480630000"><ele></ele><time>2013-8-8T0:11:4Z</time></trkpt>
<trkpt lat="46.251270000" lon="7.480600000"><ele></ele><time>2013-8-8T0:11:7Z</time></trkpt>
<trkpt lat="46.251260000" lon="7.480570000"><ele></ele><time>2013-8-8T0:11:10Z</time></trkpt>
<trkpt lat="46.251260000" lon="7.480530000"><ele></ele><time>2013-8-8T0:11:13Z</time></trkpt>
<trkpt lat="46.251250000" lon="7.480500000"><ele></ele><time>2013-8-8T0:11:16Z</time></trkpt>
<trkpt lat="46.251240000" lon="7.480460000"><ele></ele><time>2013-8-8T0:11:19Z</time></trkpt>
<trkpt lat="46.251220000" lon="7.480360000"><ele></ele><time>2013-8-8T0:11:22Z</time></trkpt>
<trkpt lat="46.251170000" lon="7.480190000"><ele></ele><time>2013-8-8T0:11:25Z</time></trkpt>
<trkpt lat="46.251160000" lon="7.480150000"><ele></ele><time>2013-8-8T0:11:28Z</time></trkpt>
<trkpt lat="46.251150000" lon="7.480120000"><ele></ele><time>2013-8-8T0:11:31Z</time></trkpt>
<trkpt lat="46.251140000" lon="7.480090000"><ele></ele><time>2013-8-8T0:11:34Z</time></trkpt>
<trkpt lat="46.251120000" lon="7.480060000"><ele></ele><time>2013-8-8T0:11:37Z</time></trkpt>
<trkpt lat="46.250990000" lon="7.479930000"><ele></ele><time>2013-8-8T0:11:40Z</time></trkpt>
<trkpt lat="46.250960000" lon="7.479910000"><ele></ele><time>2013-8-8T0:11:43Z</time></trkpt>
<trkpt lat="46.250930000" lon="7.479890000"><ele></ele><time>2013-8-8T0:11:46Z</time></trkpt>
<trkpt lat="46.250910000" lon="7.479860000"><ele></ele><time>2013-8-8T0:11:49Z</time></trkpt>
<trkpt lat="46.250890000" lon="7.479840000"><ele></ele><time>2013-8-8T0:11:52Z</time></trkpt>
<trkpt lat="46.250870000" lon="7.479820000"><ele></ele><time>2013-8-8T0:11:55Z</time></trkpt>
<trkpt lat="46.250820000" lon="7.479780000"><ele></ele><time>2013-8-8T0:11:58Z</time></trkpt>
<trkpt lat="46.250680000" lon="7.479630000"><ele></ele><time>2013-8-8T0:12:1Z</time></trkpt>
<trkpt lat="46.250650000" lon="7.479610000"><ele></ele><time>2013-8-8T0:12:4Z</time></trkpt>
<trkpt lat="46.250630000" lon="7.479580000"><ele></ele><time>2013-8-8T0:12:7Z</time></trkpt>
<trkpt lat="46.250610000" lon="7.479550000"><ele></ele><time>2013-8-8T0:12:10Z</time></trkpt>
<trkpt lat="46.250600000" lon="7.479530000"><ele></ele><time>2013-8-8T0:12:13Z</time></trkpt>
<trkpt lat="46.250490000" lon="7.479360000"><ele></ele><time>2013-8-8T0:12:16Z</time></trkpt>
<trkpt lat="46.250480000" lon="7.479340000"><ele></ele><time>2013-8-8T0:12:19Z</time></trkpt>
<trkpt lat="46.250460000" lon="7.479310000"><ele></ele><time>2013-8-8T0:12:22Z</time></trkpt>
<trkpt lat="46.250440000" lon="7.479290000"><ele></ele><time>2013-8-8T0:12:25Z</time></trkpt>
<trkpt lat="46.250430000" lon="7.479260000"><ele></ele><time>2013-8-8T0:12:28Z</time></trkpt>
<trkpt lat="46.250350000" lon="7.479150000"><ele></ele><time>2013-8-8T0:12:31Z</time></trkpt>
<trkpt lat="46.250340000" lon="7.479120000"><ele></ele><time>2013-8-8T0:12:34Z</time></trkpt>
<trkpt lat="46.250310000" lon="7.479090000"><ele></ele><time>2013-8-8T0:12:37Z</time></trkpt>
<trkpt lat="46.250290000" lon="7.479070000"><ele></ele><time>2013-8-8T0:12:40Z</time></trkpt>
<trkpt lat="46.250270000" lon="7.479040000"><ele></ele><time>2013-8-8T0:12:43Z</time></trkpt>
<trkpt lat="46.250260000" lon="7.479010000"><ele></ele><time>2013-8-8T0:12:46Z</time></trkpt>
<trkpt lat="46.250240000" lon="7.478990000"><ele></ele><time>2013-8-8T0:12:49Z</time></trkpt>
<trkpt lat="46.250120000" lon="7.478820000"><ele></ele><time>2013-8-8T0:12:52Z</time></trkpt>
<trkpt lat="46.250100000" lon="7.478800000"><ele></ele><time>2013-8-8T0:12:55Z</time></trkpt>
<trkpt lat="46.250080000" lon="7.478770000"><ele></ele><time>2013-8-8T0:12:58Z</time></trkpt>
<trkpt lat="46.250060000" lon="7.478740000"><ele></ele><time>2013-8-8T0:13:1Z</time></trkpt>
<trkpt lat="46.250040000" lon="7.478710000"><ele></ele><time>2013-8-8T0:13:4Z</time></trkpt>
<trkpt lat="46.250000000" lon="7.478640000"><ele></ele><time>2013-8-8T0:13:7Z</time></trkpt>
<trkpt lat="46.249980000" lon="7.478610000"><ele></ele><time>2013-8-8T0:13:10Z</time></trkpt>
<trkpt lat="46.249970000" lon="7.478580000"><ele></ele><time>2013-8-8T0:13:13Z</time></trkpt>
<trkpt lat="46.249960000" lon="7.478540000"><ele></ele><time>2013-8-8T0:13:16Z</time></trkpt>
<trkpt lat="46.249940000" lon="7.478510000"><ele></ele><time>2013-8-8T0:13:19Z</time></trkpt>
<trkpt lat="46.249860000" lon="7.478310000"><ele></ele><time>2013-8-8T0:13:22Z</time></trkpt>
<trkpt lat="46.249840000" lon="7.478280000"><ele></ele><time>2013-8-8T0:13:25Z</time></trkpt>
<trkpt lat="46.249820000" lon="7.478250000"><ele></ele><time>2013-8-8T0:13:28Z</time></trkpt>
<trkpt lat="46.249810000" lon="7.478230000"><ele></ele><time>2013-8-8T0:13:31Z</time></trkpt>
<trkpt lat="46.249790000" lon="7.478210000"><ele></ele><time>2013-8-8T0:13:34Z</time></trkpt>
<trkpt lat="46.249760000" lon="7.478190000"><ele></ele><time>2013-8-8T0:13:37Z</time></trkpt>
<trkpt lat="46.249650000" lon="7.478190000"><ele></ele><time>2013-8-8T0:13:40Z</time></trkpt>
<trkpt lat="46.249620000" lon="7.478190000"><ele></ele><time>2013-8-8T0:13:43Z</time></trkpt>
<trkpt lat="46.249590000" lon="7.478200000"><ele></ele><time>2013-8-8T0:13:46Z</time></trkpt>
<trkpt lat="46.249570000" lon="7.478210000"><ele></ele><time>2013-8-8T0:13:49Z</time></trkpt>
<trkpt lat="46.249540000" lon="7.478230000"><ele></ele><time>2013-8-8T0:13:52Z</time></trkpt>
<trkpt lat="46.249390000" lon="7.478310000"><ele></ele><time>2013-8-8T0:13:55Z</time></trkpt>
<trkpt lat="46.249340000" lon="7.478330000"><ele></ele><time>2013-8-8T0:13:58Z</time></trkpt>
<trkpt lat="46.249320000" lon="7.478340000"><ele></ele><time>2013-8-8T0:14:1Z</time></trkpt>
<trkpt lat="46.249290000" lon="7.478350000"><ele></ele><time>2013-8-8T0:14:4Z</time></trkpt>
<trkpt lat="46.249260000" lon="7.478360000"><ele></ele><time>2013-8-8T0:14:7Z</time></trkpt>
<trkpt lat="46.249240000" lon="7.478360000"><ele></ele><time>2013-8-8T0:14:10Z</time></trkpt>
<trkpt lat="46.249130000" lon="7.478370000"><ele></ele><time>2013-8-8T0:14:13Z</time></trkpt>
<trkpt lat="46.249100000" lon="7.478370000"><ele></ele><time>2013-8-8T0:14:16Z</time></trkpt>
<trkpt lat="46.249080000" lon="7.478360000"><ele></ele><time>2013-8-8T0:14:19Z</time></trkpt>
<trkpt lat="46.249050000" lon="7.478360000"><ele></ele><time>2013-8-8T0:14:22Z</time></trkpt>
<trkpt lat="46.248910000" lon="7.478260000"><ele></ele><time>2013-8-8T0:14:25Z</time></trkpt>
<trkpt lat="46.248860000" lon="7.478190000"><ele></ele><time>2013-8-8T0:14:28Z</time></trkpt>
<trkpt lat="46.248840000" lon="7.478170000"><ele></ele><time>2013-8-8T0:14:31Z</time></trkpt>
<trkpt lat="46.248830000" lon="7.478140000"><ele></ele><time>2013-8-8T0:14:34Z</time></trkpt>
<trkpt lat="46.248810000" lon="7.478110000"><ele></ele><time>2013-8-8T0:14:37Z</time></trkpt>
<trkpt lat="46.248790000" lon="7.478080000"><ele></ele><time>2013-8-8T0:14:40Z</time></trkpt>
<trkpt lat="46.248740000" lon="7.477920000"><ele></ele><time>2013-8-8T0:14:43Z</time></trkpt>
<trkpt lat="46.248720000" lon="7.477890000"><ele></ele><time>2013-8-8T0:14:46Z</time></trkpt>
<trkpt lat="46.248710000" lon="7.477860000"><ele></ele><time>2013-8-8T0:14:49Z</time></trkpt>
<trkpt lat="46.248700000" lon="7.477830000"><ele></ele><time>2013-8-8T0:14:52Z</time></trkpt>
<trkpt lat="46.248680000" lon="7.477800000"><ele></ele><time>2013-8-8T0:14:55Z</time></trkpt>
<trkpt lat="46.248670000" lon="7.477770000"><ele></ele><time>2013-8-8T0:14:58Z</time></trkpt>
<trkpt lat="46.248640000" lon="7.477700000"><ele></ele><time>2013-8-8T0:15:1Z</time></trkpt>
<trkpt lat="46.248620000" lon="7.477620000"><ele></ele><time>2013-8-8T0:15:4Z</time></trkpt>
<trkpt lat="46.248600000" lon="7.477590000"><ele></ele><time>2013-8-8T0:15:7Z</time></trkpt>
<trkpt lat="46.248590000" lon="7.477550000"><ele></ele><time>2013-8-8T0:15:10Z</time></trkpt>
<trkpt lat="46.248580000" lon="7.477510000"><ele></ele><time>2013-8-8T0:15:13Z</time></trkpt>
<trkpt lat="46.248580000" lon="7.477480000"><ele></ele><time>2013-8-8T0:15:16Z</time></trkpt>
<trkpt lat="46.248570000" lon="7.477440000"><ele></ele><time>2013-8-8T0:15:19Z</time></trkpt>
<trkpt lat="46.248520000" lon="7.477250000"><ele></ele><time>2013-8-8T0:15:22Z</time></trkpt>
<trkpt lat="46.248520000" lon="7.477210000"><ele></ele><time>2013-8-8T0:15:25Z</time></trkpt>
<trkpt lat="46.248510000" lon="7.477180000"><ele></ele><time>2013-8-8T0:15:28Z</time></trkpt>
<trkpt lat="46.248510000" lon="7.477140000"><ele></ele><time>2013-8-8T0:15:31Z</time></trkpt>
<trkpt lat="46.248500000" lon="7.477100000"><ele></ele><time>2013-8-8T0:15:34Z</time></trkpt>
<trkpt lat="46.248500000" lon="7.477060000"><ele></ele><time>2013-8-8T0:15:37Z</time></trkpt>
<trkpt lat="46.248470000" lon="7.476870000"><ele></ele><time>2013-8-8T0:15:40Z</time></trkpt>
<trkpt lat="46.248470000" lon="7.476840000"><ele></ele><time>2013-8-8T0:15:43Z</time></trkpt>
<trkpt lat="46.248460000" lon="7.476810000"><ele></ele><time>2013-8-8T0:15:46Z</time></trkpt>
<trkpt lat="46.248440000" lon="7.476770000"><ele></ele><time>2013-8-8T0:15:49Z</time></trkpt>
<trkpt lat="46.248380000" lon="7.476600000"><ele></ele><time>2013-8-8T0:15:52Z</time></trkpt>
<trkpt lat="46.248360000" lon="7.476530000"><ele></ele><time>2013-8-8T0:15:55Z</time></trkpt>
<trkpt lat="46.248340000" lon="7.476500000"><ele></ele><time>2013-8-8T0:15:58Z</time></trkpt>
<trkpt lat="46.248330000" lon="7.476460000"><ele></ele><time>2013-8-8T0:16:1Z</time></trkpt>
<trkpt lat="46.248320000" lon="7.476430000"><ele></ele><time>2013-8-8T0:16:4Z</time></trkpt>
<trkpt lat="46.248310000" lon="7.476400000"><ele></ele><time>2013-8-8T0:16:7Z</time></trkpt>
<trkpt lat="46.248260000" lon="7.476310000"><ele></ele><time>2013-8-8T0:16:10Z</time></trkpt>
<trkpt lat="46.248190000" lon="7.476180000"><ele></ele><time>2013-8-8T0:16:13Z</time></trkpt>
<trkpt lat="46.248180000" lon="7.476150000"><ele></ele><time>2013-8-8T0:16:16Z</time></trkpt>
<trkpt lat="46.248160000" lon="7.476110000"><ele></ele><time>2013-8-8T0:16:19Z</time></trkpt>
<trkpt lat="46.248150000" lon="7.476080000"><ele></ele><time>2013-8-8T0:16:22Z</time></trkpt>
<trkpt lat="46.248130000" lon="7.476050000"><ele></ele><time>2013-8-8T0:16:25Z</time></trkpt>
<trkpt lat="46.248090000" lon="7.475940000"><ele></ele><time>2013-8-8T0:16:28Z</time></trkpt>
<trkpt lat="46.248070000" lon="7.475910000"><ele></ele><time>2013-8-8T0:16:31Z</time></trkpt>
<trkpt lat="46.248060000" lon="7.475870000"><ele></ele><time>2013-8-8T0:16:34Z</time></trkpt>
<trkpt lat="46.248050000" lon="7.475830000"><ele></ele><time>2013-8-8T0:16:37Z</time></trkpt>
<trkpt lat="46.248030000" lon="7.475790000"><ele></ele><time>2013-8-8T0:16:40Z</time></trkpt>
<trkpt lat="46.247980000" lon="7.475600000"><ele></ele><time>2013-8-8T0:16:43Z</time></trkpt>
<trkpt lat="46.247920000" lon="7.475480000"><ele></ele><time>2013-8-8T0:16:46Z</time></trkpt>
<trkpt lat="46.247890000" lon="7.475470000"><ele></ele><time>2013-8-8T0:16:49Z</time></trkpt>
<trkpt lat="46.247860000" lon="7.475480000"><ele></ele><time>2013-8-8T0:16:52Z</time></trkpt>
<trkpt lat="46.247840000" lon="7.475500000"><ele></ele><time>2013-8-8T0:16:55Z</time></trkpt>
<trkpt lat="46.247810000" lon="7.475530000"><ele></ele><time>2013-8-8T0:16:58Z</time></trkpt>
<trkpt lat="46.247790000" lon="7.475560000"><ele></ele><time>2013-8-8T0:17:1Z</time></trkpt>
<trkpt lat="46.247790000" lon="7.475700000"><ele></ele><time>2013-8-8T0:17:4Z</time></trkpt>
<trkpt lat="46.247800000" lon="7.475740000"><ele></ele><time>2013-8-8T0:17:7Z</time></trkpt>
<trkpt lat="46.247820000" lon="7.475850000"><ele></ele><time>2013-8-8T0:17:10Z</time></trkpt>
<trkpt lat="46.247820000" lon="7.475890000"><ele></ele><time>2013-8-8T0:17:13Z</time></trkpt>
<trkpt lat="46.247830000" lon="7.475930000"><ele></ele><time>2013-8-8T0:17:16Z</time></trkpt>
<trkpt lat="46.247830000" lon="7.475970000"><ele></ele><time>2013-8-8T0:17:19Z</time></trkpt>
<trkpt lat="46.247830000" lon="7.476010000"><ele></ele><time>2013-8-8T0:17:22Z</time></trkpt>
<trkpt lat="46.247850000" lon="7.476200000"><ele></ele><time>2013-8-8T0:17:25Z</time></trkpt>
<trkpt lat="46.247850000" lon="7.476240000"><ele></ele><time>2013-8-8T0:17:28Z</time></trkpt>
<trkpt lat="46.247850000" lon="7.476280000"><ele></ele><time>2013-8-8T0:17:31Z</time></trkpt>
<trkpt lat="46.247850000" lon="7.476320000"><ele></ele><time>2013-8-8T0:17:34Z</time></trkpt>
<trkpt lat="46.247850000" lon="7.476360000"><ele></ele><time>2013-8-8T0:17:37Z</time></trkpt>
<trkpt lat="46.247850000" lon="7.476440000"><ele></ele><time>2013-8-8T0:17:40Z</time></trkpt>
<trkpt lat="46.247840000" lon="7.476520000"><ele></ele><time>2013-8-8T0:17:43Z</time></trkpt>
<trkpt lat="46.247830000" lon="7.476560000"><ele></ele><time>2013-8-8T0:17:46Z</time></trkpt>
<trkpt lat="46.247830000" lon="7.476590000"><ele></ele><time>2013-8-8T0:17:49Z</time></trkpt>
<trkpt lat="46.247810000" lon="7.476630000"><ele></ele><time>2013-8-8T0:17:52Z</time></trkpt>
<trkpt lat="46.247810000" lon="7.476660000"><ele></ele><time>2013-8-8T0:17:55Z</time></trkpt>
<trkpt lat="46.247790000" lon="7.476770000"><ele></ele><time>2013-8-8T0:17:58Z</time></trkpt>
<trkpt lat="46.247790000" lon="7.476810000"><ele></ele><time>2013-8-8T0:18:1Z</time></trkpt>
<trkpt lat="46.247790000" lon="7.476860000"><ele></ele><time>2013-8-8T0:18:4Z</time></trkpt>
<trkpt lat="46.247780000" lon="7.476900000"><ele></ele><time>2013-8-8T0:18:7Z</time></trkpt>
<trkpt lat="46.247770000" lon="7.476940000"><ele></ele><time>2013-8-8T0:18:10Z</time></trkpt>
<trkpt lat="46.247780000" lon="7.477060000"><ele></ele><time>2013-8-8T0:18:13Z</time></trkpt>
<trkpt lat="46.247780000" lon="7.477090000"><ele></ele><time>2013-8-8T0:18:16Z</time></trkpt>
<trkpt lat="46.247780000" lon="7.477140000"><ele></ele><time>2013-8-8T0:18:19Z</time></trkpt>
<trkpt lat="46.247790000" lon="7.477170000"><ele></ele><time>2013-8-8T0:18:22Z</time></trkpt>
<trkpt lat="46.247800000" lon="7.477220000"><ele></ele><time>2013-8-8T0:18:25Z</time></trkpt>
<trkpt lat="46.247800000" lon="7.477260000"><ele></ele><time>2013-8-8T0:18:28Z</time></trkpt>
<trkpt lat="46.247810000" lon="7.477300000"><ele></ele><time>2013-8-8T0:18:31Z</time></trkpt>
<trkpt lat="46.247870000" lon="7.477520000"><ele></ele><time>2013-8-8T0:18:34Z</time></trkpt>
<trkpt lat="46.247880000" lon="7.477550000"><ele></ele><time>2013-8-8T0:18:37Z</time></trkpt>
<trkpt lat="46.247890000" lon="7.477590000"><ele></ele><time>2013-8-8T0:18:40Z</time></trkpt>
<trkpt lat="46.247900000" lon="7.477630000"><ele></ele><time>2013-8-8T0:18:43Z</time></trkpt>
<trkpt lat="46.247910000" lon="7.477670000"><ele></ele><time>2013-8-8T0:18:46Z</time></trkpt>
<trkpt lat="46.247940000" lon="7.477770000"><ele></ele><time>2013-8-8T0:18:49Z</time></trkpt>
<trkpt lat="46.247960000" lon="7.477830000"><ele></ele><time>2013-8-8T0:18:52Z</time></trkpt>
<trkpt lat="46.247960000" lon="7.477860000"><ele></ele><time>2013-8-8T0:18:55Z</time></trkpt>
<trkpt lat="46.247970000" lon="7.477890000"><ele></ele><time>2013-8-8T0:18:58Z</time></trkpt>
<trkpt lat="46.247980000" lon="7.477930000"><ele></ele><time>2013-8-8T0:19:1Z</time></trkpt>
<trkpt lat="46.247990000" lon="7.477960000"><ele></ele><time>2013-8-8T0:19:4Z</time></trkpt>
<trkpt lat="46.248010000" lon="7.478070000"><ele></ele><time>2013-8-8T0:19:7Z</time></trkpt>
<trkpt lat="46.248020000" lon="7.478100000"><ele></ele><time>2013-8-8T0:19:10Z</time></trkpt>
<trkpt lat="46.248030000" lon="7.478130000"><ele></ele><time>2013-8-8T0:19:13Z</time></trkpt>
<trkpt lat="46.248020000" lon="7.478160000"><ele></ele><time>2013-8-8T0:19:16Z</time></trkpt>
<trkpt lat="46.248030000" lon="7.478190000"><ele></ele><time>2013-8-8T0:19:19Z</time></trkpt>
<trkpt lat="46.248050000" lon="7.478330000"><ele></ele><time>2013-8-8T0:19:22Z</time></trkpt>
<trkpt lat="46.248060000" lon="7.478360000"><ele></ele><time>2013-8-8T0:19:25Z</time></trkpt>
<trkpt lat="46.248060000" lon="7.478400000"><ele></ele><time>2013-8-8T0:19:28Z</time></trkpt>
<trkpt lat="46.248070000" lon="7.478430000"><ele></ele><time>2013-8-8T0:19:31Z</time></trkpt>
<trkpt lat="46.248070000" lon="7.478470000"><ele></ele><time>2013-8-8T0:19:34Z</time></trkpt>
<trkpt lat="46.248070000" lon="7.478500000"><ele></ele><time>2013-8-8T0:19:37Z</time></trkpt>
<trkpt lat="46.248090000" lon="7.478640000"><ele></ele><time>2013-8-8T0:19:40Z</time></trkpt>
<trkpt lat="46.248100000" lon="7.478680000"><ele></ele><time>2013-8-8T0:19:43Z</time></trkpt>
<trkpt lat="46.248100000" lon="7.478710000"><ele></ele><time>2013-8-8T0:19:46Z</time></trkpt>
<trkpt lat="46.248110000" lon="7.478750000"><ele></ele><time>2013-8-8T0:19:49Z</time></trkpt>
<trkpt lat="46.248110000" lon="7.478790000"><ele></ele><time>2013-8-8T0:19:52Z</time></trkpt>
<trkpt lat="46.248120000" lon="7.478820000"><ele></ele><time>2013-8-8T0:19:55Z</time></trkpt>
<trkpt lat="46.248140000" lon="7.478920000"><ele></ele><time>2013-8-8T0:19:58Z</time></trkpt>
<trkpt lat="46.248190000" lon="7.479090000"><ele></ele><time>2013-8-8T0:20:1Z</time></trkpt>
<trkpt lat="46.248200000" lon="7.479130000"><ele></ele><time>2013-8-8T0:20:4Z</time></trkpt>
<trkpt lat="46.248200000" lon="7.479170000"><ele></ele><time>2013-8-8T0:20:7Z</time></trkpt>
<trkpt lat="46.248210000" lon="7.479200000"><ele></ele><time>2013-8-8T0:20:10Z</time></trkpt>
<trkpt lat="46.248210000" lon="7.479240000"><ele></ele><time>2013-8-8T0:20:13Z</time></trkpt>
<trkpt lat="46.248240000" lon="7.479360000"><ele></ele><time>2013-8-8T0:20:16Z</time></trkpt>
<trkpt lat="46.248240000" lon="7.479400000"><ele></ele><time>2013-8-8T0:20:19Z</time></trkpt>
<trkpt lat="46.248250000" lon="7.479430000"><ele></ele><time>2013-8-8T0:20:22Z</time></trkpt>
<trkpt lat="46.248250000" lon="7.479470000"><ele></ele><time>2013-8-8T0:20:25Z</time></trkpt>
<trkpt lat="46.248250000" lon="7.479500000"><ele></ele><time>2013-8-8T0:20:28Z</time></trkpt>
<trkpt lat="46.248260000" lon="7.479610000"><ele></ele><time>2013-8-8T0:20:31Z</time></trkpt>
<trkpt lat="46.248270000" lon="7.479710000"><ele></ele><time>2013-8-8T0:20:34Z</time></trkpt>
<trkpt lat="46.248270000" lon="7.479740000"><ele></ele><time>2013-8-8T0:20:37Z</time></trkpt>
<trkpt lat="46.248270000" lon="7.479770000"><ele></ele><time>2013-8-8T0:20:40Z</time></trkpt>
<trkpt lat="46.248270000" lon="7.479800000"><ele></ele><time>2013-8-8T0:20:43Z</time></trkpt>
<trkpt lat="46.248270000" lon="7.479840000"><ele></ele><time>2013-8-8T0:20:46Z</time></trkpt>
<trkpt lat="46.248320000" lon="7.479970000"><ele></ele><time>2013-8-8T0:20:49Z</time></trkpt>
<trkpt lat="46.248360000" lon="7.480070000"><ele></ele><time>2013-8-8T0:20:52Z</time></trkpt>
<trkpt lat="46.248370000" lon="7.480110000"><ele></ele><time>2013-8-8T0:20:55Z</time></trkpt>
<trkpt lat="46.248390000" lon="7.480140000"><ele></ele><time>2013-8-8T0:20:58Z</time></trkpt>
<trkpt lat="46.248410000" lon="7.480180000"><ele></ele><time>2013-8-8T0:21:1Z</time></trkpt>
<trkpt lat="46.248500000" lon="7.480410000"><ele></ele><time>2013-8-8T0:21:4Z</time></trkpt>
<trkpt lat="46.248520000" lon="7.480440000"><ele></ele><time>2013-8-8T0:21:7Z</time></trkpt>
<trkpt lat="46.248530000" lon="7.480470000"><ele></ele><time>2013-8-8T0:21:10Z</time></trkpt>
<trkpt lat="46.248550000" lon="7.480500000"><ele></ele><time>2013-8-8T0:21:13Z</time></trkpt>
<trkpt lat="46.248560000" lon="7.480530000"><ele></ele><time>2013-8-8T0:21:16Z</time></trkpt>
<trkpt lat="46.248650000" lon="7.480660000"><ele></ele><time>2013-8-8T0:21:19Z</time></trkpt>
<trkpt lat="46.248670000" lon="7.480680000"><ele></ele><time>2013-8-8T0:21:22Z</time></trkpt>
<trkpt lat="46.248700000" lon="7.480700000"><ele></ele><time>2013-8-8T0:21:25Z</time></trkpt>
<trkpt lat="46.248720000" lon="7.480720000"><ele></ele><time>2013-8-8T0:21:28Z</time></trkpt>
<trkpt lat="46.248740000" lon="7.480740000"><ele></ele><time>2013-8-8T0:21:31Z</time></trkpt>
<trkpt lat="46.248840000" lon="7.480810000"><ele></ele><time>2013-8-8T0:21:34Z</time></trkpt>
<trkpt lat="46.248860000" lon="7.480830000"><ele></ele><time>2013-8-8T0:21:37Z</time></trkpt>
<trkpt lat="46.248880000" lon="7.480850000"><ele></ele><time>2013-8-8T0:21:40Z</time></trkpt>
<trkpt lat="46.248910000" lon="7.480870000"><ele></ele><time>2013-8-8T0:21:43Z</time></trkpt>
<trkpt lat="46.249020000" lon="7.480970000"><ele></ele><time>2013-8-8T0:21:46Z</time></trkpt>
<trkpt lat="46.249040000" lon="7.480990000"><ele></ele><time>2013-8-8T0:21:49Z</time></trkpt>
<trkpt lat="46.249070000" lon="7.481010000"><ele></ele><time>2013-8-8T0:21:52Z</time></trkpt>
<trkpt lat="46.249090000" lon="7.481030000"><ele></ele><time>2013-8-8T0:21:55Z</time></trkpt>
<trkpt lat="46.249110000" lon="7.481050000"><ele></ele><time>2013-8-8T0:21:58Z</time></trkpt>
<trkpt lat="46.249210000" lon="7.481160000"><ele></ele><time>2013-8-8T0:22:1Z</time></trkpt>
<trkpt lat="46.249230000" lon="7.481190000"><ele></ele><time>2013-8-8T0:22:4Z</time></trkpt>
<trkpt lat="46.249250000" lon="7.481210000"><ele></ele><time>2013-8-8T0:22:7Z</time></trkpt>
<trkpt lat="46.249260000" lon="7.481240000"><ele></ele><time>2013-8-8T0:22:10Z</time></trkpt>
<trkpt lat="46.249280000" lon="7.481270000"><ele></ele><time>2013-8-8T0:22:13Z</time></trkpt>
<trkpt lat="46.249330000" lon="7.481360000"><ele></ele><time>2013-8-8T0:22:16Z</time></trkpt>
<trkpt lat="46.249340000" lon="7.481390000"><ele></ele><time>2013-8-8T0:22:19Z</time></trkpt>
<trkpt lat="46.249360000" lon="7.481420000"><ele></ele><time>2013-8-8T0:22:22Z</time></trkpt>
<trkpt lat="46.249370000" lon="7.481460000"><ele></ele><time>2013-8-8T0:22:25Z</time></trkpt>
<trkpt lat="46.249390000" lon="7.481490000"><ele></ele><time>2013-8-8T0:22:28Z</time></trkpt>
<trkpt lat="46.249400000" lon="7.481520000"><ele></ele><time>2013-8-8T0:22:31Z</time></trkpt>
<trkpt lat="46.249440000" lon="7.481600000"><ele></ele><time>2013-8-8T0:22:34Z</time></trkpt>
<trkpt lat="46.249500000" lon="7.481720000"><ele></ele><time>2013-8-8T0:22:37Z</time></trkpt>
<trkpt lat="46.249520000" lon="7.481760000"><ele></ele><time>2013-8-8T0:22:40Z</time></trkpt>
<trkpt lat="46.249530000" lon="7.481790000"><ele></ele><time>2013-8-8T0:22:43Z</time></trkpt>
<trkpt lat="46.249550000" lon="7.481820000"><ele></ele><time>2013-8-8T0:22:46Z</time></trkpt>
<trkpt lat="46.249560000" lon="7.481850000"><ele></ele><time>2013-8-8T0:22:49Z</time></trkpt>
<trkpt lat="46.249630000" lon="7.482030000"><ele></ele><time>2013-8-8T0:22:52Z</time></trkpt>
<trkpt lat="46.249650000" lon="7.482080000"><ele></ele><time>2013-8-8T0:22:55Z</time></trkpt>
<trkpt lat="46.249650000" lon="7.482110000"><ele></ele><time>2013-8-8T0:22:58Z</time></trkpt>
<trkpt lat="46.249700000" lon="7.482320000"><ele></ele><time>2013-8-8T0:23:1Z</time></trkpt>
<trkpt lat="46.249710000" lon="7.482350000"><ele></ele><time>2013-8-8T0:23:4Z</time></trkpt>
<trkpt lat="46.249710000" lon="7.482390000"><ele></ele><time>2013-8-8T0:23:7Z</time></trkpt>
<trkpt lat="46.249720000" lon="7.482420000"><ele></ele><time>2013-8-8T0:23:10Z</time></trkpt>
<trkpt lat="46.249730000" lon="7.482460000"><ele></ele><time>2013-8-8T0:23:13Z</time></trkpt>
<trkpt lat="46.249770000" lon="7.482690000"><ele></ele><time>2013-8-8T0:23:16Z</time></trkpt>
<trkpt lat="46.249780000" lon="7.482730000"><ele></ele><time>2013-8-8T0:23:19Z</time></trkpt>
<trkpt lat="46.249790000" lon="7.482770000"><ele></ele><time>2013-8-8T0:23:22Z</time></trkpt>
<trkpt lat="46.249800000" lon="7.482800000"><ele></ele><time>2013-8-8T0:23:25Z</time></trkpt>
<trkpt lat="46.249840000" lon="7.483020000"><ele></ele><time>2013-8-8T0:23:28Z</time></trkpt>
<trkpt lat="46.249840000" lon="7.483060000"><ele></ele><time>2013-8-8T0:23:31Z</time></trkpt>
<trkpt lat="46.249850000" lon="7.483090000"><ele></ele><time>2013-8-8T0:23:34Z</time></trkpt>
<trkpt lat="46.249860000" lon="7.483130000"><ele></ele><time>2013-8-8T0:23:37Z</time></trkpt>
<trkpt lat="46.249860000" lon="7.483170000"><ele></ele><time>2013-8-8T0:23:40Z</time></trkpt>
<trkpt lat="46.249880000" lon="7.483400000"><ele></ele><time>2013-8-8T0:23:43Z</time></trkpt>
<trkpt lat="46.249890000" lon="7.483570000"><ele></ele><time>2013-8-8T0:23:46Z</time></trkpt>
<trkpt lat="46.249890000" lon="7.483610000"><ele></ele><time>2013-8-8T0:23:49Z</time></trkpt>
<trkpt lat="46.249890000" lon="7.483640000"><ele></ele><time>2013-8-8T0:23:52Z</time></trkpt>
<trkpt lat="46.249880000" lon="7.483680000"><ele></ele><time>2013-8-8T0:23:55Z</time></trkpt>
<trkpt lat="46.249860000" lon="7.483700000"><ele></ele><time>2013-8-8T0:23:58Z</time></trkpt>
<trkpt lat="46.249840000" lon="7.483710000"><ele></ele><time>2013-8-8T0:24:1Z</time></trkpt>
<trkpt lat="46.249820000" lon="7.483690000"><ele></ele><time>2013-8-8T0:24:4Z</time></trkpt>
<trkpt lat="46.249770000" lon="7.483640000"><ele></ele><time>2013-8-8T0:24:7Z</time></trkpt>
<trkpt lat="46.249730000" lon="7.483590000"><ele></ele><time>2013-8-8T0:24:10Z</time></trkpt>
<trkpt lat="46.249680000" lon="7.483530000"><ele></ele><time>2013-8-8T0:24:13Z</time></trkpt>
<trkpt lat="46.249610000" lon="7.483440000"><ele></ele><time>2013-8-8T0:24:16Z</time></trkpt>
<trkpt lat="46.249580000" lon="7.483420000"><ele></ele><time>2013-8-8T0:24:19Z</time></trkpt>
<trkpt lat="46.249550000" lon="7.483390000"><ele></ele><time>2013-8-8T0:24:22Z</time></trkpt>
<trkpt lat="46.249530000" lon="7.483360000"><ele></ele><time>2013-8-8T0:24:25Z</time></trkpt>
<trkpt lat="46.249500000" lon="7.483340000"><ele></ele><time>2013-8-8T0:24:28Z</time></trkpt>
<trkpt lat="46.249310000" lon="7.483090000"><ele></ele><time>2013-8-8T0:24:31Z</time></trkpt>
<trkpt lat="46.249140000" lon="7.482870000"><ele></ele><time>2013-8-8T0:24:34Z</time></trkpt>
<trkpt lat="46.249120000" lon="7.482830000"><ele></ele><time>2013-8-8T0:24:37Z</time></trkpt>
<trkpt lat="46.249100000" lon="7.482800000"><ele></ele><time>2013-8-8T0:24:40Z</time></trkpt>
<trkpt lat="46.249080000" lon="7.482760000"><ele></ele><time>2013-8-8T0:24:43Z</time></trkpt>
<trkpt lat="46.249050000" lon="7.482730000"><ele></ele><time>2013-8-8T0:24:46Z</time></trkpt>
<trkpt lat="46.248940000" lon="7.482580000"><ele></ele><time>2013-8-8T0:24:49Z</time></trkpt>
<trkpt lat="46.248790000" lon="7.482420000"><ele></ele><time>2013-8-8T0:24:52Z</time></trkpt>
<trkpt lat="46.248760000" lon="7.482400000"><ele></ele><time>2013-8-8T0:24:55Z</time></trkpt>
<trkpt lat="46.248740000" lon="7.482370000"><ele></ele><time>2013-8-8T0:24:58Z</time></trkpt>
<trkpt lat="46.248710000" lon="7.482350000"><ele></ele><time>2013-8-8T0:25:1Z</time></trkpt>
<trkpt lat="46.248550000" lon="7.482180000"><ele></ele><time>2013-8-8T0:25:4Z</time></trkpt>
<trkpt lat="46.248420000" lon="7.482080000"><ele></ele><time>2013-8-8T0:25:7Z</time></trkpt>
<trkpt lat="46.248400000" lon="7.482050000"><ele></ele><time>2013-8-8T0:25:10Z</time></trkpt>
<trkpt lat="46.248370000" lon="7.482020000"><ele></ele><time>2013-8-8T0:25:13Z</time></trkpt>
<trkpt lat="46.248340000" lon="7.481990000"><ele></ele><time>2013-8-8T0:25:16Z</time></trkpt>
<trkpt lat="46.248320000" lon="7.481960000"><ele></ele><time>2013-8-8T0:25:19Z</time></trkpt>
<trkpt lat="46.248160000" lon="7.481790000"><ele></ele><time>2013-8-8T0:25:22Z</time></trkpt>
<trkpt lat="46.248130000" lon="7.481760000"><ele></ele><time>2013-8-8T0:25:25Z</time></trkpt>
<trkpt lat="46.248110000" lon="7.481730000"><ele></ele><time>2013-8-8T0:25:28Z</time></trkpt>
<trkpt lat="46.248090000" lon="7.481700000"><ele></ele><time>2013-8-8T0:25:31Z</time></trkpt>
<trkpt lat="46.248070000" lon="7.481660000"><ele></ele><time>2013-8-8T0:25:34Z</time></trkpt>
<trkpt lat="46.247970000" lon="7.481470000"><ele></ele><time>2013-8-8T0:25:37Z</time></trkpt>
<trkpt lat="46.247910000" lon="7.481310000"><ele></ele><time>2013-8-8T0:25:40Z</time></trkpt>
<trkpt lat="46.247890000" lon="7.481270000"><ele></ele><time>2013-8-8T0:25:43Z</time></trkpt>
<trkpt lat="46.247880000" lon="7.481230000"><ele></ele><time>2013-8-8T0:25:46Z</time></trkpt>
<trkpt lat="46.247860000" lon="7.481200000"><ele></ele><time>2013-8-8T0:25:49Z</time></trkpt>
<trkpt lat="46.247840000" lon="7.481160000"><ele></ele><time>2013-8-8T0:25:52Z</time></trkpt>
<trkpt lat="46.247790000" lon="7.481070000"><ele></ele><time>2013-8-8T0:25:55Z</time></trkpt>
<trkpt lat="46.247770000" lon="7.481040000"><ele></ele><time>2013-8-8T0:25:58Z</time></trkpt>
<trkpt lat="46.247750000" lon="7.481010000"><ele></ele><time>2013-8-8T0:26:1Z</time></trkpt>
<trkpt lat="46.247720000" lon="7.480980000"><ele></ele><time>2013-8-8T0:26:4Z</time></trkpt>
<trkpt lat="46.247700000" lon="7.480950000"><ele></ele><time>2013-8-8T0:26:7Z</time></trkpt>
<trkpt lat="46.247540000" lon="7.480800000"><ele></ele><time>2013-8-8T0:26:10Z</time></trkpt>
<trkpt lat="46.247390000" lon="7.480610000"><ele></ele><time>2013-8-8T0:26:13Z</time></trkpt>
<trkpt lat="46.247340000" lon="7.480540000"><ele></ele><time>2013-8-8T0:26:16Z</time></trkpt>
<trkpt lat="46.247320000" lon="7.480500000"><ele></ele><time>2013-8-8T0:26:19Z</time></trkpt>
<trkpt lat="46.247300000" lon="7.480470000"><ele></ele><time>2013-8-8T0:26:22Z</time></trkpt>
<trkpt lat="46.247270000" lon="7.480430000"><ele></ele><time>2013-8-8T0:26:25Z</time></trkpt>
<trkpt lat="46.247250000" lon="7.480400000"><ele></ele><time>2013-8-8T0:26:28Z</time></trkpt>
<trkpt lat="46.247220000" lon="7.480360000"><ele></ele><time>2013-8-8T0:26:31Z</time></trkpt>
<trkpt lat="46.247060000" lon="7.480090000"><ele></ele><time>2013-8-8T0:26:34Z</time></trkpt>
<trkpt lat="46.246970000" lon="7.479930000"><ele></ele><time>2013-8-8T0:26:37Z</time></trkpt>
<trkpt lat="46.246950000" lon="7.479890000"><ele></ele><time>2013-8-8T0:26:40Z</time></trkpt>
<trkpt lat="46.246870000" lon="7.479760000"><ele></ele><time>2013-8-8T0:26:43Z</time></trkpt>
<trkpt lat="46.246730000" lon="7.479490000"><ele></ele><time>2013-8-8T0:26:46Z</time></trkpt>
<trkpt lat="46.246690000" lon="7.479370000"><ele></ele><time>2013-8-8T0:26:49Z</time></trkpt>
<trkpt lat="46.246660000" lon="7.479320000"><ele></ele><time>2013-8-8T0:26:52Z</time></trkpt>
<trkpt lat="46.246640000" lon="7.479270000"><ele></ele><time>2013-8-8T0:26:55Z</time></trkpt>
<trkpt lat="46.246610000" lon="7.479210000"><ele></ele><time>2013-8-8T0:26:58Z</time></trkpt>
<trkpt lat="46.246590000" lon="7.479150000"><ele></ele><time>2013-8-8T0:27:1Z</time></trkpt>
<trkpt lat="46.246440000" lon="7.478850000"><ele></ele><time>2013-8-8T0:27:4Z</time></trkpt>
<trkpt lat="46.246380000" lon="7.478770000"><ele></ele><time>2013-8-8T0:27:7Z</time></trkpt>
<trkpt lat="46.246350000" lon="7.478740000"><ele></ele><time>2013-8-8T0:27:10Z</time></trkpt>
<trkpt lat="46.246320000" lon="7.478700000"><ele></ele><time>2013-8-8T0:27:13Z</time></trkpt>
<trkpt lat="46.246300000" lon="7.478660000"><ele></ele><time>2013-8-8T0:27:16Z</time></trkpt>
<trkpt lat="46.246280000" lon="7.478630000"><ele></ele><time>2013-8-8T0:27:19Z</time></trkpt>
<trkpt lat="46.246250000" lon="7.478600000"><ele></ele><time>2013-8-8T0:27:22Z</time></trkpt>
<trkpt lat="46.246180000" lon="7.478500000"><ele></ele><time>2013-8-8T0:27:25Z</time></trkpt>
<trkpt lat="46.246170000" lon="7.478480000"><ele></ele><time>2013-8-8T0:27:28Z</time></trkpt>
<trkpt lat="46.246150000" lon="7.478450000"><ele></ele><time>2013-8-8T0:27:31Z</time></trkpt>
<trkpt lat="46.246130000" lon="7.478410000"><ele></ele><time>2013-8-8T0:27:34Z</time></trkpt>
<trkpt lat="46.246110000" lon="7.478370000"><ele></ele><time>2013-8-8T0:27:37Z</time></trkpt>
<trkpt lat="46.246050000" lon="7.478250000"><ele></ele><time>2013-8-8T0:27:40Z</time></trkpt>
<trkpt lat="46.245990000" lon="7.478130000"><ele></ele><time>2013-8-8T0:27:43Z</time></trkpt>
<trkpt lat="46.245980000" lon="7.478090000"><ele></ele><time>2013-8-8T0:27:46Z</time></trkpt>
<trkpt lat="46.245960000" lon="7.478050000"><ele></ele><time>2013-8-8T0:27:49Z</time></trkpt>
<trkpt lat="46.245940000" lon="7.478010000"><ele></ele><time>2013-8-8T0:27:52Z</time></trkpt>
<trkpt lat="46.245920000" lon="7.477970000"><ele></ele><time>2013-8-8T0:27:55Z</time></trkpt>
<trkpt lat="46.245900000" lon="7.477920000"><ele></ele><time>2013-8-8T0:27:58Z</time></trkpt>
<trkpt lat="46.245890000" lon="7.477870000"><ele></ele><time>2013-8-8T0:28:1Z</time></trkpt>
<trkpt lat="46.245880000" lon="7.477830000"><ele></ele><time>2013-8-8T0:28:4Z</time></trkpt>
<trkpt lat="46.245860000" lon="7.477780000"><ele></ele><time>2013-8-8T0:28:7Z</time></trkpt>
<trkpt lat="46.245850000" lon="7.477540000"><ele></ele><time>2013-8-8T0:28:10Z</time></trkpt>
<trkpt lat="46.245820000" lon="7.477290000"><ele></ele><time>2013-8-8T0:28:13Z</time></trkpt>
<trkpt lat="46.245770000" lon="7.477030000"><ele></ele><time>2013-8-8T0:28:16Z</time></trkpt>
<trkpt lat="46.245740000" lon="7.476940000"><ele></ele><time>2013-8-8T0:28:19Z</time></trkpt>
<trkpt lat="46.245660000" lon="7.476830000"><ele></ele><time>2013-8-8T0:28:22Z</time></trkpt>
<trkpt lat="46.245640000" lon="7.476810000"><ele></ele><time>2013-8-8T0:28:25Z</time></trkpt>
<trkpt lat="46.245610000" lon="7.476780000"><ele></ele><time>2013-8-8T0:28:28Z</time></trkpt>
<trkpt lat="46.245580000" lon="7.476750000"><ele></ele><time>2013-8-8T0:28:31Z</time></trkpt>
<trkpt lat="46.245500000" lon="7.476670000"><ele></ele><time>2013-8-8T0:28:34Z</time></trkpt>
<trkpt lat="46.245470000" lon="7.476650000"><ele></ele><time>2013-8-8T0:28:37Z</time></trkpt>
<trkpt lat="46.245450000" lon="7.476620000"><ele></ele><time>2013-8-8T0:28:40Z</time></trkpt>
<trkpt lat="46.245430000" lon="7.476590000"><ele></ele><time>2013-8-8T0:28:43Z</time></trkpt>
<trkpt lat="46.245400000" lon="7.476560000"><ele></ele><time>2013-8-8T0:28:46Z</time></trkpt>
<trkpt lat="46.245370000" lon="7.476530000"><ele></ele><time>2013-8-8T0:28:49Z</time></trkpt>
<trkpt lat="46.245310000" lon="7.476480000"><ele></ele><time>2013-8-8T0:28:52Z</time></trkpt>
<trkpt lat="46.245290000" lon="7.476460000"><ele></ele><time>2013-8-8T0:28:55Z</time></trkpt>
<trkpt lat="46.245270000" lon="7.476440000"><ele></ele><time>2013-8-8T0:28:58Z</time></trkpt>
<trkpt lat="46.245250000" lon="7.476410000"><ele></ele><time>2013-8-8T0:29:1Z</time></trkpt>
<trkpt lat="46.245230000" lon="7.476390000"><ele></ele><time>2013-8-8T0:29:4Z</time></trkpt>
<trkpt lat="46.245210000" lon="7.476360000"><ele></ele><time>2013-8-8T0:29:7Z</time></trkpt>
<trkpt lat="46.245200000" lon="7.476330000"><ele></ele><time>2013-8-8T0:29:10Z</time></trkpt>
<trkpt lat="46.245190000" lon="7.476300000"><ele></ele><time>2013-8-8T0:29:13Z</time></trkpt>
<trkpt lat="46.245180000" lon="7.476270000"><ele></ele><time>2013-8-8T0:29:16Z</time></trkpt>
<trkpt lat="46.245170000" lon="7.476240000"><ele></ele><time>2013-8-8T0:29:19Z</time></trkpt>
<trkpt lat="46.245170000" lon="7.476210000"><ele></ele><time>2013-8-8T0:29:22Z</time></trkpt>
<trkpt lat="46.245150000" lon="7.476140000"><ele></ele><time>2013-8-8T0:29:25Z</time></trkpt>
<trkpt lat="46.245140000" lon="7.476110000"><ele></ele><time>2013-8-8T0:29:28Z</time></trkpt>
<trkpt lat="46.245140000" lon="7.476080000"><ele></ele><time>2013-8-8T0:29:31Z</time></trkpt>
<trkpt lat="46.245130000" lon="7.476050000"><ele></ele><time>2013-8-8T0:29:34Z</time></trkpt>
<trkpt lat="46.245120000" lon="7.475940000"><ele></ele><time>2013-8-8T0:29:37Z</time></trkpt>
<trkpt lat="46.245120000" lon="7.475840000"><ele></ele><time>2013-8-8T0:29:40Z</time></trkpt>
<trkpt lat="46.245120000" lon="7.475800000"><ele></ele><time>2013-8-8T0:29:43Z</time></trkpt>
<trkpt lat="46.245120000" lon="7.475760000"><ele></ele><time>2013-8-8T0:29:46Z</time></trkpt>
<trkpt lat="46.245120000" lon="7.475720000"><ele></ele><time>2013-8-8T0:29:49Z</time></trkpt>
<trkpt lat="46.245130000" lon="7.475690000"><ele></ele><time>2013-8-8T0:29:52Z</time></trkpt>
<trkpt lat="46.245130000" lon="7.475490000"><ele></ele><time>2013-8-8T0:29:55Z</time></trkpt>
<trkpt lat="46.245130000" lon="7.475460000"><ele></ele><time>2013-8-8T0:29:58Z</time></trkpt>
<trkpt lat="46.245130000" lon="7.475430000"><ele></ele><time>2013-8-8T0:30:1Z</time></trkpt>
<trkpt lat="46.245130000" lon="7.475400000"><ele></ele><time>2013-8-8T0:30:4Z</time></trkpt>
<trkpt lat="46.245130000" lon="7.475370000"><ele></ele><time>2013-8-8T0:30:7Z</time></trkpt>
<trkpt lat="46.245140000" lon="7.475140000"><ele></ele><time>2013-8-8T0:30:10Z</time></trkpt>
<trkpt lat="46.245140000" lon="7.475080000"><ele></ele><time>2013-8-8T0:30:13Z</time></trkpt>
<trkpt lat="46.245140000" lon="7.475050000"><ele></ele><time>2013-8-8T0:30:16Z</time></trkpt>
<trkpt lat="46.245140000" lon="7.475010000"><ele></ele><time>2013-8-8T0:30:19Z</time></trkpt>
<trkpt lat="46.245140000" lon="7.474980000"><ele></ele><time>2013-8-8T0:30:22Z</time></trkpt>
<trkpt lat="46.245140000" lon="7.474950000"><ele></ele><time>2013-8-8T0:30:25Z</time></trkpt>
<trkpt lat="46.245150000" lon="7.474920000"><ele></ele><time>2013-8-8T0:30:28Z</time></trkpt>
<trkpt lat="46.245150000" lon="7.474880000"><ele></ele><time>2013-8-8T0:30:31Z</time></trkpt>
<trkpt lat="46.245150000" lon="7.474850000"><ele></ele><time>2013-8-8T0:30:34Z</time></trkpt>
<trkpt lat="46.245140000" lon="7.474820000"><ele></ele><time>2013-8-8T0:30:37Z</time></trkpt>
<trkpt lat="46.245140000" lon="7.474780000"><ele></ele><time>2013-8-8T0:30:40Z</time></trkpt>
<trkpt lat="46.245140000" lon="7.474750000"><ele></ele><time>2013-8-8T0:30:43Z</time></trkpt>
<trkpt lat="46.245120000" lon="7.474580000"><ele></ele><time>2013-8-8T0:30:46Z</time></trkpt>
<trkpt lat="46.245120000" lon="7.474540000"><ele></ele><time>2013-8-8T0:30:49Z</time></trkpt>
<trkpt lat="46.245110000" lon="7.474510000"><ele></ele><time>2013-8-8T0:30:52Z</time></trkpt>
<trkpt lat="46.245100000" lon="7.474480000"><ele></ele><time>2013-8-8T0:30:55Z</time></trkpt>
<trkpt lat="46.245090000" lon="7.474450000"><ele></ele><time>2013-8-8T0:30:58Z</time></trkpt>
<trkpt lat="46.245050000" lon="7.474330000"><ele></ele><time>2013-8-8T0:31:1Z</time></trkpt>
<trkpt lat="46.244980000" lon="7.474130000"><ele></ele><time>2013-8-8T0:31:4Z</time></trkpt>
<trkpt lat="46.244960000" lon="7.474080000"><ele></ele><time>2013-8-8T0:31:7Z</time></trkpt>
<trkpt lat="46.244950000" lon="7.474050000"><ele></ele><time>2013-8-8T0:31:10Z</time></trkpt>
<trkpt lat="46.244940000" lon="7.474020000"><ele></ele><time>2013-8-8T0:31:13Z</time></trkpt>
<trkpt lat="46.244930000" lon="7.473990000"><ele></ele><time>2013-8-8T0:31:16Z</time></trkpt>
<trkpt lat="46.244920000" lon="7.473960000"><ele></ele><time>2013-8-8T0:31:19Z</time></trkpt>
<trkpt lat="46.244900000" lon="7.473930000"><ele></ele><time>2013-8-8T0:31:22Z</time></trkpt>
<trkpt lat="46.244900000" lon="7.473900000"><ele></ele><time>2013-8-8T0:31:25Z</time></trkpt>
<trkpt lat="46.244880000" lon="7.473870000"><ele></ele><time>2013-8-8T0:31:28Z</time></trkpt>
<trkpt lat="46.244870000" lon="7.473840000"><ele></ele><time>2013-8-8T0:31:31Z</time></trkpt>
<trkpt lat="46.244840000" lon="7.473750000"><ele></ele><time>2013-8-8T0:31:34Z</time></trkpt>
<trkpt lat="46.244830000" lon="7.473720000"><ele></ele><time>2013-8-8T0:31:37Z</time></trkpt>
<trkpt lat="46.244820000" lon="7.473680000"><ele></ele><time>2013-8-8T0:31:40Z</time></trkpt>
<trkpt lat="46.244810000" lon="7.473650000"><ele></ele><time>2013-8-8T0:31:43Z</time></trkpt>
<trkpt lat="46.244810000" lon="7.473610000"><ele></ele><time>2013-8-8T0:31:46Z</time></trkpt>
<trkpt lat="46.244800000" lon="7.473570000"><ele></ele><time>2013-8-8T0:31:49Z</time></trkpt>
<trkpt lat="46.244790000" lon="7.473400000"><ele></ele><time>2013-8-8T0:31:52Z</time></trkpt>
<trkpt lat="46.244790000" lon="7.473370000"><ele></ele><time>2013-8-8T0:31:55Z</time></trkpt>
<trkpt lat="46.244790000" lon="7.473330000"><ele></ele><time>2013-8-8T0:31:58Z</time></trkpt>
<trkpt lat="46.244790000" lon="7.473300000"><ele></ele><time>2013-8-8T0:32:1Z</time></trkpt>
<trkpt lat="46.244790000" lon="7.473260000"><ele></ele><time>2013-8-8T0:32:4Z</time></trkpt>
<trkpt lat="46.244800000" lon="7.473220000"><ele></ele><time>2013-8-8T0:32:7Z</time></trkpt>
<trkpt lat="46.244830000" lon="7.473090000"><ele></ele><time>2013-8-8T0:32:10Z</time></trkpt>
<trkpt lat="46.244830000" lon="7.473060000"><ele></ele><time>2013-8-8T0:32:13Z</time></trkpt>
<trkpt lat="46.244840000" lon="7.473030000"><ele></ele><time>2013-8-8T0:32:16Z</time></trkpt>
<trkpt lat="46.244850000" lon="7.473000000"><ele></ele><time>2013-8-8T0:32:19Z</time></trkpt>
<trkpt lat="46.244850000" lon="7.472970000"><ele></ele><time>2013-8-8T0:32:22Z</time></trkpt>
<trkpt lat="46.244890000" lon="7.472770000"><ele></ele><time>2013-8-8T0:32:25Z</time></trkpt>
<trkpt lat="46.244890000" lon="7.472730000"><ele></ele><time>2013-8-8T0:32:28Z</time></trkpt>
<trkpt lat="46.244890000" lon="7.472700000"><ele></ele><time>2013-8-8T0:32:31Z</time></trkpt>
<trkpt lat="46.244890000" lon="7.472670000"><ele></ele><time>2013-8-8T0:32:34Z</time></trkpt>
<trkpt lat="46.244900000" lon="7.472640000"><ele></ele><time>2013-8-8T0:32:37Z</time></trkpt>
<trkpt lat="46.244900000" lon="7.472470000"><ele></ele><time>2013-8-8T0:32:40Z</time></trkpt>
<trkpt lat="46.244900000" lon="7.472440000"><ele></ele><time>2013-8-8T0:32:43Z</time></trkpt>
<trkpt lat="46.244900000" lon="7.472410000"><ele></ele><time>2013-8-8T0:32:46Z</time></trkpt>
<trkpt lat="46.244890000" lon="7.472370000"><ele></ele><time>2013-8-8T0:32:49Z</time></trkpt>
<trkpt lat="46.244870000" lon="7.472280000"><ele></ele><time>2013-8-8T0:32:52Z</time></trkpt>
<trkpt lat="46.244860000" lon="7.472240000"><ele></ele><time>2013-8-8T0:32:55Z</time></trkpt>
<trkpt lat="46.244850000" lon="7.472210000"><ele></ele><time>2013-8-8T0:32:58Z</time></trkpt>
<trkpt lat="46.244850000" lon="7.472180000"><ele></ele><time>2013-8-8T0:33:1Z</time></trkpt>
<trkpt lat="46.244840000" lon="7.472150000"><ele></ele><time>2013-8-8T0:33:4Z</time></trkpt>
<trkpt lat="46.244840000" lon="7.472120000"><ele></ele><time>2013-8-8T0:33:7Z</time></trkpt>
<trkpt lat="46.244830000" lon="7.472060000"><ele></ele><time>2013-8-8T0:33:10Z</time></trkpt>
<trkpt lat="46.244820000" lon="7.471910000"><ele></ele><time>2013-8-8T0:33:13Z</time></trkpt>
<trkpt lat="46.244810000" lon="7.471810000"><ele></ele><time>2013-8-8T0:33:16Z</time></trkpt>
<trkpt lat="46.244820000" lon="7.471750000"><ele></ele><time>2013-8-8T0:33:19Z</time></trkpt>
<trkpt lat="46.244810000" lon="7.471720000"><ele></ele><time>2013-8-8T0:33:22Z</time></trkpt>
<trkpt lat="46.244810000" lon="7.471680000"><ele></ele><time>2013-8-8T0:33:25Z</time></trkpt>
<trkpt lat="46.244810000" lon="7.471650000"><ele></ele><time>2013-8-8T0:33:28Z</time></trkpt>
<trkpt lat="46.244810000" lon="7.471610000"><ele></ele><time>2013-8-8T0:33:31Z</time></trkpt>
<trkpt lat="46.244820000" lon="7.471540000"><ele></ele><time>2013-8-8T0:33:34Z</time></trkpt>
<trkpt lat="46.244830000" lon="7.471510000"><ele></ele><time>2013-8-8T0:33:37Z</time></trkpt>
<trkpt lat="46.244830000" lon="7.471480000"><ele></ele><time>2013-8-8T0:33:40Z</time></trkpt>
<trkpt lat="46.244830000" lon="7.471450000"><ele></ele><time>2013-8-8T0:33:43Z</time></trkpt>
<trkpt lat="46.244840000" lon="7.471410000"><ele></ele><time>2013-8-8T0:33:46Z</time></trkpt>
<trkpt lat="46.244840000" lon="7.471380000"><ele></ele><time>2013-8-8T0:33:49Z</time></trkpt>
<trkpt lat="46.244860000" lon="7.471320000"><ele></ele><time>2013-8-8T0:33:52Z</time></trkpt>
<trkpt lat="46.244860000" lon="7.471290000"><ele></ele><time>2013-8-8T0:33:55Z</time></trkpt>
<trkpt lat="46.244870000" lon="7.471250000"><ele></ele><time>2013-8-8T0:33:58Z</time></trkpt>
<trkpt lat="46.244870000" lon="7.471210000"><ele></ele><time>2013-8-8T0:34:1Z</time></trkpt>
<trkpt lat="46.244880000" lon="7.471180000"><ele></ele><time>2013-8-8T0:34:4Z</time></trkpt>
<trkpt lat="46.244920000" lon="7.470980000"><ele></ele><time>2013-8-8T0:34:7Z</time></trkpt>
<trkpt lat="46.244910000" lon="7.470940000"><ele></ele><time>2013-8-8T0:34:10Z</time></trkpt>
<trkpt lat="46.244910000" lon="7.470910000"><ele></ele><time>2013-8-8T0:34:13Z</time></trkpt>
<trkpt lat="46.244920000" lon="7.470880000"><ele></ele><time>2013-8-8T0:34:16Z</time></trkpt>
<trkpt lat="46.244920000" lon="7.470840000"><ele></ele><time>2013-8-8T0:34:19Z</time></trkpt>
<trkpt lat="46.244930000" lon="7.470720000"><ele></ele><time>2013-8-8T0:34:22Z</time></trkpt>
<trkpt lat="46.244930000" lon="7.470680000"><ele></ele><time>2013-8-8T0:34:25Z</time></trkpt>
<trkpt lat="46.244940000" lon="7.470650000"><ele></ele><time>2013-8-8T0:34:28Z</time></trkpt>
<trkpt lat="46.244940000" lon="7.470620000"><ele></ele><time>2013-8-8T0:34:31Z</time></trkpt>
<trkpt lat="46.244950000" lon="7.470580000"><ele></ele><time>2013-8-8T0:34:34Z</time></trkpt>
<trkpt lat="46.244950000" lon="7.470550000"><ele></ele><time>2013-8-8T0:34:37Z</time></trkpt>
<trkpt lat="46.244950000" lon="7.470470000"><ele></ele><time>2013-8-8T0:34:40Z</time></trkpt>
<trkpt lat="46.244950000" lon="7.470440000"><ele></ele><time>2013-8-8T0:34:43Z</time></trkpt>
<trkpt lat="46.244950000" lon="7.470400000"><ele></ele><time>2013-8-8T0:34:46Z</time></trkpt>
<trkpt lat="46.244950000" lon="7.470360000"><ele></ele><time>2013-8-8T0:34:49Z</time></trkpt>
<trkpt lat="46.244950000" lon="7.470330000"><ele></ele><time>2013-8-8T0:34:52Z</time></trkpt>
<trkpt lat="46.244950000" lon="7.470290000"><ele></ele><time>2013-8-8T0:34:55Z</time></trkpt>
<trkpt lat="46.244940000" lon="7.470230000"><ele></ele><time>2013-8-8T0:34:58Z</time></trkpt>
<trkpt lat="46.244940000" lon="7.470200000"><ele></ele><time>2013-8-8T0:35:1Z</time></trkpt>
<trkpt lat="46.244940000" lon="7.470160000"><ele></ele><time>2013-8-8T0:35:4Z</time></trkpt>
<trkpt lat="46.244930000" lon="7.470130000"><ele></ele><time>2013-8-8T0:35:7Z</time></trkpt>
<trkpt lat="46.244930000" lon="7.470090000"><ele></ele><time>2013-8-8T0:35:10Z</time></trkpt>
<trkpt lat="46.244910000" lon="7.469960000"><ele></ele><time>2013-8-8T0:35:13Z</time></trkpt>
<trkpt lat="46.244890000" lon="7.469860000"><ele></ele><time>2013-8-8T0:35:16Z</time></trkpt>
<trkpt lat="46.244880000" lon="7.469830000"><ele></ele><time>2013-8-8T0:35:19Z</time></trkpt>
<trkpt lat="46.244880000" lon="7.469800000"><ele></ele><time>2013-8-8T0:35:22Z</time></trkpt>
<trkpt lat="46.244870000" lon="7.469760000"><ele></ele><time>2013-8-8T0:35:25Z</time></trkpt>
<trkpt lat="46.244870000" lon="7.469730000"><ele></ele><time>2013-8-8T0:35:28Z</time></trkpt>
<trkpt lat="46.244830000" lon="7.469500000"><ele></ele><time>2013-8-8T0:35:31Z</time></trkpt>
<trkpt lat="46.244830000" lon="7.469460000"><ele></ele><time>2013-8-8T0:35:34Z</time></trkpt>
<trkpt lat="46.244830000" lon="7.469420000"><ele></ele><time>2013-8-8T0:35:37Z</time></trkpt>
<trkpt lat="46.244820000" lon="7.469390000"><ele></ele><time>2013-8-8T0:35:40Z</time></trkpt>
<trkpt lat="46.244820000" lon="7.469350000"><ele></ele><time>2013-8-8T0:35:43Z</time></trkpt>
<trkpt lat="46.244820000" lon="7.469310000"><ele></ele><time>2013-8-8T0:35:46Z</time></trkpt>
<trkpt lat="46.244820000" lon="7.469240000"><ele></ele><time>2013-8-8T0:35:49Z</time></trkpt>
<trkpt lat="46.244820000" lon="7.468980000"><ele></ele><time>2013-8-8T0:35:52Z</time></trkpt>
<trkpt lat="46.244820000" lon="7.468950000"><ele></ele><time>2013-8-8T0:35:55Z</time></trkpt>
<trkpt lat="46.244820000" lon="7.468910000"><ele></ele><time>2013-8-8T0:35:58Z</time></trkpt>
<trkpt lat="46.244820000" lon="7.468870000"><ele></ele><time>2013-8-8T0:36:1Z</time></trkpt>
<trkpt lat="46.244820000" lon="7.468640000"><ele></ele><time>2013-8-8T0:36:4Z</time></trkpt>
<trkpt lat="46.244810000" lon="7.468570000"><ele></ele><time>2013-8-8T0:36:7Z</time></trkpt>
<trkpt lat="46.244810000" lon="7.468530000"><ele></ele><time>2013-8-8T0:36:10Z</time></trkpt>
<trkpt lat="46.244810000" lon="7.468500000"><ele></ele><time>2013-8-8T0:36:13Z</time></trkpt>
<trkpt lat="46.244810000" lon="7.468460000"><ele></ele><time>2013-8-8T0:36:16Z</time></trkpt>
<trkpt lat="46.244810000" lon="7.468430000"><ele></ele><time>2013-8-8T0:36:19Z</time></trkpt>
<trkpt lat="46.244800000" lon="7.468390000"><ele></ele><time>2013-8-8T0:36:22Z</time></trkpt>
<trkpt lat="46.244800000" lon="7.468270000"><ele></ele><time>2013-8-8T0:36:25Z</time></trkpt>
<trkpt lat="46.244800000" lon="7.468230000"><ele></ele><time>2013-8-8T0:36:28Z</time></trkpt>
<trkpt lat="46.244800000" lon="7.468190000"><ele></ele><time>2013-8-8T0:36:31Z</time></trkpt>
<trkpt lat="46.244790000" lon="7.468150000"><ele></ele><time>2013-8-8T0:36:34Z</time></trkpt>
<trkpt lat="46.244790000" lon="7.468100000"><ele></ele><time>2013-8-8T0:36:37Z</time></trkpt>
<trkpt lat="46.244780000" lon="7.467860000"><ele></ele><time>2013-8-8T0:36:40Z</time></trkpt>
<trkpt lat="46.244780000" lon="7.467820000"><ele></ele><time>2013-8-8T0:36:43Z</time></trkpt>
<trkpt lat="46.244780000" lon="7.467780000"><ele></ele><time>2013-8-8T0:36:46Z</time></trkpt>
<trkpt lat="46.244770000" lon="7.467740000"><ele></ele><time>2013-8-8T0:36:49Z</time></trkpt>
<trkpt lat="46.244770000" lon="7.467700000"><ele></ele><time>2013-8-8T0:36:52Z</time></trkpt>
<trkpt lat="46.244750000" lon="7.467580000"><ele></ele><time>2013-8-8T0:36:55Z</time></trkpt>
<trkpt lat="46.244690000" lon="7.467400000"><ele></ele><time>2013-8-8T0:36:58Z</time></trkpt>
<trkpt lat="46.244670000" lon="7.467370000"><ele></ele><time>2013-8-8T0:37:1Z</time></trkpt>
<trkpt lat="46.244660000" lon="7.467340000"><ele></ele><time>2013-8-8T0:37:4Z</time></trkpt>
<trkpt lat="46.244640000" lon="7.467310000"><ele></ele><time>2013-8-8T0:37:7Z</time></trkpt>
<trkpt lat="46.244630000" lon="7.467280000"><ele></ele><time>2013-8-8T0:37:10Z</time></trkpt>
<trkpt lat="46.244550000" lon="7.467170000"><ele></ele><time>2013-8-8T0:37:13Z</time></trkpt>
<trkpt lat="46.244530000" lon="7.467150000"><ele></ele><time>2013-8-8T0:37:16Z</time></trkpt>
<trkpt lat="46.244510000" lon="7.467120000"><ele></ele><time>2013-8-8T0:37:19Z</time></trkpt>
<trkpt lat="46.244490000" lon="7.467090000"><ele></ele><time>2013-8-8T0:37:22Z</time></trkpt>
<trkpt lat="46.244390000" lon="7.466990000"><ele></ele><time>2013-8-8T0:37:25Z</time></trkpt>
<trkpt lat="46.244320000" lon="7.466940000"><ele></ele><time>2013-8-8T0:37:28Z</time></trkpt>
<trkpt lat="46.244290000" lon="7.466920000"><ele></ele><time>2013-8-8T0:37:31Z</time></trkpt>
<trkpt lat="46.244260000" lon="7.466910000"><ele></ele><time>2013-8-8T0:37:34Z</time></trkpt>
<trkpt lat="46.244240000" lon="7.466890000"><ele></ele><time>2013-8-8T0:37:37Z</time></trkpt>
<trkpt lat="46.244220000" lon="7.466880000"><ele></ele><time>2013-8-8T0:37:40Z</time></trkpt>
<trkpt lat="46.244090000" lon="7.466830000"><ele></ele><time>2013-8-8T0:37:43Z</time></trkpt>
<trkpt lat="46.244060000" lon="7.466820000"><ele></ele><time>2013-8-8T0:37:46Z</time></trkpt>
<trkpt lat="46.244030000" lon="7.466810000"><ele></ele><time>2013-8-8T0:37:49Z</time></trkpt>
<trkpt lat="46.244010000" lon="7.466800000"><ele></ele><time>2013-8-8T0:37:52Z</time></trkpt>
<trkpt lat="46.243990000" lon="7.466790000"><ele></ele><time>2013-8-8T0:37:55Z</time></trkpt>
<trkpt lat="46.243970000" lon="7.466790000"><ele></ele><time>2013-8-8T0:37:58Z</time></trkpt>
<trkpt lat="46.243910000" lon="7.466770000"><ele></ele><time>2013-8-8T0:38:1Z</time></trkpt>
<trkpt lat="46.243840000" lon="7.466770000"><ele></ele><time>2013-8-8T0:38:4Z</time></trkpt>
<trkpt lat="46.243810000" lon="7.466760000"><ele></ele><time>2013-8-8T0:38:7Z</time></trkpt>
<trkpt lat="46.243780000" lon="7.466760000"><ele></ele><time>2013-8-8T0:38:10Z</time></trkpt>
<trkpt lat="46.243760000" lon="7.466760000"><ele></ele><time>2013-8-8T0:38:13Z</time></trkpt>
<trkpt lat="46.243730000" lon="7.466750000"><ele></ele><time>2013-8-8T0:38:16Z</time></trkpt>
<trkpt lat="46.243620000" lon="7.466710000"><ele></ele><time>2013-8-8T0:38:19Z</time></trkpt>
<trkpt lat="46.243590000" lon="7.466700000"><ele></ele><time>2013-8-8T0:38:22Z</time></trkpt>
<trkpt lat="46.243570000" lon="7.466690000"><ele></ele><time>2013-8-8T0:38:25Z</time></trkpt>
<trkpt lat="46.243550000" lon="7.466670000"><ele></ele><time>2013-8-8T0:38:28Z</time></trkpt>
<trkpt lat="46.243530000" lon="7.466660000"><ele></ele><time>2013-8-8T0:38:31Z</time></trkpt>
<trkpt lat="46.243450000" lon="7.466560000"><ele></ele><time>2013-8-8T0:38:34Z</time></trkpt>
<trkpt lat="46.243400000" lon="7.466460000"><ele></ele><time>2013-8-8T0:38:37Z</time></trkpt>
<trkpt lat="46.243380000" lon="7.466420000"><ele></ele><time>2013-8-8T0:38:40Z</time></trkpt>
<trkpt lat="46.243370000" lon="7.466380000"><ele></ele><time>2013-8-8T0:38:43Z</time></trkpt>
<trkpt lat="46.243360000" lon="7.466340000"><ele></ele><time>2013-8-8T0:38:46Z</time></trkpt>
<trkpt lat="46.243270000" lon="7.466100000"><ele></ele><time>2013-8-8T0:38:49Z</time></trkpt>
<trkpt lat="46.243230000" lon="7.465970000"><ele></ele><time>2013-8-8T0:38:52Z</time></trkpt>
<trkpt lat="46.243210000" lon="7.465880000"><ele></ele><time>2013-8-8T0:38:55Z</time></trkpt>
<trkpt lat="46.243160000" lon="7.465610000"><ele></ele><time>2013-8-8T0:38:58Z</time></trkpt>
<trkpt lat="46.243150000" lon="7.465500000"><ele></ele><time>2013-8-8T0:39:1Z</time></trkpt>
<trkpt lat="46.243090000" lon="7.465210000"><ele></ele><time>2013-8-8T0:39:4Z</time></trkpt>
<trkpt lat="46.243080000" lon="7.465150000"><ele></ele><time>2013-8-8T0:39:7Z</time></trkpt>
<trkpt lat="46.243070000" lon="7.465100000"><ele></ele><time>2013-8-8T0:39:10Z</time></trkpt>
<trkpt lat="46.243020000" lon="7.464850000"><ele></ele><time>2013-8-8T0:39:13Z</time></trkpt>
<trkpt lat="46.242970000" lon="7.464720000"><ele></ele><time>2013-8-8T0:39:16Z</time></trkpt>
<trkpt lat="46.242880000" lon="7.464470000"><ele></ele><time>2013-8-8T0:39:19Z</time></trkpt>
<trkpt lat="46.242800000" lon="7.464260000"><ele></ele><time>2013-8-8T0:39:22Z</time></trkpt>
<trkpt lat="46.242770000" lon="7.464190000"><ele></ele><time>2013-8-8T0:39:25Z</time></trkpt>
<trkpt lat="46.242740000" lon="7.464120000"><ele></ele><time>2013-8-8T0:39:28Z</time></trkpt>
<trkpt lat="46.242710000" lon="7.464050000"><ele></ele><time>2013-8-8T0:39:31Z</time></trkpt>
<trkpt lat="46.242680000" lon="7.463980000"><ele></ele><time>2013-8-8T0:39:34Z</time></trkpt>
<trkpt lat="46.242610000" lon="7.463850000"><ele></ele><time>2013-8-8T0:39:37Z</time></trkpt>
<trkpt lat="46.242500000" lon="7.463660000"><ele></ele><time>2013-8-8T0:39:40Z</time></trkpt>
<trkpt lat="46.242460000" lon="7.463590000"><ele></ele><time>2013-8-8T0:39:43Z</time></trkpt>
<trkpt lat="46.242420000" lon="7.463530000"><ele></ele><time>2013-8-8T0:39:46Z</time></trkpt>
<trkpt lat="46.242380000" lon="7.463460000"><ele></ele><time>2013-8-8T0:39:49Z</time></trkpt>
<trkpt lat="46.242270000" lon="7.463250000"><ele></ele><time>2013-8-8T0:39:52Z</time></trkpt>
<trkpt lat="46.242240000" lon="7.463180000"><ele></ele><time>2013-8-8T0:39:55Z</time></trkpt>
<trkpt lat="46.242210000" lon="7.463100000"><ele></ele><time>2013-8-8T0:39:58Z</time></trkpt>
<trkpt lat="46.242180000" lon="7.463030000"><ele></ele><time>2013-8-8T0:40:1Z</time></trkpt>
<trkpt lat="46.242150000" lon="7.462950000"><ele></ele><time>2013-8-8T0:40:4Z</time></trkpt>
<trkpt lat="46.242130000" lon="7.462880000"><ele></ele><time>2013-8-8T0:40:7Z</time></trkpt>
<trkpt lat="46.242080000" lon="7.462740000"><ele></ele><time>2013-8-8T0:40:10Z</time></trkpt>
<trkpt lat="46.242030000" lon="7.462630000"><ele></ele><time>2013-8-8T0:40:13Z</time></trkpt>
<trkpt lat="46.242010000" lon="7.462580000"><ele></ele><time>2013-8-8T0:40:16Z</time></trkpt>
<trkpt lat="46.241990000" lon="7.462520000"><ele></ele><time>2013-8-8T0:40:19Z</time></trkpt>
<trkpt lat="46.241970000" lon="7.462460000"><ele></ele><time>2013-8-8T0:40:22Z</time></trkpt>
<trkpt lat="46.241950000" lon="7.462400000"><ele></ele><time>2013-8-8T0:40:25Z</time></trkpt>
<trkpt lat="46.241880000" lon="7.462150000"><ele></ele><time>2013-8-8T0:40:28Z</time></trkpt>
<trkpt lat="46.241860000" lon="7.462100000"><ele></ele><time>2013-8-8T0:40:31Z</time></trkpt>
<trkpt lat="46.241840000" lon="7.462040000"><ele></ele><time>2013-8-8T0:40:34Z</time></trkpt>
<trkpt lat="46.241820000" lon="7.461990000"><ele></ele><time>2013-8-8T0:40:37Z</time></trkpt>
<trkpt lat="46.241800000" lon="7.461930000"><ele></ele><time>2013-8-8T0:40:40Z</time></trkpt>
<trkpt lat="46.241780000" lon="7.461880000"><ele></ele><time>2013-8-8T0:40:43Z</time></trkpt>
<trkpt lat="46.241760000" lon="7.461830000"><ele></ele><time>2013-8-8T0:40:46Z</time></trkpt>
<trkpt lat="46.241720000" lon="7.461720000"><ele></ele><time>2013-8-8T0:40:49Z</time></trkpt>
<trkpt lat="46.241680000" lon="7.461630000"><ele></ele><time>2013-8-8T0:40:52Z</time></trkpt>
<trkpt lat="46.241650000" lon="7.461590000"><ele></ele><time>2013-8-8T0:40:55Z</time></trkpt>
<trkpt lat="46.241630000" lon="7.461550000"><ele></ele><time>2013-8-8T0:40:58Z</time></trkpt>
<trkpt lat="46.241590000" lon="7.461500000"><ele></ele><time>2013-8-8T0:41:1Z</time></trkpt>
<trkpt lat="46.241560000" lon="7.461470000"><ele></ele><time>2013-8-8T0:41:4Z</time></trkpt>
<trkpt lat="46.241520000" lon="7.461430000"><ele></ele><time>2013-8-8T0:41:7Z</time></trkpt>
<trkpt lat="46.241470000" lon="7.461330000"><ele></ele><time>2013-8-8T0:41:10Z</time></trkpt>
<trkpt lat="46.241460000" lon="7.461230000"><ele></ele><time>2013-8-8T0:41:13Z</time></trkpt>
<trkpt lat="46.241450000" lon="7.461180000"><ele></ele><time>2013-8-8T0:41:16Z</time></trkpt>
<trkpt lat="46.241440000" lon="7.461130000"><ele></ele><time>2013-8-8T0:41:19Z</time></trkpt>
<trkpt lat="46.241440000" lon="7.461090000"><ele></ele><time>2013-8-8T0:41:22Z</time></trkpt>
<trkpt lat="46.241440000" lon="7.461040000"><ele></ele><time>2013-8-8T0:41:25Z</time></trkpt>
<trkpt lat="46.241460000" lon="7.460850000"><ele></ele><time>2013-8-8T0:41:28Z</time></trkpt>
<trkpt lat="46.241490000" lon="7.460560000"><ele></ele><time>2013-8-8T0:41:31Z</time></trkpt>
<trkpt lat="46.241530000" lon="7.460270000"><ele></ele><time>2013-8-8T0:41:34Z</time></trkpt>
<trkpt lat="46.241540000" lon="7.460210000"><ele></ele><time>2013-8-8T0:41:37Z</time></trkpt>
<trkpt lat="46.241550000" lon="7.460150000"><ele></ele><time>2013-8-8T0:41:40Z</time></trkpt>
<trkpt lat="46.241560000" lon="7.460080000"><ele></ele><time>2013-8-8T0:41:43Z</time></trkpt>
<trkpt lat="46.241570000" lon="7.460020000"><ele></ele><time>2013-8-8T0:41:46Z</time></trkpt>
<trkpt lat="46.241550000" lon="7.459910000"><ele></ele><time>2013-8-8T0:41:49Z</time></trkpt>
<trkpt lat="46.241490000" lon="7.459840000"><ele></ele><time>2013-8-8T0:41:52Z</time></trkpt>
<trkpt lat="46.241310000" lon="7.459730000"><ele></ele><time>2013-8-8T0:41:55Z</time></trkpt>
<trkpt lat="46.241280000" lon="7.459710000"><ele></ele><time>2013-8-8T0:41:58Z</time></trkpt>
<trkpt lat="46.241230000" lon="7.459690000"><ele></ele><time>2013-8-8T0:42:1Z</time></trkpt>
<trkpt lat="46.241200000" lon="7.459660000"><ele></ele><time>2013-8-8T0:42:4Z</time></trkpt>
<trkpt lat="46.241180000" lon="7.459650000"><ele></ele><time>2013-8-8T0:42:7Z</time></trkpt>
<trkpt lat="46.241140000" lon="7.459620000"><ele></ele><time>2013-8-8T0:42:10Z</time></trkpt>
<trkpt lat="46.241040000" lon="7.459460000"><ele></ele><time>2013-8-8T0:42:13Z</time></trkpt>
<trkpt lat="46.241010000" lon="7.459410000"><ele></ele><time>2013-8-8T0:42:16Z</time></trkpt>
<trkpt lat="46.240990000" lon="7.459370000"><ele></ele><time>2013-8-8T0:42:19Z</time></trkpt>
<trkpt lat="46.240960000" lon="7.459340000"><ele></ele><time>2013-8-8T0:42:22Z</time></trkpt>
<trkpt lat="46.240920000" lon="7.459310000"><ele></ele><time>2013-8-8T0:42:25Z</time></trkpt>
<trkpt lat="46.240880000" lon="7.459290000"><ele></ele><time>2013-8-8T0:42:28Z</time></trkpt>
<trkpt lat="46.240760000" lon="7.459270000"><ele></ele><time>2013-8-8T0:42:31Z</time></trkpt>
<trkpt lat="46.240730000" lon="7.459280000"><ele></ele><time>2013-8-8T0:42:34Z</time></trkpt>
<trkpt lat="46.240650000" lon="7.459290000"><ele></ele><time>2013-8-8T0:42:37Z</time></trkpt>
<trkpt lat="46.240570000" lon="7.459300000"><ele></ele><time>2013-8-8T0:42:40Z</time></trkpt>
<trkpt lat="46.240540000" lon="7.459300000"><ele></ele><time>2013-8-8T0:42:43Z</time></trkpt>
<trkpt lat="46.240490000" lon="7.459300000"><ele></ele><time>2013-8-8T0:42:46Z</time></trkpt>
<trkpt lat="46.240460000" lon="7.459280000"><ele></ele><time>2013-8-8T0:42:49Z</time></trkpt>
<trkpt lat="46.240420000" lon="7.459250000"><ele></ele><time>2013-8-8T0:42:52Z</time></trkpt>
<trkpt lat="46.240270000" lon="7.459110000"><ele></ele><time>2013-8-8T0:42:55Z</time></trkpt>
<trkpt lat="46.240180000" lon="7.458970000"><ele></ele><time>2013-8-8T0:42:58Z</time></trkpt>
<trkpt lat="46.240150000" lon="7.458930000"><ele></ele><time>2013-8-8T0:43:1Z</time></trkpt>
<trkpt lat="46.239960000" lon="7.458670000"><ele></ele><time>2013-8-8T0:43:4Z</time></trkpt>
<trkpt lat="46.239800000" lon="7.458560000"><ele></ele><time>2013-8-8T0:43:7Z</time></trkpt>
<trkpt lat="46.239730000" lon="7.458570000"><ele></ele><time>2013-8-8T0:43:10Z</time></trkpt>
<trkpt lat="46.239700000" lon="7.458580000"><ele></ele><time>2013-8-8T0:43:13Z</time></trkpt>
<trkpt lat="46.239670000" lon="7.458600000"><ele></ele><time>2013-8-8T0:43:16Z</time></trkpt>
<trkpt lat="46.239640000" lon="7.458620000"><ele></ele><time>2013-8-8T0:43:19Z</time></trkpt>
<trkpt lat="46.239450000" lon="7.458770000"><ele></ele><time>2013-8-8T0:43:22Z</time></trkpt>
<trkpt lat="46.239250000" lon="7.458960000"><ele></ele><time>2013-8-8T0:43:25Z</time></trkpt>
<trkpt lat="46.239170000" lon="7.459070000"><ele></ele><time>2013-8-8T0:43:28Z</time></trkpt>
<trkpt lat="46.239060000" lon="7.459200000"><ele></ele><time>2013-8-8T0:43:31Z</time></trkpt>
<trkpt lat="46.238970000" lon="7.459260000"><ele></ele><time>2013-8-8T0:43:34Z</time></trkpt>
<trkpt lat="46.238930000" lon="7.459270000"><ele></ele><time>2013-8-8T0:43:37Z</time></trkpt>
<trkpt lat="46.238900000" lon="7.459280000"><ele></ele><time>2013-8-8T0:43:40Z</time></trkpt>
<trkpt lat="46.238860000" lon="7.459300000"><ele></ele><time>2013-8-8T0:43:43Z</time></trkpt>
<trkpt lat="46.238790000" lon="7.459320000"><ele></ele><time>2013-8-8T0:43:46Z</time></trkpt>
<trkpt lat="46.238750000" lon="7.459330000"><ele></ele><time>2013-8-8T0:43:49Z</time></trkpt>
<trkpt lat="46.238720000" lon="7.459350000"><ele></ele><time>2013-8-8T0:43:52Z</time></trkpt>
<trkpt lat="46.238670000" lon="7.459350000"><ele></ele><time>2013-8-8T0:43:55Z</time></trkpt>
<trkpt lat="46.238640000" lon="7.459360000"><ele></ele><time>2013-8-8T0:43:58Z</time></trkpt>
<trkpt lat="46.238590000" lon="7.459350000"><ele></ele><time>2013-8-8T0:44:1Z</time></trkpt>
<trkpt lat="46.238390000" lon="7.459330000"><ele></ele><time>2013-8-8T0:44:4Z</time></trkpt>
<trkpt lat="46.238350000" lon="7.459310000"><ele></ele><time>2013-8-8T0:44:7Z</time></trkpt>
<trkpt lat="46.238300000" lon="7.459290000"><ele></ele><time>2013-8-8T0:44:10Z</time></trkpt>
<trkpt lat="46.238260000" lon="7.459270000"><ele></ele><time>2013-8-8T0:44:13Z</time></trkpt>
<trkpt lat="46.238220000" lon="7.459270000"><ele></ele><time>2013-8-8T0:44:16Z</time></trkpt>
<trkpt lat="46.238170000" lon="7.459260000"><ele></ele><time>2013-8-8T0:44:19Z</time></trkpt>
<trkpt lat="46.238130000" lon="7.459260000"><ele></ele><time>2013-8-8T0:44:22Z</time></trkpt>
<trkpt lat="46.237950000" lon="7.459290000"><ele></ele><time>2013-8-8T0:44:25Z</time></trkpt>
<trkpt lat="46.237870000" lon="7.459300000"><ele></ele><time>2013-8-8T0:44:28Z</time></trkpt>
<trkpt lat="46.237830000" lon="7.459300000"><ele></ele><time>2013-8-8T0:44:31Z</time></trkpt>
<trkpt lat="46.237790000" lon="7.459300000"><ele></ele><time>2013-8-8T0:44:34Z</time></trkpt>
<trkpt lat="46.237750000" lon="7.459300000"><ele></ele><time>2013-8-8T0:44:37Z</time></trkpt>
<trkpt lat="46.237710000" lon="7.459300000"><ele></ele><time>2013-8-8T0:44:40Z</time></trkpt>
<trkpt lat="46.237670000" lon="7.459290000"><ele></ele><time>2013-8-8T0:44:43Z</time></trkpt>
<trkpt lat="46.237480000" lon="7.459280000"><ele></ele><time>2013-8-8T0:44:46Z</time></trkpt>
<trkpt lat="46.237300000" lon="7.459230000"><ele></ele><time>2013-8-8T0:44:49Z</time></trkpt>
<trkpt lat="46.237260000" lon="7.459220000"><ele></ele><time>2013-8-8T0:44:52Z</time></trkpt>
<trkpt lat="46.237220000" lon="7.459220000"><ele></ele><time>2013-8-8T0:44:55Z</time></trkpt>
<trkpt lat="46.237190000" lon="7.459220000"><ele></ele><time>2013-8-8T0:44:58Z</time></trkpt>
<trkpt lat="46.237150000" lon="7.459210000"><ele></ele><time>2013-8-8T0:45:1Z</time></trkpt>
<trkpt lat="46.237110000" lon="7.459210000"><ele></ele><time>2013-8-8T0:45:4Z</time></trkpt>
<trkpt lat="46.237030000" lon="7.459240000"><ele></ele><time>2013-8-8T0:45:7Z</time></trkpt>
<trkpt lat="46.236830000" lon="7.459230000"><ele></ele><time>2013-8-8T0:45:10Z</time></trkpt>
<trkpt lat="46.236620000" lon="7.459120000"><ele></ele><time>2013-8-8T0:45:13Z</time></trkpt>
<trkpt lat="46.236580000" lon="7.459090000"><ele></ele><time>2013-8-8T0:45:16Z</time></trkpt>
<trkpt lat="46.236550000" lon="7.459060000"><ele></ele><time>2013-8-8T0:45:19Z</time></trkpt>
<trkpt lat="46.236520000" lon="7.459040000"><ele></ele><time>2013-8-8T0:45:22Z</time></trkpt>
<trkpt lat="46.236490000" lon="7.459020000"><ele></ele><time>2013-8-8T0:45:25Z</time></trkpt>
<trkpt lat="46.236430000" lon="7.458980000"><ele></ele><time>2013-8-8T0:45:28Z</time></trkpt>
<trkpt lat="46.236230000" lon="7.458930000"><ele></ele><time>2013-8-8T0:45:31Z</time></trkpt>
<trkpt lat="46.236200000" lon="7.458930000"><ele></ele><time>2013-8-8T0:45:34Z</time></trkpt>
<trkpt lat="46.236160000" lon="7.458930000"><ele></ele><time>2013-8-8T0:45:37Z</time></trkpt>
<trkpt lat="46.236130000" lon="7.458940000"><ele></ele><time>2013-8-8T0:45:40Z</time></trkpt>
<trkpt lat="46.236090000" lon="7.458950000"><ele></ele><time>2013-8-8T0:45:43Z</time></trkpt>
<trkpt lat="46.235990000" lon="7.458980000"><ele></ele><time>2013-8-8T0:45:46Z</time></trkpt>
<trkpt lat="46.235820000" lon="7.459040000"><ele></ele><time>2013-8-8T0:45:49Z</time></trkpt>
<trkpt lat="46.235680000" lon="7.459100000"><ele></ele><time>2013-8-8T0:45:52Z</time></trkpt>
<trkpt lat="46.235650000" lon="7.459100000"><ele></ele><time>2013-8-8T0:45:55Z</time></trkpt>
<trkpt lat="46.235610000" lon="7.459110000"><ele></ele><time>2013-8-8T0:45:58Z</time></trkpt>
<trkpt lat="46.235580000" lon="7.459120000"><ele></ele><time>2013-8-8T0:46:1Z</time></trkpt>
<trkpt lat="46.235530000" lon="7.459120000"><ele></ele><time>2013-8-8T0:46:4Z</time></trkpt>
<trkpt lat="46.235360000" lon="7.459110000"><ele></ele><time>2013-8-8T0:46:7Z</time></trkpt>
<trkpt lat="46.235160000" lon="7.459040000"><ele></ele><time>2013-8-8T0:46:10Z</time></trkpt>
<trkpt lat="46.235130000" lon="7.459020000"><ele></ele><time>2013-8-8T0:46:13Z</time></trkpt>
<trkpt lat="46.235090000" lon="7.459000000"><ele></ele><time>2013-8-8T0:46:16Z</time></trkpt>
<trkpt lat="46.235070000" lon="7.458980000"><ele></ele><time>2013-8-8T0:46:19Z</time></trkpt>
<trkpt lat="46.235030000" lon="7.458950000"><ele></ele><time>2013-8-8T0:46:22Z</time></trkpt>
<trkpt lat="46.235000000" lon="7.458940000"><ele></ele><time>2013-8-8T0:46:25Z</time></trkpt>
<trkpt lat="46.234970000" lon="7.458910000"><ele></ele><time>2013-8-8T0:46:28Z</time></trkpt>
<trkpt lat="46.234910000" lon="7.458870000"><ele></ele><time>2013-8-8T0:46:31Z</time></trkpt>
<trkpt lat="46.234840000" lon="7.458830000"><ele></ele><time>2013-8-8T0:46:34Z</time></trkpt>
<trkpt lat="46.234810000" lon="7.458820000"><ele></ele><time>2013-8-8T0:46:37Z</time></trkpt>
<trkpt lat="46.234780000" lon="7.458800000"><ele></ele><time>2013-8-8T0:46:40Z</time></trkpt>
<trkpt lat="46.234750000" lon="7.458780000"><ele></ele><time>2013-8-8T0:46:43Z</time></trkpt>
<trkpt lat="46.234720000" lon="7.458750000"><ele></ele><time>2013-8-8T0:46:46Z</time></trkpt>
<trkpt lat="46.234580000" lon="7.458630000"><ele></ele><time>2013-8-8T0:46:49Z</time></trkpt>
<trkpt lat="46.234470000" lon="7.458490000"><ele></ele><time>2013-8-8T0:46:52Z</time></trkpt>
<trkpt lat="46.234440000" lon="7.458450000"><ele></ele><time>2013-8-8T0:46:55Z</time></trkpt>
<trkpt lat="46.234410000" lon="7.458410000"><ele></ele><time>2013-8-8T0:46:58Z</time></trkpt>
<trkpt lat="46.234390000" lon="7.458370000"><ele></ele><time>2013-8-8T0:47:1Z</time></trkpt>
<trkpt lat="46.234370000" lon="7.458330000"><ele></ele><time>2013-8-8T0:47:4Z</time></trkpt>
<trkpt lat="46.234250000" lon="7.458130000"><ele></ele><time>2013-8-8T0:47:7Z</time></trkpt>
<trkpt lat="46.234230000" lon="7.458090000"><ele></ele><time>2013-8-8T0:47:10Z</time></trkpt>
<trkpt lat="46.234210000" lon="7.458040000"><ele></ele><time>2013-8-8T0:47:13Z</time></trkpt>
<trkpt lat="46.234210000" lon="7.458000000"><ele></ele><time>2013-8-8T0:47:16Z</time></trkpt>
<trkpt lat="46.234190000" lon="7.457950000"><ele></ele><time>2013-8-8T0:47:19Z</time></trkpt>
<trkpt lat="46.234180000" lon="7.457900000"><ele></ele><time>2013-8-8T0:47:22Z</time></trkpt>
<trkpt lat="46.234170000" lon="7.457850000"><ele></ele><time>2013-8-8T0:47:25Z</time></trkpt>
<trkpt lat="46.234120000" lon="7.457620000"><ele></ele><time>2013-8-8T0:47:28Z</time></trkpt>
<trkpt lat="46.234110000" lon="7.457570000"><ele></ele><time>2013-8-8T0:47:31Z</time></trkpt>
<trkpt lat="46.234110000" lon="7.457520000"><ele></ele><time>2013-8-8T0:47:34Z</time></trkpt>
<trkpt lat="46.234100000" lon="7.457480000"><ele></ele><time>2013-8-8T0:47:37Z</time></trkpt>
<trkpt lat="46.234100000" lon="7.457430000"><ele></ele><time>2013-8-8T0:47:40Z</time></trkpt>
<trkpt lat="46.234110000" lon="7.457340000"><ele></ele><time>2013-8-8T0:47:43Z</time></trkpt>
<trkpt lat="46.234120000" lon="7.457260000"><ele></ele><time>2013-8-8T0:47:46Z</time></trkpt>
<trkpt lat="46.234130000" lon="7.457220000"><ele></ele><time>2013-8-8T0:47:49Z</time></trkpt>
<trkpt lat="46.234130000" lon="7.457180000"><ele></ele><time>2013-8-8T0:47:52Z</time></trkpt>
<trkpt lat="46.234150000" lon="7.457130000"><ele></ele><time>2013-8-8T0:47:55Z</time></trkpt>
<trkpt lat="46.234160000" lon="7.457090000"><ele></ele><time>2013-8-8T0:47:58Z</time></trkpt>
<trkpt lat="46.234200000" lon="7.456920000"><ele></ele><time>2013-8-8T0:48:1Z</time></trkpt>
<trkpt lat="46.234210000" lon="7.456870000"><ele></ele><time>2013-8-8T0:48:4Z</time></trkpt>
<trkpt lat="46.234220000" lon="7.456820000"><ele></ele><time>2013-8-8T0:48:7Z</time></trkpt>
<trkpt lat="46.234230000" lon="7.456780000"><ele></ele><time>2013-8-8T0:48:10Z</time></trkpt>
<trkpt lat="46.234240000" lon="7.456740000"><ele></ele><time>2013-8-8T0:48:13Z</time></trkpt>
<trkpt lat="46.234250000" lon="7.456700000"><ele></ele><time>2013-8-8T0:48:16Z</time></trkpt>
<trkpt lat="46.234290000" lon="7.456580000"><ele></ele><time>2013-8-8T0:48:19Z</time></trkpt>
<trkpt lat="46.234300000" lon="7.456550000"><ele></ele><time>2013-8-8T0:48:22Z</time></trkpt>
<trkpt lat="46.234310000" lon="7.456520000"><ele></ele><time>2013-8-8T0:48:25Z</time></trkpt>
<trkpt lat="46.234320000" lon="7.456470000"><ele></ele><time>2013-8-8T0:48:28Z</time></trkpt>
<trkpt lat="46.234340000" lon="7.456430000"><ele></ele><time>2013-8-8T0:48:31Z</time></trkpt>
<trkpt lat="46.234350000" lon="7.456390000"><ele></ele><time>2013-8-8T0:48:34Z</time></trkpt>
<trkpt lat="46.234360000" lon="7.456350000"><ele></ele><time>2013-8-8T0:48:37Z</time></trkpt>
<trkpt lat="46.234360000" lon="7.456310000"><ele></ele><time>2013-8-8T0:48:40Z</time></trkpt>
<trkpt lat="46.234350000" lon="7.456270000"><ele></ele><time>2013-8-8T0:48:43Z</time></trkpt>
<trkpt lat="46.234340000" lon="7.456230000"><ele></ele><time>2013-8-8T0:48:46Z</time></trkpt>
<trkpt lat="46.234280000" lon="7.456020000"><ele></ele><time>2013-8-8T0:48:49Z</time></trkpt>
<trkpt lat="46.234280000" lon="7.455990000"><ele></ele><time>2013-8-8T0:48:52Z</time></trkpt>
<trkpt lat="46.234260000" lon="7.455950000"><ele></ele><time>2013-8-8T0:48:55Z</time></trkpt>
<trkpt lat="46.234250000" lon="7.455910000"><ele></ele><time>2013-8-8T0:48:58Z</time></trkpt>
<trkpt lat="46.234240000" lon="7.455870000"><ele></ele><time>2013-8-8T0:49:1Z</time></trkpt>
<trkpt lat="46.234190000" lon="7.455720000"><ele></ele><time>2013-8-8T0:49:4Z</time></trkpt>
<trkpt lat="46.234160000" lon="7.455580000"><ele></ele><time>2013-8-8T0:49:7Z</time></trkpt>
<trkpt lat="46.234150000" lon="7.455560000"><ele></ele><time>2013-8-8T0:49:10Z</time></trkpt>
<trkpt lat="46.234140000" lon="7.455520000"><ele></ele><time>2013-8-8T0:49:13Z</time></trkpt>
<trkpt lat="46.234130000" lon="7.455490000"><ele></ele><time>2013-8-8T0:49:16Z</time></trkpt>
<trkpt lat="46.234120000" lon="7.455410000"><ele></ele><time>2013-8-8T0:49:19Z</time></trkpt>
<trkpt lat="46.234100000" lon="7.455260000"><ele></ele><time>2013-8-8T0:49:22Z</time></trkpt>
<trkpt lat="46.234100000" lon="7.455230000"><ele></ele><time>2013-8-8T0:49:25Z</time></trkpt>
<trkpt lat="46.234090000" lon="7.455190000"><ele></ele><time>2013-8-8T0:49:28Z</time></trkpt>
<trkpt lat="46.234090000" lon="7.455160000"><ele></ele><time>2013-8-8T0:49:31Z</time></trkpt>
<trkpt lat="46.234080000" lon="7.455130000"><ele></ele><time>2013-8-8T0:49:34Z</time></trkpt>
<trkpt lat="46.234060000" lon="7.454910000"><ele></ele><time>2013-8-8T0:49:37Z</time></trkpt>
<trkpt lat="46.234060000" lon="7.454880000"><ele></ele><time>2013-8-8T0:49:40Z</time></trkpt>
<trkpt lat="46.234050000" lon="7.454850000"><ele></ele><time>2013-8-8T0:49:43Z</time></trkpt>
<trkpt lat="46.234050000" lon="7.454810000"><ele></ele><time>2013-8-8T0:49:46Z</time></trkpt>
<trkpt lat="46.234050000" lon="7.454780000"><ele></ele><time>2013-8-8T0:49:49Z</time></trkpt>
<trkpt lat="46.234040000" lon="7.454740000"><ele></ele><time>2013-8-8T0:49:52Z</time></trkpt>
<trkpt lat="46.234030000" lon="7.454710000"><ele></ele><time>2013-8-8T0:49:55Z</time></trkpt>
<trkpt lat="46.233970000" lon="7.454570000"><ele></ele><time>2013-8-8T0:49:58Z</time></trkpt>
<trkpt lat="46.233960000" lon="7.454540000"><ele></ele><time>2013-8-8T0:50:1Z</time></trkpt>
<trkpt lat="46.233940000" lon="7.454500000"><ele></ele><time>2013-8-8T0:50:4Z</time></trkpt>
<trkpt lat="46.233920000" lon="7.454470000"><ele></ele><time>2013-8-8T0:50:7Z</time></trkpt>
<trkpt lat="46.233860000" lon="7.454340000"><ele></ele><time>2013-8-8T0:50:10Z</time></trkpt>
<trkpt lat="46.233850000" lon="7.454310000"><ele></ele><time>2013-8-8T0:50:13Z</time></trkpt>
<trkpt lat="46.233800000" lon="7.454150000"><ele></ele><time>2013-8-8T0:50:16Z</time></trkpt>
<trkpt lat="46.233790000" lon="7.454110000"><ele></ele><time>2013-8-8T0:50:19Z</time></trkpt>
<trkpt lat="46.233780000" lon="7.454070000"><ele></ele><time>2013-8-8T0:50:22Z</time></trkpt>
<trkpt lat="46.233780000" lon="7.454040000"><ele></ele><time>2013-8-8T0:50:25Z</time></trkpt>
<trkpt lat="46.233780000" lon="7.454000000"><ele></ele><time>2013-8-8T0:50:28Z</time></trkpt>
<trkpt lat="46.233790000" lon="7.453880000"><ele></ele><time>2013-8-8T0:50:31Z</time></trkpt>
<trkpt lat="46.233800000" lon="7.453850000"><ele></ele><time>2013-8-8T0:50:34Z</time></trkpt>
<trkpt lat="46.233810000" lon="7.453810000"><ele></ele><time>2013-8-8T0:50:37Z</time></trkpt>
<trkpt lat="46.233830000" lon="7.453780000"><ele></ele><time>2013-8-8T0:50:40Z</time></trkpt>
<trkpt lat="46.233840000" lon="7.453750000"><ele></ele><time>2013-8-8T0:50:43Z</time></trkpt>
<trkpt lat="46.233860000" lon="7.453720000"><ele></ele><time>2013-8-8T0:50:46Z</time></trkpt>
<trkpt lat="46.233870000" lon="7.453690000"><ele></ele><time>2013-8-8T0:50:49Z</time></trkpt>
<trkpt lat="46.233940000" lon="7.453580000"><ele></ele><time>2013-8-8T0:50:52Z</time></trkpt>
<trkpt lat="46.233960000" lon="7.453550000"><ele></ele><time>2013-8-8T0:50:55Z</time></trkpt>
<trkpt lat="46.233980000" lon="7.453520000"><ele></ele><time>2013-8-8T0:50:58Z</time></trkpt>
<trkpt lat="46.234000000" lon="7.453500000"><ele></ele><time>2013-8-8T0:51:1Z</time></trkpt>
<trkpt lat="46.234020000" lon="7.453470000"><ele></ele><time>2013-8-8T0:51:4Z</time></trkpt>
<trkpt lat="46.234100000" lon="7.453370000"><ele></ele><time>2013-8-8T0:51:7Z</time></trkpt>
<trkpt lat="46.234110000" lon="7.453340000"><ele></ele><time>2013-8-8T0:51:10Z</time></trkpt>
<trkpt lat="46.234120000" lon="7.453300000"><ele></ele><time>2013-8-8T0:51:13Z</time></trkpt>
<trkpt lat="46.234120000" lon="7.453270000"><ele></ele><time>2013-8-8T0:51:16Z</time></trkpt>
<trkpt lat="46.234130000" lon="7.453230000"><ele></ele><time>2013-8-8T0:51:19Z</time></trkpt>
<trkpt lat="46.234150000" lon="7.453110000"><ele></ele><time>2013-8-8T0:51:22Z</time></trkpt>
<trkpt lat="46.234170000" lon="7.452990000"><ele></ele><time>2013-8-8T0:51:25Z</time></trkpt>
<trkpt lat="46.234180000" lon="7.452950000"><ele></ele><time>2013-8-8T0:51:28Z</time></trkpt>
<trkpt lat="46.234200000" lon="7.452920000"><ele></ele><time>2013-8-8T0:51:31Z</time></trkpt>
<trkpt lat="46.234210000" lon="7.452880000"><ele></ele><time>2013-8-8T0:51:34Z</time></trkpt>
<trkpt lat="46.234270000" lon="7.452710000"><ele></ele><time>2013-8-8T0:51:37Z</time></trkpt>
<trkpt lat="46.234290000" lon="7.452670000"><ele></ele><time>2013-8-8T0:51:40Z</time></trkpt>
<trkpt lat="46.234300000" lon="7.452640000"><ele></ele><time>2013-8-8T0:51:43Z</time></trkpt>
<trkpt lat="46.234320000" lon="7.452610000"><ele></ele><time>2013-8-8T0:51:46Z</time></trkpt>
<trkpt lat="46.234330000" lon="7.452570000"><ele></ele><time>2013-8-8T0:51:49Z</time></trkpt>
<trkpt lat="46.234380000" lon="7.452440000"><ele></ele><time>2013-8-8T0:51:52Z</time></trkpt>
<trkpt lat="46.234400000" lon="7.452410000"><ele></ele><time>2013-8-8T0:51:55Z</time></trkpt>
<trkpt lat="46.234420000" lon="7.452380000"><ele></ele><time>2013-8-8T0:51:58Z</time></trkpt>
<trkpt lat="46.234430000" lon="7.452350000"><ele></ele><time>2013-8-8T0:52:1Z</time></trkpt>
<trkpt lat="46.234450000" lon="7.452320000"><ele></ele><time>2013-8-8T0:52:4Z</time></trkpt>
<trkpt lat="46.234470000" lon="7.452290000"><ele></ele><time>2013-8-8T0:52:7Z</time></trkpt>
<trkpt lat="46.234500000" lon="7.452230000"><ele></ele><time>2013-8-8T0:52:10Z</time></trkpt>
<trkpt lat="46.234550000" lon="7.452140000"><ele></ele><time>2013-8-8T0:52:13Z</time></trkpt>
<trkpt lat="46.234570000" lon="7.452110000"><ele></ele><time>2013-8-8T0:52:16Z</time></trkpt>
<trkpt lat="46.234580000" lon="7.452080000"><ele></ele><time>2013-8-8T0:52:19Z</time></trkpt>
<trkpt lat="46.234600000" lon="7.452060000"><ele></ele><time>2013-8-8T0:52:22Z</time></trkpt>
<trkpt lat="46.234640000" lon="7.452000000"><ele></ele><time>2013-8-8T0:52:25Z</time></trkpt>
<trkpt lat="46.234710000" lon="7.451900000"><ele></ele><time>2013-8-8T0:52:28Z</time></trkpt>
<trkpt lat="46.234730000" lon="7.451880000"><ele></ele><time>2013-8-8T0:52:31Z</time></trkpt>
<trkpt lat="46.234750000" lon="7.451860000"><ele></ele><time>2013-8-8T0:52:34Z</time></trkpt>
<trkpt lat="46.234770000" lon="7.451830000"><ele></ele><time>2013-8-8T0:52:37Z</time></trkpt>
<trkpt lat="46.234780000" lon="7.451800000"><ele></ele><time>2013-8-8T0:52:40Z</time></trkpt>
<trkpt lat="46.234890000" lon="7.451690000"><ele></ele><time>2013-8-8T0:52:43Z</time></trkpt>
<trkpt lat="46.234910000" lon="7.451660000"><ele></ele><time>2013-8-8T0:52:46Z</time></trkpt>
<trkpt lat="46.234930000" lon="7.451640000"><ele></ele><time>2013-8-8T0:52:49Z</time></trkpt>
<trkpt lat="46.234950000" lon="7.451610000"><ele></ele><time>2013-8-8T0:52:52Z</time></trkpt>
<trkpt lat="46.234970000" lon="7.451590000"><ele></ele><time>2013-8-8T0:52:55Z</time></trkpt>
<trkpt lat="46.235060000" lon="7.451460000"><ele></ele><time>2013-8-8T0:52:58Z</time></trkpt>
<trkpt lat="46.235080000" lon="7.451430000"><ele></ele><time>2013-8-8T0:53:1Z</time></trkpt>
<trkpt lat="46.235090000" lon="7.451400000"><ele></ele><time>2013-8-8T0:53:4Z</time></trkpt>
<trkpt lat="46.235110000" lon="7.451380000"><ele></ele><time>2013-8-8T0:53:7Z</time></trkpt>
<trkpt lat="46.235130000" lon="7.451350000"><ele></ele><time>2013-8-8T0:53:10Z</time></trkpt>
<trkpt lat="46.235150000" lon="7.451320000"><ele></ele><time>2013-8-8T0:53:13Z</time></trkpt>
<trkpt lat="46.235200000" lon="7.451240000"><ele></ele><time>2013-8-8T0:53:16Z</time></trkpt>
<trkpt lat="46.235250000" lon="7.451160000"><ele></ele><time>2013-8-8T0:53:19Z</time></trkpt>
<trkpt lat="46.235270000" lon="7.451140000"><ele></ele><time>2013-8-8T0:53:22Z</time></trkpt>
<trkpt lat="46.235290000" lon="7.451110000"><ele></ele><time>2013-8-8T0:53:25Z</time></trkpt>
<trkpt lat="46.235310000" lon="7.451080000"><ele></ele><time>2013-8-8T0:53:28Z</time></trkpt>
<trkpt lat="46.235320000" lon="7.451050000"><ele></ele><time>2013-8-8T0:53:31Z</time></trkpt>
<trkpt lat="46.235450000" lon="7.450870000"><ele></ele><time>2013-8-8T0:53:34Z</time></trkpt>
<trkpt lat="46.235470000" lon="7.450840000"><ele></ele><time>2013-8-8T0:53:37Z</time></trkpt>
<trkpt lat="46.235490000" lon="7.450820000"><ele></ele><time>2013-8-8T0:53:40Z</time></trkpt>
<trkpt lat="46.235500000" lon="7.450790000"><ele></ele><time>2013-8-8T0:53:43Z</time></trkpt>
<trkpt lat="46.235530000" lon="7.450770000"><ele></ele><time>2013-8-8T0:53:46Z</time></trkpt>
<trkpt lat="46.235550000" lon="7.450740000"><ele></ele><time>2013-8-8T0:53:49Z</time></trkpt>
<trkpt lat="46.235570000" lon="7.450720000"><ele></ele><time>2013-8-8T0:53:52Z</time></trkpt>
<trkpt lat="46.235660000" lon="7.450650000"><ele></ele><time>2013-8-8T0:53:55Z</time></trkpt>
<trkpt lat="46.235680000" lon="7.450640000"><ele></ele><time>2013-8-8T0:53:58Z</time></trkpt>
<trkpt lat="46.235700000" lon="7.450620000"><ele></ele><time>2013-8-8T0:54:1Z</time></trkpt>
<trkpt lat="46.235720000" lon="7.450600000"><ele></ele><time>2013-8-8T0:54:4Z</time></trkpt>
<trkpt lat="46.235740000" lon="7.450580000"><ele></ele><time>2013-8-8T0:54:7Z</time></trkpt>
<trkpt lat="46.235860000" lon="7.450490000"><ele></ele><time>2013-8-8T0:54:10Z</time></trkpt>
<trkpt lat="46.235890000" lon="7.450470000"><ele></ele><time>2013-8-8T0:54:13Z</time></trkpt>
<trkpt lat="46.235910000" lon="7.450440000"><ele></ele><time>2013-8-8T0:54:16Z</time></trkpt>
<trkpt lat="46.235930000" lon="7.450410000"><ele></ele><time>2013-8-8T0:54:19Z</time></trkpt>
<trkpt lat="46.236020000" lon="7.450270000"><ele></ele><time>2013-8-8T0:54:22Z</time></trkpt>
<trkpt lat="46.236040000" lon="7.450240000"><ele></ele><time>2013-8-8T0:54:25Z</time></trkpt>
<trkpt lat="46.236060000" lon="7.450210000"><ele></ele><time>2013-8-8T0:54:28Z</time></trkpt>
<trkpt lat="46.236080000" lon="7.450180000"><ele></ele><time>2013-8-8T0:54:31Z</time></trkpt>
<trkpt lat="46.236080000" lon="7.450140000"><ele></ele><time>2013-8-8T0:54:34Z</time></trkpt>
<trkpt lat="46.236120000" lon="7.450030000"><ele></ele><time>2013-8-8T0:54:37Z</time></trkpt>
<trkpt lat="46.236130000" lon="7.449960000"><ele></ele><time>2013-8-8T0:54:40Z</time></trkpt>
<trkpt lat="46.236140000" lon="7.449920000"><ele></ele><time>2013-8-8T0:54:43Z</time></trkpt>
<trkpt lat="46.236140000" lon="7.449880000"><ele></ele><time>2013-8-8T0:54:46Z</time></trkpt>
<trkpt lat="46.236150000" lon="7.449840000"><ele></ele><time>2013-8-8T0:54:49Z</time></trkpt>
<trkpt lat="46.236150000" lon="7.449800000"><ele></ele><time>2013-8-8T0:54:52Z</time></trkpt>
<trkpt lat="46.236160000" lon="7.449760000"><ele></ele><time>2013-8-8T0:54:55Z</time></trkpt>
<trkpt lat="46.236180000" lon="7.449570000"><ele></ele><time>2013-8-8T0:54:58Z</time></trkpt>
<trkpt lat="46.236180000" lon="7.449530000"><ele></ele><time>2013-8-8T0:55:1Z</time></trkpt>
<trkpt lat="46.236180000" lon="7.449490000"><ele></ele><time>2013-8-8T0:55:4Z</time></trkpt>
<trkpt lat="46.236190000" lon="7.449460000"><ele></ele><time>2013-8-8T0:55:7Z</time></trkpt>
<trkpt lat="46.236190000" lon="7.449420000"><ele></ele><time>2013-8-8T0:55:10Z</time></trkpt>
<trkpt lat="46.236220000" lon="7.449240000"><ele></ele><time>2013-8-8T0:55:13Z</time></trkpt>
<trkpt lat="46.236230000" lon="7.449200000"><ele></ele><time>2013-8-8T0:55:16Z</time></trkpt>
<trkpt lat="46.236240000" lon="7.449170000"><ele></ele><time>2013-8-8T0:55:19Z</time></trkpt>
<trkpt lat="46.236250000" lon="7.449140000"><ele></ele><time>2013-8-8T0:55:22Z</time></trkpt>
<trkpt lat="46.236260000" lon="7.449100000"><ele></ele><time>2013-8-8T0:55:25Z</time></trkpt>
<trkpt lat="46.236260000" lon="7.449070000"><ele></ele><time>2013-8-8T0:55:28Z</time></trkpt>
<trkpt lat="46.236320000" lon="7.448940000"><ele></ele><time>2013-8-8T0:55:31Z</time></trkpt>
<trkpt lat="46.236340000" lon="7.448910000"><ele></ele><time>2013-8-8T0:55:34Z</time></trkpt>
<trkpt lat="46.236350000" lon="7.448880000"><ele></ele><time>2013-8-8T0:55:37Z</time></trkpt>
<trkpt lat="46.236350000" lon="7.448850000"><ele></ele><time>2013-8-8T0:55:40Z</time></trkpt>
<trkpt lat="46.236370000" lon="7.448820000"><ele></ele><time>2013-8-8T0:55:43Z</time></trkpt>
<trkpt lat="46.236390000" lon="7.448760000"><ele></ele><time>2013-8-8T0:55:46Z</time></trkpt>
<trkpt lat="46.236450000" lon="7.448640000"><ele></ele><time>2013-8-8T0:55:49Z</time></trkpt>
<trkpt lat="46.236460000" lon="7.448610000"><ele></ele><time>2013-8-8T0:55:52Z</time></trkpt>
<trkpt lat="46.236470000" lon="7.448570000"><ele></ele><time>2013-8-8T0:55:55Z</time></trkpt>
<trkpt lat="46.236480000" lon="7.448540000"><ele></ele><time>2013-8-8T0:55:58Z</time></trkpt>
<trkpt lat="46.236490000" lon="7.448510000"><ele></ele><time>2013-8-8T0:56:1Z</time></trkpt>
<trkpt lat="46.236530000" lon="7.448380000"><ele></ele><time>2013-8-8T0:56:4Z</time></trkpt>
<trkpt lat="46.236540000" lon="7.448350000"><ele></ele><time>2013-8-8T0:56:7Z</time></trkpt>
<trkpt lat="46.236550000" lon="7.448310000"><ele></ele><time>2013-8-8T0:56:10Z</time></trkpt>
<trkpt lat="46.236550000" lon="7.448270000"><ele></ele><time>2013-8-8T0:56:13Z</time></trkpt>
<trkpt lat="46.236550000" lon="7.448240000"><ele></ele><time>2013-8-8T0:56:16Z</time></trkpt>
<trkpt lat="46.236540000" lon="7.448190000"><ele></ele><time>2013-8-8T0:56:19Z</time></trkpt>
<trkpt lat="46.236540000" lon="7.448160000"><ele></ele><time>2013-8-8T0:56:22Z</time></trkpt>
<trkpt lat="46.236510000" lon="7.448000000"><ele></ele><time>2013-8-8T0:56:25Z</time></trkpt>
<trkpt lat="46.236500000" lon="7.447960000"><ele></ele><time>2013-8-8T0:56:28Z</time></trkpt>
<trkpt lat="46.236490000" lon="7.447930000"><ele></ele><time>2013-8-8T0:56:31Z</time></trkpt>
<trkpt lat="46.236490000" lon="7.447890000"><ele></ele><time>2013-8-8T0:56:34Z</time></trkpt>
<trkpt lat="46.236480000" lon="7.447830000"><ele></ele><time>2013-8-8T0:56:37Z</time></trkpt>
<trkpt lat="46.236460000" lon="7.447780000"><ele></ele><time>2013-8-8T0:56:40Z</time></trkpt>
<trkpt lat="46.236420000" lon="7.447680000"><ele></ele><time>2013-8-8T0:56:43Z</time></trkpt>
<trkpt lat="46.236400000" lon="7.447660000"><ele></ele><time>2013-8-8T0:56:46Z</time></trkpt>
<trkpt lat="46.236390000" lon="7.447630000"><ele></ele><time>2013-8-8T0:56:49Z</time></trkpt>
<trkpt lat="46.236380000" lon="7.447610000"><ele></ele><time>2013-8-8T0:56:52Z</time></trkpt>
<trkpt lat="46.236370000" lon="7.447580000"><ele></ele><time>2013-8-8T0:56:55Z</time></trkpt>
<trkpt lat="46.236330000" lon="7.447470000"><ele></ele><time>2013-8-8T0:56:58Z</time></trkpt>
<trkpt lat="46.236320000" lon="7.447440000"><ele></ele><time>2013-8-8T0:57:1Z</time></trkpt>
<trkpt lat="46.236310000" lon="7.447410000"><ele></ele><time>2013-8-8T0:57:4Z</time></trkpt>
<trkpt lat="46.236300000" lon="7.447380000"><ele></ele><time>2013-8-8T0:57:7Z</time></trkpt>
<trkpt lat="46.236290000" lon="7.447310000"><ele></ele><time>2013-8-8T0:57:10Z</time></trkpt>
<trkpt lat="46.236290000" lon="7.447280000"><ele></ele><time>2013-8-8T0:57:13Z</time></trkpt>
<trkpt lat="46.236290000" lon="7.447250000"><ele></ele><time>2013-8-8T0:57:16Z</time></trkpt>
<trkpt lat="46.236300000" lon="7.447220000"><ele></ele><time>2013-8-8T0:57:19Z</time></trkpt>
<trkpt lat="46.236300000" lon="7.447190000"><ele></ele><time>2013-8-8T0:57:22Z</time></trkpt>
<trkpt lat="46.236320000" lon="7.447110000"><ele></ele><time>2013-8-8T0:57:25Z</time></trkpt>
<trkpt lat="46.236330000" lon="7.447080000"><ele></ele><time>2013-8-8T0:57:28Z</time></trkpt>
<trkpt lat="46.236340000" lon="7.447060000"><ele></ele><time>2013-8-8T0:57:31Z</time></trkpt>
<trkpt lat="46.236350000" lon="7.447040000"><ele></ele><time>2013-8-8T0:57:34Z</time></trkpt>
<trkpt lat="46.236360000" lon="7.447020000"><ele></ele><time>2013-8-8T0:57:37Z</time></trkpt>
<trkpt lat="46.236390000" lon="7.446980000"><ele></ele><time>2013-8-8T0:57:40Z</time></trkpt>
<trkpt lat="46.236420000" lon="7.446940000"><ele></ele><time>2013-8-8T0:57:43Z</time></trkpt>
<trkpt lat="46.236440000" lon="7.446920000"><ele></ele><time>2013-8-8T0:57:46Z</time></trkpt>
<trkpt lat="46.236460000" lon="7.446910000"><ele></ele><time>2013-8-8T0:57:49Z</time></trkpt>
<trkpt lat="46.236480000" lon="7.446890000"><ele></ele><time>2013-8-8T0:57:52Z</time></trkpt>
<trkpt lat="46.236500000" lon="7.446880000"><ele></ele><time>2013-8-8T0:57:55Z</time></trkpt>
<trkpt lat="46.236560000" lon="7.446830000"><ele></ele><time>2013-8-8T0:57:58Z</time></trkpt>
<trkpt lat="46.236570000" lon="7.446810000"><ele></ele><time>2013-8-8T0:58:1Z</time></trkpt>
<trkpt lat="46.236600000" lon="7.446800000"><ele></ele><time>2013-8-8T0:58:4Z</time></trkpt>
<trkpt lat="46.236610000" lon="7.446780000"><ele></ele><time>2013-8-8T0:58:7Z</time></trkpt>
<trkpt lat="46.236640000" lon="7.446770000"><ele></ele><time>2013-8-8T0:58:10Z</time></trkpt>
<trkpt lat="46.236730000" lon="7.446710000"><ele></ele><time>2013-8-8T0:58:13Z</time></trkpt>
<trkpt lat="46.236760000" lon="7.446700000"><ele></ele><time>2013-8-8T0:58:16Z</time></trkpt>
<trkpt lat="46.236780000" lon="7.446690000"><ele></ele><time>2013-8-8T0:58:19Z</time></trkpt>
<trkpt lat="46.236800000" lon="7.446680000"><ele></ele><time>2013-8-8T0:58:22Z</time></trkpt>
<trkpt lat="46.236820000" lon="7.446670000"><ele></ele><time>2013-8-8T0:58:25Z</time></trkpt>
<trkpt lat="46.236840000" lon="7.446670000"><ele></ele><time>2013-8-8T0:58:28Z</time></trkpt>
<trkpt lat="46.236930000" lon="7.446640000"><ele></ele><time>2013-8-8T0:58:31Z</time></trkpt>
<trkpt lat="46.236960000" lon="7.446630000"><ele></ele><time>2013-8-8T0:58:34Z</time></trkpt>
<trkpt lat="46.236980000" lon="7.446630000"><ele></ele><time>2013-8-8T0:58:37Z</time></trkpt>
<trkpt lat="46.237000000" lon="7.446640000"><ele></ele><time>2013-8-8T0:58:40Z</time></trkpt>
<trkpt lat="46.237020000" lon="7.446640000"><ele></ele><time>2013-8-8T0:58:43Z</time></trkpt>
<trkpt lat="46.237090000" lon="7.446630000"><ele></ele><time>2013-8-8T0:58:46Z</time></trkpt>
<trkpt lat="46.237110000" lon="7.446630000"><ele></ele><time>2013-8-8T0:58:49Z</time></trkpt>
<trkpt lat="46.237130000" lon="7.446630000"><ele></ele><time>2013-8-8T0:58:52Z</time></trkpt>
<trkpt lat="46.237160000" lon="7.446630000"><ele></ele><time>2013-8-8T0:58:55Z</time></trkpt>
<trkpt lat="46.237180000" lon="7.446630000"><ele></ele><time>2013-8-8T0:58:58Z</time></trkpt>
<trkpt lat="46.237280000" lon="7.446610000"><ele></ele><time>2013-8-8T0:59:1Z</time></trkpt>
<trkpt lat="46.237300000" lon="7.446600000"><ele></ele><time>2013-8-8T0:59:4Z</time></trkpt>
<trkpt lat="46.237320000" lon="7.446600000"><ele></ele><time>2013-8-8T0:59:7Z</time></trkpt>
<trkpt lat="46.237350000" lon="7.446600000"><ele></ele><time>2013-8-8T0:59:10Z</time></trkpt>
<trkpt lat="46.237370000" lon="7.446590000"><ele></ele><time>2013-8-8T0:59:13Z</time></trkpt>
<trkpt lat="46.237480000" lon="7.446570000"><ele></ele><time>2013-8-8T0:59:16Z</time></trkpt>
<trkpt lat="46.237510000" lon="7.446560000"><ele></ele><time>2013-8-8T0:59:19Z</time></trkpt>
<trkpt lat="46.237530000" lon="7.446560000"><ele></ele><time>2013-8-8T0:59:22Z</time></trkpt>
<trkpt lat="46.237550000" lon="7.446550000"><ele></ele><time>2013-8-8T0:59:25Z</time></trkpt>
<trkpt lat="46.237580000" lon="7.446550000"><ele></ele><time>2013-8-8T0:59:28Z</time></trkpt>
<trkpt lat="46.237640000" lon="7.446540000"><ele></ele><time>2013-8-8T0:59:31Z</time></trkpt>
<trkpt lat="46.237670000" lon="7.446530000"><ele></ele><time>2013-8-8T0:59:34Z</time></trkpt>
<trkpt lat="46.237690000" lon="7.446530000"><ele></ele><time>2013-8-8T0:59:37Z</time></trkpt>
<trkpt lat="46.237710000" lon="7.446520000"><ele></ele><time>2013-8-8T0:59:40Z</time></trkpt>
<trkpt lat="46.237740000" lon="7.446510000"><ele></ele><time>2013-8-8T0:59:43Z</time></trkpt>
<trkpt lat="46.237750000" lon="7.446500000"><ele></ele><time>2013-8-8T0:59:46Z</time></trkpt>
<trkpt lat="46.237870000" lon="7.446470000"><ele></ele><time>2013-8-8T0:59:49Z</time></trkpt>
<trkpt lat="46.237890000" lon="7.446460000"><ele></ele><time>2013-8-8T0:59:52Z</time></trkpt>
<trkpt lat="46.237920000" lon="7.446460000"><ele></ele><time>2013-8-8T0:59:55Z</time></trkpt>
<trkpt lat="46.237940000" lon="7.446450000"><ele></ele><time>2013-8-8T0:59:58Z</time></trkpt>
<trkpt lat="46.237960000" lon="7.446440000"><ele></ele><time>2013-8-8T1:0:1Z</time></trkpt>
<trkpt lat="46.238030000" lon="7.446420000"><ele></ele><time>2013-8-8T1:0:4Z</time></trkpt>
<trkpt lat="46.238060000" lon="7.446420000"><ele></ele><time>2013-8-8T1:0:7Z</time></trkpt>
<trkpt lat="46.238080000" lon="7.446410000"><ele></ele><time>2013-8-8T1:0:10Z</time></trkpt>
<trkpt lat="46.238100000" lon="7.446410000"><ele></ele><time>2013-8-8T1:0:13Z</time></trkpt>
<trkpt lat="46.238130000" lon="7.446410000"><ele></ele><time>2013-8-8T1:0:16Z</time></trkpt>
<trkpt lat="46.238160000" lon="7.446410000"><ele></ele><time>2013-8-8T1:0:19Z</time></trkpt>
<trkpt lat="46.238200000" lon="7.446400000"><ele></ele><time>2013-8-8T1:0:22Z</time></trkpt>
<trkpt lat="46.238240000" lon="7.446400000"><ele></ele><time>2013-8-8T1:0:25Z</time></trkpt>
<trkpt lat="46.238260000" lon="7.446410000"><ele></ele><time>2013-8-8T1:0:28Z</time></trkpt>
<trkpt lat="46.238280000" lon="7.446410000"><ele></ele><time>2013-8-8T1:0:31Z</time></trkpt>
<trkpt lat="46.238300000" lon="7.446410000"><ele></ele><time>2013-8-8T1:0:34Z</time></trkpt>
<trkpt lat="46.238320000" lon="7.446410000"><ele></ele><time>2013-8-8T1:0:37Z</time></trkpt>
<trkpt lat="46.238410000" lon="7.446330000"><ele></ele><time>2013-8-8T1:0:40Z</time></trkpt>
<trkpt lat="46.238430000" lon="7.446300000"><ele></ele><time>2013-8-8T1:0:43Z</time></trkpt>
<trkpt lat="46.238430000" lon="7.446260000"><ele></ele><time>2013-8-8T1:0:46Z</time></trkpt>
<trkpt lat="46.238430000" lon="7.446230000"><ele></ele><time>2013-8-8T1:0:49Z</time></trkpt>
<trkpt lat="46.238440000" lon="7.446190000"><ele></ele><time>2013-8-8T1:0:52Z</time></trkpt>
<trkpt lat="46.238450000" lon="7.446130000"><ele></ele><time>2013-8-8T1:0:55Z</time></trkpt>
<trkpt lat="46.238410000" lon="7.445900000"><ele></ele><time>2013-8-8T1:0:58Z</time></trkpt>
<trkpt lat="46.238400000" lon="7.445870000"><ele></ele><time>2013-8-8T1:1:1Z</time></trkpt>
<trkpt lat="46.238400000" lon="7.445850000"><ele></ele><time>2013-8-8T1:1:4Z</time></trkpt>
<trkpt lat="46.238390000" lon="7.445820000"><ele></ele><time>2013-8-8T1:1:7Z</time></trkpt>
<trkpt lat="46.238370000" lon="7.445720000"><ele></ele><time>2013-8-8T1:1:10Z</time></trkpt>
<trkpt lat="46.238340000" lon="7.445660000"><ele></ele><time>2013-8-8T1:1:13Z</time></trkpt>
<trkpt lat="46.238320000" lon="7.445630000"><ele></ele><time>2013-8-8T1:1:16Z</time></trkpt>
<trkpt lat="46.238300000" lon="7.445600000"><ele></ele><time>2013-8-8T1:1:19Z</time></trkpt>
<trkpt lat="46.238290000" lon="7.445570000"><ele></ele><time>2013-8-8T1:1:22Z</time></trkpt>
<trkpt lat="46.238270000" lon="7.445530000"><ele></ele><time>2013-8-8T1:1:25Z</time></trkpt>
<trkpt lat="46.238240000" lon="7.445360000"><ele></ele><time>2013-8-8T1:1:28Z</time></trkpt>
<trkpt lat="46.238240000" lon="7.445330000"><ele></ele><time>2013-8-8T1:1:31Z</time></trkpt>
<trkpt lat="46.238250000" lon="7.445300000"><ele></ele><time>2013-8-8T1:1:34Z</time></trkpt>
<trkpt lat="46.238250000" lon="7.445270000"><ele></ele><time>2013-8-8T1:1:37Z</time></trkpt>
<trkpt lat="46.238260000" lon="7.445240000"><ele></ele><time>2013-8-8T1:1:40Z</time></trkpt>
<trkpt lat="46.238260000" lon="7.445210000"><ele></ele><time>2013-8-8T1:1:43Z</time></trkpt>
<trkpt lat="46.238270000" lon="7.445150000"><ele></ele><time>2013-8-8T1:1:46Z</time></trkpt>
<trkpt lat="46.238270000" lon="7.445120000"><ele></ele><time>2013-8-8T1:1:49Z</time></trkpt>
<trkpt lat="46.238270000" lon="7.445080000"><ele></ele><time>2013-8-8T1:1:52Z</time></trkpt>
<trkpt lat="46.238270000" lon="7.445050000"><ele></ele><time>2013-8-8T1:1:55Z</time></trkpt>
<trkpt lat="46.238270000" lon="7.445020000"><ele></ele><time>2013-8-8T1:1:58Z</time></trkpt>
<trkpt lat="46.238270000" lon="7.444980000"><ele></ele><time>2013-8-8T1:2:1Z</time></trkpt>
<trkpt lat="46.238270000" lon="7.444950000"><ele></ele><time>2013-8-8T1:2:4Z</time></trkpt>
<trkpt lat="46.238260000" lon="7.444920000"><ele></ele><time>2013-8-8T1:2:7Z</time></trkpt>
<trkpt lat="46.238260000" lon="7.444900000"><ele></ele><time>2013-8-8T1:2:10Z</time></trkpt>
<trkpt lat="46.238250000" lon="7.444870000"><ele></ele><time>2013-8-8T1:2:13Z</time></trkpt>
<trkpt lat="46.238240000" lon="7.444840000"><ele></ele><time>2013-8-8T1:2:16Z</time></trkpt>
<trkpt lat="46.238230000" lon="7.444810000"><ele></ele><time>2013-8-8T1:2:19Z</time></trkpt>
<trkpt lat="46.238190000" lon="7.444760000"><ele></ele><time>2013-8-8T1:2:22Z</time></trkpt>
<trkpt lat="46.238100000" lon="7.444680000"><ele></ele><time>2013-8-8T1:2:25Z</time></trkpt>
<trkpt lat="46.238080000" lon="7.444670000"><ele></ele><time>2013-8-8T1:2:28Z</time></trkpt>
<trkpt lat="46.238050000" lon="7.444670000"><ele></ele><time>2013-8-8T1:2:31Z</time></trkpt>
<trkpt lat="46.238030000" lon="7.444680000"><ele></ele><time>2013-8-8T1:2:34Z</time></trkpt>
<trkpt lat="46.238010000" lon="7.444700000"><ele></ele><time>2013-8-8T1:2:37Z</time></trkpt>
<trkpt lat="46.237920000" lon="7.444740000"><ele></ele><time>2013-8-8T1:2:40Z</time></trkpt>
<trkpt lat="46.237880000" lon="7.444770000"><ele></ele><time>2013-8-8T1:2:43Z</time></trkpt>
<trkpt lat="46.237860000" lon="7.444790000"><ele></ele><time>2013-8-8T1:2:46Z</time></trkpt>
<trkpt lat="46.237840000" lon="7.444810000"><ele></ele><time>2013-8-8T1:2:49Z</time></trkpt>
<trkpt lat="46.237820000" lon="7.444820000"><ele></ele><time>2013-8-8T1:2:52Z</time></trkpt>
<trkpt lat="46.237800000" lon="7.444840000"><ele></ele><time>2013-8-8T1:2:55Z</time></trkpt>
<trkpt lat="46.237780000" lon="7.444850000"><ele></ele><time>2013-8-8T1:2:58Z</time></trkpt>
<trkpt lat="46.237670000" lon="7.444880000"><ele></ele><time>2013-8-8T1:3:1Z</time></trkpt>
<trkpt lat="46.237650000" lon="7.444880000"><ele></ele><time>2013-8-8T1:3:4Z</time></trkpt>
<trkpt lat="46.237630000" lon="7.444880000"><ele></ele><time>2013-8-8T1:3:7Z</time></trkpt>
<trkpt lat="46.237600000" lon="7.444880000"><ele></ele><time>2013-8-8T1:3:10Z</time></trkpt>
<trkpt lat="46.237590000" lon="7.444880000"><ele></ele><time>2013-8-8T1:3:13Z</time></trkpt>
<trkpt lat="46.237520000" lon="7.444870000"><ele></ele><time>2013-8-8T1:3:16Z</time></trkpt>
<trkpt lat="46.237490000" lon="7.444860000"><ele></ele><time>2013-8-8T1:3:19Z</time></trkpt>
<trkpt lat="46.237470000" lon="7.444860000"><ele></ele><time>2013-8-8T1:3:22Z</time></trkpt>
<trkpt lat="46.237450000" lon="7.444850000"><ele></ele><time>2013-8-8T1:3:25Z</time></trkpt>
<trkpt lat="46.237420000" lon="7.444850000"><ele></ele><time>2013-8-8T1:3:28Z</time></trkpt>
<trkpt lat="46.237380000" lon="7.444830000"><ele></ele><time>2013-8-8T1:3:31Z</time></trkpt>
<trkpt lat="46.237360000" lon="7.444830000"><ele></ele><time>2013-8-8T1:3:34Z</time></trkpt>
<trkpt lat="46.237340000" lon="7.444820000"><ele></ele><time>2013-8-8T1:3:37Z</time></trkpt>
<trkpt lat="46.237320000" lon="7.444820000"><ele></ele><time>2013-8-8T1:3:40Z</time></trkpt>
<trkpt lat="46.237290000" lon="7.444810000"><ele></ele><time>2013-8-8T1:3:43Z</time></trkpt>
<trkpt lat="46.237270000" lon="7.444810000"><ele></ele><time>2013-8-8T1:3:46Z</time></trkpt>
<trkpt lat="46.237250000" lon="7.444800000"><ele></ele><time>2013-8-8T1:3:49Z</time></trkpt>
<trkpt lat="46.237220000" lon="7.444800000"><ele></ele><time>2013-8-8T1:3:52Z</time></trkpt>
<trkpt lat="46.237200000" lon="7.444790000"><ele></ele><time>2013-8-8T1:3:55Z</time></trkpt>
<trkpt lat="46.237110000" lon="7.444760000"><ele></ele><time>2013-8-8T1:3:58Z</time></trkpt>
<trkpt lat="46.237090000" lon="7.444760000"><ele></ele><time>2013-8-8T1:4:1Z</time></trkpt>
<trkpt lat="46.237060000" lon="7.444760000"><ele></ele><time>2013-8-8T1:4:4Z</time></trkpt>
<trkpt lat="46.237040000" lon="7.444750000"><ele></ele><time>2013-8-8T1:4:7Z</time></trkpt>
<trkpt lat="46.237020000" lon="7.444750000"><ele></ele><time>2013-8-8T1:4:10Z</time></trkpt>
<trkpt lat="46.236890000" lon="7.444730000"><ele></ele><time>2013-8-8T1:4:13Z</time></trkpt>
<trkpt lat="46.236870000" lon="7.444740000"><ele></ele><time>2013-8-8T1:4:16Z</time></trkpt>
<trkpt lat="46.236850000" lon="7.444740000"><ele></ele><time>2013-8-8T1:4:19Z</time></trkpt>
<trkpt lat="46.236830000" lon="7.444730000"><ele></ele><time>2013-8-8T1:4:22Z</time></trkpt>
<trkpt lat="46.236800000" lon="7.444730000"><ele></ele><time>2013-8-8T1:4:25Z</time></trkpt>
<trkpt lat="46.236730000" lon="7.444720000"><ele></ele><time>2013-8-8T1:4:28Z</time></trkpt>
<trkpt lat="46.236580000" lon="7.444700000"><ele></ele><time>2013-8-8T1:4:31Z</time></trkpt>
<trkpt lat="46.236560000" lon="7.444700000"><ele></ele><time>2013-8-8T1:4:34Z</time></trkpt>
<trkpt lat="46.236530000" lon="7.444690000"><ele></ele><time>2013-8-8T1:4:37Z</time></trkpt>
<trkpt lat="46.236510000" lon="7.444690000"><ele></ele><time>2013-8-8T1:4:40Z</time></trkpt>
<trkpt lat="46.236480000" lon="7.444690000"><ele></ele><time>2013-8-8T1:4:43Z</time></trkpt>
<trkpt lat="46.236370000" lon="7.444700000"><ele></ele><time>2013-8-8T1:4:46Z</time></trkpt>
<trkpt lat="46.236340000" lon="7.444710000"><ele></ele><time>2013-8-8T1:4:49Z</time></trkpt>
<trkpt lat="46.236210000" lon="7.444770000"><ele></ele><time>2013-8-8T1:4:52Z</time></trkpt>
<trkpt lat="46.236180000" lon="7.444780000"><ele></ele><time>2013-8-8T1:4:55Z</time></trkpt>
<trkpt lat="46.236090000" lon="7.444820000"><ele></ele><time>2013-8-8T1:4:58Z</time></trkpt>
<trkpt lat="46.236060000" lon="7.444830000"><ele></ele><time>2013-8-8T1:5:1Z</time></trkpt>
<trkpt lat="46.236040000" lon="7.444850000"><ele></ele><time>2013-8-8T1:5:4Z</time></trkpt>
<trkpt lat="46.236010000" lon="7.444860000"><ele></ele><time>2013-8-8T1:5:7Z</time></trkpt>
<trkpt lat="46.235980000" lon="7.444870000"><ele></ele><time>2013-8-8T1:5:10Z</time></trkpt>
<trkpt lat="46.235860000" lon="7.444900000"><ele></ele><time>2013-8-8T1:5:13Z</time></trkpt>
<trkpt lat="46.235790000" lon="7.444890000"><ele></ele><time>2013-8-8T1:5:16Z</time></trkpt>
<trkpt lat="46.235650000" lon="7.444820000"><ele></ele><time>2013-8-8T1:5:19Z</time></trkpt>
<trkpt lat="46.235600000" lon="7.444780000"><ele></ele><time>2013-8-8T1:5:22Z</time></trkpt>
<trkpt lat="46.235520000" lon="7.444650000"><ele></ele><time>2013-8-8T1:5:25Z</time></trkpt>
<trkpt lat="46.235470000" lon="7.444560000"><ele></ele><time>2013-8-8T1:5:28Z</time></trkpt>
<trkpt lat="46.235380000" lon="7.444370000"><ele></ele><time>2013-8-8T1:5:31Z</time></trkpt>
<trkpt lat="46.235370000" lon="7.444340000"><ele></ele><time>2013-8-8T1:5:34Z</time></trkpt>
<trkpt lat="46.235360000" lon="7.444310000"><ele></ele><time>2013-8-8T1:5:37Z</time></trkpt>
<trkpt lat="46.235340000" lon="7.444280000"><ele></ele><time>2013-8-8T1:5:40Z</time></trkpt>
<trkpt lat="46.235340000" lon="7.444250000"><ele></ele><time>2013-8-8T1:5:43Z</time></trkpt>
<trkpt lat="46.235310000" lon="7.444170000"><ele></ele><time>2013-8-8T1:5:46Z</time></trkpt>
<trkpt lat="46.235310000" lon="7.444140000"><ele></ele><time>2013-8-8T1:5:49Z</time></trkpt>
<trkpt lat="46.235300000" lon="7.444110000"><ele></ele><time>2013-8-8T1:5:52Z</time></trkpt>
<trkpt lat="46.235290000" lon="7.444080000"><ele></ele><time>2013-8-8T1:5:55Z</time></trkpt>
<trkpt lat="46.235280000" lon="7.444040000"><ele></ele><time>2013-8-8T1:5:58Z</time></trkpt>
<trkpt lat="46.235280000" lon="7.444010000"><ele></ele><time>2013-8-8T1:6:1Z</time></trkpt>
<trkpt lat="46.235260000" lon="7.443960000"><ele></ele><time>2013-8-8T1:6:4Z</time></trkpt>
<trkpt lat="46.235250000" lon="7.443930000"><ele></ele><time>2013-8-8T1:6:7Z</time></trkpt>
<trkpt lat="46.235240000" lon="7.443890000"><ele></ele><time>2013-8-8T1:6:10Z</time></trkpt>
<trkpt lat="46.235230000" lon="7.443860000"><ele></ele><time>2013-8-8T1:6:13Z</time></trkpt>
<trkpt lat="46.235210000" lon="7.443830000"><ele></ele><time>2013-8-8T1:6:16Z</time></trkpt>
<trkpt lat="46.235140000" lon="7.443700000"><ele></ele><time>2013-8-8T1:6:19Z</time></trkpt>
<trkpt lat="46.235110000" lon="7.443650000"><ele></ele><time>2013-8-8T1:6:22Z</time></trkpt>
<trkpt lat="46.235100000" lon="7.443630000"><ele></ele><time>2013-8-8T1:6:25Z</time></trkpt>
<trkpt lat="46.235080000" lon="7.443610000"><ele></ele><time>2013-8-8T1:6:28Z</time></trkpt>
<trkpt lat="46.235070000" lon="7.443590000"><ele></ele><time>2013-8-8T1:6:31Z</time></trkpt>
<trkpt lat="46.235050000" lon="7.443570000"><ele></ele><time>2013-8-8T1:6:34Z</time></trkpt>
<trkpt lat="46.235040000" lon="7.443560000"><ele></ele><time>2013-8-8T1:6:37Z</time></trkpt>
<trkpt lat="46.234930000" lon="7.443450000"><ele></ele><time>2013-8-8T1:6:40Z</time></trkpt>
<trkpt lat="46.234910000" lon="7.443440000"><ele></ele><time>2013-8-8T1:6:43Z</time></trkpt>
<trkpt lat="46.234890000" lon="7.443420000"><ele></ele><time>2013-8-8T1:6:46Z</time></trkpt>
<trkpt lat="46.234870000" lon="7.443400000"><ele></ele><time>2013-8-8T1:6:49Z</time></trkpt>
<trkpt lat="46.234840000" lon="7.443380000"><ele></ele><time>2013-8-8T1:6:52Z</time></trkpt>
<trkpt lat="46.234830000" lon="7.443360000"><ele></ele><time>2013-8-8T1:6:55Z</time></trkpt>
<trkpt lat="46.234750000" lon="7.443300000"><ele></ele><time>2013-8-8T1:6:58Z</time></trkpt>
<trkpt lat="46.234730000" lon="7.443280000"><ele></ele><time>2013-8-8T1:7:1Z</time></trkpt>
<trkpt lat="46.234710000" lon="7.443270000"><ele></ele><time>2013-8-8T1:7:4Z</time></trkpt>
<trkpt lat="46.234690000" lon="7.443250000"><ele></ele><time>2013-8-8T1:7:7Z</time></trkpt>
<trkpt lat="46.234660000" lon="7.443230000"><ele></ele><time>2013-8-8T1:7:10Z</time></trkpt>
<trkpt lat="46.234560000" lon="7.443140000"><ele></ele><time>2013-8-8T1:7:13Z</time></trkpt>
<trkpt lat="46.234550000" lon="7.443120000"><ele></ele><time>2013-8-8T1:7:16Z</time></trkpt>
<trkpt lat="46.234530000" lon="7.443110000"><ele></ele><time>2013-8-8T1:7:19Z</time></trkpt>
<trkpt lat="46.234510000" lon="7.443090000"><ele></ele><time>2013-8-8T1:7:22Z</time></trkpt>
<trkpt lat="46.234490000" lon="7.443060000"><ele></ele><time>2013-8-8T1:7:25Z</time></trkpt>
<trkpt lat="46.234470000" lon="7.443050000"><ele></ele><time>2013-8-8T1:7:28Z</time></trkpt>
<trkpt lat="46.234370000" lon="7.442880000"><ele></ele><time>2013-8-8T1:7:31Z</time></trkpt>
<trkpt lat="46.234350000" lon="7.442860000"><ele></ele><time>2013-8-8T1:7:34Z</time></trkpt>
<trkpt lat="46.234340000" lon="7.442830000"><ele></ele><time>2013-8-8T1:7:37Z</time></trkpt>
<trkpt lat="46.234330000" lon="7.442790000"><ele></ele><time>2013-8-8T1:7:40Z</time></trkpt>
<trkpt lat="46.234310000" lon="7.442700000"><ele></ele><time>2013-8-8T1:7:43Z</time></trkpt>
<trkpt lat="46.234300000" lon="7.442660000"><ele></ele><time>2013-8-8T1:7:46Z</time></trkpt>
<trkpt lat="46.234300000" lon="7.442630000"><ele></ele><time>2013-8-8T1:7:49Z</time></trkpt>
<trkpt lat="46.234300000" lon="7.442590000"><ele></ele><time>2013-8-8T1:7:52Z</time></trkpt>
<trkpt lat="46.234300000" lon="7.442560000"><ele></ele><time>2013-8-8T1:7:55Z</time></trkpt>
<trkpt lat="46.234280000" lon="7.442460000"><ele></ele><time>2013-8-8T1:7:58Z</time></trkpt>
<trkpt lat="46.234280000" lon="7.442430000"><ele></ele><time>2013-8-8T1:8:1Z</time></trkpt>
<trkpt lat="46.234270000" lon="7.442400000"><ele></ele><time>2013-8-8T1:8:4Z</time></trkpt>
<trkpt lat="46.234270000" lon="7.442370000"><ele></ele><time>2013-8-8T1:8:7Z</time></trkpt>
<trkpt lat="46.234260000" lon="7.442340000"><ele></ele><time>2013-8-8T1:8:10Z</time></trkpt>
<trkpt lat="46.234230000" lon="7.442180000"><ele></ele><time>2013-8-8T1:8:13Z</time></trkpt>
<trkpt lat="46.234230000" lon="7.442150000"><ele></ele><time>2013-8-8T1:8:16Z</time></trkpt>
<trkpt lat="46.234230000" lon="7.442120000"><ele></ele><time>2013-8-8T1:8:19Z</time></trkpt>
<trkpt lat="46.234220000" lon="7.442090000"><ele></ele><time>2013-8-8T1:8:22Z</time></trkpt>
<trkpt lat="46.234200000" lon="7.442000000"><ele></ele><time>2013-8-8T1:8:25Z</time></trkpt>
<trkpt lat="46.234200000" lon="7.441970000"><ele></ele><time>2013-8-8T1:8:28Z</time></trkpt>
<trkpt lat="46.234130000" lon="7.441820000"><ele></ele><time>2013-8-8T1:8:31Z</time></trkpt>
<trkpt lat="46.234120000" lon="7.441790000"><ele></ele><time>2013-8-8T1:8:34Z</time></trkpt>
<trkpt lat="46.234110000" lon="7.441760000"><ele></ele><time>2013-8-8T1:8:37Z</time></trkpt>
<trkpt lat="46.234100000" lon="7.441730000"><ele></ele><time>2013-8-8T1:8:40Z</time></trkpt>
<trkpt lat="46.234080000" lon="7.441700000"><ele></ele><time>2013-8-8T1:8:43Z</time></trkpt>
<trkpt lat="46.234010000" lon="7.441550000"><ele></ele><time>2013-8-8T1:8:46Z</time></trkpt>
<trkpt lat="46.234000000" lon="7.441520000"><ele></ele><time>2013-8-8T1:8:49Z</time></trkpt>
<trkpt lat="46.233990000" lon="7.441490000"><ele></ele><time>2013-8-8T1:8:52Z</time></trkpt>
<trkpt lat="46.233970000" lon="7.441470000"><ele></ele><time>2013-8-8T1:8:55Z</time></trkpt>
<trkpt lat="46.233950000" lon="7.441430000"><ele></ele><time>2013-8-8T1:8:58Z</time></trkpt>
<trkpt lat="46.233900000" lon="7.441290000"><ele></ele><time>2013-8-8T1:9:1Z</time></trkpt>
<trkpt lat="46.233890000" lon="7.441260000"><ele></ele><time>2013-8-8T1:9:4Z</time></trkpt>
<trkpt lat="46.233880000" lon="7.441230000"><ele></ele><time>2013-8-8T1:9:7Z</time></trkpt>
<trkpt lat="46.233870000" lon="7.441200000"><ele></ele><time>2013-8-8T1:9:10Z</time></trkpt>
<trkpt lat="46.233860000" lon="7.441160000"><ele></ele><time>2013-8-8T1:9:13Z</time></trkpt>
<trkpt lat="46.233810000" lon="7.440970000"><ele></ele><time>2013-8-8T1:9:16Z</time></trkpt>
<trkpt lat="46.233810000" lon="7.440930000"><ele></ele><time>2013-8-8T1:9:19Z</time></trkpt>
<trkpt lat="46.233810000" lon="7.440900000"><ele></ele><time>2013-8-8T1:9:22Z</time></trkpt>
<trkpt lat="46.233800000" lon="7.440860000"><ele></ele><time>2013-8-8T1:9:25Z</time></trkpt>
<trkpt lat="46.233790000" lon="7.440830000"><ele></ele><time>2013-8-8T1:9:28Z</time></trkpt>
<trkpt lat="46.233780000" lon="7.440800000"><ele></ele><time>2013-8-8T1:9:31Z</time></trkpt>
<trkpt lat="46.233750000" lon="7.440630000"><ele></ele><time>2013-8-8T1:9:34Z</time></trkpt>
<trkpt lat="46.233720000" lon="7.440530000"><ele></ele><time>2013-8-8T1:9:37Z</time></trkpt>
<trkpt lat="46.233720000" lon="7.440500000"><ele></ele><time>2013-8-8T1:9:40Z</time></trkpt>
<trkpt lat="46.233710000" lon="7.440470000"><ele></ele><time>2013-8-8T1:9:43Z</time></trkpt>
<trkpt lat="46.233700000" lon="7.440430000"><ele></ele><time>2013-8-8T1:9:46Z</time></trkpt>
<trkpt lat="46.233690000" lon="7.440400000"><ele></ele><time>2013-8-8T1:9:49Z</time></trkpt>
<trkpt lat="46.233680000" lon="7.440370000"><ele></ele><time>2013-8-8T1:9:52Z</time></trkpt>
<trkpt lat="46.233640000" lon="7.440130000"><ele></ele><time>2013-8-8T1:9:55Z</time></trkpt>
<trkpt lat="46.233620000" lon="7.439840000"><ele></ele><time>2013-8-8T1:9:58Z</time></trkpt>
<trkpt lat="46.233620000" lon="7.439800000"><ele></ele><time>2013-8-8T1:10:1Z</time></trkpt>
<trkpt lat="46.233610000" lon="7.439760000"><ele></ele><time>2013-8-8T1:10:4Z</time></trkpt>
<trkpt lat="46.233610000" lon="7.439720000"><ele></ele><time>2013-8-8T1:10:7Z</time></trkpt>
<trkpt lat="46.233580000" lon="7.439460000"><ele></ele><time>2013-8-8T1:10:10Z</time></trkpt>
<trkpt lat="46.233490000" lon="7.439130000"><ele></ele><time>2013-8-8T1:10:13Z</time></trkpt>
<trkpt lat="46.233380000" lon="7.438820000"><ele></ele><time>2013-8-8T1:10:16Z</time></trkpt>
<trkpt lat="46.233230000" lon="7.438590000"><ele></ele><time>2013-8-8T1:10:19Z</time></trkpt>
<trkpt lat="46.233210000" lon="7.438550000"><ele></ele><time>2013-8-8T1:10:22Z</time></trkpt>
<trkpt lat="46.233000000" lon="7.438280000"><ele></ele><time>2013-8-8T1:10:25Z</time></trkpt>
<trkpt lat="46.232800000" lon="7.438000000"><ele></ele><time>2013-8-8T1:10:28Z</time></trkpt>
<trkpt lat="46.232730000" lon="7.437870000"><ele></ele><time>2013-8-8T1:10:31Z</time></trkpt>
<trkpt lat="46.232680000" lon="7.437690000"><ele></ele><time>2013-8-8T1:10:34Z</time></trkpt>
<trkpt lat="46.232670000" lon="7.437640000"><ele></ele><time>2013-8-8T1:10:37Z</time></trkpt>
<trkpt lat="46.232650000" lon="7.437590000"><ele></ele><time>2013-8-8T1:10:40Z</time></trkpt>
<trkpt lat="46.232640000" lon="7.437550000"><ele></ele><time>2013-8-8T1:10:43Z</time></trkpt>
<trkpt lat="46.232630000" lon="7.437510000"><ele></ele><time>2013-8-8T1:10:46Z</time></trkpt>
<trkpt lat="46.232620000" lon="7.437470000"><ele></ele><time>2013-8-8T1:10:49Z</time></trkpt>
<trkpt lat="46.232630000" lon="7.437430000"><ele></ele><time>2013-8-8T1:10:52Z</time></trkpt>
<trkpt lat="46.232620000" lon="7.437380000"><ele></ele><time>2013-8-8T1:10:55Z</time></trkpt>
<trkpt lat="46.232600000" lon="7.437240000"><ele></ele><time>2013-8-8T1:10:58Z</time></trkpt>
<trkpt lat="46.232570000" lon="7.437060000"><ele></ele><time>2013-8-8T1:11:1Z</time></trkpt>
<trkpt lat="46.232550000" lon="7.436920000"><ele></ele><time>2013-8-8T1:11:4Z</time></trkpt>
<trkpt lat="46.232540000" lon="7.436870000"><ele></ele><time>2013-8-8T1:11:7Z</time></trkpt>
<trkpt lat="46.232540000" lon="7.436820000"><ele></ele><time>2013-8-8T1:11:10Z</time></trkpt>
<trkpt lat="46.232530000" lon="7.436780000"><ele></ele><time>2013-8-8T1:11:13Z</time></trkpt>
<trkpt lat="46.232520000" lon="7.436740000"><ele></ele><time>2013-8-8T1:11:16Z</time></trkpt>
<trkpt lat="46.232520000" lon="7.436690000"><ele></ele><time>2013-8-8T1:11:19Z</time></trkpt>
<trkpt lat="46.232480000" lon="7.436420000"><ele></ele><time>2013-8-8T1:11:22Z</time></trkpt>
<trkpt lat="46.232460000" lon="7.436280000"><ele></ele><time>2013-8-8T1:11:25Z</time></trkpt>
<trkpt lat="46.232450000" lon="7.436240000"><ele></ele><time>2013-8-8T1:11:28Z</time></trkpt>
<trkpt lat="46.232440000" lon="7.436190000"><ele></ele><time>2013-8-8T1:11:31Z</time></trkpt>
<trkpt lat="46.232440000" lon="7.436150000"><ele></ele><time>2013-8-8T1:11:34Z</time></trkpt>
<trkpt lat="46.232430000" lon="7.436100000"><ele></ele><time>2013-8-8T1:11:37Z</time></trkpt>
<trkpt lat="46.232410000" lon="7.436020000"><ele></ele><time>2013-8-8T1:11:40Z</time></trkpt>
<trkpt lat="46.232370000" lon="7.435850000"><ele></ele><time>2013-8-8T1:11:43Z</time></trkpt>
<trkpt lat="46.232360000" lon="7.435810000"><ele></ele><time>2013-8-8T1:11:46Z</time></trkpt>
<trkpt lat="46.232350000" lon="7.435770000"><ele></ele><time>2013-8-8T1:11:49Z</time></trkpt>
<trkpt lat="46.232330000" lon="7.435730000"><ele></ele><time>2013-8-8T1:11:52Z</time></trkpt>
<trkpt lat="46.232320000" lon="7.435690000"><ele></ele><time>2013-8-8T1:11:55Z</time></trkpt>
<trkpt lat="46.232230000" lon="7.435510000"><ele></ele><time>2013-8-8T1:11:58Z</time></trkpt>
<trkpt lat="46.232190000" lon="7.435370000"><ele></ele><time>2013-8-8T1:12:1Z</time></trkpt>
<trkpt lat="46.232170000" lon="7.435330000"><ele></ele><time>2013-8-8T1:12:4Z</time></trkpt>
<trkpt lat="46.232150000" lon="7.435300000"><ele></ele><time>2013-8-8T1:12:7Z</time></trkpt>
<trkpt lat="46.232140000" lon="7.435260000"><ele></ele><time>2013-8-8T1:12:10Z</time></trkpt>
<trkpt lat="46.232130000" lon="7.435230000"><ele></ele><time>2013-8-8T1:12:13Z</time></trkpt>
<trkpt lat="46.232080000" lon="7.435080000"><ele></ele><time>2013-8-8T1:12:16Z</time></trkpt>
<trkpt lat="46.232070000" lon="7.435040000"><ele></ele><time>2013-8-8T1:12:19Z</time></trkpt>
<trkpt lat="46.232060000" lon="7.435000000"><ele></ele><time>2013-8-8T1:12:22Z</time></trkpt>
<trkpt lat="46.232060000" lon="7.434970000"><ele></ele><time>2013-8-8T1:12:25Z</time></trkpt>
<trkpt lat="46.232030000" lon="7.434790000"><ele></ele><time>2013-8-8T1:12:28Z</time></trkpt>
<trkpt lat="46.232020000" lon="7.434750000"><ele></ele><time>2013-8-8T1:12:31Z</time></trkpt>
<trkpt lat="46.232020000" lon="7.434710000"><ele></ele><time>2013-8-8T1:12:34Z</time></trkpt>
<trkpt lat="46.232020000" lon="7.434680000"><ele></ele><time>2013-8-8T1:12:37Z</time></trkpt>
<trkpt lat="46.232010000" lon="7.434640000"><ele></ele><time>2013-8-8T1:12:40Z</time></trkpt>
<trkpt lat="46.231990000" lon="7.434520000"><ele></ele><time>2013-8-8T1:12:43Z</time></trkpt>
<trkpt lat="46.231980000" lon="7.434450000"><ele></ele><time>2013-8-8T1:12:46Z</time></trkpt>
<trkpt lat="46.231960000" lon="7.434410000"><ele></ele><time>2013-8-8T1:12:49Z</time></trkpt>
<trkpt lat="46.231950000" lon="7.434370000"><ele></ele><time>2013-8-8T1:12:52Z</time></trkpt>
<trkpt lat="46.231940000" lon="7.434340000"><ele></ele><time>2013-8-8T1:12:55Z</time></trkpt>
<trkpt lat="46.231930000" lon="7.434300000"><ele></ele><time>2013-8-8T1:12:58Z</time></trkpt>
<trkpt lat="46.231890000" lon="7.434200000"><ele></ele><time>2013-8-8T1:13:1Z</time></trkpt>
<trkpt lat="46.231880000" lon="7.434170000"><ele></ele><time>2013-8-8T1:13:4Z</time></trkpt>
<trkpt lat="46.231860000" lon="7.434140000"><ele></ele><time>2013-8-8T1:13:7Z</time></trkpt>
<trkpt lat="46.231840000" lon="7.434110000"><ele></ele><time>2013-8-8T1:13:10Z</time></trkpt>
<trkpt lat="46.231820000" lon="7.434080000"><ele></ele><time>2013-8-8T1:13:13Z</time></trkpt>
<trkpt lat="46.231810000" lon="7.434060000"><ele></ele><time>2013-8-8T1:13:16Z</time></trkpt>
<trkpt lat="46.231780000" lon="7.434010000"><ele></ele><time>2013-8-8T1:13:19Z</time></trkpt>
<trkpt lat="46.231720000" lon="7.433950000"><ele></ele><time>2013-8-8T1:13:22Z</time></trkpt>
<trkpt lat="46.231690000" lon="7.433930000"><ele></ele><time>2013-8-8T1:13:25Z</time></trkpt>
<trkpt lat="46.231670000" lon="7.433900000"><ele></ele><time>2013-8-8T1:13:28Z</time></trkpt>
<trkpt lat="46.231660000" lon="7.433880000"><ele></ele><time>2013-8-8T1:13:31Z</time></trkpt>
<trkpt lat="46.231640000" lon="7.433850000"><ele></ele><time>2013-8-8T1:13:34Z</time></trkpt>
<trkpt lat="46.231540000" lon="7.433740000"><ele></ele><time>2013-8-8T1:13:37Z</time></trkpt>
<trkpt lat="46.231520000" lon="7.433720000"><ele></ele><time>2013-8-8T1:13:40Z</time></trkpt>
<trkpt lat="46.231500000" lon="7.433710000"><ele></ele><time>2013-8-8T1:13:43Z</time></trkpt>
<trkpt lat="46.231480000" lon="7.433690000"><ele></ele><time>2013-8-8T1:13:46Z</time></trkpt>
<trkpt lat="46.231460000" lon="7.433670000"><ele></ele><time>2013-8-8T1:13:49Z</time></trkpt>
<trkpt lat="46.231440000" lon="7.433650000"><ele></ele><time>2013-8-8T1:13:52Z</time></trkpt>
<trkpt lat="46.231420000" lon="7.433620000"><ele></ele><time>2013-8-8T1:13:55Z</time></trkpt>
<trkpt lat="46.231330000" lon="7.433520000"><ele></ele><time>2013-8-8T1:13:58Z</time></trkpt>
<trkpt lat="46.231310000" lon="7.433500000"><ele></ele><time>2013-8-8T1:14:1Z</time></trkpt>
<trkpt lat="46.231290000" lon="7.433480000"><ele></ele><time>2013-8-8T1:14:4Z</time></trkpt>
<trkpt lat="46.231270000" lon="7.433460000"><ele></ele><time>2013-8-8T1:14:7Z</time></trkpt>
<trkpt lat="46.231250000" lon="7.433440000"><ele></ele><time>2013-8-8T1:14:10Z</time></trkpt>
<trkpt lat="46.231180000" lon="7.433380000"><ele></ele><time>2013-8-8T1:14:13Z</time></trkpt>
<trkpt lat="46.231160000" lon="7.433360000"><ele></ele><time>2013-8-8T1:14:16Z</time></trkpt>
<trkpt lat="46.231130000" lon="7.433320000"><ele></ele><time>2013-8-8T1:14:19Z</time></trkpt>
<trkpt lat="46.231110000" lon="7.433310000"><ele></ele><time>2013-8-8T1:14:22Z</time></trkpt>
<trkpt lat="46.231090000" lon="7.433290000"><ele></ele><time>2013-8-8T1:14:25Z</time></trkpt>
<trkpt lat="46.231080000" lon="7.433270000"><ele></ele><time>2013-8-8T1:14:28Z</time></trkpt>
<trkpt lat="46.231060000" lon="7.433250000"><ele></ele><time>2013-8-8T1:14:31Z</time></trkpt>
<trkpt lat="46.231020000" lon="7.433220000"><ele></ele><time>2013-8-8T1:14:34Z</time></trkpt>
<trkpt lat="46.230960000" lon="7.433160000"><ele></ele><time>2013-8-8T1:14:37Z</time></trkpt>
<trkpt lat="46.230940000" lon="7.433150000"><ele></ele><time>2013-8-8T1:14:40Z</time></trkpt>
<trkpt lat="46.230920000" lon="7.433130000"><ele></ele><time>2013-8-8T1:14:43Z</time></trkpt>
<trkpt lat="46.230900000" lon="7.433120000"><ele></ele><time>2013-8-8T1:14:46Z</time></trkpt>
<trkpt lat="46.230880000" lon="7.433100000"><ele></ele><time>2013-8-8T1:14:49Z</time></trkpt>
<trkpt lat="46.230820000" lon="7.433060000"><ele></ele><time>2013-8-8T1:14:52Z</time></trkpt>
<trkpt lat="46.230730000" lon="7.433020000"><ele></ele><time>2013-8-8T1:14:55Z</time></trkpt>
<trkpt lat="46.230710000" lon="7.433000000"><ele></ele><time>2013-8-8T1:14:58Z</time></trkpt>
<trkpt lat="46.230690000" lon="7.432990000"><ele></ele><time>2013-8-8T1:15:1Z</time></trkpt>
<trkpt lat="46.230660000" lon="7.432980000"><ele></ele><time>2013-8-8T1:15:4Z</time></trkpt>
<trkpt lat="46.230640000" lon="7.432970000"><ele></ele><time>2013-8-8T1:15:7Z</time></trkpt>
<trkpt lat="46.230550000" lon="7.432920000"><ele></ele><time>2013-8-8T1:15:10Z</time></trkpt>
<trkpt lat="46.230520000" lon="7.432910000"><ele></ele><time>2013-8-8T1:15:13Z</time></trkpt>
<trkpt lat="46.230500000" lon="7.432900000"><ele></ele><time>2013-8-8T1:15:16Z</time></trkpt>
<trkpt lat="46.230480000" lon="7.432890000"><ele></ele><time>2013-8-8T1:15:19Z</time></trkpt>
<trkpt lat="46.230450000" lon="7.432880000"><ele></ele><time>2013-8-8T1:15:22Z</time></trkpt>
<trkpt lat="46.230360000" lon="7.432850000"><ele></ele><time>2013-8-8T1:15:25Z</time></trkpt>
<trkpt lat="46.230340000" lon="7.432830000"><ele></ele><time>2013-8-8T1:15:28Z</time></trkpt>
<trkpt lat="46.230320000" lon="7.432820000"><ele></ele><time>2013-8-8T1:15:31Z</time></trkpt>
<trkpt lat="46.230290000" lon="7.432810000"><ele></ele><time>2013-8-8T1:15:34Z</time></trkpt>
<trkpt lat="46.230270000" lon="7.432800000"><ele></ele><time>2013-8-8T1:15:37Z</time></trkpt>
<trkpt lat="46.230140000" lon="7.432770000"><ele></ele><time>2013-8-8T1:15:40Z</time></trkpt>
<trkpt lat="46.230000000" lon="7.432740000"><ele></ele><time>2013-8-8T1:15:43Z</time></trkpt>
<trkpt lat="46.229970000" lon="7.432740000"><ele></ele><time>2013-8-8T1:15:46Z</time></trkpt>
<trkpt lat="46.229940000" lon="7.432740000"><ele></ele><time>2013-8-8T1:15:49Z</time></trkpt>
<trkpt lat="46.229920000" lon="7.432740000"><ele></ele><time>2013-8-8T1:15:52Z</time></trkpt>
<trkpt lat="46.229890000" lon="7.432740000"><ele></ele><time>2013-8-8T1:15:55Z</time></trkpt>
<trkpt lat="46.229850000" lon="7.432730000"><ele></ele><time>2013-8-8T1:15:58Z</time></trkpt>
<trkpt lat="46.229800000" lon="7.432720000"><ele></ele><time>2013-8-8T1:16:1Z</time></trkpt>
<trkpt lat="46.229780000" lon="7.432710000"><ele></ele><time>2013-8-8T1:16:4Z</time></trkpt>
<trkpt lat="46.229760000" lon="7.432690000"><ele></ele><time>2013-8-8T1:16:7Z</time></trkpt>
<trkpt lat="46.229740000" lon="7.432670000"><ele></ele><time>2013-8-8T1:16:10Z</time></trkpt>
<trkpt lat="46.229720000" lon="7.432650000"><ele></ele><time>2013-8-8T1:16:13Z</time></trkpt>
<trkpt lat="46.229640000" lon="7.432450000"><ele></ele><time>2013-8-8T1:16:16Z</time></trkpt>
<trkpt lat="46.229590000" lon="7.432170000"><ele></ele><time>2013-8-8T1:16:19Z</time></trkpt>
<trkpt lat="46.229550000" lon="7.431910000"><ele></ele><time>2013-8-8T1:16:22Z</time></trkpt>
<trkpt lat="46.229540000" lon="7.431820000"><ele></ele><time>2013-8-8T1:16:25Z</time></trkpt>
<trkpt lat="46.229480000" lon="7.431590000"><ele></ele><time>2013-8-8T1:16:28Z</time></trkpt>
<trkpt lat="46.229470000" lon="7.431500000"><ele></ele><time>2013-8-8T1:16:31Z</time></trkpt>
<trkpt lat="46.229410000" lon="7.431250000"><ele></ele><time>2013-8-8T1:16:34Z</time></trkpt>
<trkpt lat="46.229400000" lon="7.431200000"><ele></ele><time>2013-8-8T1:16:37Z</time></trkpt>
<trkpt lat="46.229350000" lon="7.430990000"><ele></ele><time>2013-8-8T1:16:40Z</time></trkpt>
<trkpt lat="46.229310000" lon="7.430820000"><ele></ele><time>2013-8-8T1:16:43Z</time></trkpt>
<trkpt lat="46.229270000" lon="7.430680000"><ele></ele><time>2013-8-8T1:16:46Z</time></trkpt>
<trkpt lat="46.229210000" lon="7.430470000"><ele></ele><time>2013-8-8T1:16:49Z</time></trkpt>
<trkpt lat="46.229120000" lon="7.430160000"><ele></ele><time>2013-8-8T1:16:52Z</time></trkpt>
<trkpt lat="46.229110000" lon="7.430110000"><ele></ele><time>2013-8-8T1:16:55Z</time></trkpt>
<trkpt lat="46.229090000" lon="7.430060000"><ele></ele><time>2013-8-8T1:16:58Z</time></trkpt>
<trkpt lat="46.229080000" lon="7.430010000"><ele></ele><time>2013-8-8T1:17:1Z</time></trkpt>
<trkpt lat="46.229060000" lon="7.429970000"><ele></ele><time>2013-8-8T1:17:4Z</time></trkpt>
<trkpt lat="46.228990000" lon="7.429740000"><ele></ele><time>2013-8-8T1:17:7Z</time></trkpt>
<trkpt lat="46.228890000" lon="7.429430000"><ele></ele><time>2013-8-8T1:17:10Z</time></trkpt>
<trkpt lat="46.228850000" lon="7.429350000"><ele></ele><time>2013-8-8T1:17:13Z</time></trkpt>
<trkpt lat="46.228840000" lon="7.429310000"><ele></ele><time>2013-8-8T1:17:16Z</time></trkpt>
<trkpt lat="46.228820000" lon="7.429280000"><ele></ele><time>2013-8-8T1:17:19Z</time></trkpt>
<trkpt lat="46.228800000" lon="7.429240000"><ele></ele><time>2013-8-8T1:17:22Z</time></trkpt>
<trkpt lat="46.228790000" lon="7.429200000"><ele></ele><time>2013-8-8T1:17:25Z</time></trkpt>
<trkpt lat="46.228690000" lon="7.428890000"><ele></ele><time>2013-8-8T1:17:28Z</time></trkpt>
<trkpt lat="46.228670000" lon="7.428850000"><ele></ele><time>2013-8-8T1:17:31Z</time></trkpt>
<trkpt lat="46.228660000" lon="7.428800000"><ele></ele><time>2013-8-8T1:17:34Z</time></trkpt>
<trkpt lat="46.228650000" lon="7.428750000"><ele></ele><time>2013-8-8T1:17:37Z</time></trkpt>
<trkpt lat="46.228650000" lon="7.428710000"><ele></ele><time>2013-8-8T1:17:40Z</time></trkpt>
<trkpt lat="46.228650000" lon="7.428660000"><ele></ele><time>2013-8-8T1:17:43Z</time></trkpt>
<trkpt lat="46.228630000" lon="7.428590000"><ele></ele><time>2013-8-8T1:17:46Z</time></trkpt>
<trkpt lat="46.228570000" lon="7.428420000"><ele></ele><time>2013-8-8T1:17:49Z</time></trkpt>
<trkpt lat="46.228550000" lon="7.428410000"><ele></ele><time>2013-8-8T1:17:52Z</time></trkpt>
<trkpt lat="46.228530000" lon="7.428390000"><ele></ele><time>2013-8-8T1:17:55Z</time></trkpt>
<trkpt lat="46.228510000" lon="7.428380000"><ele></ele><time>2013-8-8T1:17:58Z</time></trkpt>
<trkpt lat="46.228490000" lon="7.428370000"><ele></ele><time>2013-8-8T1:18:1Z</time></trkpt>
<trkpt lat="46.228440000" lon="7.428360000"><ele></ele><time>2013-8-8T1:18:4Z</time></trkpt>
<trkpt lat="46.228370000" lon="7.428340000"><ele></ele><time>2013-8-8T1:18:7Z</time></trkpt>
<trkpt lat="46.228340000" lon="7.428330000"><ele></ele><time>2013-8-8T1:18:10Z</time></trkpt>
<trkpt lat="46.228330000" lon="7.428300000"><ele></ele><time>2013-8-8T1:18:13Z</time></trkpt>
<trkpt lat="46.228310000" lon="7.428280000"><ele></ele><time>2013-8-8T1:18:16Z</time></trkpt>
<trkpt lat="46.228300000" lon="7.428250000"><ele></ele><time>2013-8-8T1:18:19Z</time></trkpt>
<trkpt lat="46.228290000" lon="7.428220000"><ele></ele><time>2013-8-8T1:18:22Z</time></trkpt>
<trkpt lat="46.228280000" lon="7.428180000"><ele></ele><time>2013-8-8T1:18:25Z</time></trkpt>
<trkpt lat="46.228250000" lon="7.428070000"><ele></ele><time>2013-8-8T1:18:28Z</time></trkpt>
<trkpt lat="46.228240000" lon="7.428040000"><ele></ele><time>2013-8-8T1:18:31Z</time></trkpt>
<trkpt lat="46.228230000" lon="7.428020000"><ele></ele><time>2013-8-8T1:18:34Z</time></trkpt>
<trkpt lat="46.228210000" lon="7.427990000"><ele></ele><time>2013-8-8T1:18:37Z</time></trkpt>
<trkpt lat="46.228200000" lon="7.427960000"><ele></ele><time>2013-8-8T1:18:40Z</time></trkpt>
<trkpt lat="46.228160000" lon="7.427840000"><ele></ele><time>2013-8-8T1:18:43Z</time></trkpt>
<trkpt lat="46.228130000" lon="7.427770000"><ele></ele><time>2013-8-8T1:18:46Z</time></trkpt>
<trkpt lat="46.228120000" lon="7.427730000"><ele></ele><time>2013-8-8T1:18:49Z</time></trkpt>
<trkpt lat="46.228110000" lon="7.427690000"><ele></ele><time>2013-8-8T1:18:52Z</time></trkpt>
<trkpt lat="46.228100000" lon="7.427660000"><ele></ele><time>2013-8-8T1:18:55Z</time></trkpt>
<trkpt lat="46.228090000" lon="7.427630000"><ele></ele><time>2013-8-8T1:18:58Z</time></trkpt>
<trkpt lat="46.228070000" lon="7.427500000"><ele></ele><time>2013-8-8T1:19:1Z</time></trkpt>
<trkpt lat="46.228050000" lon="7.427460000"><ele></ele><time>2013-8-8T1:19:4Z</time></trkpt>
<trkpt lat="46.228030000" lon="7.427430000"><ele></ele><time>2013-8-8T1:19:7Z</time></trkpt>
<trkpt lat="46.228020000" lon="7.427390000"><ele></ele><time>2013-8-8T1:19:10Z</time></trkpt>
<trkpt lat="46.228010000" lon="7.427360000"><ele></ele><time>2013-8-8T1:19:13Z</time></trkpt>
<trkpt lat="46.227970000" lon="7.427270000"><ele></ele><time>2013-8-8T1:19:16Z</time></trkpt>
<trkpt lat="46.227970000" lon="7.427230000"><ele></ele><time>2013-8-8T1:19:19Z</time></trkpt>
<trkpt lat="46.227960000" lon="7.427200000"><ele></ele><time>2013-8-8T1:19:22Z</time></trkpt>
<trkpt lat="46.227950000" lon="7.427180000"><ele></ele><time>2013-8-8T1:19:25Z</time></trkpt>
<trkpt lat="46.227940000" lon="7.427150000"><ele></ele><time>2013-8-8T1:19:28Z</time></trkpt>
<trkpt lat="46.227900000" lon="7.427040000"><ele></ele><time>2013-8-8T1:19:31Z</time></trkpt>
<trkpt lat="46.227840000" lon="7.426890000"><ele></ele><time>2013-8-8T1:19:34Z</time></trkpt>
<trkpt lat="46.227830000" lon="7.426870000"><ele></ele><time>2013-8-8T1:19:37Z</time></trkpt>
<trkpt lat="46.227810000" lon="7.426830000"><ele></ele><time>2013-8-8T1:19:40Z</time></trkpt>
<trkpt lat="46.227800000" lon="7.426810000"><ele></ele><time>2013-8-8T1:19:43Z</time></trkpt>
<trkpt lat="46.227790000" lon="7.426780000"><ele></ele><time>2013-8-8T1:19:46Z</time></trkpt>
<trkpt lat="46.227730000" lon="7.426670000"><ele></ele><time>2013-8-8T1:19:49Z</time></trkpt>
<trkpt lat="46.227720000" lon="7.426640000"><ele></ele><time>2013-8-8T1:19:52Z</time></trkpt>
<trkpt lat="46.227700000" lon="7.426600000"><ele></ele><time>2013-8-8T1:19:55Z</time></trkpt>
<trkpt lat="46.227630000" lon="7.426470000"><ele></ele><time>2013-8-8T1:19:58Z</time></trkpt>
<trkpt lat="46.227620000" lon="7.426440000"><ele></ele><time>2013-8-8T1:20:1Z</time></trkpt>
<trkpt lat="46.227610000" lon="7.426410000"><ele></ele><time>2013-8-8T1:20:4Z</time></trkpt>
<trkpt lat="46.227600000" lon="7.426380000"><ele></ele><time>2013-8-8T1:20:7Z</time></trkpt>
<trkpt lat="46.227590000" lon="7.426350000"><ele></ele><time>2013-8-8T1:20:10Z</time></trkpt>
<trkpt lat="46.227580000" lon="7.426320000"><ele></ele><time>2013-8-8T1:20:13Z</time></trkpt>
<trkpt lat="46.227570000" lon="7.426260000"><ele></ele><time>2013-8-8T1:20:16Z</time></trkpt>
<trkpt lat="46.227550000" lon="7.426190000"><ele></ele><time>2013-8-8T1:20:19Z</time></trkpt>
<trkpt lat="46.227540000" lon="7.426160000"><ele></ele><time>2013-8-8T1:20:22Z</time></trkpt>
<trkpt lat="46.227530000" lon="7.426120000"><ele></ele><time>2013-8-8T1:20:25Z</time></trkpt>
<trkpt lat="46.227520000" lon="7.426090000"><ele></ele><time>2013-8-8T1:20:28Z</time></trkpt>
<trkpt lat="46.227520000" lon="7.426050000"><ele></ele><time>2013-8-8T1:20:31Z</time></trkpt>
<trkpt lat="46.227500000" lon="7.425990000"><ele></ele><time>2013-8-8T1:20:34Z</time></trkpt>
<trkpt lat="46.227500000" lon="7.425950000"><ele></ele><time>2013-8-8T1:20:37Z</time></trkpt>
<trkpt lat="46.227490000" lon="7.425920000"><ele></ele><time>2013-8-8T1:20:40Z</time></trkpt>
<trkpt lat="46.227490000" lon="7.425890000"><ele></ele><time>2013-8-8T1:20:43Z</time></trkpt>
<trkpt lat="46.227440000" lon="7.425690000"><ele></ele><time>2013-8-8T1:20:46Z</time></trkpt>
<trkpt lat="46.227440000" lon="7.425660000"><ele></ele><time>2013-8-8T1:20:49Z</time></trkpt>
<trkpt lat="46.227430000" lon="7.425630000"><ele></ele><time>2013-8-8T1:20:52Z</time></trkpt>
<trkpt lat="46.227420000" lon="7.425600000"><ele></ele><time>2013-8-8T1:20:55Z</time></trkpt>
<trkpt lat="46.227420000" lon="7.425570000"><ele></ele><time>2013-8-8T1:20:58Z</time></trkpt>
<trkpt lat="46.227420000" lon="7.425540000"><ele></ele><time>2013-8-8T1:21:1Z</time></trkpt>
<trkpt lat="46.227390000" lon="7.425450000"><ele></ele><time>2013-8-8T1:21:4Z</time></trkpt>
<trkpt lat="46.227380000" lon="7.425420000"><ele></ele><time>2013-8-8T1:21:7Z</time></trkpt>
<trkpt lat="46.227380000" lon="7.425390000"><ele></ele><time>2013-8-8T1:21:10Z</time></trkpt>
<trkpt lat="46.227360000" lon="7.425370000"><ele></ele><time>2013-8-8T1:21:13Z</time></trkpt>
<trkpt lat="46.227340000" lon="7.425350000"><ele></ele><time>2013-8-8T1:21:16Z</time></trkpt>
<trkpt lat="46.227330000" lon="7.425320000"><ele></ele><time>2013-8-8T1:21:19Z</time></trkpt>
<trkpt lat="46.227300000" lon="7.425280000"><ele></ele><time>2013-8-8T1:21:22Z</time></trkpt>
<trkpt lat="46.227270000" lon="7.425230000"><ele></ele><time>2013-8-8T1:21:25Z</time></trkpt>
<trkpt lat="46.227260000" lon="7.425210000"><ele></ele><time>2013-8-8T1:21:28Z</time></trkpt>
<trkpt lat="46.227250000" lon="7.425200000"><ele></ele><time>2013-8-8T1:21:31Z</time></trkpt>
<trkpt lat="46.227230000" lon="7.425190000"><ele></ele><time>2013-8-8T1:21:34Z</time></trkpt>
<trkpt lat="46.227170000" lon="7.425150000"><ele></ele><time>2013-8-8T1:21:37Z</time></trkpt>
<trkpt lat="46.227130000" lon="7.425150000"><ele></ele><time>2013-8-8T1:21:40Z</time></trkpt>
<trkpt lat="46.227120000" lon="7.425170000"><ele></ele><time>2013-8-8T1:21:43Z</time></trkpt>
<trkpt lat="46.227110000" lon="7.425190000"><ele></ele><time>2013-8-8T1:21:46Z</time></trkpt>
<trkpt lat="46.227110000" lon="7.425230000"><ele></ele><time>2013-8-8T1:21:49Z</time></trkpt>
<trkpt lat="46.227120000" lon="7.425270000"><ele></ele><time>2013-8-8T1:21:52Z</time></trkpt>
<trkpt lat="46.227130000" lon="7.425310000"><ele></ele><time>2013-8-8T1:21:55Z</time></trkpt>
<trkpt lat="46.227140000" lon="7.425340000"><ele></ele><time>2013-8-8T1:21:58Z</time></trkpt>
<trkpt lat="46.227160000" lon="7.425440000"><ele></ele><time>2013-8-8T1:22:1Z</time></trkpt>
<trkpt lat="46.227190000" lon="7.425630000"><ele></ele><time>2013-8-8T1:22:4Z</time></trkpt>
<trkpt lat="46.227240000" lon="7.425910000"><ele></ele><time>2013-8-8T1:22:7Z</time></trkpt>
<trkpt lat="46.227250000" lon="7.425970000"><ele></ele><time>2013-8-8T1:22:10Z</time></trkpt>
<trkpt lat="46.227250000" lon="7.426040000"><ele></ele><time>2013-8-8T1:22:13Z</time></trkpt>
<trkpt lat="46.227250000" lon="7.426110000"><ele></ele><time>2013-8-8T1:22:16Z</time></trkpt>
<trkpt lat="46.227260000" lon="7.426180000"><ele></ele><time>2013-8-8T1:22:19Z</time></trkpt>
<trkpt lat="46.227260000" lon="7.426240000"><ele></ele><time>2013-8-8T1:22:22Z</time></trkpt>
<trkpt lat="46.227280000" lon="7.426470000"><ele></ele><time>2013-8-8T1:22:25Z</time></trkpt>
<trkpt lat="46.227290000" lon="7.426630000"><ele></ele><time>2013-8-8T1:22:28Z</time></trkpt>
<trkpt lat="46.227300000" lon="7.426790000"><ele></ele><time>2013-8-8T1:22:31Z</time></trkpt>
<trkpt lat="46.227310000" lon="7.426950000"><ele></ele><time>2013-8-8T1:22:34Z</time></trkpt>
<trkpt lat="46.227320000" lon="7.427030000"><ele></ele><time>2013-8-8T1:22:37Z</time></trkpt>
<trkpt lat="46.227340000" lon="7.427110000"><ele></ele><time>2013-8-8T1:22:40Z</time></trkpt>
<trkpt lat="46.227360000" lon="7.427190000"><ele></ele><time>2013-8-8T1:22:43Z</time></trkpt>
<trkpt lat="46.227380000" lon="7.427270000"><ele></ele><time>2013-8-8T1:22:46Z</time></trkpt>
<trkpt lat="46.227400000" lon="7.427340000"><ele></ele><time>2013-8-8T1:22:49Z</time></trkpt>
<trkpt lat="46.227450000" lon="7.427580000"><ele></ele><time>2013-8-8T1:22:52Z</time></trkpt>
<trkpt lat="46.227490000" lon="7.427730000"><ele></ele><time>2013-8-8T1:22:55Z</time></trkpt>
<trkpt lat="46.227540000" lon="7.427910000"><ele></ele><time>2013-8-8T1:22:58Z</time></trkpt>
<trkpt lat="46.227550000" lon="7.428000000"><ele></ele><time>2013-8-8T1:23:1Z</time></trkpt>
<trkpt lat="46.227580000" lon="7.428080000"><ele></ele><time>2013-8-8T1:23:4Z</time></trkpt>
<trkpt lat="46.227600000" lon="7.428170000"><ele></ele><time>2013-8-8T1:23:7Z</time></trkpt>
<trkpt lat="46.227660000" lon="7.428420000"><ele></ele><time>2013-8-8T1:23:10Z</time></trkpt>
<trkpt lat="46.227780000" lon="7.428920000"><ele></ele><time>2013-8-8T1:23:13Z</time></trkpt>
<trkpt lat="46.227840000" lon="7.429160000"><ele></ele><time>2013-8-8T1:23:16Z</time></trkpt>
<trkpt lat="46.227900000" lon="7.429380000"><ele></ele><time>2013-8-8T1:23:19Z</time></trkpt>
<trkpt lat="46.227990000" lon="7.429670000"><ele></ele><time>2013-8-8T1:23:22Z</time></trkpt>
<trkpt lat="46.228010000" lon="7.429740000"><ele></ele><time>2013-8-8T1:23:25Z</time></trkpt>
<trkpt lat="46.228050000" lon="7.429880000"><ele></ele><time>2013-8-8T1:23:28Z</time></trkpt>
<trkpt lat="46.228070000" lon="7.429940000"><ele></ele><time>2013-8-8T1:23:31Z</time></trkpt>
<trkpt lat="46.228160000" lon="7.430230000"><ele></ele><time>2013-8-8T1:23:34Z</time></trkpt>
<trkpt lat="46.228270000" lon="7.430530000"><ele></ele><time>2013-8-8T1:23:37Z</time></trkpt>
<trkpt lat="46.228280000" lon="7.430620000"><ele></ele><time>2013-8-8T1:23:40Z</time></trkpt>
<trkpt lat="46.228320000" lon="7.430910000"><ele></ele><time>2013-8-8T1:23:43Z</time></trkpt>
<trkpt lat="46.228360000" lon="7.431000000"><ele></ele><time>2013-8-8T1:23:46Z</time></trkpt>
<trkpt lat="46.228420000" lon="7.431170000"><ele></ele><time>2013-8-8T1:23:49Z</time></trkpt>
<trkpt lat="46.228440000" lon="7.431260000"><ele></ele><time>2013-8-8T1:23:52Z</time></trkpt>
<trkpt lat="46.228450000" lon="7.431340000"><ele></ele><time>2013-8-8T1:23:55Z</time></trkpt>
<trkpt lat="46.228460000" lon="7.431410000"><ele></ele><time>2013-8-8T1:23:58Z</time></trkpt>
<trkpt lat="46.228460000" lon="7.431490000"><ele></ele><time>2013-8-8T1:24:1Z</time></trkpt>
<trkpt lat="46.228460000" lon="7.431550000"><ele></ele><time>2013-8-8T1:24:4Z</time></trkpt>
<trkpt lat="46.228450000" lon="7.431610000"><ele></ele><time>2013-8-8T1:24:7Z</time></trkpt>
<trkpt lat="46.228440000" lon="7.431660000"><ele></ele><time>2013-8-8T1:24:10Z</time></trkpt>
<trkpt lat="46.228440000" lon="7.431710000"><ele></ele><time>2013-8-8T1:24:13Z</time></trkpt>
<trkpt lat="46.228430000" lon="7.431760000"><ele></ele><time>2013-8-8T1:24:16Z</time></trkpt>
<trkpt lat="46.228430000" lon="7.431810000"><ele></ele><time>2013-8-8T1:24:19Z</time></trkpt>
<trkpt lat="46.228440000" lon="7.431850000"><ele></ele><time>2013-8-8T1:24:22Z</time></trkpt>
<trkpt lat="46.228450000" lon="7.431910000"><ele></ele><time>2013-8-8T1:24:25Z</time></trkpt>
<trkpt lat="46.228490000" lon="7.432120000"><ele></ele><time>2013-8-8T1:24:28Z</time></trkpt>
<trkpt lat="46.228490000" lon="7.432170000"><ele></ele><time>2013-8-8T1:24:31Z</time></trkpt>
<trkpt lat="46.228500000" lon="7.432230000"><ele></ele><time>2013-8-8T1:24:34Z</time></trkpt>
<trkpt lat="46.228500000" lon="7.432280000"><ele></ele><time>2013-8-8T1:24:37Z</time></trkpt>
<trkpt lat="46.228500000" lon="7.432340000"><ele></ele><time>2013-8-8T1:24:40Z</time></trkpt>
<trkpt lat="46.228520000" lon="7.432510000"><ele></ele><time>2013-8-8T1:24:43Z</time></trkpt>
<trkpt lat="46.228530000" lon="7.432690000"><ele></ele><time>2013-8-8T1:24:46Z</time></trkpt>
<trkpt lat="46.228530000" lon="7.433020000"><ele></ele><time>2013-8-8T1:24:49Z</time></trkpt>
<trkpt lat="46.228540000" lon="7.433070000"><ele></ele><time>2013-8-8T1:24:52Z</time></trkpt>
<trkpt lat="46.228540000" lon="7.433120000"><ele></ele><time>2013-8-8T1:24:55Z</time></trkpt>
<trkpt lat="46.228550000" lon="7.433170000"><ele></ele><time>2013-8-8T1:24:58Z</time></trkpt>
<trkpt lat="46.228550000" lon="7.433220000"><ele></ele><time>2013-8-8T1:25:1Z</time></trkpt>
<trkpt lat="46.228570000" lon="7.433510000"><ele></ele><time>2013-8-8T1:25:4Z</time></trkpt>
<trkpt lat="46.228580000" lon="7.433550000"><ele></ele><time>2013-8-8T1:25:7Z</time></trkpt>
<trkpt lat="46.228580000" lon="7.433600000"><ele></ele><time>2013-8-8T1:25:10Z</time></trkpt>
<trkpt lat="46.228590000" lon="7.433640000"><ele></ele><time>2013-8-8T1:25:13Z</time></trkpt>
<trkpt lat="46.228600000" lon="7.433690000"><ele></ele><time>2013-8-8T1:25:16Z</time></trkpt>
<trkpt lat="46.228610000" lon="7.433790000"><ele></ele><time>2013-8-8T1:25:19Z</time></trkpt>
<trkpt lat="46.228620000" lon="7.433950000"><ele></ele><time>2013-8-8T1:25:22Z</time></trkpt>
<trkpt lat="46.228630000" lon="7.434000000"><ele></ele><time>2013-8-8T1:25:25Z</time></trkpt>
<trkpt lat="46.228630000" lon="7.434050000"><ele></ele><time>2013-8-8T1:25:28Z</time></trkpt>
<trkpt lat="46.228640000" lon="7.434100000"><ele></ele><time>2013-8-8T1:25:31Z</time></trkpt>
<trkpt lat="46.228650000" lon="7.434150000"><ele></ele><time>2013-8-8T1:25:34Z</time></trkpt>
<trkpt lat="46.228660000" lon="7.434290000"><ele></ele><time>2013-8-8T1:25:37Z</time></trkpt>
<trkpt lat="46.228670000" lon="7.434330000"><ele></ele><time>2013-8-8T1:25:40Z</time></trkpt>
<trkpt lat="46.228670000" lon="7.434370000"><ele></ele><time>2013-8-8T1:25:43Z</time></trkpt>
<trkpt lat="46.228670000" lon="7.434420000"><ele></ele><time>2013-8-8T1:25:46Z</time></trkpt>
<trkpt lat="46.228680000" lon="7.434460000"><ele></ele><time>2013-8-8T1:25:49Z</time></trkpt>
<trkpt lat="46.228700000" lon="7.434660000"><ele></ele><time>2013-8-8T1:25:52Z</time></trkpt>
<trkpt lat="46.228710000" lon="7.434810000"><ele></ele><time>2013-8-8T1:25:55Z</time></trkpt>
<trkpt lat="46.228710000" lon="7.434850000"><ele></ele><time>2013-8-8T1:25:58Z</time></trkpt>
<trkpt lat="46.228700000" lon="7.434900000"><ele></ele><time>2013-8-8T1:26:1Z</time></trkpt>
<trkpt lat="46.228700000" lon="7.434950000"><ele></ele><time>2013-8-8T1:26:4Z</time></trkpt>
<trkpt lat="46.228710000" lon="7.434990000"><ele></ele><time>2013-8-8T1:26:7Z</time></trkpt>
<trkpt lat="46.228720000" lon="7.435170000"><ele></ele><time>2013-8-8T1:26:10Z</time></trkpt>
<trkpt lat="46.228730000" lon="7.435210000"><ele></ele><time>2013-8-8T1:26:13Z</time></trkpt>
<trkpt lat="46.228730000" lon="7.435250000"><ele></ele><time>2013-8-8T1:26:16Z</time></trkpt>
<trkpt lat="46.228730000" lon="7.435310000"><ele></ele><time>2013-8-8T1:26:19Z</time></trkpt>
<trkpt lat="46.228710000" lon="7.435440000"><ele></ele><time>2013-8-8T1:26:22Z</time></trkpt>
<trkpt lat="46.228720000" lon="7.435480000"><ele></ele><time>2013-8-8T1:26:25Z</time></trkpt>
<trkpt lat="46.228720000" lon="7.435530000"><ele></ele><time>2013-8-8T1:26:28Z</time></trkpt>
<trkpt lat="46.228720000" lon="7.435580000"><ele></ele><time>2013-8-8T1:26:31Z</time></trkpt>
<trkpt lat="46.228720000" lon="7.435620000"><ele></ele><time>2013-8-8T1:26:34Z</time></trkpt>
<trkpt lat="46.228710000" lon="7.435660000"><ele></ele><time>2013-8-8T1:26:37Z</time></trkpt>
<trkpt lat="46.228710000" lon="7.435700000"><ele></ele><time>2013-8-8T1:26:40Z</time></trkpt>
<trkpt lat="46.228710000" lon="7.435740000"><ele></ele><time>2013-8-8T1:26:43Z</time></trkpt>
<trkpt lat="46.228710000" lon="7.435770000"><ele></ele><time>2013-8-8T1:26:46Z</time></trkpt>
<trkpt lat="46.228710000" lon="7.435810000"><ele></ele><time>2013-8-8T1:26:49Z</time></trkpt>
<trkpt lat="46.228710000" lon="7.435840000"><ele></ele><time>2013-8-8T1:26:52Z</time></trkpt>
<trkpt lat="46.228720000" lon="7.436040000"><ele></ele><time>2013-8-8T1:26:55Z</time></trkpt>
<trkpt lat="46.228720000" lon="7.436080000"><ele></ele><time>2013-8-8T1:26:58Z</time></trkpt>
<trkpt lat="46.228720000" lon="7.436110000"><ele></ele><time>2013-8-8T1:27:1Z</time></trkpt>
<trkpt lat="46.228730000" lon="7.436140000"><ele></ele><time>2013-8-8T1:27:4Z</time></trkpt>
<trkpt lat="46.228730000" lon="7.436170000"><ele></ele><time>2013-8-8T1:27:7Z</time></trkpt>
<trkpt lat="46.228740000" lon="7.436260000"><ele></ele><time>2013-8-8T1:27:10Z</time></trkpt>
<trkpt lat="46.228740000" lon="7.436310000"><ele></ele><time>2013-8-8T1:27:13Z</time></trkpt>
<trkpt lat="46.228740000" lon="7.436350000"><ele></ele><time>2013-8-8T1:27:16Z</time></trkpt>
<trkpt lat="46.228750000" lon="7.436380000"><ele></ele><time>2013-8-8T1:27:19Z</time></trkpt>
<trkpt lat="46.228760000" lon="7.436410000"><ele></ele><time>2013-8-8T1:27:22Z</time></trkpt>
<trkpt lat="46.228770000" lon="7.436510000"><ele></ele><time>2013-8-8T1:27:25Z</time></trkpt>
<trkpt lat="46.228780000" lon="7.436540000"><ele></ele><time>2013-8-8T1:27:28Z</time></trkpt>
<trkpt lat="46.228780000" lon="7.436570000"><ele></ele><time>2013-8-8T1:27:31Z</time></trkpt>
<trkpt lat="46.228790000" lon="7.436600000"><ele></ele><time>2013-8-8T1:27:34Z</time></trkpt>
<trkpt lat="46.228790000" lon="7.436700000"><ele></ele><time>2013-8-8T1:27:37Z</time></trkpt>
<trkpt lat="46.228790000" lon="7.436730000"><ele></ele><time>2013-8-8T1:27:40Z</time></trkpt>
<trkpt lat="46.228790000" lon="7.436760000"><ele></ele><time>2013-8-8T1:27:43Z</time></trkpt>
<trkpt lat="46.228790000" lon="7.436790000"><ele></ele><time>2013-8-8T1:27:46Z</time></trkpt>
<trkpt lat="46.228790000" lon="7.436830000"><ele></ele><time>2013-8-8T1:27:49Z</time></trkpt>
<trkpt lat="46.228790000" lon="7.437030000"><ele></ele><time>2013-8-8T1:27:52Z</time></trkpt>
<trkpt lat="46.228790000" lon="7.437060000"><ele></ele><time>2013-8-8T1:27:55Z</time></trkpt>
<trkpt lat="46.228780000" lon="7.437100000"><ele></ele><time>2013-8-8T1:27:58Z</time></trkpt>
<trkpt lat="46.228770000" lon="7.437130000"><ele></ele><time>2013-8-8T1:28:1Z</time></trkpt>
<trkpt lat="46.228770000" lon="7.437160000"><ele></ele><time>2013-8-8T1:28:4Z</time></trkpt>
<trkpt lat="46.228760000" lon="7.437290000"><ele></ele><time>2013-8-8T1:28:7Z</time></trkpt>
<trkpt lat="46.228740000" lon="7.437360000"><ele></ele><time>2013-8-8T1:28:10Z</time></trkpt>
<trkpt lat="46.228740000" lon="7.437390000"><ele></ele><time>2013-8-8T1:28:13Z</time></trkpt>
<trkpt lat="46.228730000" lon="7.437420000"><ele></ele><time>2013-8-8T1:28:16Z</time></trkpt>
<trkpt lat="46.228720000" lon="7.437450000"><ele></ele><time>2013-8-8T1:28:19Z</time></trkpt>
<trkpt lat="46.228710000" lon="7.437530000"><ele></ele><time>2013-8-8T1:28:22Z</time></trkpt>
<trkpt lat="46.228700000" lon="7.437600000"><ele></ele><time>2013-8-8T1:28:25Z</time></trkpt>
<trkpt lat="46.228690000" lon="7.437630000"><ele></ele><time>2013-8-8T1:28:28Z</time></trkpt>
<trkpt lat="46.228690000" lon="7.437660000"><ele></ele><time>2013-8-8T1:28:31Z</time></trkpt>
<trkpt lat="46.228680000" lon="7.437690000"><ele></ele><time>2013-8-8T1:28:34Z</time></trkpt>
<trkpt lat="46.228680000" lon="7.437720000"><ele></ele><time>2013-8-8T1:28:37Z</time></trkpt>
<trkpt lat="46.228670000" lon="7.437760000"><ele></ele><time>2013-8-8T1:28:40Z</time></trkpt>
<trkpt lat="46.228660000" lon="7.437810000"><ele></ele><time>2013-8-8T1:28:43Z</time></trkpt>
<trkpt lat="46.228660000" lon="7.437840000"><ele></ele><time>2013-8-8T1:28:46Z</time></trkpt>
<trkpt lat="46.228650000" lon="7.437870000"><ele></ele><time>2013-8-8T1:28:49Z</time></trkpt>
<trkpt lat="46.228650000" lon="7.437910000"><ele></ele><time>2013-8-8T1:28:52Z</time></trkpt>
<trkpt lat="46.228650000" lon="7.437940000"><ele></ele><time>2013-8-8T1:28:55Z</time></trkpt>
<trkpt lat="46.228640000" lon="7.438000000"><ele></ele><time>2013-8-8T1:28:58Z</time></trkpt>
<trkpt lat="46.228630000" lon="7.438100000"><ele></ele><time>2013-8-8T1:29:1Z</time></trkpt>
<trkpt lat="46.228630000" lon="7.438130000"><ele></ele><time>2013-8-8T1:29:4Z</time></trkpt>
<trkpt lat="46.228620000" lon="7.438160000"><ele></ele><time>2013-8-8T1:29:7Z</time></trkpt>
<trkpt lat="46.228620000" lon="7.438190000"><ele></ele><time>2013-8-8T1:29:10Z</time></trkpt>
<trkpt lat="46.228630000" lon="7.438260000"><ele></ele><time>2013-8-8T1:29:13Z</time></trkpt>
<trkpt lat="46.228620000" lon="7.438360000"><ele></ele><time>2013-8-8T1:29:16Z</time></trkpt>
<trkpt lat="46.228620000" lon="7.438400000"><ele></ele><time>2013-8-8T1:29:19Z</time></trkpt>
<trkpt lat="46.228620000" lon="7.438440000"><ele></ele><time>2013-8-8T1:29:22Z</time></trkpt>
<trkpt lat="46.228610000" lon="7.438470000"><ele></ele><time>2013-8-8T1:29:25Z</time></trkpt>
<trkpt lat="46.228620000" lon="7.438500000"><ele></ele><time>2013-8-8T1:29:28Z</time></trkpt>
<trkpt lat="46.228610000" lon="7.438670000"><ele></ele><time>2013-8-8T1:29:31Z</time></trkpt>
<trkpt lat="46.228610000" lon="7.438710000"><ele></ele><time>2013-8-8T1:29:34Z</time></trkpt>
<trkpt lat="46.228600000" lon="7.438740000"><ele></ele><time>2013-8-8T1:29:37Z</time></trkpt>
<trkpt lat="46.228600000" lon="7.438770000"><ele></ele><time>2013-8-8T1:29:40Z</time></trkpt>
<trkpt lat="46.228600000" lon="7.438810000"><ele></ele><time>2013-8-8T1:29:43Z</time></trkpt>
<trkpt lat="46.228580000" lon="7.438930000"><ele></ele><time>2013-8-8T1:29:46Z</time></trkpt>
<trkpt lat="46.228580000" lon="7.438970000"><ele></ele><time>2013-8-8T1:29:49Z</time></trkpt>
<trkpt lat="46.228570000" lon="7.439000000"><ele></ele><time>2013-8-8T1:29:52Z</time></trkpt>
<trkpt lat="46.228570000" lon="7.439040000"><ele></ele><time>2013-8-8T1:29:55Z</time></trkpt>
<trkpt lat="46.228530000" lon="7.439160000"><ele></ele><time>2013-8-8T1:29:58Z</time></trkpt>
<trkpt lat="46.228520000" lon="7.439190000"><ele></ele><time>2013-8-8T1:30:1Z</time></trkpt>
<trkpt lat="46.228510000" lon="7.439210000"><ele></ele><time>2013-8-8T1:30:4Z</time></trkpt>
<trkpt lat="46.228500000" lon="7.439240000"><ele></ele><time>2013-8-8T1:30:7Z</time></trkpt>
<trkpt lat="46.228490000" lon="7.439270000"><ele></ele><time>2013-8-8T1:30:10Z</time></trkpt>
<trkpt lat="46.228450000" lon="7.439390000"><ele></ele><time>2013-8-8T1:30:13Z</time></trkpt>
<trkpt lat="46.228440000" lon="7.439420000"><ele></ele><time>2013-8-8T1:30:16Z</time></trkpt>
<trkpt lat="46.228430000" lon="7.439460000"><ele></ele><time>2013-8-8T1:30:19Z</time></trkpt>
<trkpt lat="46.228420000" lon="7.439490000"><ele></ele><time>2013-8-8T1:30:22Z</time></trkpt>
<trkpt lat="46.228410000" lon="7.439520000"><ele></ele><time>2013-8-8T1:30:25Z</time></trkpt>
<trkpt lat="46.228370000" lon="7.439650000"><ele></ele><time>2013-8-8T1:30:28Z</time></trkpt>
<trkpt lat="46.228370000" lon="7.439680000"><ele></ele><time>2013-8-8T1:30:31Z</time></trkpt>
<trkpt lat="46.228360000" lon="7.439720000"><ele></ele><time>2013-8-8T1:30:34Z</time></trkpt>
<trkpt lat="46.228360000" lon="7.439750000"><ele></ele><time>2013-8-8T1:30:37Z</time></trkpt>
<trkpt lat="46.228340000" lon="7.439920000"><ele></ele><time>2013-8-8T1:30:40Z</time></trkpt>
<trkpt lat="46.228340000" lon="7.439950000"><ele></ele><time>2013-8-8T1:30:43Z</time></trkpt>
<trkpt lat="46.228340000" lon="7.439990000"><ele></ele><time>2013-8-8T1:30:46Z</time></trkpt>
<trkpt lat="46.228330000" lon="7.440020000"><ele></ele><time>2013-8-8T1:30:49Z</time></trkpt>
<trkpt lat="46.228330000" lon="7.440060000"><ele></ele><time>2013-8-8T1:30:52Z</time></trkpt>
<trkpt lat="46.228320000" lon="7.440170000"><ele></ele><time>2013-8-8T1:30:55Z</time></trkpt>
<trkpt lat="46.228320000" lon="7.440200000"><ele></ele><time>2013-8-8T1:30:58Z</time></trkpt>
<trkpt lat="46.228320000" lon="7.440230000"><ele></ele><time>2013-8-8T1:31:1Z</time></trkpt>
<trkpt lat="46.228310000" lon="7.440270000"><ele></ele><time>2013-8-8T1:31:4Z</time></trkpt>
<trkpt lat="46.228310000" lon="7.440300000"><ele></ele><time>2013-8-8T1:31:7Z</time></trkpt>
<trkpt lat="46.228310000" lon="7.440330000"><ele></ele><time>2013-8-8T1:31:10Z</time></trkpt>
<trkpt lat="46.228320000" lon="7.440400000"><ele></ele><time>2013-8-8T1:31:13Z</time></trkpt>
<trkpt lat="46.228320000" lon="7.440440000"><ele></ele><time>2013-8-8T1:31:16Z</time></trkpt>
<trkpt lat="46.228310000" lon="7.440480000"><ele></ele><time>2013-8-8T1:31:19Z</time></trkpt>
<trkpt lat="46.228310000" lon="7.440510000"><ele></ele><time>2013-8-8T1:31:22Z</time></trkpt>
<trkpt lat="46.228310000" lon="7.440550000"><ele></ele><time>2013-8-8T1:31:25Z</time></trkpt>
<trkpt lat="46.228310000" lon="7.440580000"><ele></ele><time>2013-8-8T1:31:28Z</time></trkpt>
<trkpt lat="46.228310000" lon="7.440620000"><ele></ele><time>2013-8-8T1:31:31Z</time></trkpt>
<trkpt lat="46.228290000" lon="7.440740000"><ele></ele><time>2013-8-8T1:31:34Z</time></trkpt>
<trkpt lat="46.228290000" lon="7.440780000"><ele></ele><time>2013-8-8T1:31:37Z</time></trkpt>
<trkpt lat="46.228290000" lon="7.440810000"><ele></ele><time>2013-8-8T1:31:40Z</time></trkpt>
<trkpt lat="46.228290000" lon="7.440840000"><ele></ele><time>2013-8-8T1:31:43Z</time></trkpt>
<trkpt lat="46.228290000" lon="7.440870000"><ele></ele><time>2013-8-8T1:31:46Z</time></trkpt>
<trkpt lat="46.228290000" lon="7.440910000"><ele></ele><time>2013-8-8T1:31:49Z</time></trkpt>
<trkpt lat="46.228280000" lon="7.441000000"><ele></ele><time>2013-8-8T1:31:52Z</time></trkpt>
<trkpt lat="46.228270000" lon="7.441040000"><ele></ele><time>2013-8-8T1:31:55Z</time></trkpt>
<trkpt lat="46.228270000" lon="7.441070000"><ele></ele><time>2013-8-8T1:31:58Z</time></trkpt>
<trkpt lat="46.228260000" lon="7.441100000"><ele></ele><time>2013-8-8T1:32:1Z</time></trkpt>
<trkpt lat="46.228260000" lon="7.441140000"><ele></ele><time>2013-8-8T1:32:4Z</time></trkpt>
<trkpt lat="46.228250000" lon="7.441230000"><ele></ele><time>2013-8-8T1:32:7Z</time></trkpt>
<trkpt lat="46.228260000" lon="7.441260000"><ele></ele><time>2013-8-8T1:32:10Z</time></trkpt>
<trkpt lat="46.228250000" lon="7.441290000"><ele></ele><time>2013-8-8T1:32:13Z</time></trkpt>
<trkpt lat="46.228250000" lon="7.441330000"><ele></ele><time>2013-8-8T1:32:16Z</time></trkpt>
<trkpt lat="46.228250000" lon="7.441360000"><ele></ele><time>2013-8-8T1:32:19Z</time></trkpt>
<trkpt lat="46.228260000" lon="7.441430000"><ele></ele><time>2013-8-8T1:32:22Z</time></trkpt>
<trkpt lat="46.228260000" lon="7.441490000"><ele></ele><time>2013-8-8T1:32:25Z</time></trkpt>
<trkpt lat="46.228260000" lon="7.441520000"><ele></ele><time>2013-8-8T1:32:28Z</time></trkpt>
<trkpt lat="46.228270000" lon="7.441550000"><ele></ele><time>2013-8-8T1:32:31Z</time></trkpt>
<trkpt lat="46.228280000" lon="7.441580000"><ele></ele><time>2013-8-8T1:32:34Z</time></trkpt>
<trkpt lat="46.228290000" lon="7.441610000"><ele></ele><time>2013-8-8T1:32:37Z</time></trkpt>
<trkpt lat="46.228290000" lon="7.441640000"><ele></ele><time>2013-8-8T1:32:40Z</time></trkpt>
<trkpt lat="46.228300000" lon="7.441700000"><ele></ele><time>2013-8-8T1:32:43Z</time></trkpt>
<trkpt lat="46.228310000" lon="7.441740000"><ele></ele><time>2013-8-8T1:32:46Z</time></trkpt>
<trkpt lat="46.228310000" lon="7.441770000"><ele></ele><time>2013-8-8T1:32:49Z</time></trkpt>
<trkpt lat="46.228310000" lon="7.441800000"><ele></ele><time>2013-8-8T1:32:52Z</time></trkpt>
<trkpt lat="46.228320000" lon="7.441830000"><ele></ele><time>2013-8-8T1:32:55Z</time></trkpt>
<trkpt lat="46.228330000" lon="7.441950000"><ele></ele><time>2013-8-8T1:32:58Z</time></trkpt>
<trkpt lat="46.228330000" lon="7.441980000"><ele></ele><time>2013-8-8T1:33:1Z</time></trkpt>
<trkpt lat="46.228330000" lon="7.442010000"><ele></ele><time>2013-8-8T1:33:4Z</time></trkpt>
<trkpt lat="46.228330000" lon="7.442040000"><ele></ele><time>2013-8-8T1:33:7Z</time></trkpt>
<trkpt lat="46.228330000" lon="7.442070000"><ele></ele><time>2013-8-8T1:33:10Z</time></trkpt>
<trkpt lat="46.228320000" lon="7.442180000"><ele></ele><time>2013-8-8T1:33:13Z</time></trkpt>
<trkpt lat="46.228320000" lon="7.442210000"><ele></ele><time>2013-8-8T1:33:16Z</time></trkpt>
<trkpt lat="46.228320000" lon="7.442240000"><ele></ele><time>2013-8-8T1:33:19Z</time></trkpt>
<trkpt lat="46.228310000" lon="7.442270000"><ele></ele><time>2013-8-8T1:33:22Z</time></trkpt>
<trkpt lat="46.228300000" lon="7.442300000"><ele></ele><time>2013-8-8T1:33:25Z</time></trkpt>
<trkpt lat="46.228280000" lon="7.442430000"><ele></ele><time>2013-8-8T1:33:28Z</time></trkpt>
<trkpt lat="46.228270000" lon="7.442470000"><ele></ele><time>2013-8-8T1:33:31Z</time></trkpt>
<trkpt lat="46.228260000" lon="7.442500000"><ele></ele><time>2013-8-8T1:33:34Z</time></trkpt>
<trkpt lat="46.228260000" lon="7.442530000"><ele></ele><time>2013-8-8T1:33:37Z</time></trkpt>
<trkpt lat="46.228260000" lon="7.442560000"><ele></ele><time>2013-8-8T1:33:40Z</time></trkpt>
<trkpt lat="46.228240000" lon="7.442720000"><ele></ele><time>2013-8-8T1:33:43Z</time></trkpt>
<trkpt lat="46.228240000" lon="7.442750000"><ele></ele><time>2013-8-8T1:33:46Z</time></trkpt>
<trkpt lat="46.228240000" lon="7.442790000"><ele></ele><time>2013-8-8T1:33:49Z</time></trkpt>
<trkpt lat="46.228240000" lon="7.442820000"><ele></ele><time>2013-8-8T1:33:52Z</time></trkpt>
<trkpt lat="46.228240000" lon="7.442850000"><ele></ele><time>2013-8-8T1:33:55Z</time></trkpt>
<trkpt lat="46.228230000" lon="7.442990000"><ele></ele><time>2013-8-8T1:33:58Z</time></trkpt>
<trkpt lat="46.228230000" lon="7.443010000"><ele></ele><time>2013-8-8T1:34:1Z</time></trkpt>
<trkpt lat="46.228230000" lon="7.443050000"><ele></ele><time>2013-8-8T1:34:4Z</time></trkpt>
<trkpt lat="46.228230000" lon="7.443080000"><ele></ele><time>2013-8-8T1:34:7Z</time></trkpt>
<trkpt lat="46.228220000" lon="7.443120000"><ele></ele><time>2013-8-8T1:34:10Z</time></trkpt>
<trkpt lat="46.228200000" lon="7.443240000"><ele></ele><time>2013-8-8T1:34:13Z</time></trkpt>
<trkpt lat="46.228200000" lon="7.443270000"><ele></ele><time>2013-8-8T1:34:16Z</time></trkpt>
<trkpt lat="46.228200000" lon="7.443300000"><ele></ele><time>2013-8-8T1:34:19Z</time></trkpt>
<trkpt lat="46.228200000" lon="7.443340000"><ele></ele><time>2013-8-8T1:34:22Z</time></trkpt>
<trkpt lat="46.228200000" lon="7.443370000"><ele></ele><time>2013-8-8T1:34:25Z</time></trkpt>
<trkpt lat="46.228200000" lon="7.443530000"><ele></ele><time>2013-8-8T1:34:28Z</time></trkpt>
<trkpt lat="46.228200000" lon="7.443560000"><ele></ele><time>2013-8-8T1:34:31Z</time></trkpt>
<trkpt lat="46.228190000" lon="7.443600000"><ele></ele><time>2013-8-8T1:34:34Z</time></trkpt>
<trkpt lat="46.228190000" lon="7.443630000"><ele></ele><time>2013-8-8T1:34:37Z</time></trkpt>
<trkpt lat="46.228190000" lon="7.443660000"><ele></ele><time>2013-8-8T1:34:40Z</time></trkpt>
<trkpt lat="46.228170000" lon="7.443820000"><ele></ele><time>2013-8-8T1:34:43Z</time></trkpt>
<trkpt lat="46.228170000" lon="7.443850000"><ele></ele><time>2013-8-8T1:34:46Z</time></trkpt>
<trkpt lat="46.228160000" lon="7.443880000"><ele></ele><time>2013-8-8T1:34:49Z</time></trkpt>
<trkpt lat="46.228160000" lon="7.443910000"><ele></ele><time>2013-8-8T1:34:52Z</time></trkpt>
<trkpt lat="46.228160000" lon="7.443930000"><ele></ele><time>2013-8-8T1:34:55Z</time></trkpt>
<trkpt lat="46.228150000" lon="7.444060000"><ele></ele><time>2013-8-8T1:34:58Z</time></trkpt>
<trkpt lat="46.228150000" lon="7.444090000"><ele></ele><time>2013-8-8T1:35:1Z</time></trkpt>
<trkpt lat="46.228140000" lon="7.444120000"><ele></ele><time>2013-8-8T1:35:4Z</time></trkpt>
<trkpt lat="46.228140000" lon="7.444190000"><ele></ele><time>2013-8-8T1:35:7Z</time></trkpt>
<trkpt lat="46.228130000" lon="7.444250000"><ele></ele><time>2013-8-8T1:35:10Z</time></trkpt>
<trkpt lat="46.228120000" lon="7.444310000"><ele></ele><time>2013-8-8T1:35:13Z</time></trkpt>
<trkpt lat="46.228120000" lon="7.444350000"><ele></ele><time>2013-8-8T1:35:16Z</time></trkpt>
<trkpt lat="46.228120000" lon="7.444380000"><ele></ele><time>2013-8-8T1:35:19Z</time></trkpt>
<trkpt lat="46.228120000" lon="7.444410000"><ele></ele><time>2013-8-8T1:35:22Z</time></trkpt>
<trkpt lat="46.228110000" lon="7.444440000"><ele></ele><time>2013-8-8T1:35:25Z</time></trkpt>
<trkpt lat="46.228110000" lon="7.444530000"><ele></ele><time>2013-8-8T1:35:28Z</time></trkpt>
<trkpt lat="46.228100000" lon="7.444590000"><ele></ele><time>2013-8-8T1:35:31Z</time></trkpt>
<trkpt lat="46.228090000" lon="7.444620000"><ele></ele><time>2013-8-8T1:35:34Z</time></trkpt>
<trkpt lat="46.228080000" lon="7.444660000"><ele></ele><time>2013-8-8T1:35:37Z</time></trkpt>
<trkpt lat="46.228080000" lon="7.444690000"><ele></ele><time>2013-8-8T1:35:40Z</time></trkpt>
<trkpt lat="46.228070000" lon="7.444720000"><ele></ele><time>2013-8-8T1:35:43Z</time></trkpt>
<trkpt lat="46.228070000" lon="7.444750000"><ele></ele><time>2013-8-8T1:35:46Z</time></trkpt>
<trkpt lat="46.228040000" lon="7.444870000"><ele></ele><time>2013-8-8T1:35:49Z</time></trkpt>
<trkpt lat="46.228040000" lon="7.444900000"><ele></ele><time>2013-8-8T1:35:52Z</time></trkpt>
<trkpt lat="46.228040000" lon="7.444930000"><ele></ele><time>2013-8-8T1:35:55Z</time></trkpt>
<trkpt lat="46.228040000" lon="7.444960000"><ele></ele><time>2013-8-8T1:35:58Z</time></trkpt>
<trkpt lat="46.228030000" lon="7.444990000"><ele></ele><time>2013-8-8T1:36:1Z</time></trkpt>
<trkpt lat="46.228010000" lon="7.445080000"><ele></ele><time>2013-8-8T1:36:4Z</time></trkpt>
<trkpt lat="46.228000000" lon="7.445110000"><ele></ele><time>2013-8-8T1:36:7Z</time></trkpt>
<trkpt lat="46.228000000" lon="7.445140000"><ele></ele><time>2013-8-8T1:36:10Z</time></trkpt>
<trkpt lat="46.227990000" lon="7.445170000"><ele></ele><time>2013-8-8T1:36:13Z</time></trkpt>
<trkpt lat="46.227970000" lon="7.445280000"><ele></ele><time>2013-8-8T1:36:16Z</time></trkpt>
<trkpt lat="46.227960000" lon="7.445310000"><ele></ele><time>2013-8-8T1:36:19Z</time></trkpt>
<trkpt lat="46.227950000" lon="7.445330000"><ele></ele><time>2013-8-8T1:36:22Z</time></trkpt>
<trkpt lat="46.227940000" lon="7.445350000"><ele></ele><time>2013-8-8T1:36:25Z</time></trkpt>
<trkpt lat="46.227920000" lon="7.445370000"><ele></ele><time>2013-8-8T1:36:28Z</time></trkpt>
<trkpt lat="46.227890000" lon="7.445460000"><ele></ele><time>2013-8-8T1:36:31Z</time></trkpt>
<trkpt lat="46.227870000" lon="7.445520000"><ele></ele><time>2013-8-8T1:36:34Z</time></trkpt>
<trkpt lat="46.227860000" lon="7.445550000"><ele></ele><time>2013-8-8T1:36:37Z</time></trkpt>
<trkpt lat="46.227860000" lon="7.445570000"><ele></ele><time>2013-8-8T1:36:40Z</time></trkpt>
<trkpt lat="46.227850000" lon="7.445600000"><ele></ele><time>2013-8-8T1:36:43Z</time></trkpt>
<trkpt lat="46.227840000" lon="7.445620000"><ele></ele><time>2013-8-8T1:36:46Z</time></trkpt>
<trkpt lat="46.227790000" lon="7.445770000"><ele></ele><time>2013-8-8T1:36:49Z</time></trkpt>
<trkpt lat="46.227790000" lon="7.445800000"><ele></ele><time>2013-8-8T1:36:52Z</time></trkpt>
<trkpt lat="46.227780000" lon="7.445830000"><ele></ele><time>2013-8-8T1:36:55Z</time></trkpt>
<trkpt lat="46.227770000" lon="7.445890000"><ele></ele><time>2013-8-8T1:36:58Z</time></trkpt>
<trkpt lat="46.227770000" lon="7.445970000"><ele></ele><time>2013-8-8T1:37:1Z</time></trkpt>
<trkpt lat="46.227780000" lon="7.446000000"><ele></ele><time>2013-8-8T1:37:4Z</time></trkpt>
<trkpt lat="46.227780000" lon="7.446030000"><ele></ele><time>2013-8-8T1:37:7Z</time></trkpt>
<trkpt lat="46.227790000" lon="7.446060000"><ele></ele><time>2013-8-8T1:37:10Z</time></trkpt>
<trkpt lat="46.227790000" lon="7.446090000"><ele></ele><time>2013-8-8T1:37:13Z</time></trkpt>
<trkpt lat="46.227800000" lon="7.446120000"><ele></ele><time>2013-8-8T1:37:16Z</time></trkpt>
<trkpt lat="46.227810000" lon="7.446140000"><ele></ele><time>2013-8-8T1:37:19Z</time></trkpt>
<trkpt lat="46.227850000" lon="7.446300000"><ele></ele><time>2013-8-8T1:37:22Z</time></trkpt>
<trkpt lat="46.227850000" lon="7.446320000"><ele></ele><time>2013-8-8T1:37:25Z</time></trkpt>
<trkpt lat="46.227860000" lon="7.446350000"><ele></ele><time>2013-8-8T1:37:28Z</time></trkpt>
<trkpt lat="46.227860000" lon="7.446380000"><ele></ele><time>2013-8-8T1:37:31Z</time></trkpt>
<trkpt lat="46.227870000" lon="7.446410000"><ele></ele><time>2013-8-8T1:37:34Z</time></trkpt>
<trkpt lat="46.227910000" lon="7.446600000"><ele></ele><time>2013-8-8T1:37:37Z</time></trkpt>
<trkpt lat="46.227920000" lon="7.446640000"><ele></ele><time>2013-8-8T1:37:40Z</time></trkpt>
<trkpt lat="46.227920000" lon="7.446670000"><ele></ele><time>2013-8-8T1:37:43Z</time></trkpt>
<trkpt lat="46.227920000" lon="7.446700000"><ele></ele><time>2013-8-8T1:37:46Z</time></trkpt>
<trkpt lat="46.227920000" lon="7.446730000"><ele></ele><time>2013-8-8T1:37:49Z</time></trkpt>
<trkpt lat="46.227930000" lon="7.446810000"><ele></ele><time>2013-8-8T1:37:52Z</time></trkpt>
<trkpt lat="46.227930000" lon="7.446870000"><ele></ele><time>2013-8-8T1:37:55Z</time></trkpt>
<trkpt lat="46.227930000" lon="7.446910000"><ele></ele><time>2013-8-8T1:37:58Z</time></trkpt>
<trkpt lat="46.227940000" lon="7.446940000"><ele></ele><time>2013-8-8T1:38:1Z</time></trkpt>
<trkpt lat="46.227940000" lon="7.446970000"><ele></ele><time>2013-8-8T1:38:4Z</time></trkpt>
<trkpt lat="46.227940000" lon="7.446990000"><ele></ele><time>2013-8-8T1:38:7Z</time></trkpt>
<trkpt lat="46.227960000" lon="7.447170000"><ele></ele><time>2013-8-8T1:38:10Z</time></trkpt>
<trkpt lat="46.227970000" lon="7.447200000"><ele></ele><time>2013-8-8T1:38:13Z</time></trkpt>
<trkpt lat="46.227970000" lon="7.447240000"><ele></ele><time>2013-8-8T1:38:16Z</time></trkpt>
<trkpt lat="46.227970000" lon="7.447270000"><ele></ele><time>2013-8-8T1:38:19Z</time></trkpt>
<trkpt lat="46.227980000" lon="7.447310000"><ele></ele><time>2013-8-8T1:38:22Z</time></trkpt>
<trkpt lat="46.228000000" lon="7.447400000"><ele></ele><time>2013-8-8T1:38:25Z</time></trkpt>
<trkpt lat="46.228010000" lon="7.447450000"><ele></ele><time>2013-8-8T1:38:28Z</time></trkpt>
<trkpt lat="46.228020000" lon="7.447480000"><ele></ele><time>2013-8-8T1:38:31Z</time></trkpt>
<trkpt lat="46.228020000" lon="7.447520000"><ele></ele><time>2013-8-8T1:38:34Z</time></trkpt>
<trkpt lat="46.228030000" lon="7.447550000"><ele></ele><time>2013-8-8T1:38:37Z</time></trkpt>
<trkpt lat="46.228030000" lon="7.447570000"><ele></ele><time>2013-8-8T1:38:40Z</time></trkpt>
<trkpt lat="46.228040000" lon="7.447600000"><ele></ele><time>2013-8-8T1:38:43Z</time></trkpt>
<trkpt lat="46.228060000" lon="7.447710000"><ele></ele><time>2013-8-8T1:38:46Z</time></trkpt>
<trkpt lat="46.228070000" lon="7.447740000"><ele></ele><time>2013-8-8T1:38:49Z</time></trkpt>
<trkpt lat="46.228070000" lon="7.447780000"><ele></ele><time>2013-8-8T1:38:52Z</time></trkpt>
<trkpt lat="46.228080000" lon="7.447840000"><ele></ele><time>2013-8-8T1:38:55Z</time></trkpt>
<trkpt lat="46.228100000" lon="7.448010000"><ele></ele><time>2013-8-8T1:38:58Z</time></trkpt>
<trkpt lat="46.228110000" lon="7.448040000"><ele></ele><time>2013-8-8T1:39:1Z</time></trkpt>
<trkpt lat="46.228110000" lon="7.448070000"><ele></ele><time>2013-8-8T1:39:4Z</time></trkpt>
<trkpt lat="46.228120000" lon="7.448100000"><ele></ele><time>2013-8-8T1:39:7Z</time></trkpt>
<trkpt lat="46.228130000" lon="7.448120000"><ele></ele><time>2013-8-8T1:39:10Z</time></trkpt>
<trkpt lat="46.228130000" lon="7.448150000"><ele></ele><time>2013-8-8T1:39:13Z</time></trkpt>
<trkpt lat="46.228140000" lon="7.448270000"><ele></ele><time>2013-8-8T1:39:16Z</time></trkpt>
<trkpt lat="46.228150000" lon="7.448300000"><ele></ele><time>2013-8-8T1:39:19Z</time></trkpt>
<trkpt lat="46.228160000" lon="7.448340000"><ele></ele><time>2013-8-8T1:39:22Z</time></trkpt>
<trkpt lat="46.228160000" lon="7.448380000"><ele></ele><time>2013-8-8T1:39:25Z</time></trkpt>
<trkpt lat="46.228170000" lon="7.448410000"><ele></ele><time>2013-8-8T1:39:28Z</time></trkpt>
<trkpt lat="46.228200000" lon="7.448550000"><ele></ele><time>2013-8-8T1:39:31Z</time></trkpt>
<trkpt lat="46.228200000" lon="7.448700000"><ele></ele><time>2013-8-8T1:39:34Z</time></trkpt>
<trkpt lat="46.228200000" lon="7.448740000"><ele></ele><time>2013-8-8T1:39:37Z</time></trkpt>
<trkpt lat="46.228190000" lon="7.448770000"><ele></ele><time>2013-8-8T1:39:40Z</time></trkpt>
<trkpt lat="46.228180000" lon="7.448810000"><ele></ele><time>2013-8-8T1:39:43Z</time></trkpt>
<trkpt lat="46.228130000" lon="7.449020000"><ele></ele><time>2013-8-8T1:39:46Z</time></trkpt>
<trkpt lat="46.228120000" lon="7.449060000"><ele></ele><time>2013-8-8T1:39:49Z</time></trkpt>
<trkpt lat="46.228110000" lon="7.449100000"><ele></ele><time>2013-8-8T1:39:52Z</time></trkpt>
<trkpt lat="46.228110000" lon="7.449130000"><ele></ele><time>2013-8-8T1:39:55Z</time></trkpt>
<trkpt lat="46.228100000" lon="7.449170000"><ele></ele><time>2013-8-8T1:39:58Z</time></trkpt>
<trkpt lat="46.228090000" lon="7.449270000"><ele></ele><time>2013-8-8T1:40:1Z</time></trkpt>
<trkpt lat="46.228070000" lon="7.449450000"><ele></ele><time>2013-8-8T1:40:4Z</time></trkpt>
<trkpt lat="46.228070000" lon="7.449480000"><ele></ele><time>2013-8-8T1:40:7Z</time></trkpt>
<trkpt lat="46.228060000" lon="7.449510000"><ele></ele><time>2013-8-8T1:40:10Z</time></trkpt>
<trkpt lat="46.228060000" lon="7.449550000"><ele></ele><time>2013-8-8T1:40:13Z</time></trkpt>
<trkpt lat="46.228050000" lon="7.449580000"><ele></ele><time>2013-8-8T1:40:16Z</time></trkpt>
<trkpt lat="46.228020000" lon="7.449760000"><ele></ele><time>2013-8-8T1:40:19Z</time></trkpt>
<trkpt lat="46.228020000" lon="7.449790000"><ele></ele><time>2013-8-8T1:40:22Z</time></trkpt>
<trkpt lat="46.228010000" lon="7.449830000"><ele></ele><time>2013-8-8T1:40:25Z</time></trkpt>
<trkpt lat="46.228000000" lon="7.449860000"><ele></ele><time>2013-8-8T1:40:28Z</time></trkpt>
<trkpt lat="46.228000000" lon="7.449890000"><ele></ele><time>2013-8-8T1:40:31Z</time></trkpt>
<trkpt lat="46.227970000" lon="7.449990000"><ele></ele><time>2013-8-8T1:40:34Z</time></trkpt>
<trkpt lat="46.227960000" lon="7.450010000"><ele></ele><time>2013-8-8T1:40:37Z</time></trkpt>
<trkpt lat="46.227950000" lon="7.450080000"><ele></ele><time>2013-8-8T1:40:40Z</time></trkpt>
<trkpt lat="46.227940000" lon="7.450110000"><ele></ele><time>2013-8-8T1:40:43Z</time></trkpt>
<trkpt lat="46.227930000" lon="7.450150000"><ele></ele><time>2013-8-8T1:40:46Z</time></trkpt>
<trkpt lat="46.227930000" lon="7.450180000"><ele></ele><time>2013-8-8T1:40:49Z</time></trkpt>
<trkpt lat="46.227920000" lon="7.450220000"><ele></ele><time>2013-8-8T1:40:52Z</time></trkpt>
<trkpt lat="46.227910000" lon="7.450420000"><ele></ele><time>2013-8-8T1:40:55Z</time></trkpt>
<trkpt lat="46.227910000" lon="7.450460000"><ele></ele><time>2013-8-8T1:40:58Z</time></trkpt>
<trkpt lat="46.227920000" lon="7.450500000"><ele></ele><time>2013-8-8T1:41:1Z</time></trkpt>
<trkpt lat="46.227920000" lon="7.450540000"><ele></ele><time>2013-8-8T1:41:4Z</time></trkpt>
<trkpt lat="46.227930000" lon="7.450580000"><ele></ele><time>2013-8-8T1:41:7Z</time></trkpt>
<trkpt lat="46.227930000" lon="7.450620000"><ele></ele><time>2013-8-8T1:41:10Z</time></trkpt>
<trkpt lat="46.227930000" lon="7.450700000"><ele></ele><time>2013-8-8T1:41:13Z</time></trkpt>
<trkpt lat="46.227860000" lon="7.450920000"><ele></ele><time>2013-8-8T1:41:16Z</time></trkpt>
<trkpt lat="46.227840000" lon="7.451000000"><ele></ele><time>2013-8-8T1:41:19Z</time></trkpt>
<trkpt lat="46.227820000" lon="7.451040000"><ele></ele><time>2013-8-8T1:41:22Z</time></trkpt>
<trkpt lat="46.227800000" lon="7.451080000"><ele></ele><time>2013-8-8T1:41:25Z</time></trkpt>
<trkpt lat="46.227780000" lon="7.451120000"><ele></ele><time>2013-8-8T1:41:28Z</time></trkpt>
<trkpt lat="46.227760000" lon="7.451160000"><ele></ele><time>2013-8-8T1:41:31Z</time></trkpt>
<trkpt lat="46.227750000" lon="7.451200000"><ele></ele><time>2013-8-8T1:41:34Z</time></trkpt>
<trkpt lat="46.227640000" lon="7.451500000"><ele></ele><time>2013-8-8T1:41:37Z</time></trkpt>
<trkpt lat="46.227620000" lon="7.451540000"><ele></ele><time>2013-8-8T1:41:40Z</time></trkpt>
<trkpt lat="46.227610000" lon="7.451580000"><ele></ele><time>2013-8-8T1:41:43Z</time></trkpt>
<trkpt lat="46.227600000" lon="7.451620000"><ele></ele><time>2013-8-8T1:41:46Z</time></trkpt>
<trkpt lat="46.227580000" lon="7.451660000"><ele></ele><time>2013-8-8T1:41:49Z</time></trkpt>
<trkpt lat="46.227560000" lon="7.451700000"><ele></ele><time>2013-8-8T1:41:52Z</time></trkpt>
<trkpt lat="46.227530000" lon="7.451790000"><ele></ele><time>2013-8-8T1:41:55Z</time></trkpt>
<trkpt lat="46.227430000" lon="7.452030000"><ele></ele><time>2013-8-8T1:41:58Z</time></trkpt>
<trkpt lat="46.227410000" lon="7.452070000"><ele></ele><time>2013-8-8T1:42:1Z</time></trkpt>
<trkpt lat="46.227350000" lon="7.452350000"><ele></ele><time>2013-8-8T1:42:4Z</time></trkpt>
<trkpt lat="46.227350000" lon="7.452350000"><ele></ele><time>2013-8-8T1:42:7Z</time></trkpt>
<trkpt lat="46.227330000" lon="7.452410000"><ele></ele><time>2013-8-8T1:42:10Z</time></trkpt>
<trkpt lat="46.227320000" lon="7.452450000"><ele></ele><time>2013-8-8T1:42:13Z</time></trkpt>
<trkpt lat="46.227280000" lon="7.452570000"><ele></ele><time>2013-8-8T1:42:16Z</time></trkpt>
<trkpt lat="46.227260000" lon="7.452600000"><ele></ele><time>2013-8-8T1:42:19Z</time></trkpt>
<trkpt lat="46.227240000" lon="7.452630000"><ele></ele><time>2013-8-8T1:42:22Z</time></trkpt>
<trkpt lat="46.227220000" lon="7.452670000"><ele></ele><time>2013-8-8T1:42:25Z</time></trkpt>
<trkpt lat="46.227210000" lon="7.452710000"><ele></ele><time>2013-8-8T1:42:28Z</time></trkpt>
<trkpt lat="46.227200000" lon="7.452740000"><ele></ele><time>2013-8-8T1:42:31Z</time></trkpt>
<trkpt lat="46.227180000" lon="7.452780000"><ele></ele><time>2013-8-8T1:42:34Z</time></trkpt>
<trkpt lat="46.227100000" lon="7.452900000"><ele></ele><time>2013-8-8T1:42:37Z</time></trkpt>
<trkpt lat="46.227080000" lon="7.452940000"><ele></ele><time>2013-8-8T1:42:40Z</time></trkpt>
<trkpt lat="46.227060000" lon="7.452970000"><ele></ele><time>2013-8-8T1:42:43Z</time></trkpt>
<trkpt lat="46.227040000" lon="7.453010000"><ele></ele><time>2013-8-8T1:42:46Z</time></trkpt>
<trkpt lat="46.227020000" lon="7.453040000"><ele></ele><time>2013-8-8T1:42:49Z</time></trkpt>
<trkpt lat="46.226980000" lon="7.453260000"><ele></ele><time>2013-8-8T1:42:52Z</time></trkpt>
<trkpt lat="46.226980000" lon="7.453520000"><ele></ele><time>2013-8-8T1:42:55Z</time></trkpt>
<trkpt lat="46.226990000" lon="7.453570000"><ele></ele><time>2013-8-8T1:42:58Z</time></trkpt>
<trkpt lat="46.226990000" lon="7.453620000"><ele></ele><time>2013-8-8T1:43:1Z</time></trkpt>
<trkpt lat="46.227000000" lon="7.453660000"><ele></ele><time>2013-8-8T1:43:4Z</time></trkpt>
<trkpt lat="46.227010000" lon="7.453710000"><ele></ele><time>2013-8-8T1:43:7Z</time></trkpt>
<trkpt lat="46.227030000" lon="7.453900000"><ele></ele><time>2013-8-8T1:43:10Z</time></trkpt>
<trkpt lat="46.227020000" lon="7.454030000"><ele></ele><time>2013-8-8T1:43:13Z</time></trkpt>
<trkpt lat="46.227010000" lon="7.454070000"><ele></ele><time>2013-8-8T1:43:16Z</time></trkpt>
<trkpt lat="46.227000000" lon="7.454110000"><ele></ele><time>2013-8-8T1:43:19Z</time></trkpt>
<trkpt lat="46.226990000" lon="7.454150000"><ele></ele><time>2013-8-8T1:43:22Z</time></trkpt>
<trkpt lat="46.226980000" lon="7.454180000"><ele></ele><time>2013-8-8T1:43:25Z</time></trkpt>
<trkpt lat="46.226930000" lon="7.454370000"><ele></ele><time>2013-8-8T1:43:28Z</time></trkpt>
<trkpt lat="46.226850000" lon="7.454690000"><ele></ele><time>2013-8-8T1:43:31Z</time></trkpt>
<trkpt lat="46.226840000" lon="7.454730000"><ele></ele><time>2013-8-8T1:43:34Z</time></trkpt>
<trkpt lat="46.226820000" lon="7.454780000"><ele></ele><time>2013-8-8T1:43:37Z</time></trkpt>
<trkpt lat="46.226800000" lon="7.454820000"><ele></ele><time>2013-8-8T1:43:40Z</time></trkpt>
<trkpt lat="46.226780000" lon="7.454870000"><ele></ele><time>2013-8-8T1:43:43Z</time></trkpt>
<trkpt lat="46.226720000" lon="7.455010000"><ele></ele><time>2013-8-8T1:43:46Z</time></trkpt>
<trkpt lat="46.226610000" lon="7.455320000"><ele></ele><time>2013-8-8T1:43:49Z</time></trkpt>
<trkpt lat="46.226590000" lon="7.455370000"><ele></ele><time>2013-8-8T1:43:52Z</time></trkpt>
<trkpt lat="46.226470000" lon="7.455710000"><ele></ele><time>2013-8-8T1:43:55Z</time></trkpt>
<trkpt lat="46.226430000" lon="7.455800000"><ele></ele><time>2013-8-8T1:43:58Z</time></trkpt>
<trkpt lat="46.226420000" lon="7.455850000"><ele></ele><time>2013-8-8T1:44:1Z</time></trkpt>
<trkpt lat="46.226400000" lon="7.455900000"><ele></ele><time>2013-8-8T1:44:4Z</time></trkpt>
<trkpt lat="46.226380000" lon="7.455950000"><ele></ele><time>2013-8-8T1:44:7Z</time></trkpt>
<trkpt lat="46.226370000" lon="7.455990000"><ele></ele><time>2013-8-8T1:44:10Z</time></trkpt>
<trkpt lat="46.226300000" lon="7.456320000"><ele></ele><time>2013-8-8T1:44:13Z</time></trkpt>
<trkpt lat="46.226280000" lon="7.456550000"><ele></ele><time>2013-8-8T1:44:16Z</time></trkpt>
<trkpt lat="46.226270000" lon="7.456610000"><ele></ele><time>2013-8-8T1:44:19Z</time></trkpt>
<trkpt lat="46.226250000" lon="7.456960000"><ele></ele><time>2013-8-8T1:44:22Z</time></trkpt>
<trkpt lat="46.226250000" lon="7.457370000"><ele></ele><time>2013-8-8T1:44:25Z</time></trkpt>
<trkpt lat="46.226220000" lon="7.457740000"><ele></ele><time>2013-8-8T1:44:28Z</time></trkpt>
<trkpt lat="46.226220000" lon="7.457780000"><ele></ele><time>2013-8-8T1:44:31Z</time></trkpt>
<trkpt lat="46.226210000" lon="7.457820000"><ele></ele><time>2013-8-8T1:44:34Z</time></trkpt>
<trkpt lat="46.226210000" lon="7.457860000"><ele></ele><time>2013-8-8T1:44:37Z</time></trkpt>
<trkpt lat="46.226210000" lon="7.457910000"><ele></ele><time>2013-8-8T1:44:40Z</time></trkpt>
<trkpt lat="46.226200000" lon="7.457950000"><ele></ele><time>2013-8-8T1:44:43Z</time></trkpt>
<trkpt lat="46.226150000" lon="7.458160000"><ele></ele><time>2013-8-8T1:44:46Z</time></trkpt>
<trkpt lat="46.226130000" lon="7.458200000"><ele></ele><time>2013-8-8T1:44:49Z</time></trkpt>
<trkpt lat="46.226110000" lon="7.458240000"><ele></ele><time>2013-8-8T1:44:52Z</time></trkpt>
<trkpt lat="46.226090000" lon="7.458280000"><ele></ele><time>2013-8-8T1:44:55Z</time></trkpt>
<trkpt lat="46.226070000" lon="7.458310000"><ele></ele><time>2013-8-8T1:44:58Z</time></trkpt>
<trkpt lat="46.226000000" lon="7.458390000"><ele></ele><time>2013-8-8T1:45:1Z</time></trkpt>
<trkpt lat="46.225980000" lon="7.458420000"><ele></ele><time>2013-8-8T1:45:4Z</time></trkpt>
<trkpt lat="46.225950000" lon="7.458450000"><ele></ele><time>2013-8-8T1:45:7Z</time></trkpt>
<trkpt lat="46.225920000" lon="7.458470000"><ele></ele><time>2013-8-8T1:45:10Z</time></trkpt>
<trkpt lat="46.225890000" lon="7.458500000"><ele></ele><time>2013-8-8T1:45:13Z</time></trkpt>
<trkpt lat="46.225870000" lon="7.458520000"><ele></ele><time>2013-8-8T1:45:16Z</time></trkpt>
<trkpt lat="46.225850000" lon="7.458540000"><ele></ele><time>2013-8-8T1:45:19Z</time></trkpt>
<trkpt lat="46.225720000" lon="7.458720000"><ele></ele><time>2013-8-8T1:45:22Z</time></trkpt>
<trkpt lat="46.225680000" lon="7.458790000"><ele></ele><time>2013-8-8T1:45:25Z</time></trkpt>
<trkpt lat="46.225670000" lon="7.458830000"><ele></ele><time>2013-8-8T1:45:28Z</time></trkpt>
<trkpt lat="46.225660000" lon="7.458870000"><ele></ele><time>2013-8-8T1:45:31Z</time></trkpt>
<trkpt lat="46.225650000" lon="7.458910000"><ele></ele><time>2013-8-8T1:45:34Z</time></trkpt>
<trkpt lat="46.225640000" lon="7.458960000"><ele></ele><time>2013-8-8T1:45:37Z</time></trkpt>
<trkpt lat="46.225620000" lon="7.459130000"><ele></ele><time>2013-8-8T1:45:40Z</time></trkpt>
<trkpt lat="46.225610000" lon="7.459160000"><ele></ele><time>2013-8-8T1:45:43Z</time></trkpt>
<trkpt lat="46.225600000" lon="7.459190000"><ele></ele><time>2013-8-8T1:45:46Z</time></trkpt>
<trkpt lat="46.225590000" lon="7.459220000"><ele></ele><time>2013-8-8T1:45:49Z</time></trkpt>
<trkpt lat="46.225560000" lon="7.459340000"><ele></ele><time>2013-8-8T1:45:52Z</time></trkpt>
<trkpt lat="46.225560000" lon="7.459380000"><ele></ele><time>2013-8-8T1:45:55Z</time></trkpt>
<trkpt lat="46.225560000" lon="7.459420000"><ele></ele><time>2013-8-8T1:45:58Z</time></trkpt>
<trkpt lat="46.225560000" lon="7.459460000"><ele></ele><time>2013-8-8T1:46:1Z</time></trkpt>
<trkpt lat="46.225560000" lon="7.459500000"><ele></ele><time>2013-8-8T1:46:4Z</time></trkpt>
<trkpt lat="46.225550000" lon="7.459530000"><ele></ele><time>2013-8-8T1:46:7Z</time></trkpt>
<trkpt lat="46.225530000" lon="7.459800000"><ele></ele><time>2013-8-8T1:46:10Z</time></trkpt>
<trkpt lat="46.225530000" lon="7.459840000"><ele></ele><time>2013-8-8T1:46:13Z</time></trkpt>
<trkpt lat="46.225540000" lon="7.459880000"><ele></ele><time>2013-8-8T1:46:16Z</time></trkpt>
<trkpt lat="46.225540000" lon="7.459920000"><ele></ele><time>2013-8-8T1:46:19Z</time></trkpt>
<trkpt lat="46.225540000" lon="7.459960000"><ele></ele><time>2013-8-8T1:46:22Z</time></trkpt>
<trkpt lat="46.225540000" lon="7.460050000"><ele></ele><time>2013-8-8T1:46:25Z</time></trkpt>
<trkpt lat="46.225550000" lon="7.460130000"><ele></ele><time>2013-8-8T1:46:28Z</time></trkpt>
<trkpt lat="46.225570000" lon="7.460210000"><ele></ele><time>2013-8-8T1:46:31Z</time></trkpt>
<trkpt lat="46.225580000" lon="7.460250000"><ele></ele><time>2013-8-8T1:46:34Z</time></trkpt>
<trkpt lat="46.225590000" lon="7.460290000"><ele></ele><time>2013-8-8T1:46:37Z</time></trkpt>
<trkpt lat="46.225600000" lon="7.460320000"><ele></ele><time>2013-8-8T1:46:40Z</time></trkpt>
<trkpt lat="46.225640000" lon="7.460460000"><ele></ele><time>2013-8-8T1:46:43Z</time></trkpt>
<trkpt lat="46.225680000" lon="7.460640000"><ele></ele><time>2013-8-8T1:46:46Z</time></trkpt>
<trkpt lat="46.225690000" lon="7.460680000"><ele></ele><time>2013-8-8T1:46:49Z</time></trkpt>
<trkpt lat="46.225710000" lon="7.460710000"><ele></ele><time>2013-8-8T1:46:52Z</time></trkpt>
<trkpt lat="46.225730000" lon="7.460750000"><ele></ele><time>2013-8-8T1:46:55Z</time></trkpt>
<trkpt lat="46.225750000" lon="7.460780000"><ele></ele><time>2013-8-8T1:46:58Z</time></trkpt>
<trkpt lat="46.225850000" lon="7.460940000"><ele></ele><time>2013-8-8T1:47:1Z</time></trkpt>
<trkpt lat="46.225940000" lon="7.461050000"><ele></ele><time>2013-8-8T1:47:4Z</time></trkpt>
<trkpt lat="46.225970000" lon="7.461080000"><ele></ele><time>2013-8-8T1:47:7Z</time></trkpt>
<trkpt lat="46.225990000" lon="7.461100000"><ele></ele><time>2013-8-8T1:47:10Z</time></trkpt>
<trkpt lat="46.226010000" lon="7.461130000"><ele></ele><time>2013-8-8T1:47:13Z</time></trkpt>
<trkpt lat="46.226040000" lon="7.461160000"><ele></ele><time>2013-8-8T1:47:16Z</time></trkpt>
<trkpt lat="46.226140000" lon="7.461310000"><ele></ele><time>2013-8-8T1:47:19Z</time></trkpt>
<trkpt lat="46.226220000" lon="7.461500000"><ele></ele><time>2013-8-8T1:47:22Z</time></trkpt>
<trkpt lat="46.226230000" lon="7.461540000"><ele></ele><time>2013-8-8T1:47:25Z</time></trkpt>
<trkpt lat="46.226240000" lon="7.461580000"><ele></ele><time>2013-8-8T1:47:28Z</time></trkpt>
<trkpt lat="46.226250000" lon="7.461630000"><ele></ele><time>2013-8-8T1:47:31Z</time></trkpt>
<trkpt lat="46.226260000" lon="7.461670000"><ele></ele><time>2013-8-8T1:47:34Z</time></trkpt>
<trkpt lat="46.226260000" lon="7.461750000"><ele></ele><time>2013-8-8T1:47:37Z</time></trkpt>
<trkpt lat="46.226240000" lon="7.461780000"><ele></ele><time>2013-8-8T1:47:40Z</time></trkpt>
<trkpt lat="46.226170000" lon="7.461760000"><ele></ele><time>2013-8-8T1:47:43Z</time></trkpt>
<trkpt lat="46.226120000" lon="7.461700000"><ele></ele><time>2013-8-8T1:47:46Z</time></trkpt>
<trkpt lat="46.226100000" lon="7.461670000"><ele></ele><time>2013-8-8T1:47:49Z</time></trkpt>
<trkpt lat="46.226080000" lon="7.461640000"><ele></ele><time>2013-8-8T1:47:52Z</time></trkpt>
<trkpt lat="46.226060000" lon="7.461620000"><ele></ele><time>2013-8-8T1:47:55Z</time></trkpt>
<trkpt lat="46.226040000" lon="7.461590000"><ele></ele><time>2013-8-8T1:47:58Z</time></trkpt>
<trkpt lat="46.225850000" lon="7.461440000"><ele></ele><time>2013-8-8T1:48:1Z</time></trkpt>
<trkpt lat="46.225830000" lon="7.461420000"><ele></ele><time>2013-8-8T1:48:4Z</time></trkpt>
<trkpt lat="46.225800000" lon="7.461410000"><ele></ele><time>2013-8-8T1:48:7Z</time></trkpt>
<trkpt lat="46.225770000" lon="7.461400000"><ele></ele><time>2013-8-8T1:48:10Z</time></trkpt>
<trkpt lat="46.225750000" lon="7.461390000"><ele></ele><time>2013-8-8T1:48:13Z</time></trkpt>
<trkpt lat="46.225720000" lon="7.461390000"><ele></ele><time>2013-8-8T1:48:16Z</time></trkpt>
<trkpt lat="46.225640000" lon="7.461370000"><ele></ele><time>2013-8-8T1:48:19Z</time></trkpt>
<trkpt lat="46.225610000" lon="7.461360000"><ele></ele><time>2013-8-8T1:48:22Z</time></trkpt>
<trkpt lat="46.225580000" lon="7.461350000"><ele></ele><time>2013-8-8T1:48:25Z</time></trkpt>
<trkpt lat="46.225560000" lon="7.461340000"><ele></ele><time>2013-8-8T1:48:28Z</time></trkpt>
<trkpt lat="46.225460000" lon="7.461280000"><ele></ele><time>2013-8-8T1:48:31Z</time></trkpt>
<trkpt lat="46.225420000" lon="7.461230000"><ele></ele><time>2013-8-8T1:48:34Z</time></trkpt>
<trkpt lat="46.225400000" lon="7.461200000"><ele></ele><time>2013-8-8T1:48:37Z</time></trkpt>
<trkpt lat="46.225380000" lon="7.461170000"><ele></ele><time>2013-8-8T1:48:40Z</time></trkpt>
<trkpt lat="46.225360000" lon="7.461140000"><ele></ele><time>2013-8-8T1:48:43Z</time></trkpt>
<trkpt lat="46.225350000" lon="7.461100000"><ele></ele><time>2013-8-8T1:48:46Z</time></trkpt>
<trkpt lat="46.225270000" lon="7.460970000"><ele></ele><time>2013-8-8T1:48:49Z</time></trkpt>
<trkpt lat="46.225250000" lon="7.460960000"><ele></ele><time>2013-8-8T1:48:52Z</time></trkpt>
<trkpt lat="46.225220000" lon="7.460950000"><ele></ele><time>2013-8-8T1:48:55Z</time></trkpt>
<trkpt lat="46.225190000" lon="7.460950000"><ele></ele><time>2013-8-8T1:48:58Z</time></trkpt>
<trkpt lat="46.225170000" lon="7.460970000"><ele></ele><time>2013-8-8T1:49:1Z</time></trkpt>
<trkpt lat="46.225140000" lon="7.460990000"><ele></ele><time>2013-8-8T1:49:4Z</time></trkpt>
<trkpt lat="46.225110000" lon="7.461110000"><ele></ele><time>2013-8-8T1:49:7Z</time></trkpt>
<trkpt lat="46.225120000" lon="7.461150000"><ele></ele><time>2013-8-8T1:49:10Z</time></trkpt>
<trkpt lat="46.225160000" lon="7.461260000"><ele></ele><time>2013-8-8T1:49:13Z</time></trkpt>
<trkpt lat="46.225200000" lon="7.461310000"><ele></ele><time>2013-8-8T1:49:16Z</time></trkpt>
<trkpt lat="46.225280000" lon="7.461410000"><ele></ele><time>2013-8-8T1:49:19Z</time></trkpt>
<trkpt lat="46.225310000" lon="7.461430000"><ele></ele><time>2013-8-8T1:49:22Z</time></trkpt>
<trkpt lat="46.225330000" lon="7.461450000"><ele></ele><time>2013-8-8T1:49:25Z</time></trkpt>
<trkpt lat="46.225360000" lon="7.461460000"><ele></ele><time>2013-8-8T1:49:28Z</time></trkpt>
<trkpt lat="46.225380000" lon="7.461490000"><ele></ele><time>2013-8-8T1:49:31Z</time></trkpt>
<trkpt lat="46.225420000" lon="7.461530000"><ele></ele><time>2013-8-8T1:49:34Z</time></trkpt>
<trkpt lat="46.225450000" lon="7.461540000"><ele></ele><time>2013-8-8T1:49:37Z</time></trkpt>
<trkpt lat="46.225470000" lon="7.461560000"><ele></ele><time>2013-8-8T1:49:40Z</time></trkpt>
<trkpt lat="46.225490000" lon="7.461580000"><ele></ele><time>2013-8-8T1:49:43Z</time></trkpt>
<trkpt lat="46.225510000" lon="7.461600000"><ele></ele><time>2013-8-8T1:49:46Z</time></trkpt>
<trkpt lat="46.225620000" lon="7.461730000"><ele></ele><time>2013-8-8T1:49:49Z</time></trkpt>
<trkpt lat="46.225640000" lon="7.461760000"><ele></ele><time>2013-8-8T1:49:52Z</time></trkpt>
<trkpt lat="46.225650000" lon="7.461800000"><ele></ele><time>2013-8-8T1:49:55Z</time></trkpt>
<trkpt lat="46.225670000" lon="7.461830000"><ele></ele><time>2013-8-8T1:49:58Z</time></trkpt>
<trkpt lat="46.225690000" lon="7.461870000"><ele></ele><time>2013-8-8T1:50:1Z</time></trkpt>
<trkpt lat="46.225700000" lon="7.461900000"><ele></ele><time>2013-8-8T1:50:4Z</time></trkpt>
<trkpt lat="46.225720000" lon="7.461930000"><ele></ele><time>2013-8-8T1:50:7Z</time></trkpt>
<trkpt lat="46.225780000" lon="7.462100000"><ele></ele><time>2013-8-8T1:50:10Z</time></trkpt>
<trkpt lat="46.225790000" lon="7.462130000"><ele></ele><time>2013-8-8T1:50:13Z</time></trkpt>
<trkpt lat="46.225800000" lon="7.462170000"><ele></ele><time>2013-8-8T1:50:16Z</time></trkpt>
<trkpt lat="46.225810000" lon="7.462200000"><ele></ele><time>2013-8-8T1:50:19Z</time></trkpt>
<trkpt lat="46.225820000" lon="7.462230000"><ele></ele><time>2013-8-8T1:50:22Z</time></trkpt>
<trkpt lat="46.225850000" lon="7.462340000"><ele></ele><time>2013-8-8T1:50:25Z</time></trkpt>
<trkpt lat="46.225860000" lon="7.462380000"><ele></ele><time>2013-8-8T1:50:28Z</time></trkpt>
<trkpt lat="46.225880000" lon="7.462410000"><ele></ele><time>2013-8-8T1:50:31Z</time></trkpt>
<trkpt lat="46.225890000" lon="7.462450000"><ele></ele><time>2013-8-8T1:50:34Z</time></trkpt>
<trkpt lat="46.225910000" lon="7.462480000"><ele></ele><time>2013-8-8T1:50:37Z</time></trkpt>
<trkpt lat="46.225950000" lon="7.462550000"><ele></ele><time>2013-8-8T1:50:40Z</time></trkpt>
<trkpt lat="46.226010000" lon="7.462730000"><ele></ele><time>2013-8-8T1:50:43Z</time></trkpt>
<trkpt lat="46.225940000" lon="7.462780000"><ele></ele><time>2013-8-8T1:50:46Z</time></trkpt>
<trkpt lat="46.225920000" lon="7.462760000"><ele></ele><time>2013-8-8T1:50:49Z</time></trkpt>
<trkpt lat="46.225890000" lon="7.462730000"><ele></ele><time>2013-8-8T1:50:52Z</time></trkpt>
<trkpt lat="46.225870000" lon="7.462700000"><ele></ele><time>2013-8-8T1:50:55Z</time></trkpt>
<trkpt lat="46.225850000" lon="7.462670000"><ele></ele><time>2013-8-8T1:50:58Z</time></trkpt>
<trkpt lat="46.225840000" lon="7.462640000"><ele></ele><time>2013-8-8T1:51:1Z</time></trkpt>
<trkpt lat="46.225780000" lon="7.462540000"><ele></ele><time>2013-8-8T1:51:4Z</time></trkpt>
<trkpt lat="46.225760000" lon="7.462510000"><ele></ele><time>2013-8-8T1:51:7Z</time></trkpt>
<trkpt lat="46.225740000" lon="7.462480000"><ele></ele><time>2013-8-8T1:51:10Z</time></trkpt>
<trkpt lat="46.225720000" lon="7.462440000"><ele></ele><time>2013-8-8T1:51:13Z</time></trkpt>
<trkpt lat="46.225700000" lon="7.462420000"><ele></ele><time>2013-8-8T1:51:16Z</time></trkpt>
<trkpt lat="46.225600000" lon="7.462230000"><ele></ele><time>2013-8-8T1:51:19Z</time></trkpt>
<trkpt lat="46.225580000" lon="7.462210000"><ele></ele><time>2013-8-8T1:51:22Z</time></trkpt>
<trkpt lat="46.225570000" lon="7.462170000"><ele></ele><time>2013-8-8T1:51:25Z</time></trkpt>
<trkpt lat="46.225550000" lon="7.462150000"><ele></ele><time>2013-8-8T1:51:28Z</time></trkpt>
<trkpt lat="46.225490000" lon="7.462020000"><ele></ele><time>2013-8-8T1:51:31Z</time></trkpt>
<trkpt lat="46.225480000" lon="7.461980000"><ele></ele><time>2013-8-8T1:51:34Z</time></trkpt>
<trkpt lat="46.225450000" lon="7.461950000"><ele></ele><time>2013-8-8T1:51:37Z</time></trkpt>
<trkpt lat="46.225430000" lon="7.461930000"><ele></ele><time>2013-8-8T1:51:40Z</time></trkpt>
<trkpt lat="46.225410000" lon="7.461900000"><ele></ele><time>2013-8-8T1:51:43Z</time></trkpt>
<trkpt lat="46.225330000" lon="7.461820000"><ele></ele><time>2013-8-8T1:51:46Z</time></trkpt>
<trkpt lat="46.225300000" lon="7.461810000"><ele></ele><time>2013-8-8T1:51:49Z</time></trkpt>
<trkpt lat="46.225280000" lon="7.461800000"><ele></ele><time>2013-8-8T1:51:52Z</time></trkpt>
<trkpt lat="46.225270000" lon="7.461780000"><ele></ele><time>2013-8-8T1:51:55Z</time></trkpt>
<trkpt lat="46.225240000" lon="7.461770000"><ele></ele><time>2013-8-8T1:51:58Z</time></trkpt>
<trkpt lat="46.225140000" lon="7.461730000"><ele></ele><time>2013-8-8T1:52:1Z</time></trkpt>
<trkpt lat="46.225110000" lon="7.461720000"><ele></ele><time>2013-8-8T1:52:4Z</time></trkpt>
<trkpt lat="46.225090000" lon="7.461710000"><ele></ele><time>2013-8-8T1:52:7Z</time></trkpt>
<trkpt lat="46.225060000" lon="7.461700000"><ele></ele><time>2013-8-8T1:52:10Z</time></trkpt>
<trkpt lat="46.224970000" lon="7.461660000"><ele></ele><time>2013-8-8T1:52:13Z</time></trkpt>
<trkpt lat="46.224950000" lon="7.461640000"><ele></ele><time>2013-8-8T1:52:16Z</time></trkpt>
<trkpt lat="46.224920000" lon="7.461620000"><ele></ele><time>2013-8-8T1:52:19Z</time></trkpt>
<trkpt lat="46.224900000" lon="7.461600000"><ele></ele><time>2013-8-8T1:52:22Z</time></trkpt>
<trkpt lat="46.224880000" lon="7.461570000"><ele></ele><time>2013-8-8T1:52:25Z</time></trkpt>
<trkpt lat="46.224800000" lon="7.461490000"><ele></ele><time>2013-8-8T1:52:28Z</time></trkpt>
<trkpt lat="46.224740000" lon="7.461440000"><ele></ele><time>2013-8-8T1:52:31Z</time></trkpt>
<trkpt lat="46.224720000" lon="7.461450000"><ele></ele><time>2013-8-8T1:52:34Z</time></trkpt>
<trkpt lat="46.224700000" lon="7.461470000"><ele></ele><time>2013-8-8T1:52:37Z</time></trkpt>
<trkpt lat="46.224690000" lon="7.461500000"><ele></ele><time>2013-8-8T1:52:40Z</time></trkpt>
<trkpt lat="46.224690000" lon="7.461530000"><ele></ele><time>2013-8-8T1:52:43Z</time></trkpt>
<trkpt lat="46.224690000" lon="7.461590000"><ele></ele><time>2013-8-8T1:52:46Z</time></trkpt>
<trkpt lat="46.224740000" lon="7.461610000"><ele></ele><time>2013-8-8T1:52:49Z</time></trkpt>
<trkpt lat="46.224740000" lon="7.461590000"><ele></ele><time>2013-8-8T1:52:52Z</time></trkpt>
<trkpt lat="46.224740000" lon="7.461590000"><ele></ele><time>2013-8-8T1:52:55Z</time></trkpt>
<trkpt lat="46.224740000" lon="7.461590000"><ele></ele><time>2013-8-8T1:52:58Z</time></trkpt>
<trkpt lat="46.224740000" lon="7.461590000"><ele></ele><time>2013-8-8T1:53:1Z</time></trkpt>
<trkpt lat="46.224740000" lon="7.461590000"><ele></ele><time>2013-8-8T1:53:4Z</time></trkpt>
<trkpt lat="46.224740000" lon="7.461590000"><ele></ele><time>2013-8-8T1:53:7Z</time></trkpt>
<trkpt lat="46.224740000" lon="7.461590000"><ele></ele><time>2013-8-8T1:53:10Z</time></trkpt>
<trkpt lat="46.224740000" lon="7.461590000"><ele></ele><time>2013-8-8T1:53:13Z</time></trkpt>
<trkpt lat="46.224730000" lon="7.461530000"><ele></ele><time>2013-8-8T1:53:16Z</time></trkpt>
<trkpt lat="46.224770000" lon="7.461500000"><ele></ele><time>2013-8-8T1:53:19Z</time></trkpt>
<trkpt lat="46.224800000" lon="7.461560000"><ele></ele><time>2013-8-8T1:53:22Z</time></trkpt>
<trkpt lat="46.224830000" lon="7.461590000"><ele></ele><time>2013-8-8T1:53:25Z</time></trkpt>
<trkpt lat="46.224920000" lon="7.461670000"><ele></ele><time>2013-8-8T1:53:28Z</time></trkpt>
<trkpt lat="46.224960000" lon="7.461690000"><ele></ele><time>2013-8-8T1:53:31Z</time></trkpt>
<trkpt lat="46.224990000" lon="7.461720000"><ele></ele><time>2013-8-8T1:53:34Z</time></trkpt>
<trkpt lat="46.225040000" lon="7.461750000"><ele></ele><time>2013-8-8T1:53:37Z</time></trkpt>
<trkpt lat="46.225090000" lon="7.461770000"><ele></ele><time>2013-8-8T1:53:40Z</time></trkpt>
<trkpt lat="46.225150000" lon="7.461800000"><ele></ele><time>2013-8-8T1:53:43Z</time></trkpt>
<trkpt lat="46.225220000" lon="7.461820000"><ele></ele><time>2013-8-8T1:53:46Z</time></trkpt>
<trkpt lat="46.225280000" lon="7.461840000"><ele></ele><time>2013-8-8T1:53:49Z</time></trkpt>
<trkpt lat="46.225340000" lon="7.461880000"><ele></ele><time>2013-8-8T1:53:52Z</time></trkpt>
<trkpt lat="46.225390000" lon="7.461920000"><ele></ele><time>2013-8-8T1:53:55Z</time></trkpt>
<trkpt lat="46.225440000" lon="7.461980000"><ele></ele><time>2013-8-8T1:53:58Z</time></trkpt>
<trkpt lat="46.225490000" lon="7.462050000"><ele></ele><time>2013-8-8T1:54:1Z</time></trkpt>
<trkpt lat="46.225520000" lon="7.462130000"><ele></ele><time>2013-8-8T1:54:4Z</time></trkpt>
<trkpt lat="46.225560000" lon="7.462220000"><ele></ele><time>2013-8-8T1:54:7Z</time></trkpt>
<trkpt lat="46.225600000" lon="7.462300000"><ele></ele><time>2013-8-8T1:54:10Z</time></trkpt>
<trkpt lat="46.225640000" lon="7.462380000"><ele></ele><time>2013-8-8T1:54:13Z</time></trkpt>
<trkpt lat="46.225680000" lon="7.462450000"><ele></ele><time>2013-8-8T1:54:16Z</time></trkpt>
<trkpt lat="46.225720000" lon="7.462520000"><ele></ele><time>2013-8-8T1:54:19Z</time></trkpt>
<trkpt lat="46.225760000" lon="7.462590000"><ele></ele><time>2013-8-8T1:54:22Z</time></trkpt>
<trkpt lat="46.225800000" lon="7.462650000"><ele></ele><time>2013-8-8T1:54:25Z</time></trkpt>
<trkpt lat="46.225830000" lon="7.462720000"><ele></ele><time>2013-8-8T1:54:28Z</time></trkpt>
<trkpt lat="46.225860000" lon="7.462780000"><ele></ele><time>2013-8-8T1:54:31Z</time></trkpt>
<trkpt lat="46.225900000" lon="7.462830000"><ele></ele><time>2013-8-8T1:54:34Z</time></trkpt>
<trkpt lat="46.225970000" lon="7.462880000"><ele></ele><time>2013-8-8T1:54:37Z</time></trkpt>
<trkpt lat="46.226010000" lon="7.462880000"><ele></ele><time>2013-8-8T1:54:40Z</time></trkpt>
<trkpt lat="46.226070000" lon="7.462870000"><ele></ele><time>2013-8-8T1:54:43Z</time></trkpt>
<trkpt lat="46.226110000" lon="7.462830000"><ele></ele><time>2013-8-8T1:54:46Z</time></trkpt>
<trkpt lat="46.226110000" lon="7.462780000"><ele></ele><time>2013-8-8T1:54:49Z</time></trkpt>
<trkpt lat="46.226100000" lon="7.462730000"><ele></ele><time>2013-8-8T1:54:52Z</time></trkpt>
<trkpt lat="46.226090000" lon="7.462660000"><ele></ele><time>2013-8-8T1:54:55Z</time></trkpt>
<trkpt lat="46.226060000" lon="7.462600000"><ele></ele><time>2013-8-8T1:54:58Z</time></trkpt>
<trkpt lat="46.226020000" lon="7.462540000"><ele></ele><time>2013-8-8T1:55:1Z</time></trkpt>
<trkpt lat="46.225940000" lon="7.462400000"><ele></ele><time>2013-8-8T1:55:4Z</time></trkpt>
<trkpt lat="46.225940000" lon="7.462400000"><ele></ele><time>2013-8-8T1:55:7Z</time></trkpt>
<trkpt lat="46.225910000" lon="7.462330000"><ele></ele><time>2013-8-8T1:55:10Z</time></trkpt>
<trkpt lat="46.225880000" lon="7.462250000"><ele></ele><time>2013-8-8T1:55:13Z</time></trkpt>
<trkpt lat="46.225860000" lon="7.462160000"><ele></ele><time>2013-8-8T1:55:16Z</time></trkpt>
<trkpt lat="46.225830000" lon="7.462060000"><ele></ele><time>2013-8-8T1:55:19Z</time></trkpt>
<trkpt lat="46.225800000" lon="7.461970000"><ele></ele><time>2013-8-8T1:55:22Z</time></trkpt>
<trkpt lat="46.225760000" lon="7.461870000"><ele></ele><time>2013-8-8T1:55:25Z</time></trkpt>
<trkpt lat="46.225720000" lon="7.461770000"><ele></ele><time>2013-8-8T1:55:28Z</time></trkpt>
<trkpt lat="46.225650000" lon="7.461680000"><ele></ele><time>2013-8-8T1:55:31Z</time></trkpt>
<trkpt lat="46.225590000" lon="7.461590000"><ele></ele><time>2013-8-8T1:55:34Z</time></trkpt>
<trkpt lat="46.225510000" lon="7.461510000"><ele></ele><time>2013-8-8T1:55:37Z</time></trkpt>
<trkpt lat="46.225430000" lon="7.461430000"><ele></ele><time>2013-8-8T1:55:40Z</time></trkpt>
<trkpt lat="46.225350000" lon="7.461360000"><ele></ele><time>2013-8-8T1:55:43Z</time></trkpt>
<trkpt lat="46.225270000" lon="7.461300000"><ele></ele><time>2013-8-8T1:55:46Z</time></trkpt>
<trkpt lat="46.225200000" lon="7.461240000"><ele></ele><time>2013-8-8T1:55:49Z</time></trkpt>
<trkpt lat="46.225160000" lon="7.461170000"><ele></ele><time>2013-8-8T1:55:52Z</time></trkpt>
<trkpt lat="46.225150000" lon="7.461080000"><ele></ele><time>2013-8-8T1:55:55Z</time></trkpt>
<trkpt lat="46.225170000" lon="7.461010000"><ele></ele><time>2013-8-8T1:55:58Z</time></trkpt>
<trkpt lat="46.225220000" lon="7.460990000"><ele></ele><time>2013-8-8T1:56:1Z</time></trkpt>
<trkpt lat="46.225250000" lon="7.461030000"><ele></ele><time>2013-8-8T1:56:4Z</time></trkpt>
<trkpt lat="46.225290000" lon="7.461110000"><ele></ele><time>2013-8-8T1:56:7Z</time></trkpt>
<trkpt lat="46.225330000" lon="7.461190000"><ele></ele><time>2013-8-8T1:56:10Z</time></trkpt>
<trkpt lat="46.225380000" lon="7.461270000"><ele></ele><time>2013-8-8T1:56:13Z</time></trkpt>
<trkpt lat="46.225450000" lon="7.461330000"><ele></ele><time>2013-8-8T1:56:16Z</time></trkpt>
<trkpt lat="46.225520000" lon="7.461370000"><ele></ele><time>2013-8-8T1:56:19Z</time></trkpt>
<trkpt lat="46.225600000" lon="7.461390000"><ele></ele><time>2013-8-8T1:56:22Z</time></trkpt>
<trkpt lat="46.225680000" lon="7.461410000"><ele></ele><time>2013-8-8T1:56:25Z</time></trkpt>
<trkpt lat="46.225760000" lon="7.461440000"><ele></ele><time>2013-8-8T1:56:28Z</time></trkpt>
<trkpt lat="46.225850000" lon="7.461470000"><ele></ele><time>2013-8-8T1:56:31Z</time></trkpt>
<trkpt lat="46.225930000" lon="7.461530000"><ele></ele><time>2013-8-8T1:56:34Z</time></trkpt>
<trkpt lat="46.225990000" lon="7.461610000"><ele></ele><time>2013-8-8T1:56:37Z</time></trkpt>
<trkpt lat="46.226060000" lon="7.461710000"><ele></ele><time>2013-8-8T1:56:40Z</time></trkpt>
<trkpt lat="46.226130000" lon="7.461780000"><ele></ele><time>2013-8-8T1:56:43Z</time></trkpt>
<trkpt lat="46.226200000" lon="7.461810000"><ele></ele><time>2013-8-8T1:56:46Z</time></trkpt>
<trkpt lat="46.226270000" lon="7.461760000"><ele></ele><time>2013-8-8T1:56:49Z</time></trkpt>
<trkpt lat="46.226310000" lon="7.461670000"><ele></ele><time>2013-8-8T1:56:52Z</time></trkpt>
<trkpt lat="46.226270000" lon="7.461480000"><ele></ele><time>2013-8-8T1:56:55Z</time></trkpt>
<trkpt lat="46.226200000" lon="7.461290000"><ele></ele><time>2013-8-8T1:56:58Z</time></trkpt>
<trkpt lat="46.226150000" lon="7.461200000"><ele></ele><time>2013-8-8T1:57:1Z</time></trkpt>
<trkpt lat="46.226090000" lon="7.461120000"><ele></ele><time>2013-8-8T1:57:4Z</time></trkpt>
<trkpt lat="46.225970000" lon="7.460970000"><ele></ele><time>2013-8-8T1:57:7Z</time></trkpt>
<trkpt lat="46.225790000" lon="7.460670000"><ele></ele><time>2013-8-8T1:57:10Z</time></trkpt>
<trkpt lat="46.225750000" lon="7.460540000"><ele></ele><time>2013-8-8T1:57:13Z</time></trkpt>
<trkpt lat="46.225710000" lon="7.460410000"><ele></ele><time>2013-8-8T1:57:16Z</time></trkpt>
<trkpt lat="46.225670000" lon="7.460280000"><ele></ele><time>2013-8-8T1:57:19Z</time></trkpt>
<trkpt lat="46.225640000" lon="7.460140000"><ele></ele><time>2013-8-8T1:57:22Z</time></trkpt>
<trkpt lat="46.225610000" lon="7.459990000"><ele></ele><time>2013-8-8T1:57:25Z</time></trkpt>
<trkpt lat="46.225610000" lon="7.459830000"><ele></ele><time>2013-8-8T1:57:28Z</time></trkpt>
<trkpt lat="46.225620000" lon="7.459670000"><ele></ele><time>2013-8-8T1:57:31Z</time></trkpt>
<trkpt lat="46.225640000" lon="7.459500000"><ele></ele><time>2013-8-8T1:57:34Z</time></trkpt>
<trkpt lat="46.225650000" lon="7.459350000"><ele></ele><time>2013-8-8T1:57:37Z</time></trkpt>
<trkpt lat="46.225670000" lon="7.459200000"><ele></ele><time>2013-8-8T1:57:40Z</time></trkpt>
<trkpt lat="46.225680000" lon="7.459030000"><ele></ele><time>2013-8-8T1:57:43Z</time></trkpt>
<trkpt lat="46.225710000" lon="7.458870000"><ele></ele><time>2013-8-8T1:57:46Z</time></trkpt>
<trkpt lat="46.225750000" lon="7.458710000"><ele></ele><time>2013-8-8T1:57:49Z</time></trkpt>
<trkpt lat="46.225810000" lon="7.458560000"><ele></ele><time>2013-8-8T1:57:52Z</time></trkpt>
<trkpt lat="46.225900000" lon="7.458440000"><ele></ele><time>2013-8-8T1:57:55Z</time></trkpt>
<trkpt lat="46.226000000" lon="7.458330000"><ele></ele><time>2013-8-8T1:57:58Z</time></trkpt>
<trkpt lat="46.226080000" lon="7.458220000"><ele></ele><time>2013-8-8T1:58:1Z</time></trkpt>
<trkpt lat="46.226150000" lon="7.458100000"><ele></ele><time>2013-8-8T1:58:4Z</time></trkpt>
<trkpt lat="46.226190000" lon="7.457960000"><ele></ele><time>2013-8-8T1:58:7Z</time></trkpt>
<trkpt lat="46.226220000" lon="7.457810000"><ele></ele><time>2013-8-8T1:58:10Z</time></trkpt>
<trkpt lat="46.226250000" lon="7.457650000"><ele></ele><time>2013-8-8T1:58:13Z</time></trkpt>
<trkpt lat="46.226260000" lon="7.457500000"><ele></ele><time>2013-8-8T1:58:16Z</time></trkpt>
<trkpt lat="46.226260000" lon="7.457340000"><ele></ele><time>2013-8-8T1:58:19Z</time></trkpt>
<trkpt lat="46.226260000" lon="7.457170000"><ele></ele><time>2013-8-8T1:58:22Z</time></trkpt>
<trkpt lat="46.226270000" lon="7.456710000"><ele></ele><time>2013-8-8T1:58:25Z</time></trkpt>
<trkpt lat="46.226280000" lon="7.456570000"><ele></ele><time>2013-8-8T1:58:28Z</time></trkpt>
<trkpt lat="46.226300000" lon="7.456430000"><ele></ele><time>2013-8-8T1:58:31Z</time></trkpt>
<trkpt lat="46.226310000" lon="7.456290000"><ele></ele><time>2013-8-8T1:58:34Z</time></trkpt>
<trkpt lat="46.226330000" lon="7.456150000"><ele></ele><time>2013-8-8T1:58:37Z</time></trkpt>
<trkpt lat="46.226390000" lon="7.455890000"><ele></ele><time>2013-8-8T1:58:40Z</time></trkpt>
<trkpt lat="46.226430000" lon="7.455760000"><ele></ele><time>2013-8-8T1:58:43Z</time></trkpt>
<trkpt lat="46.226600000" lon="7.455300000"><ele></ele><time>2013-8-8T1:58:46Z</time></trkpt>
<trkpt lat="46.226650000" lon="7.455190000"><ele></ele><time>2013-8-8T1:58:49Z</time></trkpt>
<trkpt lat="46.226920000" lon="7.454450000"><ele></ele><time>2013-8-8T1:58:52Z</time></trkpt>
<trkpt lat="46.226950000" lon="7.454330000"><ele></ele><time>2013-8-8T1:58:55Z</time></trkpt>
<trkpt lat="46.226980000" lon="7.454220000"><ele></ele><time>2013-8-8T1:58:58Z</time></trkpt>
<trkpt lat="46.227010000" lon="7.454110000"><ele></ele><time>2013-8-8T1:59:1Z</time></trkpt>
<trkpt lat="46.227030000" lon="7.453990000"><ele></ele><time>2013-8-8T1:59:4Z</time></trkpt>
<trkpt lat="46.227040000" lon="7.453750000"><ele></ele><time>2013-8-8T1:59:7Z</time></trkpt>
<trkpt lat="46.226990000" lon="7.453520000"><ele></ele><time>2013-8-8T1:59:10Z</time></trkpt>
<trkpt lat="46.226970000" lon="7.453380000"><ele></ele><time>2013-8-8T1:59:13Z</time></trkpt>
<trkpt lat="46.226990000" lon="7.453130000"><ele></ele><time>2013-8-8T1:59:16Z</time></trkpt>
<trkpt lat="46.227020000" lon="7.453010000"><ele></ele><time>2013-8-8T1:59:19Z</time></trkpt>
<trkpt lat="46.227080000" lon="7.452910000"><ele></ele><time>2013-8-8T1:59:22Z</time></trkpt>
<trkpt lat="46.227140000" lon="7.452800000"><ele></ele><time>2013-8-8T1:59:25Z</time></trkpt>
<trkpt lat="46.227200000" lon="7.452700000"><ele></ele><time>2013-8-8T1:59:28Z</time></trkpt>
<trkpt lat="46.227260000" lon="7.452590000"><ele></ele><time>2013-8-8T1:59:31Z</time></trkpt>
<trkpt lat="46.227300000" lon="7.452460000"><ele></ele><time>2013-8-8T1:59:34Z</time></trkpt>
<trkpt lat="46.227340000" lon="7.452340000"><ele></ele><time>2013-8-8T1:59:37Z</time></trkpt>
<trkpt lat="46.227380000" lon="7.452210000"><ele></ele><time>2013-8-8T1:59:40Z</time></trkpt>
<trkpt lat="46.227410000" lon="7.452070000"><ele></ele><time>2013-8-8T1:59:43Z</time></trkpt>
<trkpt lat="46.227450000" lon="7.451950000"><ele></ele><time>2013-8-8T1:59:46Z</time></trkpt>
<trkpt lat="46.227500000" lon="7.451820000"><ele></ele><time>2013-8-8T1:59:49Z</time></trkpt>
<trkpt lat="46.227540000" lon="7.451700000"><ele></ele><time>2013-8-8T1:59:52Z</time></trkpt>
<trkpt lat="46.227590000" lon="7.451580000"><ele></ele><time>2013-8-8T1:59:55Z</time></trkpt>
<trkpt lat="46.227690000" lon="7.451330000"><ele></ele><time>2013-8-8T1:59:58Z</time></trkpt>
<trkpt lat="46.227900000" lon="7.450860000"><ele></ele><time>2013-8-8T2:0:1Z</time></trkpt>
<trkpt lat="46.227940000" lon="7.450690000"><ele></ele><time>2013-8-8T2:0:4Z</time></trkpt>
<trkpt lat="46.227940000" lon="7.450560000"><ele></ele><time>2013-8-8T2:0:7Z</time></trkpt>
<trkpt lat="46.227930000" lon="7.450420000"><ele></ele><time>2013-8-8T2:0:10Z</time></trkpt>
<trkpt lat="46.227910000" lon="7.450280000"><ele></ele><time>2013-8-8T2:0:13Z</time></trkpt>
<trkpt lat="46.227920000" lon="7.450140000"><ele></ele><time>2013-8-8T2:0:16Z</time></trkpt>
<trkpt lat="46.227940000" lon="7.450000000"><ele></ele><time>2013-8-8T2:0:19Z</time></trkpt>
<trkpt lat="46.227980000" lon="7.449870000"><ele></ele><time>2013-8-8T2:0:22Z</time></trkpt>
<trkpt lat="46.228020000" lon="7.449730000"><ele></ele><time>2013-8-8T2:0:25Z</time></trkpt>
<trkpt lat="46.228040000" lon="7.449600000"><ele></ele><time>2013-8-8T2:0:28Z</time></trkpt>
<trkpt lat="46.228060000" lon="7.449460000"><ele></ele><time>2013-8-8T2:0:31Z</time></trkpt>
<trkpt lat="46.228080000" lon="7.449320000"><ele></ele><time>2013-8-8T2:0:34Z</time></trkpt>
<trkpt lat="46.228090000" lon="7.449180000"><ele></ele><time>2013-8-8T2:0:37Z</time></trkpt>
<trkpt lat="46.228120000" lon="7.448980000"><ele></ele><time>2013-8-8T2:0:40Z</time></trkpt>
<trkpt lat="46.228160000" lon="7.448840000"><ele></ele><time>2013-8-8T2:0:43Z</time></trkpt>
<trkpt lat="46.228190000" lon="7.448700000"><ele></ele><time>2013-8-8T2:0:46Z</time></trkpt>
<trkpt lat="46.228190000" lon="7.448550000"><ele></ele><time>2013-8-8T2:0:49Z</time></trkpt>
<trkpt lat="46.228180000" lon="7.448410000"><ele></ele><time>2013-8-8T2:0:52Z</time></trkpt>
<trkpt lat="46.228160000" lon="7.448280000"><ele></ele><time>2013-8-8T2:0:55Z</time></trkpt>
<trkpt lat="46.228150000" lon="7.448150000"><ele></ele><time>2013-8-8T2:0:58Z</time></trkpt>
<trkpt lat="46.228130000" lon="7.448020000"><ele></ele><time>2013-8-8T2:1:1Z</time></trkpt>
<trkpt lat="46.228120000" lon="7.447900000"><ele></ele><time>2013-8-8T2:1:4Z</time></trkpt>
<trkpt lat="46.228100000" lon="7.447780000"><ele></ele><time>2013-8-8T2:1:7Z</time></trkpt>
<trkpt lat="46.228080000" lon="7.447670000"><ele></ele><time>2013-8-8T2:1:10Z</time></trkpt>
<trkpt lat="46.228070000" lon="7.447560000"><ele></ele><time>2013-8-8T2:1:13Z</time></trkpt>
<trkpt lat="46.228050000" lon="7.447450000"><ele></ele><time>2013-8-8T2:1:16Z</time></trkpt>
<trkpt lat="46.228030000" lon="7.447350000"><ele></ele><time>2013-8-8T2:1:19Z</time></trkpt>
<trkpt lat="46.228010000" lon="7.447230000"><ele></ele><time>2013-8-8T2:1:22Z</time></trkpt>
<trkpt lat="46.227990000" lon="7.447120000"><ele></ele><time>2013-8-8T2:1:25Z</time></trkpt>
<trkpt lat="46.227990000" lon="7.447000000"><ele></ele><time>2013-8-8T2:1:28Z</time></trkpt>
<trkpt lat="46.227970000" lon="7.446880000"><ele></ele><time>2013-8-8T2:1:31Z</time></trkpt>
<trkpt lat="46.227970000" lon="7.446750000"><ele></ele><time>2013-8-8T2:1:34Z</time></trkpt>
<trkpt lat="46.227960000" lon="7.446630000"><ele></ele><time>2013-8-8T2:1:37Z</time></trkpt>
<trkpt lat="46.227950000" lon="7.446520000"><ele></ele><time>2013-8-8T2:1:40Z</time></trkpt>
<trkpt lat="46.227940000" lon="7.446410000"><ele></ele><time>2013-8-8T2:1:43Z</time></trkpt>
<trkpt lat="46.227910000" lon="7.446320000"><ele></ele><time>2013-8-8T2:1:46Z</time></trkpt>
<trkpt lat="46.227890000" lon="7.446230000"><ele></ele><time>2013-8-8T2:1:49Z</time></trkpt>
<trkpt lat="46.227870000" lon="7.446140000"><ele></ele><time>2013-8-8T2:1:52Z</time></trkpt>
<trkpt lat="46.227840000" lon="7.446040000"><ele></ele><time>2013-8-8T2:1:55Z</time></trkpt>
<trkpt lat="46.227830000" lon="7.445920000"><ele></ele><time>2013-8-8T2:1:58Z</time></trkpt>
<trkpt lat="46.227840000" lon="7.445800000"><ele></ele><time>2013-8-8T2:2:1Z</time></trkpt>
<trkpt lat="46.227860000" lon="7.445670000"><ele></ele><time>2013-8-8T2:2:4Z</time></trkpt>
<trkpt lat="46.227890000" lon="7.445540000"><ele></ele><time>2013-8-8T2:2:7Z</time></trkpt>
<trkpt lat="46.227930000" lon="7.445410000"><ele></ele><time>2013-8-8T2:2:10Z</time></trkpt>
<trkpt lat="46.227970000" lon="7.445280000"><ele></ele><time>2013-8-8T2:2:13Z</time></trkpt>
<trkpt lat="46.228000000" lon="7.445160000"><ele></ele><time>2013-8-8T2:2:16Z</time></trkpt>
<trkpt lat="46.228030000" lon="7.445050000"><ele></ele><time>2013-8-8T2:2:19Z</time></trkpt>
<trkpt lat="46.228070000" lon="7.444930000"><ele></ele><time>2013-8-8T2:2:22Z</time></trkpt>
<trkpt lat="46.228090000" lon="7.444810000"><ele></ele><time>2013-8-8T2:2:25Z</time></trkpt>
<trkpt lat="46.228120000" lon="7.444680000"><ele></ele><time>2013-8-8T2:2:28Z</time></trkpt>
<trkpt lat="46.228130000" lon="7.444550000"><ele></ele><time>2013-8-8T2:2:31Z</time></trkpt>
<trkpt lat="46.228150000" lon="7.444430000"><ele></ele><time>2013-8-8T2:2:34Z</time></trkpt>
<trkpt lat="46.228170000" lon="7.444290000"><ele></ele><time>2013-8-8T2:2:37Z</time></trkpt>
<trkpt lat="46.228180000" lon="7.444150000"><ele></ele><time>2013-8-8T2:2:40Z</time></trkpt>
<trkpt lat="46.228200000" lon="7.443990000"><ele></ele><time>2013-8-8T2:2:43Z</time></trkpt>
<trkpt lat="46.228210000" lon="7.443840000"><ele></ele><time>2013-8-8T2:2:46Z</time></trkpt>
<trkpt lat="46.228230000" lon="7.443680000"><ele></ele><time>2013-8-8T2:2:49Z</time></trkpt>
<trkpt lat="46.228240000" lon="7.443520000"><ele></ele><time>2013-8-8T2:2:52Z</time></trkpt>
<trkpt lat="46.228250000" lon="7.443350000"><ele></ele><time>2013-8-8T2:2:55Z</time></trkpt>
<trkpt lat="46.228270000" lon="7.443180000"><ele></ele><time>2013-8-8T2:2:58Z</time></trkpt>
<trkpt lat="46.228280000" lon="7.443020000"><ele></ele><time>2013-8-8T2:3:1Z</time></trkpt>
<trkpt lat="46.228290000" lon="7.442870000"><ele></ele><time>2013-8-8T2:3:4Z</time></trkpt>
<trkpt lat="46.228300000" lon="7.442720000"><ele></ele><time>2013-8-8T2:3:7Z</time></trkpt>
<trkpt lat="46.228310000" lon="7.442600000"><ele></ele><time>2013-8-8T2:3:10Z</time></trkpt>
<trkpt lat="46.228320000" lon="7.442490000"><ele></ele><time>2013-8-8T2:3:13Z</time></trkpt>
<trkpt lat="46.228330000" lon="7.442370000"><ele></ele><time>2013-8-8T2:3:16Z</time></trkpt>
<trkpt lat="46.228340000" lon="7.442250000"><ele></ele><time>2013-8-8T2:3:19Z</time></trkpt>
<trkpt lat="46.228340000" lon="7.442120000"><ele></ele><time>2013-8-8T2:3:22Z</time></trkpt>
<trkpt lat="46.228350000" lon="7.441980000"><ele></ele><time>2013-8-8T2:3:25Z</time></trkpt>
<trkpt lat="46.228340000" lon="7.441840000"><ele></ele><time>2013-8-8T2:3:28Z</time></trkpt>
<trkpt lat="46.228320000" lon="7.441700000"><ele></ele><time>2013-8-8T2:3:31Z</time></trkpt>
<trkpt lat="46.228300000" lon="7.441560000"><ele></ele><time>2013-8-8T2:3:34Z</time></trkpt>
<trkpt lat="46.228290000" lon="7.441400000"><ele></ele><time>2013-8-8T2:3:37Z</time></trkpt>
<trkpt lat="46.228290000" lon="7.441230000"><ele></ele><time>2013-8-8T2:3:40Z</time></trkpt>
<trkpt lat="46.228300000" lon="7.441060000"><ele></ele><time>2013-8-8T2:3:43Z</time></trkpt>
<trkpt lat="46.228320000" lon="7.440890000"><ele></ele><time>2013-8-8T2:3:46Z</time></trkpt>
<trkpt lat="46.228340000" lon="7.440720000"><ele></ele><time>2013-8-8T2:3:49Z</time></trkpt>
<trkpt lat="46.228340000" lon="7.440540000"><ele></ele><time>2013-8-8T2:3:52Z</time></trkpt>
<trkpt lat="46.228360000" lon="7.440380000"><ele></ele><time>2013-8-8T2:3:55Z</time></trkpt>
<trkpt lat="46.228370000" lon="7.440220000"><ele></ele><time>2013-8-8T2:3:58Z</time></trkpt>
<trkpt lat="46.228380000" lon="7.440070000"><ele></ele><time>2013-8-8T2:4:1Z</time></trkpt>
<trkpt lat="46.228390000" lon="7.439910000"><ele></ele><time>2013-8-8T2:4:4Z</time></trkpt>
<trkpt lat="46.228400000" lon="7.439770000"><ele></ele><time>2013-8-8T2:4:7Z</time></trkpt>
<trkpt lat="46.228420000" lon="7.439620000"><ele></ele><time>2013-8-8T2:4:10Z</time></trkpt>
<trkpt lat="46.228460000" lon="7.439480000"><ele></ele><time>2013-8-8T2:4:13Z</time></trkpt>
<trkpt lat="46.228500000" lon="7.439340000"><ele></ele><time>2013-8-8T2:4:16Z</time></trkpt>
<trkpt lat="46.228550000" lon="7.439210000"><ele></ele><time>2013-8-8T2:4:19Z</time></trkpt>
<trkpt lat="46.228580000" lon="7.439090000"><ele></ele><time>2013-8-8T2:4:22Z</time></trkpt>
<trkpt lat="46.228610000" lon="7.438960000"><ele></ele><time>2013-8-8T2:4:25Z</time></trkpt>
<trkpt lat="46.228630000" lon="7.438830000"><ele></ele><time>2013-8-8T2:4:28Z</time></trkpt>
<trkpt lat="46.228640000" lon="7.438690000"><ele></ele><time>2013-8-8T2:4:31Z</time></trkpt>
<trkpt lat="46.228650000" lon="7.438540000"><ele></ele><time>2013-8-8T2:4:34Z</time></trkpt>
<trkpt lat="46.228660000" lon="7.438390000"><ele></ele><time>2013-8-8T2:4:37Z</time></trkpt>
<trkpt lat="46.228660000" lon="7.438230000"><ele></ele><time>2013-8-8T2:4:40Z</time></trkpt>
<trkpt lat="46.228660000" lon="7.438080000"><ele></ele><time>2013-8-8T2:4:43Z</time></trkpt>
<trkpt lat="46.228680000" lon="7.437930000"><ele></ele><time>2013-8-8T2:4:46Z</time></trkpt>
<trkpt lat="46.228700000" lon="7.437790000"><ele></ele><time>2013-8-8T2:4:49Z</time></trkpt>
<trkpt lat="46.228730000" lon="7.437650000"><ele></ele><time>2013-8-8T2:4:52Z</time></trkpt>
<trkpt lat="46.228760000" lon="7.437520000"><ele></ele><time>2013-8-8T2:4:55Z</time></trkpt>
<trkpt lat="46.228780000" lon="7.437380000"><ele></ele><time>2013-8-8T2:4:58Z</time></trkpt>
<trkpt lat="46.228810000" lon="7.437240000"><ele></ele><time>2013-8-8T2:5:1Z</time></trkpt>
<trkpt lat="46.228810000" lon="7.437100000"><ele></ele><time>2013-8-8T2:5:4Z</time></trkpt>
<trkpt lat="46.228820000" lon="7.436950000"><ele></ele><time>2013-8-8T2:5:7Z</time></trkpt>
<trkpt lat="46.228820000" lon="7.436800000"><ele></ele><time>2013-8-8T2:5:10Z</time></trkpt>
<trkpt lat="46.228810000" lon="7.436650000"><ele></ele><time>2013-8-8T2:5:13Z</time></trkpt>
<trkpt lat="46.228800000" lon="7.436500000"><ele></ele><time>2013-8-8T2:5:16Z</time></trkpt>
<trkpt lat="46.228780000" lon="7.436350000"><ele></ele><time>2013-8-8T2:5:19Z</time></trkpt>
<trkpt lat="46.228750000" lon="7.436190000"><ele></ele><time>2013-8-8T2:5:22Z</time></trkpt>
<trkpt lat="46.228740000" lon="7.436020000"><ele></ele><time>2013-8-8T2:5:25Z</time></trkpt>
<trkpt lat="46.228730000" lon="7.435860000"><ele></ele><time>2013-8-8T2:5:28Z</time></trkpt>
<trkpt lat="46.228730000" lon="7.435690000"><ele></ele><time>2013-8-8T2:5:31Z</time></trkpt>
<trkpt lat="46.228730000" lon="7.435520000"><ele></ele><time>2013-8-8T2:5:34Z</time></trkpt>
<trkpt lat="46.228740000" lon="7.435360000"><ele></ele><time>2013-8-8T2:5:37Z</time></trkpt>
<trkpt lat="46.228740000" lon="7.435180000"><ele></ele><time>2013-8-8T2:5:40Z</time></trkpt>
<trkpt lat="46.228740000" lon="7.435010000"><ele></ele><time>2013-8-8T2:5:43Z</time></trkpt>
<trkpt lat="46.228740000" lon="7.434820000"><ele></ele><time>2013-8-8T2:5:46Z</time></trkpt>
<trkpt lat="46.228740000" lon="7.434640000"><ele></ele><time>2013-8-8T2:5:49Z</time></trkpt>
<trkpt lat="46.228730000" lon="7.434470000"><ele></ele><time>2013-8-8T2:5:52Z</time></trkpt>
<trkpt lat="46.228710000" lon="7.434300000"><ele></ele><time>2013-8-8T2:5:55Z</time></trkpt>
<trkpt lat="46.228680000" lon="7.434130000"><ele></ele><time>2013-8-8T2:5:58Z</time></trkpt>
<trkpt lat="46.228650000" lon="7.433970000"><ele></ele><time>2013-8-8T2:6:1Z</time></trkpt>
<trkpt lat="46.228610000" lon="7.433640000"><ele></ele><time>2013-8-8T2:6:4Z</time></trkpt>
<trkpt lat="46.228610000" lon="7.433640000"><ele></ele><time>2013-8-8T2:6:7Z</time></trkpt>
<trkpt lat="46.228590000" lon="7.433480000"><ele></ele><time>2013-8-8T2:6:10Z</time></trkpt>
<trkpt lat="46.228580000" lon="7.433310000"><ele></ele><time>2013-8-8T2:6:13Z</time></trkpt>
<trkpt lat="46.228560000" lon="7.433140000"><ele></ele><time>2013-8-8T2:6:16Z</time></trkpt>
<trkpt lat="46.228560000" lon="7.432980000"><ele></ele><time>2013-8-8T2:6:19Z</time></trkpt>
<trkpt lat="46.228550000" lon="7.432810000"><ele></ele><time>2013-8-8T2:6:22Z</time></trkpt>
<trkpt lat="46.228550000" lon="7.432660000"><ele></ele><time>2013-8-8T2:6:25Z</time></trkpt>
<trkpt lat="46.228540000" lon="7.432500000"><ele></ele><time>2013-8-8T2:6:28Z</time></trkpt>
<trkpt lat="46.228530000" lon="7.432340000"><ele></ele><time>2013-8-8T2:6:31Z</time></trkpt>
<trkpt lat="46.228520000" lon="7.432190000"><ele></ele><time>2013-8-8T2:6:34Z</time></trkpt>
<trkpt lat="46.228450000" lon="7.431640000"><ele></ele><time>2013-8-8T2:6:37Z</time></trkpt>
<trkpt lat="46.228460000" lon="7.431280000"><ele></ele><time>2013-8-8T2:6:40Z</time></trkpt>
<trkpt lat="46.228420000" lon="7.430910000"><ele></ele><time>2013-8-8T2:6:43Z</time></trkpt>
<trkpt lat="46.228410000" lon="7.430790000"><ele></ele><time>2013-8-8T2:6:46Z</time></trkpt>
<trkpt lat="46.228410000" lon="7.430680000"><ele></ele><time>2013-8-8T2:6:49Z</time></trkpt>
<trkpt lat="46.228420000" lon="7.430580000"><ele></ele><time>2013-8-8T2:6:52Z</time></trkpt>
<trkpt lat="46.228430000" lon="7.430470000"><ele></ele><time>2013-8-8T2:6:55Z</time></trkpt>
<trkpt lat="46.228440000" lon="7.430360000"><ele></ele><time>2013-8-8T2:6:58Z</time></trkpt>
<trkpt lat="46.228450000" lon="7.430250000"><ele></ele><time>2013-8-8T2:7:1Z</time></trkpt>
<trkpt lat="46.228450000" lon="7.430130000"><ele></ele><time>2013-8-8T2:7:4Z</time></trkpt>
<trkpt lat="46.228450000" lon="7.430020000"><ele></ele><time>2013-8-8T2:7:7Z</time></trkpt>
<trkpt lat="46.228450000" lon="7.429910000"><ele></ele><time>2013-8-8T2:7:10Z</time></trkpt>
<trkpt lat="46.228450000" lon="7.429790000"><ele></ele><time>2013-8-8T2:7:13Z</time></trkpt>
<trkpt lat="46.228450000" lon="7.429670000"><ele></ele><time>2013-8-8T2:7:16Z</time></trkpt>
<trkpt lat="46.228450000" lon="7.429550000"><ele></ele><time>2013-8-8T2:7:19Z</time></trkpt>
<trkpt lat="46.228450000" lon="7.429430000"><ele></ele><time>2013-8-8T2:7:22Z</time></trkpt>
<trkpt lat="46.228450000" lon="7.429320000"><ele></ele><time>2013-8-8T2:7:25Z</time></trkpt>
<trkpt lat="46.228450000" lon="7.429210000"><ele></ele><time>2013-8-8T2:7:28Z</time></trkpt>
<trkpt lat="46.228450000" lon="7.429100000"><ele></ele><time>2013-8-8T2:7:31Z</time></trkpt>
<trkpt lat="46.228440000" lon="7.429000000"><ele></ele><time>2013-8-8T2:7:34Z</time></trkpt>
<trkpt lat="46.228440000" lon="7.428890000"><ele></ele><time>2013-8-8T2:7:37Z</time></trkpt>
<trkpt lat="46.228430000" lon="7.428790000"><ele></ele><time>2013-8-8T2:7:40Z</time></trkpt>
<trkpt lat="46.228400000" lon="7.428700000"><ele></ele><time>2013-8-8T2:7:43Z</time></trkpt>
<trkpt lat="46.228380000" lon="7.428600000"><ele></ele><time>2013-8-8T2:7:46Z</time></trkpt>
<trkpt lat="46.228360000" lon="7.428500000"><ele></ele><time>2013-8-8T2:7:49Z</time></trkpt>
<trkpt lat="46.228350000" lon="7.428400000"><ele></ele><time>2013-8-8T2:7:52Z</time></trkpt>
<trkpt lat="46.228320000" lon="7.428300000"><ele></ele><time>2013-8-8T2:7:55Z</time></trkpt>
<trkpt lat="46.228280000" lon="7.428230000"><ele></ele><time>2013-8-8T2:7:58Z</time></trkpt>
<trkpt lat="46.228230000" lon="7.428090000"><ele></ele><time>2013-8-8T2:8:1Z</time></trkpt>
<trkpt lat="46.228210000" lon="7.428030000"><ele></ele><time>2013-8-8T2:8:4Z</time></trkpt>
<trkpt lat="46.228190000" lon="7.427980000"><ele></ele><time>2013-8-8T2:8:7Z</time></trkpt>
<trkpt lat="46.228180000" lon="7.427920000"><ele></ele><time>2013-8-8T2:8:10Z</time></trkpt>
<trkpt lat="46.228160000" lon="7.427860000"><ele></ele><time>2013-8-8T2:8:13Z</time></trkpt>
<trkpt lat="46.228140000" lon="7.427820000"><ele></ele><time>2013-8-8T2:8:16Z</time></trkpt>
<trkpt lat="46.228120000" lon="7.427770000"><ele></ele><time>2013-8-8T2:8:19Z</time></trkpt>
<trkpt lat="46.228110000" lon="7.427720000"><ele></ele><time>2013-8-8T2:8:22Z</time></trkpt>
<trkpt lat="46.228100000" lon="7.427680000"><ele></ele><time>2013-8-8T2:8:25Z</time></trkpt>
<trkpt lat="46.228090000" lon="7.427620000"><ele></ele><time>2013-8-8T2:8:28Z</time></trkpt>
<trkpt lat="46.228080000" lon="7.427580000"><ele></ele><time>2013-8-8T2:8:31Z</time></trkpt>
<trkpt lat="46.228060000" lon="7.427540000"><ele></ele><time>2013-8-8T2:8:34Z</time></trkpt>
<trkpt lat="46.228040000" lon="7.427490000"><ele></ele><time>2013-8-8T2:8:37Z</time></trkpt>
<trkpt lat="46.228020000" lon="7.427450000"><ele></ele><time>2013-8-8T2:8:40Z</time></trkpt>
<trkpt lat="46.228000000" lon="7.427410000"><ele></ele><time>2013-8-8T2:8:43Z</time></trkpt>
<trkpt lat="46.227980000" lon="7.427370000"><ele></ele><time>2013-8-8T2:8:46Z</time></trkpt>
<trkpt lat="46.227960000" lon="7.427330000"><ele></ele><time>2013-8-8T2:8:49Z</time></trkpt>
<trkpt lat="46.227930000" lon="7.427260000"><ele></ele><time>2013-8-8T2:8:52Z</time></trkpt>
<trkpt lat="46.227920000" lon="7.427220000"><ele></ele><time>2013-8-8T2:8:55Z</time></trkpt>
<trkpt lat="46.227910000" lon="7.427170000"><ele></ele><time>2013-8-8T2:8:58Z</time></trkpt>
<trkpt lat="46.227890000" lon="7.427140000"><ele></ele><time>2013-8-8T2:9:1Z</time></trkpt>
<trkpt lat="46.227880000" lon="7.427100000"><ele></ele><time>2013-8-8T2:9:4Z</time></trkpt>
<trkpt lat="46.227870000" lon="7.427060000"><ele></ele><time>2013-8-8T2:9:7Z</time></trkpt>
<trkpt lat="46.227850000" lon="7.426990000"><ele></ele><time>2013-8-8T2:9:10Z</time></trkpt>
<trkpt lat="46.227830000" lon="7.426960000"><ele></ele><time>2013-8-8T2:9:13Z</time></trkpt>
<trkpt lat="46.227820000" lon="7.426920000"><ele></ele><time>2013-8-8T2:9:16Z</time></trkpt>
<trkpt lat="46.227800000" lon="7.426880000"><ele></ele><time>2013-8-8T2:9:19Z</time></trkpt>
<trkpt lat="46.227750000" lon="7.426760000"><ele></ele><time>2013-8-8T2:9:22Z</time></trkpt>
<trkpt lat="46.227730000" lon="7.426730000"><ele></ele><time>2013-8-8T2:9:25Z</time></trkpt>
<trkpt lat="46.227720000" lon="7.426700000"><ele></ele><time>2013-8-8T2:9:28Z</time></trkpt>
<trkpt lat="46.227710000" lon="7.426670000"><ele></ele><time>2013-8-8T2:9:31Z</time></trkpt>
<trkpt lat="46.227690000" lon="7.426640000"><ele></ele><time>2013-8-8T2:9:34Z</time></trkpt>
<trkpt lat="46.227660000" lon="7.426550000"><ele></ele><time>2013-8-8T2:9:37Z</time></trkpt>
<trkpt lat="46.227590000" lon="7.426380000"><ele></ele><time>2013-8-8T2:9:40Z</time></trkpt>
<trkpt lat="46.227570000" lon="7.426340000"><ele></ele><time>2013-8-8T2:9:43Z</time></trkpt>
<trkpt lat="46.227560000" lon="7.426310000"><ele></ele><time>2013-8-8T2:9:46Z</time></trkpt>
<trkpt lat="46.227550000" lon="7.426280000"><ele></ele><time>2013-8-8T2:9:49Z</time></trkpt>
<trkpt lat="46.227540000" lon="7.426240000"><ele></ele><time>2013-8-8T2:9:52Z</time></trkpt>
<trkpt lat="46.227520000" lon="7.426140000"><ele></ele><time>2013-8-8T2:9:55Z</time></trkpt>
<trkpt lat="46.227510000" lon="7.426100000"><ele></ele><time>2013-8-8T2:9:58Z</time></trkpt>
<trkpt lat="46.227510000" lon="7.426070000"><ele></ele><time>2013-8-8T2:10:1Z</time></trkpt>
<trkpt lat="46.227500000" lon="7.426030000"><ele></ele><time>2013-8-8T2:10:4Z</time></trkpt>
<trkpt lat="46.227490000" lon="7.425940000"><ele></ele><time>2013-8-8T2:10:7Z</time></trkpt>
<trkpt lat="46.227480000" lon="7.425910000"><ele></ele><time>2013-8-8T2:10:10Z</time></trkpt>
<trkpt lat="46.227470000" lon="7.425880000"><ele></ele><time>2013-8-8T2:10:13Z</time></trkpt>
<trkpt lat="46.227470000" lon="7.425850000"><ele></ele><time>2013-8-8T2:10:16Z</time></trkpt>
<trkpt lat="46.227470000" lon="7.425820000"><ele></ele><time>2013-8-8T2:10:19Z</time></trkpt>
<trkpt lat="46.227450000" lon="7.425750000"><ele></ele><time>2013-8-8T2:10:22Z</time></trkpt>
<trkpt lat="46.227450000" lon="7.425720000"><ele></ele><time>2013-8-8T2:10:25Z</time></trkpt>
<trkpt lat="46.227440000" lon="7.425690000"><ele></ele><time>2013-8-8T2:10:28Z</time></trkpt>
<trkpt lat="46.227440000" lon="7.425660000"><ele></ele><time>2013-8-8T2:10:31Z</time></trkpt>
<trkpt lat="46.227430000" lon="7.425630000"><ele></ele><time>2013-8-8T2:10:34Z</time></trkpt>
<trkpt lat="46.227420000" lon="7.425590000"><ele></ele><time>2013-8-8T2:10:37Z</time></trkpt>
<trkpt lat="46.227410000" lon="7.425510000"><ele></ele><time>2013-8-8T2:10:40Z</time></trkpt>
<trkpt lat="46.227380000" lon="7.425420000"><ele></ele><time>2013-8-8T2:10:43Z</time></trkpt>
<trkpt lat="46.227370000" lon="7.425390000"><ele></ele><time>2013-8-8T2:10:46Z</time></trkpt>
<trkpt lat="46.227360000" lon="7.425360000"><ele></ele><time>2013-8-8T2:10:49Z</time></trkpt>
<trkpt lat="46.227340000" lon="7.425330000"><ele></ele><time>2013-8-8T2:10:52Z</time></trkpt>
<trkpt lat="46.227320000" lon="7.425280000"><ele></ele><time>2013-8-8T2:10:55Z</time></trkpt>
<trkpt lat="46.227300000" lon="7.425250000"><ele></ele><time>2013-8-8T2:10:58Z</time></trkpt>
<trkpt lat="46.227280000" lon="7.425230000"><ele></ele><time>2013-8-8T2:11:1Z</time></trkpt>
<trkpt lat="46.227270000" lon="7.425210000"><ele></ele><time>2013-8-8T2:11:4Z</time></trkpt>
<trkpt lat="46.227250000" lon="7.425190000"><ele></ele><time>2013-8-8T2:11:7Z</time></trkpt>
<trkpt lat="46.227230000" lon="7.425180000"><ele></ele><time>2013-8-8T2:11:10Z</time></trkpt>
<trkpt lat="46.227190000" lon="7.425140000"><ele></ele><time>2013-8-8T2:11:13Z</time></trkpt>
<trkpt lat="46.227110000" lon="7.425090000"><ele></ele><time>2013-8-8T2:11:16Z</time></trkpt>
<trkpt lat="46.227090000" lon="7.425080000"><ele></ele><time>2013-8-8T2:11:19Z</time></trkpt>
<trkpt lat="46.227070000" lon="7.425070000"><ele></ele><time>2013-8-8T2:11:22Z</time></trkpt>
<trkpt lat="46.227050000" lon="7.425060000"><ele></ele><time>2013-8-8T2:11:25Z</time></trkpt>
<trkpt lat="46.227030000" lon="7.425050000"><ele></ele><time>2013-8-8T2:11:28Z</time></trkpt>
<trkpt lat="46.226920000" lon="7.425000000"><ele></ele><time>2013-8-8T2:11:31Z</time></trkpt>
<trkpt lat="46.226910000" lon="7.424990000"><ele></ele><time>2013-8-8T2:11:34Z</time></trkpt>
<trkpt lat="46.226890000" lon="7.424980000"><ele></ele><time>2013-8-8T2:11:37Z</time></trkpt>
<trkpt lat="46.226870000" lon="7.424970000"><ele></ele><time>2013-8-8T2:11:40Z</time></trkpt>
<trkpt lat="46.226840000" lon="7.424960000"><ele></ele><time>2013-8-8T2:11:43Z</time></trkpt>
<trkpt lat="46.226700000" lon="7.424890000"><ele></ele><time>2013-8-8T2:11:46Z</time></trkpt>
<trkpt lat="46.226620000" lon="7.424850000"><ele></ele><time>2013-8-8T2:11:49Z</time></trkpt>
<trkpt lat="46.226600000" lon="7.424850000"><ele></ele><time>2013-8-8T2:11:52Z</time></trkpt>
<trkpt lat="46.226580000" lon="7.424850000"><ele></ele><time>2013-8-8T2:11:55Z</time></trkpt>
<trkpt lat="46.226550000" lon="7.424850000"><ele></ele><time>2013-8-8T2:11:58Z</time></trkpt>
<trkpt lat="46.226530000" lon="7.424860000"><ele></ele><time>2013-8-8T2:12:1Z</time></trkpt>
<trkpt lat="46.226410000" lon="7.424920000"><ele></ele><time>2013-8-8T2:12:4Z</time></trkpt>
<trkpt lat="46.226340000" lon="7.425060000"><ele></ele><time>2013-8-8T2:12:7Z</time></trkpt>
<trkpt lat="46.226320000" lon="7.425110000"><ele></ele><time>2013-8-8T2:12:10Z</time></trkpt>
<trkpt lat="46.226260000" lon="7.425410000"><ele></ele><time>2013-8-8T2:12:13Z</time></trkpt>
<trkpt lat="46.226240000" lon="7.425560000"><ele></ele><time>2013-8-8T2:12:16Z</time></trkpt>
<trkpt lat="46.226200000" lon="7.425740000"><ele></ele><time>2013-8-8T2:12:19Z</time></trkpt>
<trkpt lat="46.226170000" lon="7.425830000"><ele></ele><time>2013-8-8T2:12:22Z</time></trkpt>
<trkpt lat="46.226140000" lon="7.425910000"><ele></ele><time>2013-8-8T2:12:25Z</time></trkpt>
<trkpt lat="46.226100000" lon="7.425990000"><ele></ele><time>2013-8-8T2:12:28Z</time></trkpt>
<trkpt lat="46.226050000" lon="7.426060000"><ele></ele><time>2013-8-8T2:12:31Z</time></trkpt>
<trkpt lat="46.226000000" lon="7.426130000"><ele></ele><time>2013-8-8T2:12:34Z</time></trkpt>
<trkpt lat="46.225940000" lon="7.426190000"><ele></ele><time>2013-8-8T2:12:37Z</time></trkpt>
<trkpt lat="46.225890000" lon="7.426250000"><ele></ele><time>2013-8-8T2:12:40Z</time></trkpt>
<trkpt lat="46.225830000" lon="7.426320000"><ele></ele><time>2013-8-8T2:12:43Z</time></trkpt>
<trkpt lat="46.225640000" lon="7.426520000"><ele></ele><time>2013-8-8T2:12:46Z</time></trkpt>
<trkpt lat="46.225560000" lon="7.426560000"><ele></ele><time>2013-8-8T2:12:49Z</time></trkpt>
<trkpt lat="46.225470000" lon="7.426580000"><ele></ele><time>2013-8-8T2:12:52Z</time></trkpt>
<trkpt lat="46.225390000" lon="7.426610000"><ele></ele><time>2013-8-8T2:12:55Z</time></trkpt>
<trkpt lat="46.225300000" lon="7.426630000"><ele></ele><time>2013-8-8T2:12:58Z</time></trkpt>
<trkpt lat="46.225220000" lon="7.426650000"><ele></ele><time>2013-8-8T2:13:1Z</time></trkpt>
<trkpt lat="46.225130000" lon="7.426670000"><ele></ele><time>2013-8-8T2:13:4Z</time></trkpt>
<trkpt lat="46.225040000" lon="7.426690000"><ele></ele><time>2013-8-8T2:13:7Z</time></trkpt>
<trkpt lat="46.224960000" lon="7.426700000"><ele></ele><time>2013-8-8T2:13:10Z</time></trkpt>
<trkpt lat="46.224880000" lon="7.426710000"><ele></ele><time>2013-8-8T2:13:13Z</time></trkpt>
<trkpt lat="46.224790000" lon="7.426700000"><ele></ele><time>2013-8-8T2:13:16Z</time></trkpt>
<trkpt lat="46.224700000" lon="7.426680000"><ele></ele><time>2013-8-8T2:13:19Z</time></trkpt>
<trkpt lat="46.224610000" lon="7.426610000"><ele></ele><time>2013-8-8T2:13:22Z</time></trkpt>
<trkpt lat="46.224520000" lon="7.426540000"><ele></ele><time>2013-8-8T2:13:25Z</time></trkpt>
<trkpt lat="46.224430000" lon="7.426510000"><ele></ele><time>2013-8-8T2:13:28Z</time></trkpt>
<trkpt lat="46.224330000" lon="7.426520000"><ele></ele><time>2013-8-8T2:13:31Z</time></trkpt>
<trkpt lat="46.224240000" lon="7.426550000"><ele></ele><time>2013-8-8T2:13:34Z</time></trkpt>
<trkpt lat="46.224140000" lon="7.426580000"><ele></ele><time>2013-8-8T2:13:37Z</time></trkpt>
<trkpt lat="46.224040000" lon="7.426610000"><ele></ele><time>2013-8-8T2:13:40Z</time></trkpt>
<trkpt lat="46.223950000" lon="7.426630000"><ele></ele><time>2013-8-8T2:13:43Z</time></trkpt>
<trkpt lat="46.223840000" lon="7.426650000"><ele></ele><time>2013-8-8T2:13:46Z</time></trkpt>
<trkpt lat="46.223740000" lon="7.426680000"><ele></ele><time>2013-8-8T2:13:49Z</time></trkpt>
<trkpt lat="46.223640000" lon="7.426710000"><ele></ele><time>2013-8-8T2:13:52Z</time></trkpt>
<trkpt lat="46.223540000" lon="7.426740000"><ele></ele><time>2013-8-8T2:13:55Z</time></trkpt>
<trkpt lat="46.223440000" lon="7.426780000"><ele></ele><time>2013-8-8T2:13:58Z</time></trkpt>
<trkpt lat="46.223330000" lon="7.426800000"><ele></ele><time>2013-8-8T2:14:1Z</time></trkpt>
<trkpt lat="46.223220000" lon="7.426830000"><ele></ele><time>2013-8-8T2:14:4Z</time></trkpt>
<trkpt lat="46.223120000" lon="7.426850000"><ele></ele><time>2013-8-8T2:14:7Z</time></trkpt>
<trkpt lat="46.223010000" lon="7.426870000"><ele></ele><time>2013-8-8T2:14:10Z</time></trkpt>
<trkpt lat="46.222910000" lon="7.426890000"><ele></ele><time>2013-8-8T2:14:13Z</time></trkpt>
<trkpt lat="46.222810000" lon="7.426920000"><ele></ele><time>2013-8-8T2:14:16Z</time></trkpt>
<trkpt lat="46.222590000" lon="7.426980000"><ele></ele><time>2013-8-8T2:14:19Z</time></trkpt>
<trkpt lat="46.222480000" lon="7.427010000"><ele></ele><time>2013-8-8T2:14:22Z</time></trkpt>
<trkpt lat="46.222370000" lon="7.427060000"><ele></ele><time>2013-8-8T2:14:25Z</time></trkpt>
<trkpt lat="46.222270000" lon="7.427140000"><ele></ele><time>2013-8-8T2:14:28Z</time></trkpt>
<trkpt lat="46.222170000" lon="7.427230000"><ele></ele><time>2013-8-8T2:14:31Z</time></trkpt>
<trkpt lat="46.222070000" lon="7.427310000"><ele></ele><time>2013-8-8T2:14:34Z</time></trkpt>
<trkpt lat="46.221970000" lon="7.427380000"><ele></ele><time>2013-8-8T2:14:37Z</time></trkpt>
<trkpt lat="46.221860000" lon="7.427420000"><ele></ele><time>2013-8-8T2:14:40Z</time></trkpt>
<trkpt lat="46.221750000" lon="7.427440000"><ele></ele><time>2013-8-8T2:14:43Z</time></trkpt>
<trkpt lat="46.221630000" lon="7.427460000"><ele></ele><time>2013-8-8T2:14:46Z</time></trkpt>
<trkpt lat="46.221500000" lon="7.427490000"><ele></ele><time>2013-8-8T2:14:49Z</time></trkpt>
<trkpt lat="46.221380000" lon="7.427510000"><ele></ele><time>2013-8-8T2:14:52Z</time></trkpt>
<trkpt lat="46.221260000" lon="7.427520000"><ele></ele><time>2013-8-8T2:14:55Z</time></trkpt>
<trkpt lat="46.221140000" lon="7.427540000"><ele></ele><time>2013-8-8T2:14:58Z</time></trkpt>
<trkpt lat="46.221010000" lon="7.427570000"><ele></ele><time>2013-8-8T2:15:1Z</time></trkpt>
<trkpt lat="46.220890000" lon="7.427590000"><ele></ele><time>2013-8-8T2:15:4Z</time></trkpt>
<trkpt lat="46.220760000" lon="7.427610000"><ele></ele><time>2013-8-8T2:15:7Z</time></trkpt>
<trkpt lat="46.220630000" lon="7.427630000"><ele></ele><time>2013-8-8T2:15:10Z</time></trkpt>
<trkpt lat="46.220510000" lon="7.427660000"><ele></ele><time>2013-8-8T2:15:13Z</time></trkpt>
<trkpt lat="46.220380000" lon="7.427680000"><ele></ele><time>2013-8-8T2:15:16Z</time></trkpt>
<trkpt lat="46.220260000" lon="7.427690000"><ele></ele><time>2013-8-8T2:15:19Z</time></trkpt>
<trkpt lat="46.220130000" lon="7.427690000"><ele></ele><time>2013-8-8T2:15:22Z</time></trkpt>
<trkpt lat="46.220020000" lon="7.427680000"><ele></ele><time>2013-8-8T2:15:25Z</time></trkpt>
<trkpt lat="46.219900000" lon="7.427670000"><ele></ele><time>2013-8-8T2:15:28Z</time></trkpt>
<trkpt lat="46.219800000" lon="7.427670000"><ele></ele><time>2013-8-8T2:15:31Z</time></trkpt>
<trkpt lat="46.219690000" lon="7.427720000"><ele></ele><time>2013-8-8T2:15:34Z</time></trkpt>
<trkpt lat="46.219590000" lon="7.427780000"><ele></ele><time>2013-8-8T2:15:37Z</time></trkpt>
<trkpt lat="46.219480000" lon="7.427870000"><ele></ele><time>2013-8-8T2:15:40Z</time></trkpt>
<trkpt lat="46.219380000" lon="7.427960000"><ele></ele><time>2013-8-8T2:15:43Z</time></trkpt>
<trkpt lat="46.219280000" lon="7.428020000"><ele></ele><time>2013-8-8T2:15:46Z</time></trkpt>
<trkpt lat="46.219160000" lon="7.428030000"><ele></ele><time>2013-8-8T2:15:49Z</time></trkpt>
<trkpt lat="46.219030000" lon="7.428000000"><ele></ele><time>2013-8-8T2:15:52Z</time></trkpt>
<trkpt lat="46.218920000" lon="7.427940000"><ele></ele><time>2013-8-8T2:15:55Z</time></trkpt>
<trkpt lat="46.218810000" lon="7.427870000"><ele></ele><time>2013-8-8T2:15:58Z</time></trkpt>
<trkpt lat="46.218690000" lon="7.427820000"><ele></ele><time>2013-8-8T2:16:1Z</time></trkpt>
<trkpt lat="46.218570000" lon="7.427810000"><ele></ele><time>2013-8-8T2:16:4Z</time></trkpt>
<trkpt lat="46.218460000" lon="7.427820000"><ele></ele><time>2013-8-8T2:16:7Z</time></trkpt>
<trkpt lat="46.218350000" lon="7.427820000"><ele></ele><time>2013-8-8T2:16:10Z</time></trkpt>
<trkpt lat="46.218230000" lon="7.427810000"><ele></ele><time>2013-8-8T2:16:13Z</time></trkpt>
<trkpt lat="46.218120000" lon="7.427780000"><ele></ele><time>2013-8-8T2:16:16Z</time></trkpt>
<trkpt lat="46.217990000" lon="7.427750000"><ele></ele><time>2013-8-8T2:16:19Z</time></trkpt>
<trkpt lat="46.217870000" lon="7.427720000"><ele></ele><time>2013-8-8T2:16:22Z</time></trkpt>
<trkpt lat="46.217750000" lon="7.427690000"><ele></ele><time>2013-8-8T2:16:25Z</time></trkpt>
<trkpt lat="46.217620000" lon="7.427680000"><ele></ele><time>2013-8-8T2:16:28Z</time></trkpt>
<trkpt lat="46.217510000" lon="7.427680000"><ele></ele><time>2013-8-8T2:16:31Z</time></trkpt>
<trkpt lat="46.217390000" lon="7.427680000"><ele></ele><time>2013-8-8T2:16:34Z</time></trkpt>
<trkpt lat="46.217270000" lon="7.427660000"><ele></ele><time>2013-8-8T2:16:37Z</time></trkpt>
<trkpt lat="46.217160000" lon="7.427610000"><ele></ele><time>2013-8-8T2:16:40Z</time></trkpt>
<trkpt lat="46.217050000" lon="7.427550000"><ele></ele><time>2013-8-8T2:16:43Z</time></trkpt>
<trkpt lat="46.216950000" lon="7.427450000"><ele></ele><time>2013-8-8T2:16:46Z</time></trkpt>
<trkpt lat="46.216850000" lon="7.427350000"><ele></ele><time>2013-8-8T2:16:49Z</time></trkpt>
<trkpt lat="46.216740000" lon="7.427270000"><ele></ele><time>2013-8-8T2:16:52Z</time></trkpt>
<trkpt lat="46.216620000" lon="7.427220000"><ele></ele><time>2013-8-8T2:16:55Z</time></trkpt>
<trkpt lat="46.216500000" lon="7.427190000"><ele></ele><time>2013-8-8T2:16:58Z</time></trkpt>
<trkpt lat="46.216380000" lon="7.427120000"><ele></ele><time>2013-8-8T2:17:1Z</time></trkpt>
<trkpt lat="46.216270000" lon="7.427050000"><ele></ele><time>2013-8-8T2:17:4Z</time></trkpt>
<trkpt lat="46.216150000" lon="7.426970000"><ele></ele><time>2013-8-8T2:17:7Z</time></trkpt>
<trkpt lat="46.216050000" lon="7.426870000"><ele></ele><time>2013-8-8T2:17:10Z</time></trkpt>
<trkpt lat="46.215950000" lon="7.426740000"><ele></ele><time>2013-8-8T2:17:13Z</time></trkpt>
<trkpt lat="46.215860000" lon="7.426610000"><ele></ele><time>2013-8-8T2:17:16Z</time></trkpt>
<trkpt lat="46.215780000" lon="7.426490000"><ele></ele><time>2013-8-8T2:17:19Z</time></trkpt>
<trkpt lat="46.215700000" lon="7.426340000"><ele></ele><time>2013-8-8T2:17:22Z</time></trkpt>
<trkpt lat="46.215630000" lon="7.426170000"><ele></ele><time>2013-8-8T2:17:25Z</time></trkpt>
<trkpt lat="46.215570000" lon="7.426010000"><ele></ele><time>2013-8-8T2:17:28Z</time></trkpt>
<trkpt lat="46.215500000" lon="7.425860000"><ele></ele><time>2013-8-8T2:17:31Z</time></trkpt>
<trkpt lat="46.215410000" lon="7.425710000"><ele></ele><time>2013-8-8T2:17:34Z</time></trkpt>
<trkpt lat="46.215330000" lon="7.425560000"><ele></ele><time>2013-8-8T2:17:37Z</time></trkpt>
<trkpt lat="46.215270000" lon="7.425390000"><ele></ele><time>2013-8-8T2:17:40Z</time></trkpt>
<trkpt lat="46.215220000" lon="7.425210000"><ele></ele><time>2013-8-8T2:17:43Z</time></trkpt>
<trkpt lat="46.215160000" lon="7.425040000"><ele></ele><time>2013-8-8T2:17:46Z</time></trkpt>
<trkpt lat="46.215080000" lon="7.424890000"><ele></ele><time>2013-8-8T2:17:49Z</time></trkpt>
<trkpt lat="46.215010000" lon="7.424740000"><ele></ele><time>2013-8-8T2:17:52Z</time></trkpt>
<trkpt lat="46.214950000" lon="7.424600000"><ele></ele><time>2013-8-8T2:17:55Z</time></trkpt>
<trkpt lat="46.214880000" lon="7.424480000"><ele></ele><time>2013-8-8T2:17:58Z</time></trkpt>
<trkpt lat="46.214800000" lon="7.424380000"><ele></ele><time>2013-8-8T2:18:1Z</time></trkpt>
<trkpt lat="46.214700000" lon="7.424320000"><ele></ele><time>2013-8-8T2:18:4Z</time></trkpt>
<trkpt lat="46.214600000" lon="7.424290000"><ele></ele><time>2013-8-8T2:18:7Z</time></trkpt>
<trkpt lat="46.214480000" lon="7.424290000"><ele></ele><time>2013-8-8T2:18:10Z</time></trkpt>
<trkpt lat="46.214370000" lon="7.424270000"><ele></ele><time>2013-8-8T2:18:13Z</time></trkpt>
<trkpt lat="46.214250000" lon="7.424230000"><ele></ele><time>2013-8-8T2:18:16Z</time></trkpt>
<trkpt lat="46.214130000" lon="7.424160000"><ele></ele><time>2013-8-8T2:18:19Z</time></trkpt>
<trkpt lat="46.214020000" lon="7.424090000"><ele></ele><time>2013-8-8T2:18:22Z</time></trkpt>
<trkpt lat="46.213920000" lon="7.424010000"><ele></ele><time>2013-8-8T2:18:25Z</time></trkpt>
<trkpt lat="46.213820000" lon="7.423900000"><ele></ele><time>2013-8-8T2:18:28Z</time></trkpt>
<trkpt lat="46.213720000" lon="7.423790000"><ele></ele><time>2013-8-8T2:18:31Z</time></trkpt>
<trkpt lat="46.213610000" lon="7.423680000"><ele></ele><time>2013-8-8T2:18:34Z</time></trkpt>
<trkpt lat="46.213520000" lon="7.423570000"><ele></ele><time>2013-8-8T2:18:37Z</time></trkpt>
<trkpt lat="46.213430000" lon="7.423450000"><ele></ele><time>2013-8-8T2:18:40Z</time></trkpt>
<trkpt lat="46.213350000" lon="7.423330000"><ele></ele><time>2013-8-8T2:18:43Z</time></trkpt>
<trkpt lat="46.213280000" lon="7.423200000"><ele></ele><time>2013-8-8T2:18:46Z</time></trkpt>
<trkpt lat="46.213200000" lon="7.423100000"><ele></ele><time>2013-8-8T2:18:49Z</time></trkpt>
<trkpt lat="46.213120000" lon="7.423030000"><ele></ele><time>2013-8-8T2:18:52Z</time></trkpt>
<trkpt lat="46.213020000" lon="7.423040000"><ele></ele><time>2013-8-8T2:18:55Z</time></trkpt>
<trkpt lat="46.212940000" lon="7.423120000"><ele></ele><time>2013-8-8T2:18:58Z</time></trkpt>
<trkpt lat="46.212870000" lon="7.423240000"><ele></ele><time>2013-8-8T2:19:1Z</time></trkpt>
<trkpt lat="46.212800000" lon="7.423360000"><ele></ele><time>2013-8-8T2:19:4Z</time></trkpt>
<trkpt lat="46.212730000" lon="7.423470000"><ele></ele><time>2013-8-8T2:19:7Z</time></trkpt>
<trkpt lat="46.212640000" lon="7.423570000"><ele></ele><time>2013-8-8T2:19:10Z</time></trkpt>
<trkpt lat="46.212550000" lon="7.423670000"><ele></ele><time>2013-8-8T2:19:13Z</time></trkpt>
<trkpt lat="46.212480000" lon="7.423810000"><ele></ele><time>2013-8-8T2:19:16Z</time></trkpt>
<trkpt lat="46.212430000" lon="7.423970000"><ele></ele><time>2013-8-8T2:19:19Z</time></trkpt>
<trkpt lat="46.212390000" lon="7.424130000"><ele></ele><time>2013-8-8T2:19:22Z</time></trkpt>
<trkpt lat="46.212320000" lon="7.424290000"><ele></ele><time>2013-8-8T2:19:25Z</time></trkpt>
<trkpt lat="46.212260000" lon="7.424430000"><ele></ele><time>2013-8-8T2:19:28Z</time></trkpt>
<trkpt lat="46.212170000" lon="7.424560000"><ele></ele><time>2013-8-8T2:19:31Z</time></trkpt>
<trkpt lat="46.212070000" lon="7.424670000"><ele></ele><time>2013-8-8T2:19:34Z</time></trkpt>
<trkpt lat="46.211960000" lon="7.424770000"><ele></ele><time>2013-8-8T2:19:37Z</time></trkpt>
<trkpt lat="46.211850000" lon="7.424860000"><ele></ele><time>2013-8-8T2:19:40Z</time></trkpt>
<trkpt lat="46.211740000" lon="7.424930000"><ele></ele><time>2013-8-8T2:19:43Z</time></trkpt>
<trkpt lat="46.211620000" lon="7.424970000"><ele></ele><time>2013-8-8T2:19:46Z</time></trkpt>
<trkpt lat="46.211490000" lon="7.424980000"><ele></ele><time>2013-8-8T2:19:49Z</time></trkpt>
<trkpt lat="46.211380000" lon="7.425010000"><ele></ele><time>2013-8-8T2:19:52Z</time></trkpt>
<trkpt lat="46.211270000" lon="7.425040000"><ele></ele><time>2013-8-8T2:19:55Z</time></trkpt>
<trkpt lat="46.211150000" lon="7.425080000"><ele></ele><time>2013-8-8T2:19:58Z</time></trkpt>
<trkpt lat="46.211060000" lon="7.425150000"><ele></ele><time>2013-8-8T2:20:1Z</time></trkpt>
<trkpt lat="46.210960000" lon="7.425220000"><ele></ele><time>2013-8-8T2:20:4Z</time></trkpt>
<trkpt lat="46.210850000" lon="7.425270000"><ele></ele><time>2013-8-8T2:20:7Z</time></trkpt>
<trkpt lat="46.210730000" lon="7.425290000"><ele></ele><time>2013-8-8T2:20:10Z</time></trkpt>
<trkpt lat="46.210630000" lon="7.425310000"><ele></ele><time>2013-8-8T2:20:13Z</time></trkpt>
<trkpt lat="46.210550000" lon="7.425340000"><ele></ele><time>2013-8-8T2:20:16Z</time></trkpt>
<trkpt lat="46.210380000" lon="7.425480000"><ele></ele><time>2013-8-8T2:20:19Z</time></trkpt>
<trkpt lat="46.210350000" lon="7.425540000"><ele></ele><time>2013-8-8T2:20:22Z</time></trkpt>
<trkpt lat="46.210320000" lon="7.425590000"><ele></ele><time>2013-8-8T2:20:25Z</time></trkpt>
<trkpt lat="46.210310000" lon="7.425620000"><ele></ele><time>2013-8-8T2:20:28Z</time></trkpt>
<trkpt lat="46.210300000" lon="7.425620000"><ele></ele><time>2013-8-8T2:20:31Z</time></trkpt>
<trkpt lat="46.210290000" lon="7.425620000"><ele></ele><time>2013-8-8T2:20:34Z</time></trkpt>
<trkpt lat="46.210270000" lon="7.425620000"><ele></ele><time>2013-8-8T2:20:37Z</time></trkpt>
<trkpt lat="46.210260000" lon="7.425600000"><ele></ele><time>2013-8-8T2:20:40Z</time></trkpt>
<trkpt lat="46.210240000" lon="7.425580000"><ele></ele><time>2013-8-8T2:20:43Z</time></trkpt>
<trkpt lat="46.210210000" lon="7.425570000"><ele></ele><time>2013-8-8T2:20:46Z</time></trkpt>
<trkpt lat="46.210190000" lon="7.425600000"><ele></ele><time>2013-8-8T2:20:49Z</time></trkpt>
<trkpt lat="46.210190000" lon="7.425690000"><ele></ele><time>2013-8-8T2:20:52Z</time></trkpt>
<trkpt lat="46.210180000" lon="7.425740000"><ele></ele><time>2013-8-8T2:20:55Z</time></trkpt>
<trkpt lat="46.210180000" lon="7.425790000"><ele></ele><time>2013-8-8T2:20:58Z</time></trkpt>
<trkpt lat="46.210190000" lon="7.425960000"><ele></ele><time>2013-8-8T2:21:1Z</time></trkpt>
<trkpt lat="46.210170000" lon="7.426200000"><ele></ele><time>2013-8-8T2:21:4Z</time></trkpt>
<trkpt lat="46.210110000" lon="7.426410000"><ele></ele><time>2013-8-8T2:21:7Z</time></trkpt>
<trkpt lat="46.210090000" lon="7.426450000"><ele></ele><time>2013-8-8T2:21:10Z</time></trkpt>
<trkpt lat="46.210080000" lon="7.426480000"><ele></ele><time>2013-8-8T2:21:13Z</time></trkpt>
<trkpt lat="46.210070000" lon="7.426500000"><ele></ele><time>2013-8-8T2:21:16Z</time></trkpt>
<trkpt lat="46.210050000" lon="7.426530000"><ele></ele><time>2013-8-8T2:21:19Z</time></trkpt>
<trkpt lat="46.210010000" lon="7.426610000"><ele></ele><time>2013-8-8T2:21:22Z</time></trkpt>
<trkpt lat="46.210000000" lon="7.426640000"><ele></ele><time>2013-8-8T2:21:25Z</time></trkpt>
<trkpt lat="46.209980000" lon="7.426660000"><ele></ele><time>2013-8-8T2:21:28Z</time></trkpt>
<trkpt lat="46.209960000" lon="7.426680000"><ele></ele><time>2013-8-8T2:21:31Z</time></trkpt>
<trkpt lat="46.209950000" lon="7.426700000"><ele></ele><time>2013-8-8T2:21:34Z</time></trkpt>
<trkpt lat="46.209930000" lon="7.426730000"><ele></ele><time>2013-8-8T2:21:37Z</time></trkpt>
<trkpt lat="46.209920000" lon="7.426750000"><ele></ele><time>2013-8-8T2:21:40Z</time></trkpt>
<trkpt lat="46.209890000" lon="7.426810000"><ele></ele><time>2013-8-8T2:21:43Z</time></trkpt>
<trkpt lat="46.209840000" lon="7.426940000"><ele></ele><time>2013-8-8T2:21:46Z</time></trkpt>
<trkpt lat="46.209810000" lon="7.427000000"><ele></ele><time>2013-8-8T2:21:49Z</time></trkpt>
<trkpt lat="46.209800000" lon="7.427030000"><ele></ele><time>2013-8-8T2:21:52Z</time></trkpt>
<trkpt lat="46.209780000" lon="7.427060000"><ele></ele><time>2013-8-8T2:21:55Z</time></trkpt>
<trkpt lat="46.209770000" lon="7.427090000"><ele></ele><time>2013-8-8T2:21:58Z</time></trkpt>
<trkpt lat="46.209750000" lon="7.427120000"><ele></ele><time>2013-8-8T2:22:1Z</time></trkpt>
<trkpt lat="46.209740000" lon="7.427160000"><ele></ele><time>2013-8-8T2:22:4Z</time></trkpt>
<trkpt lat="46.209700000" lon="7.427240000"><ele></ele><time>2013-8-8T2:22:7Z</time></trkpt>
<trkpt lat="46.209640000" lon="7.427350000"><ele></ele><time>2013-8-8T2:22:10Z</time></trkpt>
<trkpt lat="46.209630000" lon="7.427370000"><ele></ele><time>2013-8-8T2:22:13Z</time></trkpt>
<trkpt lat="46.209610000" lon="7.427390000"><ele></ele><time>2013-8-8T2:22:16Z</time></trkpt>
<trkpt lat="46.209590000" lon="7.427410000"><ele></ele><time>2013-8-8T2:22:19Z</time></trkpt>
<trkpt lat="46.209510000" lon="7.427490000"><ele></ele><time>2013-8-8T2:22:22Z</time></trkpt>
<trkpt lat="46.209490000" lon="7.427510000"><ele></ele><time>2013-8-8T2:22:25Z</time></trkpt>
<trkpt lat="46.209470000" lon="7.427520000"><ele></ele><time>2013-8-8T2:22:28Z</time></trkpt>
<trkpt lat="46.209450000" lon="7.427540000"><ele></ele><time>2013-8-8T2:22:31Z</time></trkpt>
<trkpt lat="46.209430000" lon="7.427560000"><ele></ele><time>2013-8-8T2:22:34Z</time></trkpt>
<trkpt lat="46.209410000" lon="7.427570000"><ele></ele><time>2013-8-8T2:22:37Z</time></trkpt>
<trkpt lat="46.209380000" lon="7.427630000"><ele></ele><time>2013-8-8T2:22:40Z</time></trkpt>
<trkpt lat="46.209330000" lon="7.427760000"><ele></ele><time>2013-8-8T2:22:43Z</time></trkpt>
<trkpt lat="46.209330000" lon="7.427800000"><ele></ele><time>2013-8-8T2:22:46Z</time></trkpt>
<trkpt lat="46.209320000" lon="7.427830000"><ele></ele><time>2013-8-8T2:22:49Z</time></trkpt>
<trkpt lat="46.209310000" lon="7.427870000"><ele></ele><time>2013-8-8T2:22:52Z</time></trkpt>
<trkpt lat="46.209300000" lon="7.427900000"><ele></ele><time>2013-8-8T2:22:55Z</time></trkpt>
<trkpt lat="46.209230000" lon="7.428040000"><ele></ele><time>2013-8-8T2:22:58Z</time></trkpt>
<trkpt lat="46.209220000" lon="7.428070000"><ele></ele><time>2013-8-8T2:23:1Z</time></trkpt>
<trkpt lat="46.209210000" lon="7.428110000"><ele></ele><time>2013-8-8T2:23:4Z</time></trkpt>
<trkpt lat="46.209200000" lon="7.428130000"><ele></ele><time>2013-8-8T2:23:7Z</time></trkpt>
<trkpt lat="46.209190000" lon="7.428160000"><ele></ele><time>2013-8-8T2:23:10Z</time></trkpt>
<trkpt lat="46.209180000" lon="7.428190000"><ele></ele><time>2013-8-8T2:23:13Z</time></trkpt>
<trkpt lat="46.209150000" lon="7.428240000"><ele></ele><time>2013-8-8T2:23:16Z</time></trkpt>
<trkpt lat="46.209060000" lon="7.428360000"><ele></ele><time>2013-8-8T2:23:19Z</time></trkpt>
<trkpt lat="46.209040000" lon="7.428380000"><ele></ele><time>2013-8-8T2:23:22Z</time></trkpt>
<trkpt lat="46.209020000" lon="7.428390000"><ele></ele><time>2013-8-8T2:23:25Z</time></trkpt>
<trkpt lat="46.209000000" lon="7.428400000"><ele></ele><time>2013-8-8T2:23:28Z</time></trkpt>
<trkpt lat="46.208980000" lon="7.428400000"><ele></ele><time>2013-8-8T2:23:31Z</time></trkpt>
<trkpt lat="46.208950000" lon="7.428400000"><ele></ele><time>2013-8-8T2:23:34Z</time></trkpt>
<trkpt lat="46.208870000" lon="7.428400000"><ele></ele><time>2013-8-8T2:23:37Z</time></trkpt>
<trkpt lat="46.208850000" lon="7.428390000"><ele></ele><time>2013-8-8T2:23:40Z</time></trkpt>
<trkpt lat="46.208820000" lon="7.428380000"><ele></ele><time>2013-8-8T2:23:43Z</time></trkpt>
<trkpt lat="46.208810000" lon="7.428370000"><ele></ele><time>2013-8-8T2:23:46Z</time></trkpt>
<trkpt lat="46.208690000" lon="7.428310000"><ele></ele><time>2013-8-8T2:23:49Z</time></trkpt>
<trkpt lat="46.208670000" lon="7.428290000"><ele></ele><time>2013-8-8T2:23:52Z</time></trkpt>
<trkpt lat="46.208650000" lon="7.428280000"><ele></ele><time>2013-8-8T2:23:55Z</time></trkpt>
<trkpt lat="46.208630000" lon="7.428270000"><ele></ele><time>2013-8-8T2:23:58Z</time></trkpt>
<trkpt lat="46.208610000" lon="7.428250000"><ele></ele><time>2013-8-8T2:24:1Z</time></trkpt>
<trkpt lat="46.208590000" lon="7.428230000"><ele></ele><time>2013-8-8T2:24:4Z</time></trkpt>
<trkpt lat="46.208570000" lon="7.428220000"><ele></ele><time>2013-8-8T2:24:7Z</time></trkpt>
<trkpt lat="46.208520000" lon="7.428140000"><ele></ele><time>2013-8-8T2:24:10Z</time></trkpt>
<trkpt lat="46.208490000" lon="7.428100000"><ele></ele><time>2013-8-8T2:24:13Z</time></trkpt>
<trkpt lat="46.208470000" lon="7.428080000"><ele></ele><time>2013-8-8T2:24:16Z</time></trkpt>
<trkpt lat="46.208450000" lon="7.428060000"><ele></ele><time>2013-8-8T2:24:19Z</time></trkpt>
<trkpt lat="46.208440000" lon="7.428030000"><ele></ele><time>2013-8-8T2:24:22Z</time></trkpt>
<trkpt lat="46.208420000" lon="7.428010000"><ele></ele><time>2013-8-8T2:24:25Z</time></trkpt>
<trkpt lat="46.208330000" lon="7.427910000"><ele></ele><time>2013-8-8T2:24:28Z</time></trkpt>
<trkpt lat="46.208310000" lon="7.427890000"><ele></ele><time>2013-8-8T2:24:31Z</time></trkpt>
<trkpt lat="46.208290000" lon="7.427870000"><ele></ele><time>2013-8-8T2:24:34Z</time></trkpt>
<trkpt lat="46.208270000" lon="7.427850000"><ele></ele><time>2013-8-8T2:24:37Z</time></trkpt>
<trkpt lat="46.208260000" lon="7.427840000"><ele></ele><time>2013-8-8T2:24:40Z</time></trkpt>
<trkpt lat="46.208230000" lon="7.427820000"><ele></ele><time>2013-8-8T2:24:43Z</time></trkpt>
<trkpt lat="46.208200000" lon="7.427810000"><ele></ele><time>2013-8-8T2:24:46Z</time></trkpt>
<trkpt lat="46.208160000" lon="7.427790000"><ele></ele><time>2013-8-8T2:24:49Z</time></trkpt>
<trkpt lat="46.208160000" lon="7.427790000"><ele></ele><time>2013-8-8T2:24:52Z</time></trkpt>
<trkpt lat="46.208160000" lon="7.427790000"><ele></ele><time>2013-8-8T2:24:55Z</time></trkpt>
<trkpt lat="46.208160000" lon="7.427790000"><ele></ele><time>2013-8-8T2:24:58Z</time></trkpt>
<trkpt lat="46.208160000" lon="7.427790000"><ele></ele><time>2013-8-8T2:25:1Z</time></trkpt>
<trkpt lat="46.208160000" lon="7.427790000"><ele></ele><time>2013-8-8T2:25:4Z</time></trkpt>
<trkpt lat="46.208160000" lon="7.427790000"><ele></ele><time>2013-8-8T2:25:7Z</time></trkpt>
<trkpt lat="46.208160000" lon="7.427790000"><ele></ele><time>2013-8-8T2:25:10Z</time></trkpt>
<trkpt lat="46.208160000" lon="7.427790000"><ele></ele><time>2013-8-8T2:25:13Z</time></trkpt>
<trkpt lat="46.208140000" lon="7.427790000"><ele></ele><time>2013-8-8T2:25:16Z</time></trkpt>
<trkpt lat="46.208110000" lon="7.427780000"><ele></ele><time>2013-8-8T2:25:19Z</time></trkpt>
<trkpt lat="46.208040000" lon="7.427770000"><ele></ele><time>2013-8-8T2:25:22Z</time></trkpt>
<trkpt lat="46.207960000" lon="7.427750000"><ele></ele><time>2013-8-8T2:25:25Z</time></trkpt>
<trkpt lat="46.207830000" lon="7.427720000"><ele></ele><time>2013-8-8T2:25:28Z</time></trkpt>
<trkpt lat="46.207750000" lon="7.427690000"><ele></ele><time>2013-8-8T2:25:31Z</time></trkpt>
<trkpt lat="46.207720000" lon="7.427670000"><ele></ele><time>2013-8-8T2:25:34Z</time></trkpt>
<trkpt lat="46.207700000" lon="7.427660000"><ele></ele><time>2013-8-8T2:25:37Z</time></trkpt>
<trkpt lat="46.207670000" lon="7.427650000"><ele></ele><time>2013-8-8T2:25:40Z</time></trkpt>
<trkpt lat="46.207640000" lon="7.427640000"><ele></ele><time>2013-8-8T2:25:43Z</time></trkpt>
<trkpt lat="46.207540000" lon="7.427590000"><ele></ele><time>2013-8-8T2:25:46Z</time></trkpt>
<trkpt lat="46.207520000" lon="7.427580000"><ele></ele><time>2013-8-8T2:25:49Z</time></trkpt>
<trkpt lat="46.207490000" lon="7.427570000"><ele></ele><time>2013-8-8T2:25:52Z</time></trkpt>
<trkpt lat="46.207470000" lon="7.427560000"><ele></ele><time>2013-8-8T2:25:55Z</time></trkpt>
<trkpt lat="46.207450000" lon="7.427550000"><ele></ele><time>2013-8-8T2:25:58Z</time></trkpt>
<trkpt lat="46.207420000" lon="7.427530000"><ele></ele><time>2013-8-8T2:26:1Z</time></trkpt>
<trkpt lat="46.207320000" lon="7.427530000"><ele></ele><time>2013-8-8T2:26:4Z</time></trkpt>
<trkpt lat="46.207280000" lon="7.427550000"><ele></ele><time>2013-8-8T2:26:7Z</time></trkpt>
<trkpt lat="46.207250000" lon="7.427570000"><ele></ele><time>2013-8-8T2:26:10Z</time></trkpt>
<trkpt lat="46.207230000" lon="7.427600000"><ele></ele><time>2013-8-8T2:26:13Z</time></trkpt>
<trkpt lat="46.207210000" lon="7.427620000"><ele></ele><time>2013-8-8T2:26:16Z</time></trkpt>
<trkpt lat="46.207200000" lon="7.427650000"><ele></ele><time>2013-8-8T2:26:19Z</time></trkpt>
<trkpt lat="46.207160000" lon="7.427720000"><ele></ele><time>2013-8-8T2:26:22Z</time></trkpt>
<trkpt lat="46.207080000" lon="7.427860000"><ele></ele><time>2013-8-8T2:26:25Z</time></trkpt>
<trkpt lat="46.207070000" lon="7.427890000"><ele></ele><time>2013-8-8T2:26:28Z</time></trkpt>
<trkpt lat="46.207050000" lon="7.427910000"><ele></ele><time>2013-8-8T2:26:31Z</time></trkpt>
<trkpt lat="46.207020000" lon="7.427920000"><ele></ele><time>2013-8-8T2:26:34Z</time></trkpt>
<trkpt lat="46.207000000" lon="7.427930000"><ele></ele><time>2013-8-8T2:26:37Z</time></trkpt>
<trkpt lat="46.206930000" lon="7.427940000"><ele></ele><time>2013-8-8T2:26:40Z</time></trkpt>
<trkpt lat="46.206900000" lon="7.427940000"><ele></ele><time>2013-8-8T2:26:43Z</time></trkpt>
<trkpt lat="46.206880000" lon="7.427930000"><ele></ele><time>2013-8-8T2:26:46Z</time></trkpt>
<trkpt lat="46.206850000" lon="7.427920000"><ele></ele><time>2013-8-8T2:26:49Z</time></trkpt>
<trkpt lat="46.206830000" lon="7.427900000"><ele></ele><time>2013-8-8T2:26:52Z</time></trkpt>
<trkpt lat="46.206750000" lon="7.427850000"><ele></ele><time>2013-8-8T2:26:55Z</time></trkpt>
<trkpt lat="46.206730000" lon="7.427830000"><ele></ele><time>2013-8-8T2:26:58Z</time></trkpt>
<trkpt lat="46.206710000" lon="7.427810000"><ele></ele><time>2013-8-8T2:27:1Z</time></trkpt>
<trkpt lat="46.206680000" lon="7.427800000"><ele></ele><time>2013-8-8T2:27:4Z</time></trkpt>
<trkpt lat="46.206660000" lon="7.427790000"><ele></ele><time>2013-8-8T2:27:7Z</time></trkpt>
<trkpt lat="46.206570000" lon="7.427740000"><ele></ele><time>2013-8-8T2:27:10Z</time></trkpt>
<trkpt lat="46.206550000" lon="7.427730000"><ele></ele><time>2013-8-8T2:27:13Z</time></trkpt>
<trkpt lat="46.206530000" lon="7.427720000"><ele></ele><time>2013-8-8T2:27:16Z</time></trkpt>
<trkpt lat="46.206500000" lon="7.427710000"><ele></ele><time>2013-8-8T2:27:19Z</time></trkpt>
<trkpt lat="46.206480000" lon="7.427710000"><ele></ele><time>2013-8-8T2:27:22Z</time></trkpt>
<trkpt lat="46.206320000" lon="7.427650000"><ele></ele><time>2013-8-8T2:27:25Z</time></trkpt>
<trkpt lat="46.206300000" lon="7.427640000"><ele></ele><time>2013-8-8T2:27:28Z</time></trkpt>
<trkpt lat="46.206280000" lon="7.427640000"><ele></ele><time>2013-8-8T2:27:31Z</time></trkpt>
<trkpt lat="46.206250000" lon="7.427630000"><ele></ele><time>2013-8-8T2:27:34Z</time></trkpt>
<trkpt lat="46.206230000" lon="7.427620000"><ele></ele><time>2013-8-8T2:27:37Z</time></trkpt>
<trkpt lat="46.206180000" lon="7.427620000"><ele></ele><time>2013-8-8T2:27:40Z</time></trkpt>
<trkpt lat="46.206060000" lon="7.427620000"><ele></ele><time>2013-8-8T2:27:43Z</time></trkpt>
<trkpt lat="46.206040000" lon="7.427630000"><ele></ele><time>2013-8-8T2:27:46Z</time></trkpt>
<trkpt lat="46.206020000" lon="7.427640000"><ele></ele><time>2013-8-8T2:27:49Z</time></trkpt>
<trkpt lat="46.205990000" lon="7.427650000"><ele></ele><time>2013-8-8T2:27:52Z</time></trkpt>
<trkpt lat="46.205970000" lon="7.427660000"><ele></ele><time>2013-8-8T2:27:55Z</time></trkpt>
<trkpt lat="46.205920000" lon="7.427690000"><ele></ele><time>2013-8-8T2:27:58Z</time></trkpt>
<trkpt lat="46.205820000" lon="7.427710000"><ele></ele><time>2013-8-8T2:28:1Z</time></trkpt>
<trkpt lat="46.205800000" lon="7.427710000"><ele></ele><time>2013-8-8T2:28:4Z</time></trkpt>
<trkpt lat="46.205770000" lon="7.427710000"><ele></ele><time>2013-8-8T2:28:7Z</time></trkpt>
<trkpt lat="46.205750000" lon="7.427710000"><ele></ele><time>2013-8-8T2:28:10Z</time></trkpt>
<trkpt lat="46.205720000" lon="7.427700000"><ele></ele><time>2013-8-8T2:28:13Z</time></trkpt>
<trkpt lat="46.205660000" lon="7.427650000"><ele></ele><time>2013-8-8T2:28:16Z</time></trkpt>
<trkpt lat="46.205570000" lon="7.427590000"><ele></ele><time>2013-8-8T2:28:19Z</time></trkpt>
<trkpt lat="46.205550000" lon="7.427580000"><ele></ele><time>2013-8-8T2:28:22Z</time></trkpt>
<trkpt lat="46.205520000" lon="7.427570000"><ele></ele><time>2013-8-8T2:28:25Z</time></trkpt>
<trkpt lat="46.205510000" lon="7.427550000"><ele></ele><time>2013-8-8T2:28:28Z</time></trkpt>
<trkpt lat="46.205480000" lon="7.427540000"><ele></ele><time>2013-8-8T2:28:31Z</time></trkpt>
<trkpt lat="46.205380000" lon="7.427450000"><ele></ele><time>2013-8-8T2:28:34Z</time></trkpt>
<trkpt lat="46.205360000" lon="7.427430000"><ele></ele><time>2013-8-8T2:28:37Z</time></trkpt>
<trkpt lat="46.205340000" lon="7.427410000"><ele></ele><time>2013-8-8T2:28:40Z</time></trkpt>
<trkpt lat="46.205320000" lon="7.427400000"><ele></ele><time>2013-8-8T2:28:43Z</time></trkpt>
<trkpt lat="46.205300000" lon="7.427380000"><ele></ele><time>2013-8-8T2:28:46Z</time></trkpt>
<trkpt lat="46.205210000" lon="7.427330000"><ele></ele><time>2013-8-8T2:28:49Z</time></trkpt>
<trkpt lat="46.205190000" lon="7.427310000"><ele></ele><time>2013-8-8T2:28:52Z</time></trkpt>
<trkpt lat="46.205170000" lon="7.427300000"><ele></ele><time>2013-8-8T2:28:55Z</time></trkpt>
<trkpt lat="46.205150000" lon="7.427290000"><ele></ele><time>2013-8-8T2:28:58Z</time></trkpt>
<trkpt lat="46.205130000" lon="7.427270000"><ele></ele><time>2013-8-8T2:29:1Z</time></trkpt>
<trkpt lat="46.204990000" lon="7.427200000"><ele></ele><time>2013-8-8T2:29:4Z</time></trkpt>
<trkpt lat="46.204960000" lon="7.427200000"><ele></ele><time>2013-8-8T2:29:7Z</time></trkpt>
<trkpt lat="46.204940000" lon="7.427200000"><ele></ele><time>2013-8-8T2:29:10Z</time></trkpt>
<trkpt lat="46.204910000" lon="7.427200000"><ele></ele><time>2013-8-8T2:29:13Z</time></trkpt>
<trkpt lat="46.204890000" lon="7.427200000"><ele></ele><time>2013-8-8T2:29:16Z</time></trkpt>
<trkpt lat="46.204820000" lon="7.427190000"><ele></ele><time>2013-8-8T2:29:19Z</time></trkpt>
<trkpt lat="46.204760000" lon="7.427170000"><ele></ele><time>2013-8-8T2:29:22Z</time></trkpt>
<trkpt lat="46.204730000" lon="7.427160000"><ele></ele><time>2013-8-8T2:29:25Z</time></trkpt>
<trkpt lat="46.204710000" lon="7.427160000"><ele></ele><time>2013-8-8T2:29:28Z</time></trkpt>
<trkpt lat="46.204690000" lon="7.427160000"><ele></ele><time>2013-8-8T2:29:31Z</time></trkpt>
<trkpt lat="46.204560000" lon="7.427130000"><ele></ele><time>2013-8-8T2:29:34Z</time></trkpt>
<trkpt lat="46.204530000" lon="7.427110000"><ele></ele><time>2013-8-8T2:29:37Z</time></trkpt>
<trkpt lat="46.204510000" lon="7.427100000"><ele></ele><time>2013-8-8T2:29:40Z</time></trkpt>
<trkpt lat="46.204480000" lon="7.427090000"><ele></ele><time>2013-8-8T2:29:43Z</time></trkpt>
<trkpt lat="46.204460000" lon="7.427080000"><ele></ele><time>2013-8-8T2:29:46Z</time></trkpt>
<trkpt lat="46.204380000" lon="7.427040000"><ele></ele><time>2013-8-8T2:29:49Z</time></trkpt>
<trkpt lat="46.204280000" lon="7.426980000"><ele></ele><time>2013-8-8T2:29:52Z</time></trkpt>
<trkpt lat="46.204260000" lon="7.426970000"><ele></ele><time>2013-8-8T2:29:55Z</time></trkpt>
<trkpt lat="46.204230000" lon="7.426960000"><ele></ele><time>2013-8-8T2:29:58Z</time></trkpt>
<trkpt lat="46.204210000" lon="7.426950000"><ele></ele><time>2013-8-8T2:30:1Z</time></trkpt>
<trkpt lat="46.204190000" lon="7.426940000"><ele></ele><time>2013-8-8T2:30:4Z</time></trkpt>
<trkpt lat="46.204030000" lon="7.426850000"><ele></ele><time>2013-8-8T2:30:7Z</time></trkpt>
<trkpt lat="46.204000000" lon="7.426830000"><ele></ele><time>2013-8-8T2:30:10Z</time></trkpt>
<trkpt lat="46.203980000" lon="7.426800000"><ele></ele><time>2013-8-8T2:30:13Z</time></trkpt>
<trkpt lat="46.203950000" lon="7.426780000"><ele></ele><time>2013-8-8T2:30:16Z</time></trkpt>
<trkpt lat="46.203930000" lon="7.426770000"><ele></ele><time>2013-8-8T2:30:19Z</time></trkpt>
<trkpt lat="46.203910000" lon="7.426750000"><ele></ele><time>2013-8-8T2:30:22Z</time></trkpt>
<trkpt lat="46.203770000" lon="7.426700000"><ele></ele><time>2013-8-8T2:30:25Z</time></trkpt>
<trkpt lat="46.203740000" lon="7.426690000"><ele></ele><time>2013-8-8T2:30:28Z</time></trkpt>
<trkpt lat="46.203700000" lon="7.426690000"><ele></ele><time>2013-8-8T2:30:31Z</time></trkpt>
<trkpt lat="46.203680000" lon="7.426680000"><ele></ele><time>2013-8-8T2:30:34Z</time></trkpt>
<trkpt lat="46.203650000" lon="7.426670000"><ele></ele><time>2013-8-8T2:30:37Z</time></trkpt>
<trkpt lat="46.203620000" lon="7.426670000"><ele></ele><time>2013-8-8T2:30:40Z</time></trkpt>
<trkpt lat="46.203500000" lon="7.426660000"><ele></ele><time>2013-8-8T2:30:43Z</time></trkpt>
<trkpt lat="46.203470000" lon="7.426660000"><ele></ele><time>2013-8-8T2:30:46Z</time></trkpt>
<trkpt lat="46.203450000" lon="7.426650000"><ele></ele><time>2013-8-8T2:30:49Z</time></trkpt>
<trkpt lat="46.203420000" lon="7.426640000"><ele></ele><time>2013-8-8T2:30:52Z</time></trkpt>
<trkpt lat="46.203400000" lon="7.426630000"><ele></ele><time>2013-8-8T2:30:55Z</time></trkpt>
<trkpt lat="46.203290000" lon="7.426570000"><ele></ele><time>2013-8-8T2:30:58Z</time></trkpt>
<trkpt lat="46.203240000" lon="7.426540000"><ele></ele><time>2013-8-8T2:31:1Z</time></trkpt>
<trkpt lat="46.203210000" lon="7.426530000"><ele></ele><time>2013-8-8T2:31:4Z</time></trkpt>
<trkpt lat="46.203190000" lon="7.426520000"><ele></ele><time>2013-8-8T2:31:7Z</time></trkpt>
<trkpt lat="46.203160000" lon="7.426500000"><ele></ele><time>2013-8-8T2:31:10Z</time></trkpt>
<trkpt lat="46.203140000" lon="7.426490000"><ele></ele><time>2013-8-8T2:31:13Z</time></trkpt>
<trkpt lat="46.203110000" lon="7.426480000"><ele></ele><time>2013-8-8T2:31:16Z</time></trkpt>
<trkpt lat="46.203020000" lon="7.426430000"><ele></ele><time>2013-8-8T2:31:19Z</time></trkpt>
<trkpt lat="46.202990000" lon="7.426410000"><ele></ele><time>2013-8-8T2:31:22Z</time></trkpt>
<trkpt lat="46.202970000" lon="7.426400000"><ele></ele><time>2013-8-8T2:31:25Z</time></trkpt>
<trkpt lat="46.202950000" lon="7.426390000"><ele></ele><time>2013-8-8T2:31:28Z</time></trkpt>
<trkpt lat="46.202890000" lon="7.426370000"><ele></ele><time>2013-8-8T2:31:31Z</time></trkpt>
<trkpt lat="46.202790000" lon="7.426320000"><ele></ele><time>2013-8-8T2:31:34Z</time></trkpt>
<trkpt lat="46.202760000" lon="7.426310000"><ele></ele><time>2013-8-8T2:31:37Z</time></trkpt>
<trkpt lat="46.202740000" lon="7.426300000"><ele></ele><time>2013-8-8T2:31:40Z</time></trkpt>
<trkpt lat="46.202720000" lon="7.426290000"><ele></ele><time>2013-8-8T2:31:43Z</time></trkpt>
<trkpt lat="46.202690000" lon="7.426280000"><ele></ele><time>2013-8-8T2:31:46Z</time></trkpt>
<trkpt lat="46.202580000" lon="7.426270000"><ele></ele><time>2013-8-8T2:31:49Z</time></trkpt>
<trkpt lat="46.202540000" lon="7.426280000"><ele></ele><time>2013-8-8T2:31:52Z</time></trkpt>
<trkpt lat="46.202510000" lon="7.426300000"><ele></ele><time>2013-8-8T2:31:55Z</time></trkpt>
<trkpt lat="46.202490000" lon="7.426310000"><ele></ele><time>2013-8-8T2:31:58Z</time></trkpt>
<trkpt lat="46.202470000" lon="7.426320000"><ele></ele><time>2013-8-8T2:32:1Z</time></trkpt>
<trkpt lat="46.202440000" lon="7.426340000"><ele></ele><time>2013-8-8T2:32:4Z</time></trkpt>
<trkpt lat="46.202420000" lon="7.426360000"><ele></ele><time>2013-8-8T2:32:7Z</time></trkpt>
<trkpt lat="46.202260000" lon="7.426500000"><ele></ele><time>2013-8-8T2:32:10Z</time></trkpt>
<trkpt lat="46.202240000" lon="7.426510000"><ele></ele><time>2013-8-8T2:32:13Z</time></trkpt>
<trkpt lat="46.202210000" lon="7.426520000"><ele></ele><time>2013-8-8T2:32:16Z</time></trkpt>
<trkpt lat="46.202190000" lon="7.426540000"><ele></ele><time>2013-8-8T2:32:19Z</time></trkpt>
<trkpt lat="46.202170000" lon="7.426550000"><ele></ele><time>2013-8-8T2:32:22Z</time></trkpt>
<trkpt lat="46.202150000" lon="7.426560000"><ele></ele><time>2013-8-8T2:32:25Z</time></trkpt>
<trkpt lat="46.202100000" lon="7.426580000"><ele></ele><time>2013-8-8T2:32:28Z</time></trkpt>
<trkpt lat="46.202010000" lon="7.426600000"><ele></ele><time>2013-8-8T2:32:31Z</time></trkpt>
<trkpt lat="46.201990000" lon="7.426620000"><ele></ele><time>2013-8-8T2:32:34Z</time></trkpt>
<trkpt lat="46.201970000" lon="7.426630000"><ele></ele><time>2013-8-8T2:32:37Z</time></trkpt>
<trkpt lat="46.201940000" lon="7.426630000"><ele></ele><time>2013-8-8T2:32:40Z</time></trkpt>
<trkpt lat="46.201920000" lon="7.426650000"><ele></ele><time>2013-8-8T2:32:43Z</time></trkpt>
<trkpt lat="46.201790000" lon="7.426690000"><ele></ele><time>2013-8-8T2:32:46Z</time></trkpt>
<trkpt lat="46.201740000" lon="7.426700000"><ele></ele><time>2013-8-8T2:32:49Z</time></trkpt>
<trkpt lat="46.201720000" lon="7.426710000"><ele></ele><time>2013-8-8T2:32:52Z</time></trkpt>
<trkpt lat="46.201690000" lon="7.426710000"><ele></ele><time>2013-8-8T2:32:55Z</time></trkpt>
<trkpt lat="46.201670000" lon="7.426710000"><ele></ele><time>2013-8-8T2:32:58Z</time></trkpt>
<trkpt lat="46.201610000" lon="7.426710000"><ele></ele><time>2013-8-8T2:33:1Z</time></trkpt>
<trkpt lat="46.201510000" lon="7.426710000"><ele></ele><time>2013-8-8T2:33:4Z</time></trkpt>
<trkpt lat="46.201480000" lon="7.426700000"><ele></ele><time>2013-8-8T2:33:7Z</time></trkpt>
<trkpt lat="46.201450000" lon="7.426700000"><ele></ele><time>2013-8-8T2:33:10Z</time></trkpt>
<trkpt lat="46.201420000" lon="7.426700000"><ele></ele><time>2013-8-8T2:33:13Z</time></trkpt>
<trkpt lat="46.201400000" lon="7.426690000"><ele></ele><time>2013-8-8T2:33:16Z</time></trkpt>
<trkpt lat="46.201240000" lon="7.426650000"><ele></ele><time>2013-8-8T2:33:19Z</time></trkpt>
<trkpt lat="46.201220000" lon="7.426640000"><ele></ele><time>2013-8-8T2:33:22Z</time></trkpt>
<trkpt lat="46.201200000" lon="7.426640000"><ele></ele><time>2013-8-8T2:33:25Z</time></trkpt>
<trkpt lat="46.201180000" lon="7.426630000"><ele></ele><time>2013-8-8T2:33:28Z</time></trkpt>
<trkpt lat="46.201150000" lon="7.426620000"><ele></ele><time>2013-8-8T2:33:31Z</time></trkpt>
<trkpt lat="46.201050000" lon="7.426590000"><ele></ele><time>2013-8-8T2:33:34Z</time></trkpt>
<trkpt lat="46.201030000" lon="7.426590000"><ele></ele><time>2013-8-8T2:33:37Z</time></trkpt>
<trkpt lat="46.201000000" lon="7.426580000"><ele></ele><time>2013-8-8T2:33:40Z</time></trkpt>
<trkpt lat="46.200980000" lon="7.426580000"><ele></ele><time>2013-8-8T2:33:43Z</time></trkpt>
<trkpt lat="46.200950000" lon="7.426580000"><ele></ele><time>2013-8-8T2:33:46Z</time></trkpt>
<trkpt lat="46.200880000" lon="7.426590000"><ele></ele><time>2013-8-8T2:33:49Z</time></trkpt>
<trkpt lat="46.200830000" lon="7.426600000"><ele></ele><time>2013-8-8T2:33:52Z</time></trkpt>
<trkpt lat="46.200800000" lon="7.426620000"><ele></ele><time>2013-8-8T2:33:55Z</time></trkpt>
<trkpt lat="46.200780000" lon="7.426630000"><ele></ele><time>2013-8-8T2:33:58Z</time></trkpt>
<trkpt lat="46.200750000" lon="7.426640000"><ele></ele><time>2013-8-8T2:34:1Z</time></trkpt>
<trkpt lat="46.200730000" lon="7.426660000"><ele></ele><time>2013-8-8T2:34:4Z</time></trkpt>
<trkpt lat="46.200710000" lon="7.426670000"><ele></ele><time>2013-8-8T2:34:7Z</time></trkpt>
<trkpt lat="46.200520000" lon="7.426730000"><ele></ele><time>2013-8-8T2:34:10Z</time></trkpt>
<trkpt lat="46.200460000" lon="7.426730000"><ele></ele><time>2013-8-8T2:34:13Z</time></trkpt>
<trkpt lat="46.200430000" lon="7.426740000"><ele></ele><time>2013-8-8T2:34:16Z</time></trkpt>
<trkpt lat="46.200410000" lon="7.426750000"><ele></ele><time>2013-8-8T2:34:19Z</time></trkpt>
<trkpt lat="46.200380000" lon="7.426750000"><ele></ele><time>2013-8-8T2:34:22Z</time></trkpt>
<trkpt lat="46.200350000" lon="7.426750000"><ele></ele><time>2013-8-8T2:34:25Z</time></trkpt>
<trkpt lat="46.200300000" lon="7.426750000"><ele></ele><time>2013-8-8T2:34:28Z</time></trkpt>
<trkpt lat="46.200200000" lon="7.426760000"><ele></ele><time>2013-8-8T2:34:31Z</time></trkpt>
<trkpt lat="46.200180000" lon="7.426760000"><ele></ele><time>2013-8-8T2:34:34Z</time></trkpt>
<trkpt lat="46.200150000" lon="7.426760000"><ele></ele><time>2013-8-8T2:34:37Z</time></trkpt>
<trkpt lat="46.200130000" lon="7.426770000"><ele></ele><time>2013-8-8T2:34:40Z</time></trkpt>
<trkpt lat="46.200110000" lon="7.426770000"><ele></ele><time>2013-8-8T2:34:43Z</time></trkpt>
<trkpt lat="46.199960000" lon="7.426760000"><ele></ele><time>2013-8-8T2:34:46Z</time></trkpt>
<trkpt lat="46.199940000" lon="7.426750000"><ele></ele><time>2013-8-8T2:34:49Z</time></trkpt>
<trkpt lat="46.199910000" lon="7.426740000"><ele></ele><time>2013-8-8T2:34:52Z</time></trkpt>
<trkpt lat="46.199890000" lon="7.426740000"><ele></ele><time>2013-8-8T2:34:55Z</time></trkpt>
<trkpt lat="46.199790000" lon="7.426690000"><ele></ele><time>2013-8-8T2:34:58Z</time></trkpt>
<trkpt lat="46.199770000" lon="7.426670000"><ele></ele><time>2013-8-8T2:35:1Z</time></trkpt>
<trkpt lat="46.199750000" lon="7.426650000"><ele></ele><time>2013-8-8T2:35:4Z</time></trkpt>
<trkpt lat="46.199730000" lon="7.426620000"><ele></ele><time>2013-8-8T2:35:7Z</time></trkpt>
<trkpt lat="46.199710000" lon="7.426600000"><ele></ele><time>2013-8-8T2:35:10Z</time></trkpt>
<trkpt lat="46.199650000" lon="7.426510000"><ele></ele><time>2013-8-8T2:35:13Z</time></trkpt>
<trkpt lat="46.199590000" lon="7.426440000"><ele></ele><time>2013-8-8T2:35:16Z</time></trkpt>
<trkpt lat="46.199580000" lon="7.426410000"><ele></ele><time>2013-8-8T2:35:19Z</time></trkpt>
<trkpt lat="46.199560000" lon="7.426390000"><ele></ele><time>2013-8-8T2:35:22Z</time></trkpt>
<trkpt lat="46.199540000" lon="7.426370000"><ele></ele><time>2013-8-8T2:35:25Z</time></trkpt>
<trkpt lat="46.199520000" lon="7.426350000"><ele></ele><time>2013-8-8T2:35:28Z</time></trkpt>
<trkpt lat="46.199490000" lon="7.426310000"><ele></ele><time>2013-8-8T2:35:31Z</time></trkpt>
<trkpt lat="46.199420000" lon="7.426220000"><ele></ele><time>2013-8-8T2:35:34Z</time></trkpt>
<trkpt lat="46.199400000" lon="7.426190000"><ele></ele><time>2013-8-8T2:35:37Z</time></trkpt>
<trkpt lat="46.199380000" lon="7.426170000"><ele></ele><time>2013-8-8T2:35:40Z</time></trkpt>
<trkpt lat="46.199360000" lon="7.426150000"><ele></ele><time>2013-8-8T2:35:43Z</time></trkpt>
<trkpt lat="46.199350000" lon="7.426130000"><ele></ele><time>2013-8-8T2:35:46Z</time></trkpt>
<trkpt lat="46.199330000" lon="7.426110000"><ele></ele><time>2013-8-8T2:35:49Z</time></trkpt>
<trkpt lat="46.199280000" lon="7.426030000"><ele></ele><time>2013-8-8T2:35:52Z</time></trkpt>
<trkpt lat="46.199260000" lon="7.426010000"><ele></ele><time>2013-8-8T2:35:55Z</time></trkpt>
<trkpt lat="46.199250000" lon="7.425980000"><ele></ele><time>2013-8-8T2:35:58Z</time></trkpt>
<trkpt lat="46.199230000" lon="7.425960000"><ele></ele><time>2013-8-8T2:36:1Z</time></trkpt>
<trkpt lat="46.199210000" lon="7.425940000"><ele></ele><time>2013-8-8T2:36:4Z</time></trkpt>
<trkpt lat="46.199090000" lon="7.425850000"><ele></ele><time>2013-8-8T2:36:7Z</time></trkpt>
<trkpt lat="46.199060000" lon="7.425860000"><ele></ele><time>2013-8-8T2:36:10Z</time></trkpt>
<trkpt lat="46.199030000" lon="7.425860000"><ele></ele><time>2013-8-8T2:36:13Z</time></trkpt>
<trkpt lat="46.199000000" lon="7.425860000"><ele></ele><time>2013-8-8T2:36:16Z</time></trkpt>
<trkpt lat="46.198970000" lon="7.425870000"><ele></ele><time>2013-8-8T2:36:19Z</time></trkpt>
<trkpt lat="46.198910000" lon="7.425890000"><ele></ele><time>2013-8-8T2:36:22Z</time></trkpt>
<trkpt lat="46.198860000" lon="7.425910000"><ele></ele><time>2013-8-8T2:36:25Z</time></trkpt>
<trkpt lat="46.198830000" lon="7.425930000"><ele></ele><time>2013-8-8T2:36:28Z</time></trkpt>
<trkpt lat="46.198810000" lon="7.425940000"><ele></ele><time>2013-8-8T2:36:31Z</time></trkpt>
<trkpt lat="46.198790000" lon="7.425950000"><ele></ele><time>2013-8-8T2:36:34Z</time></trkpt>
<trkpt lat="46.198760000" lon="7.425960000"><ele></ele><time>2013-8-8T2:36:37Z</time></trkpt>
<trkpt lat="46.198720000" lon="7.425990000"><ele></ele><time>2013-8-8T2:36:40Z</time></trkpt>
<trkpt lat="46.198650000" lon="7.426030000"><ele></ele><time>2013-8-8T2:36:43Z</time></trkpt>
<trkpt lat="46.198630000" lon="7.426040000"><ele></ele><time>2013-8-8T2:36:46Z</time></trkpt>
<trkpt lat="46.198610000" lon="7.426050000"><ele></ele><time>2013-8-8T2:36:49Z</time></trkpt>
<trkpt lat="46.198590000" lon="7.426070000"><ele></ele><time>2013-8-8T2:36:52Z</time></trkpt>
<trkpt lat="46.198570000" lon="7.426090000"><ele></ele><time>2013-8-8T2:36:55Z</time></trkpt>
<trkpt lat="46.198550000" lon="7.426100000"><ele></ele><time>2013-8-8T2:36:58Z</time></trkpt>
<trkpt lat="46.198460000" lon="7.426160000"><ele></ele><time>2013-8-8T2:37:1Z</time></trkpt>
<trkpt lat="46.198440000" lon="7.426180000"><ele></ele><time>2013-8-8T2:37:4Z</time></trkpt>
<trkpt lat="46.198430000" lon="7.426210000"><ele></ele><time>2013-8-8T2:37:7Z</time></trkpt>
<trkpt lat="46.198410000" lon="7.426230000"><ele></ele><time>2013-8-8T2:37:10Z</time></trkpt>
<trkpt lat="46.198390000" lon="7.426260000"><ele></ele><time>2013-8-8T2:37:13Z</time></trkpt>
<trkpt lat="46.198310000" lon="7.426430000"><ele></ele><time>2013-8-8T2:37:16Z</time></trkpt>
<trkpt lat="46.198300000" lon="7.426460000"><ele></ele><time>2013-8-8T2:37:19Z</time></trkpt>
<trkpt lat="46.198300000" lon="7.426490000"><ele></ele><time>2013-8-8T2:37:22Z</time></trkpt>
<trkpt lat="46.198280000" lon="7.426520000"><ele></ele><time>2013-8-8T2:37:25Z</time></trkpt>
<trkpt lat="46.198280000" lon="7.426560000"><ele></ele><time>2013-8-8T2:37:28Z</time></trkpt>
<trkpt lat="46.198270000" lon="7.426660000"><ele></ele><time>2013-8-8T2:37:31Z</time></trkpt>
<trkpt lat="46.198250000" lon="7.426790000"><ele></ele><time>2013-8-8T2:37:34Z</time></trkpt>
<trkpt lat="46.198250000" lon="7.426830000"><ele></ele><time>2013-8-8T2:37:37Z</time></trkpt>
<trkpt lat="46.198240000" lon="7.426860000"><ele></ele><time>2013-8-8T2:37:40Z</time></trkpt>
<trkpt lat="46.198240000" lon="7.426900000"><ele></ele><time>2013-8-8T2:37:43Z</time></trkpt>
<trkpt lat="46.198240000" lon="7.426940000"><ele></ele><time>2013-8-8T2:37:46Z</time></trkpt>
<trkpt lat="46.198250000" lon="7.426980000"><ele></ele><time>2013-8-8T2:37:49Z</time></trkpt>
<trkpt lat="46.198240000" lon="7.427240000"><ele></ele><time>2013-8-8T2:37:52Z</time></trkpt>
<trkpt lat="46.198240000" lon="7.427270000"><ele></ele><time>2013-8-8T2:37:55Z</time></trkpt>
<trkpt lat="46.198230000" lon="7.427310000"><ele></ele><time>2013-8-8T2:37:58Z</time></trkpt>
<trkpt lat="46.198220000" lon="7.427340000"><ele></ele><time>2013-8-8T2:38:1Z</time></trkpt>
<trkpt lat="46.198220000" lon="7.427380000"><ele></ele><time>2013-8-8T2:38:4Z</time></trkpt>
<trkpt lat="46.198180000" lon="7.427470000"><ele></ele><time>2013-8-8T2:38:7Z</time></trkpt>
<trkpt lat="46.198120000" lon="7.427540000"><ele></ele><time>2013-8-8T2:38:10Z</time></trkpt>
<trkpt lat="46.198100000" lon="7.427550000"><ele></ele><time>2013-8-8T2:38:13Z</time></trkpt>
<trkpt lat="46.198070000" lon="7.427570000"><ele></ele><time>2013-8-8T2:38:16Z</time></trkpt>
<trkpt lat="46.198050000" lon="7.427590000"><ele></ele><time>2013-8-8T2:38:19Z</time></trkpt>
<trkpt lat="46.198020000" lon="7.427600000"><ele></ele><time>2013-8-8T2:38:22Z</time></trkpt>
<trkpt lat="46.197900000" lon="7.427660000"><ele></ele><time>2013-8-8T2:38:25Z</time></trkpt>
<trkpt lat="46.197830000" lon="7.427710000"><ele></ele><time>2013-8-8T2:38:28Z</time></trkpt>
<trkpt lat="46.197800000" lon="7.427730000"><ele></ele><time>2013-8-8T2:38:31Z</time></trkpt>
<trkpt lat="46.197770000" lon="7.427750000"><ele></ele><time>2013-8-8T2:38:34Z</time></trkpt>
<trkpt lat="46.197750000" lon="7.427760000"><ele></ele><time>2013-8-8T2:38:37Z</time></trkpt>
<trkpt lat="46.197730000" lon="7.427770000"><ele></ele><time>2013-8-8T2:38:40Z</time></trkpt>
<trkpt lat="46.197620000" lon="7.427830000"><ele></ele><time>2013-8-8T2:38:43Z</time></trkpt>
<trkpt lat="46.197600000" lon="7.427830000"><ele></ele><time>2013-8-8T2:38:46Z</time></trkpt>
<trkpt lat="46.197570000" lon="7.427830000"><ele></ele><time>2013-8-8T2:38:49Z</time></trkpt>
<trkpt lat="46.197540000" lon="7.427830000"><ele></ele><time>2013-8-8T2:38:52Z</time></trkpt>
<trkpt lat="46.197510000" lon="7.427820000"><ele></ele><time>2013-8-8T2:38:55Z</time></trkpt>
<trkpt lat="46.197490000" lon="7.427810000"><ele></ele><time>2013-8-8T2:38:58Z</time></trkpt>
<trkpt lat="46.197440000" lon="7.427790000"><ele></ele><time>2013-8-8T2:39:1Z</time></trkpt>
<trkpt lat="46.197410000" lon="7.427770000"><ele></ele><time>2013-8-8T2:39:4Z</time></trkpt>
<trkpt lat="46.197390000" lon="7.427760000"><ele></ele><time>2013-8-8T2:39:7Z</time></trkpt>
<trkpt lat="46.197360000" lon="7.427750000"><ele></ele><time>2013-8-8T2:39:10Z</time></trkpt>
<trkpt lat="46.197340000" lon="7.427730000"><ele></ele><time>2013-8-8T2:39:13Z</time></trkpt>
<trkpt lat="46.197270000" lon="7.427690000"><ele></ele><time>2013-8-8T2:39:16Z</time></trkpt>
<trkpt lat="46.197250000" lon="7.427670000"><ele></ele><time>2013-8-8T2:39:19Z</time></trkpt>
<trkpt lat="46.197230000" lon="7.427660000"><ele></ele><time>2013-8-8T2:39:22Z</time></trkpt>
<trkpt lat="46.197220000" lon="7.427640000"><ele></ele><time>2013-8-8T2:39:25Z</time></trkpt>
<trkpt lat="46.197150000" lon="7.427580000"><ele></ele><time>2013-8-8T2:39:28Z</time></trkpt>
<trkpt lat="46.197130000" lon="7.427560000"><ele></ele><time>2013-8-8T2:39:31Z</time></trkpt>
<trkpt lat="46.197110000" lon="7.427530000"><ele></ele><time>2013-8-8T2:39:34Z</time></trkpt>
<trkpt lat="46.197090000" lon="7.427510000"><ele></ele><time>2013-8-8T2:39:37Z</time></trkpt>
<trkpt lat="46.197070000" lon="7.427500000"><ele></ele><time>2013-8-8T2:39:40Z</time></trkpt>
<trkpt lat="46.196960000" lon="7.427460000"><ele></ele><time>2013-8-8T2:39:43Z</time></trkpt>
<trkpt lat="46.196940000" lon="7.427460000"><ele></ele><time>2013-8-8T2:39:46Z</time></trkpt>
<trkpt lat="46.196920000" lon="7.427460000"><ele></ele><time>2013-8-8T2:39:49Z</time></trkpt>
<trkpt lat="46.196900000" lon="7.427460000"><ele></ele><time>2013-8-8T2:39:52Z</time></trkpt>
<trkpt lat="46.196880000" lon="7.427470000"><ele></ele><time>2013-8-8T2:39:55Z</time></trkpt>
<trkpt lat="46.196830000" lon="7.427480000"><ele></ele><time>2013-8-8T2:39:58Z</time></trkpt>
<trkpt lat="46.196770000" lon="7.427500000"><ele></ele><time>2013-8-8T2:40:1Z</time></trkpt>
<trkpt lat="46.196740000" lon="7.427510000"><ele></ele><time>2013-8-8T2:40:4Z</time></trkpt>
<trkpt lat="46.196720000" lon="7.427510000"><ele></ele><time>2013-8-8T2:40:7Z</time></trkpt>
<trkpt lat="46.196690000" lon="7.427500000"><ele></ele><time>2013-8-8T2:40:10Z</time></trkpt>
<trkpt lat="46.196670000" lon="7.427500000"><ele></ele><time>2013-8-8T2:40:13Z</time></trkpt>
<trkpt lat="46.196600000" lon="7.427490000"><ele></ele><time>2013-8-8T2:40:16Z</time></trkpt>
<trkpt lat="46.196580000" lon="7.427490000"><ele></ele><time>2013-8-8T2:40:19Z</time></trkpt>
<trkpt lat="46.196560000" lon="7.427470000"><ele></ele><time>2013-8-8T2:40:22Z</time></trkpt>
<trkpt lat="46.196530000" lon="7.427460000"><ele></ele><time>2013-8-8T2:40:25Z</time></trkpt>
<trkpt lat="46.196510000" lon="7.427450000"><ele></ele><time>2013-8-8T2:40:28Z</time></trkpt>
<trkpt lat="46.196370000" lon="7.427420000"><ele></ele><time>2013-8-8T2:40:31Z</time></trkpt>
<trkpt lat="46.196340000" lon="7.427410000"><ele></ele><time>2013-8-8T2:40:34Z</time></trkpt>
<trkpt lat="46.196320000" lon="7.427400000"><ele></ele><time>2013-8-8T2:40:37Z</time></trkpt>
<trkpt lat="46.196290000" lon="7.427400000"><ele></ele><time>2013-8-8T2:40:40Z</time></trkpt>
<trkpt lat="46.196270000" lon="7.427390000"><ele></ele><time>2013-8-8T2:40:43Z</time></trkpt>
<trkpt lat="46.196200000" lon="7.427350000"><ele></ele><time>2013-8-8T2:40:46Z</time></trkpt>
<trkpt lat="46.196170000" lon="7.427340000"><ele></ele><time>2013-8-8T2:40:49Z</time></trkpt>
<trkpt lat="46.196160000" lon="7.427330000"><ele></ele><time>2013-8-8T2:40:52Z</time></trkpt>
<trkpt lat="46.196130000" lon="7.427320000"><ele></ele><time>2013-8-8T2:40:55Z</time></trkpt>
<trkpt lat="46.196110000" lon="7.427300000"><ele></ele><time>2013-8-8T2:40:58Z</time></trkpt>
<trkpt lat="46.196090000" lon="7.427300000"><ele></ele><time>2013-8-8T2:41:1Z</time></trkpt>
<trkpt lat="46.196030000" lon="7.427290000"><ele></ele><time>2013-8-8T2:41:4Z</time></trkpt>
<trkpt lat="46.195960000" lon="7.427260000"><ele></ele><time>2013-8-8T2:41:7Z</time></trkpt>
<trkpt lat="46.195940000" lon="7.427250000"><ele></ele><time>2013-8-8T2:41:10Z</time></trkpt>
<trkpt lat="46.195910000" lon="7.427240000"><ele></ele><time>2013-8-8T2:41:13Z</time></trkpt>
<trkpt lat="46.195890000" lon="7.427220000"><ele></ele><time>2013-8-8T2:41:16Z</time></trkpt>
<trkpt lat="46.195860000" lon="7.427210000"><ele></ele><time>2013-8-8T2:41:19Z</time></trkpt>
<trkpt lat="46.195740000" lon="7.427190000"><ele></ele><time>2013-8-8T2:41:22Z</time></trkpt>
<trkpt lat="46.195720000" lon="7.427180000"><ele></ele><time>2013-8-8T2:41:25Z</time></trkpt>
<trkpt lat="46.195690000" lon="7.427180000"><ele></ele><time>2013-8-8T2:41:28Z</time></trkpt>
<trkpt lat="46.195670000" lon="7.427170000"><ele></ele><time>2013-8-8T2:41:31Z</time></trkpt>
<trkpt lat="46.195640000" lon="7.427170000"><ele></ele><time>2013-8-8T2:41:34Z</time></trkpt>
<trkpt lat="46.195620000" lon="7.427170000"><ele></ele><time>2013-8-8T2:41:37Z</time></trkpt>
<trkpt lat="46.195550000" lon="7.427190000"><ele></ele><time>2013-8-8T2:41:40Z</time></trkpt>
<trkpt lat="46.195530000" lon="7.427190000"><ele></ele><time>2013-8-8T2:41:43Z</time></trkpt>
<trkpt lat="46.195500000" lon="7.427200000"><ele></ele><time>2013-8-8T2:41:46Z</time></trkpt>
<trkpt lat="46.195480000" lon="7.427210000"><ele></ele><time>2013-8-8T2:41:49Z</time></trkpt>
<trkpt lat="46.195450000" lon="7.427220000"><ele></ele><time>2013-8-8T2:41:52Z</time></trkpt>
<trkpt lat="46.195430000" lon="7.427220000"><ele></ele><time>2013-8-8T2:41:55Z</time></trkpt>
<trkpt lat="46.195350000" lon="7.427230000"><ele></ele><time>2013-8-8T2:41:58Z</time></trkpt>
<trkpt lat="46.195330000" lon="7.427230000"><ele></ele><time>2013-8-8T2:42:1Z</time></trkpt>
<trkpt lat="46.195300000" lon="7.427240000"><ele></ele><time>2013-8-8T2:42:4Z</time></trkpt>
<trkpt lat="46.195280000" lon="7.427250000"><ele></ele><time>2013-8-8T2:42:7Z</time></trkpt>
<trkpt lat="46.195250000" lon="7.427260000"><ele></ele><time>2013-8-8T2:42:10Z</time></trkpt>
<trkpt lat="46.195130000" lon="7.427340000"><ele></ele><time>2013-8-8T2:42:13Z</time></trkpt>
<trkpt lat="46.195110000" lon="7.427360000"><ele></ele><time>2013-8-8T2:42:16Z</time></trkpt>
<trkpt lat="46.195080000" lon="7.427380000"><ele></ele><time>2013-8-8T2:42:19Z</time></trkpt>
<trkpt lat="46.195060000" lon="7.427410000"><ele></ele><time>2013-8-8T2:42:22Z</time></trkpt>
<trkpt lat="46.195050000" lon="7.427430000"><ele></ele><time>2013-8-8T2:42:25Z</time></trkpt>
<trkpt lat="46.195000000" lon="7.427520000"><ele></ele><time>2013-8-8T2:42:28Z</time></trkpt>
<trkpt lat="46.194920000" lon="7.427680000"><ele></ele><time>2013-8-8T2:42:31Z</time></trkpt>
<trkpt lat="46.194910000" lon="7.427720000"><ele></ele><time>2013-8-8T2:42:34Z</time></trkpt>
<trkpt lat="46.194900000" lon="7.427750000"><ele></ele><time>2013-8-8T2:42:37Z</time></trkpt>
<trkpt lat="46.194890000" lon="7.427790000"><ele></ele><time>2013-8-8T2:42:40Z</time></trkpt>
<trkpt lat="46.194890000" lon="7.427830000"><ele></ele><time>2013-8-8T2:42:43Z</time></trkpt>
<trkpt lat="46.194810000" lon="7.428130000"><ele></ele><time>2013-8-8T2:42:46Z</time></trkpt>
<trkpt lat="46.194790000" lon="7.428200000"><ele></ele><time>2013-8-8T2:42:49Z</time></trkpt>
<trkpt lat="46.194780000" lon="7.428240000"><ele></ele><time>2013-8-8T2:42:52Z</time></trkpt>
<trkpt lat="46.194770000" lon="7.428280000"><ele></ele><time>2013-8-8T2:42:55Z</time></trkpt>
<trkpt lat="46.194760000" lon="7.428310000"><ele></ele><time>2013-8-8T2:42:58Z</time></trkpt>
<trkpt lat="46.194750000" lon="7.428340000"><ele></ele><time>2013-8-8T2:43:1Z</time></trkpt>
<trkpt lat="46.194720000" lon="7.428400000"><ele></ele><time>2013-8-8T2:43:4Z</time></trkpt>
<trkpt lat="46.194680000" lon="7.428480000"><ele></ele><time>2013-8-8T2:43:7Z</time></trkpt>
<trkpt lat="46.194660000" lon="7.428510000"><ele></ele><time>2013-8-8T2:43:10Z</time></trkpt>
<trkpt lat="46.194640000" lon="7.428540000"><ele></ele><time>2013-8-8T2:43:13Z</time></trkpt>
<trkpt lat="46.194630000" lon="7.428570000"><ele></ele><time>2013-8-8T2:43:16Z</time></trkpt>
<trkpt lat="46.194610000" lon="7.428600000"><ele></ele><time>2013-8-8T2:43:19Z</time></trkpt>
<trkpt lat="46.194600000" lon="7.428630000"><ele></ele><time>2013-8-8T2:43:22Z</time></trkpt>
<trkpt lat="46.194500000" lon="7.428770000"><ele></ele><time>2013-8-8T2:43:25Z</time></trkpt>
<trkpt lat="46.194480000" lon="7.428790000"><ele></ele><time>2013-8-8T2:43:28Z</time></trkpt>
<trkpt lat="46.194470000" lon="7.428810000"><ele></ele><time>2013-8-8T2:43:31Z</time></trkpt>
<trkpt lat="46.194440000" lon="7.428840000"><ele></ele><time>2013-8-8T2:43:34Z</time></trkpt>
<trkpt lat="46.194430000" lon="7.428860000"><ele></ele><time>2013-8-8T2:43:37Z</time></trkpt>
<trkpt lat="46.194340000" lon="7.428990000"><ele></ele><time>2013-8-8T2:43:40Z</time></trkpt>
<trkpt lat="46.194300000" lon="7.429050000"><ele></ele><time>2013-8-8T2:43:43Z</time></trkpt>
<trkpt lat="46.194280000" lon="7.429080000"><ele></ele><time>2013-8-8T2:43:46Z</time></trkpt>
<trkpt lat="46.194270000" lon="7.429110000"><ele></ele><time>2013-8-8T2:43:49Z</time></trkpt>
<trkpt lat="46.194260000" lon="7.429140000"><ele></ele><time>2013-8-8T2:43:52Z</time></trkpt>
<trkpt lat="46.194240000" lon="7.429170000"><ele></ele><time>2013-8-8T2:43:55Z</time></trkpt>
<trkpt lat="46.194170000" lon="7.429320000"><ele></ele><time>2013-8-8T2:43:58Z</time></trkpt>
<trkpt lat="46.194160000" lon="7.429360000"><ele></ele><time>2013-8-8T2:44:1Z</time></trkpt>
<trkpt lat="46.194150000" lon="7.429400000"><ele></ele><time>2013-8-8T2:44:4Z</time></trkpt>
<trkpt lat="46.194130000" lon="7.429440000"><ele></ele><time>2013-8-8T2:44:7Z</time></trkpt>
<trkpt lat="46.194120000" lon="7.429470000"><ele></ele><time>2013-8-8T2:44:10Z</time></trkpt>
<trkpt lat="46.194110000" lon="7.429510000"><ele></ele><time>2013-8-8T2:44:13Z</time></trkpt>
<trkpt lat="46.194040000" lon="7.429780000"><ele></ele><time>2013-8-8T2:44:16Z</time></trkpt>
<trkpt lat="46.194020000" lon="7.429850000"><ele></ele><time>2013-8-8T2:44:19Z</time></trkpt>
<trkpt lat="46.194020000" lon="7.429890000"><ele></ele><time>2013-8-8T2:44:22Z</time></trkpt>
<trkpt lat="46.194000000" lon="7.429920000"><ele></ele><time>2013-8-8T2:44:25Z</time></trkpt>
<trkpt lat="46.194000000" lon="7.429960000"><ele></ele><time>2013-8-8T2:44:28Z</time></trkpt>
<trkpt lat="46.193960000" lon="7.430070000"><ele></ele><time>2013-8-8T2:44:31Z</time></trkpt>
<trkpt lat="46.193910000" lon="7.430290000"><ele></ele><time>2013-8-8T2:44:34Z</time></trkpt>
<trkpt lat="46.193900000" lon="7.430330000"><ele></ele><time>2013-8-8T2:44:37Z</time></trkpt>
<trkpt lat="46.193900000" lon="7.430380000"><ele></ele><time>2013-8-8T2:44:40Z</time></trkpt>
<trkpt lat="46.193900000" lon="7.430420000"><ele></ele><time>2013-8-8T2:44:43Z</time></trkpt>
<trkpt lat="46.193890000" lon="7.430460000"><ele></ele><time>2013-8-8T2:44:46Z</time></trkpt>
<trkpt lat="46.193890000" lon="7.430670000"><ele></ele><time>2013-8-8T2:44:49Z</time></trkpt>
<trkpt lat="46.193900000" lon="7.430880000"><ele></ele><time>2013-8-8T2:44:52Z</time></trkpt>
<trkpt lat="46.193910000" lon="7.430920000"><ele></ele><time>2013-8-8T2:44:55Z</time></trkpt>
<trkpt lat="46.193910000" lon="7.430970000"><ele></ele><time>2013-8-8T2:44:58Z</time></trkpt>
<trkpt lat="46.193920000" lon="7.431010000"><ele></ele><time>2013-8-8T2:45:1Z</time></trkpt>
<trkpt lat="46.193930000" lon="7.431090000"><ele></ele><time>2013-8-8T2:45:4Z</time></trkpt>
<trkpt lat="46.194000000" lon="7.431360000"><ele></ele><time>2013-8-8T2:45:7Z</time></trkpt>
<trkpt lat="46.194050000" lon="7.431510000"><ele></ele><time>2013-8-8T2:45:10Z</time></trkpt>
<trkpt lat="46.194070000" lon="7.431550000"><ele></ele><time>2013-8-8T2:45:13Z</time></trkpt>
<trkpt lat="46.194080000" lon="7.431600000"><ele></ele><time>2013-8-8T2:45:16Z</time></trkpt>
<trkpt lat="46.194090000" lon="7.431640000"><ele></ele><time>2013-8-8T2:45:19Z</time></trkpt>
<trkpt lat="46.194110000" lon="7.431690000"><ele></ele><time>2013-8-8T2:45:22Z</time></trkpt>
<trkpt lat="46.194160000" lon="7.431890000"><ele></ele><time>2013-8-8T2:45:25Z</time></trkpt>
<trkpt lat="46.194170000" lon="7.431930000"><ele></ele><time>2013-8-8T2:45:28Z</time></trkpt>
<trkpt lat="46.194180000" lon="7.431970000"><ele></ele><time>2013-8-8T2:45:31Z</time></trkpt>
<trkpt lat="46.194180000" lon="7.432010000"><ele></ele><time>2013-8-8T2:45:34Z</time></trkpt>
<trkpt lat="46.194180000" lon="7.432050000"><ele></ele><time>2013-8-8T2:45:37Z</time></trkpt>
<trkpt lat="46.194190000" lon="7.432260000"><ele></ele><time>2013-8-8T2:45:40Z</time></trkpt>
<trkpt lat="46.194160000" lon="7.432540000"><ele></ele><time>2013-8-8T2:45:43Z</time></trkpt>
<trkpt lat="46.194150000" lon="7.432620000"><ele></ele><time>2013-8-8T2:45:46Z</time></trkpt>
<trkpt lat="46.194140000" lon="7.432660000"><ele></ele><time>2013-8-8T2:45:49Z</time></trkpt>
<trkpt lat="46.194140000" lon="7.432710000"><ele></ele><time>2013-8-8T2:45:52Z</time></trkpt>
<trkpt lat="46.194130000" lon="7.432750000"><ele></ele><time>2013-8-8T2:45:55Z</time></trkpt>
<trkpt lat="46.194110000" lon="7.432790000"><ele></ele><time>2013-8-8T2:45:58Z</time></trkpt>
<trkpt lat="46.194100000" lon="7.432830000"><ele></ele><time>2013-8-8T2:46:1Z</time></trkpt>
<trkpt lat="46.194040000" lon="7.433130000"><ele></ele><time>2013-8-8T2:46:4Z</time></trkpt>
<trkpt lat="46.193920000" lon="7.433590000"><ele></ele><time>2013-8-8T2:46:7Z</time></trkpt>
<trkpt lat="46.193870000" lon="7.433750000"><ele></ele><time>2013-8-8T2:46:10Z</time></trkpt>
<trkpt lat="46.193850000" lon="7.433800000"><ele></ele><time>2013-8-8T2:46:13Z</time></trkpt>
<trkpt lat="46.193830000" lon="7.433850000"><ele></ele><time>2013-8-8T2:46:16Z</time></trkpt>
<trkpt lat="46.193810000" lon="7.433900000"><ele></ele><time>2013-8-8T2:46:19Z</time></trkpt>
<trkpt lat="46.193790000" lon="7.433960000"><ele></ele><time>2013-8-8T2:46:22Z</time></trkpt>
<trkpt lat="46.193720000" lon="7.434120000"><ele></ele><time>2013-8-8T2:46:25Z</time></trkpt>
<trkpt lat="46.193660000" lon="7.434290000"><ele></ele><time>2013-8-8T2:46:28Z</time></trkpt>
<trkpt lat="46.193570000" lon="7.434710000"><ele></ele><time>2013-8-8T2:46:31Z</time></trkpt>
<trkpt lat="46.193560000" lon="7.434920000"><ele></ele><time>2013-8-8T2:46:34Z</time></trkpt>
<trkpt lat="46.193570000" lon="7.435080000"><ele></ele><time>2013-8-8T2:46:37Z</time></trkpt>
<trkpt lat="46.193570000" lon="7.435170000"><ele></ele><time>2013-8-8T2:46:40Z</time></trkpt>
<trkpt lat="46.193570000" lon="7.435220000"><ele></ele><time>2013-8-8T2:46:43Z</time></trkpt>
<trkpt lat="46.193570000" lon="7.435270000"><ele></ele><time>2013-8-8T2:46:46Z</time></trkpt>
<trkpt lat="46.193580000" lon="7.435330000"><ele></ele><time>2013-8-8T2:46:49Z</time></trkpt>
<trkpt lat="46.193590000" lon="7.435390000"><ele></ele><time>2013-8-8T2:46:52Z</time></trkpt>
<trkpt lat="46.193600000" lon="7.435540000"><ele></ele><time>2013-8-8T2:46:55Z</time></trkpt>
<trkpt lat="46.193610000" lon="7.435580000"><ele></ele><time>2013-8-8T2:46:58Z</time></trkpt>
<trkpt lat="46.193610000" lon="7.435630000"><ele></ele><time>2013-8-8T2:47:1Z</time></trkpt>
<trkpt lat="46.193620000" lon="7.435680000"><ele></ele><time>2013-8-8T2:47:4Z</time></trkpt>
<trkpt lat="46.193620000" lon="7.435730000"><ele></ele><time>2013-8-8T2:47:7Z</time></trkpt>
<trkpt lat="46.193620000" lon="7.435860000"><ele></ele><time>2013-8-8T2:47:10Z</time></trkpt>
<trkpt lat="46.193610000" lon="7.436030000"><ele></ele><time>2013-8-8T2:47:13Z</time></trkpt>
<trkpt lat="46.193610000" lon="7.436080000"><ele></ele><time>2013-8-8T2:47:16Z</time></trkpt>
<trkpt lat="46.193600000" lon="7.436130000"><ele></ele><time>2013-8-8T2:47:19Z</time></trkpt>
<trkpt lat="46.193600000" lon="7.436180000"><ele></ele><time>2013-8-8T2:47:22Z</time></trkpt>
<trkpt lat="46.193600000" lon="7.436220000"><ele></ele><time>2013-8-8T2:47:25Z</time></trkpt>
<trkpt lat="46.193580000" lon="7.436340000"><ele></ele><time>2013-8-8T2:47:28Z</time></trkpt>
<trkpt lat="46.193580000" lon="7.436390000"><ele></ele><time>2013-8-8T2:47:31Z</time></trkpt>
<trkpt lat="46.193580000" lon="7.436440000"><ele></ele><time>2013-8-8T2:47:34Z</time></trkpt>
<trkpt lat="46.193580000" lon="7.436490000"><ele></ele><time>2013-8-8T2:47:37Z</time></trkpt>
<trkpt lat="46.193580000" lon="7.436530000"><ele></ele><time>2013-8-8T2:47:40Z</time></trkpt>
<trkpt lat="46.193590000" lon="7.436570000"><ele></ele><time>2013-8-8T2:47:43Z</time></trkpt>
<trkpt lat="46.193600000" lon="7.436710000"><ele></ele><time>2013-8-8T2:47:46Z</time></trkpt>
<trkpt lat="46.193600000" lon="7.436750000"><ele></ele><time>2013-8-8T2:47:49Z</time></trkpt>
<trkpt lat="46.193600000" lon="7.436790000"><ele></ele><time>2013-8-8T2:47:52Z</time></trkpt>
<trkpt lat="46.193600000" lon="7.436830000"><ele></ele><time>2013-8-8T2:47:55Z</time></trkpt>
<trkpt lat="46.193600000" lon="7.436870000"><ele></ele><time>2013-8-8T2:47:58Z</time></trkpt>
<trkpt lat="46.193620000" lon="7.437010000"><ele></ele><time>2013-8-8T2:48:1Z</time></trkpt>
<trkpt lat="46.193630000" lon="7.437050000"><ele></ele><time>2013-8-8T2:48:4Z</time></trkpt>
<trkpt lat="46.193630000" lon="7.437100000"><ele></ele><time>2013-8-8T2:48:7Z</time></trkpt>
<trkpt lat="46.193630000" lon="7.437130000"><ele></ele><time>2013-8-8T2:48:10Z</time></trkpt>
<trkpt lat="46.193630000" lon="7.437170000"><ele></ele><time>2013-8-8T2:48:13Z</time></trkpt>
<trkpt lat="46.193630000" lon="7.437210000"><ele></ele><time>2013-8-8T2:48:16Z</time></trkpt>
<trkpt lat="46.193640000" lon="7.437290000"><ele></ele><time>2013-8-8T2:48:19Z</time></trkpt>
<trkpt lat="46.193650000" lon="7.437380000"><ele></ele><time>2013-8-8T2:48:22Z</time></trkpt>
<trkpt lat="46.193660000" lon="7.437460000"><ele></ele><time>2013-8-8T2:48:25Z</time></trkpt>
<trkpt lat="46.193660000" lon="7.437500000"><ele></ele><time>2013-8-8T2:48:28Z</time></trkpt>
<trkpt lat="46.193660000" lon="7.437540000"><ele></ele><time>2013-8-8T2:48:31Z</time></trkpt>
<trkpt lat="46.193670000" lon="7.437580000"><ele></ele><time>2013-8-8T2:48:34Z</time></trkpt>
<trkpt lat="46.193680000" lon="7.437620000"><ele></ele><time>2013-8-8T2:48:37Z</time></trkpt>
<trkpt lat="46.193700000" lon="7.437860000"><ele></ele><time>2013-8-8T2:48:40Z</time></trkpt>
<trkpt lat="46.193700000" lon="7.437900000"><ele></ele><time>2013-8-8T2:48:43Z</time></trkpt>
<trkpt lat="46.193700000" lon="7.437940000"><ele></ele><time>2013-8-8T2:48:46Z</time></trkpt>
<trkpt lat="46.193700000" lon="7.437980000"><ele></ele><time>2013-8-8T2:48:49Z</time></trkpt>
<trkpt lat="46.193700000" lon="7.438020000"><ele></ele><time>2013-8-8T2:48:52Z</time></trkpt>
<trkpt lat="46.193710000" lon="7.438170000"><ele></ele><time>2013-8-8T2:48:55Z</time></trkpt>
<trkpt lat="46.193720000" lon="7.438250000"><ele></ele><time>2013-8-8T2:48:58Z</time></trkpt>
<trkpt lat="46.193720000" lon="7.438290000"><ele></ele><time>2013-8-8T2:49:1Z</time></trkpt>
<trkpt lat="46.193730000" lon="7.438330000"><ele></ele><time>2013-8-8T2:49:4Z</time></trkpt>
<trkpt lat="46.193730000" lon="7.438370000"><ele></ele><time>2013-8-8T2:49:7Z</time></trkpt>
<trkpt lat="46.193730000" lon="7.438410000"><ele></ele><time>2013-8-8T2:49:10Z</time></trkpt>
<trkpt lat="46.193680000" lon="7.438640000"><ele></ele><time>2013-8-8T2:49:13Z</time></trkpt>
<trkpt lat="46.193660000" lon="7.438670000"><ele></ele><time>2013-8-8T2:49:16Z</time></trkpt>
<trkpt lat="46.193650000" lon="7.438710000"><ele></ele><time>2013-8-8T2:49:19Z</time></trkpt>
<trkpt lat="46.193640000" lon="7.438740000"><ele></ele><time>2013-8-8T2:49:22Z</time></trkpt>
<trkpt lat="46.193580000" lon="7.438880000"><ele></ele><time>2013-8-8T2:49:25Z</time></trkpt>
<trkpt lat="46.193560000" lon="7.438910000"><ele></ele><time>2013-8-8T2:49:28Z</time></trkpt>
<trkpt lat="46.193550000" lon="7.438950000"><ele></ele><time>2013-8-8T2:49:31Z</time></trkpt>
<trkpt lat="46.193530000" lon="7.438980000"><ele></ele><time>2013-8-8T2:49:34Z</time></trkpt>
<trkpt lat="46.193520000" lon="7.439020000"><ele></ele><time>2013-8-8T2:49:37Z</time></trkpt>
<trkpt lat="46.193520000" lon="7.439050000"><ele></ele><time>2013-8-8T2:49:40Z</time></trkpt>
<trkpt lat="46.193500000" lon="7.439170000"><ele></ele><time>2013-8-8T2:49:43Z</time></trkpt>
<trkpt lat="46.193500000" lon="7.439210000"><ele></ele><time>2013-8-8T2:49:46Z</time></trkpt>
<trkpt lat="46.193500000" lon="7.439250000"><ele></ele><time>2013-8-8T2:49:49Z</time></trkpt>
<trkpt lat="46.193500000" lon="7.439290000"><ele></ele><time>2013-8-8T2:49:52Z</time></trkpt>
<trkpt lat="46.193490000" lon="7.439330000"><ele></ele><time>2013-8-8T2:49:55Z</time></trkpt>
<trkpt lat="46.193500000" lon="7.439370000"><ele></ele><time>2013-8-8T2:49:58Z</time></trkpt>
<trkpt lat="46.193500000" lon="7.439480000"><ele></ele><time>2013-8-8T2:50:1Z</time></trkpt>
<trkpt lat="46.193500000" lon="7.439580000"><ele></ele><time>2013-8-8T2:50:4Z</time></trkpt>
<trkpt lat="46.193500000" lon="7.439620000"><ele></ele><time>2013-8-8T2:50:7Z</time></trkpt>
<trkpt lat="46.193500000" lon="7.439660000"><ele></ele><time>2013-8-8T2:50:10Z</time></trkpt>
<trkpt lat="46.193500000" lon="7.439700000"><ele></ele><time>2013-8-8T2:50:13Z</time></trkpt>
<trkpt lat="46.193500000" lon="7.439740000"><ele></ele><time>2013-8-8T2:50:16Z</time></trkpt>
<trkpt lat="46.193500000" lon="7.439810000"><ele></ele><time>2013-8-8T2:50:19Z</time></trkpt>
<trkpt lat="46.193500000" lon="7.439920000"><ele></ele><time>2013-8-8T2:50:22Z</time></trkpt>
<trkpt lat="46.193500000" lon="7.439950000"><ele></ele><time>2013-8-8T2:50:25Z</time></trkpt>
<trkpt lat="46.193500000" lon="7.439990000"><ele></ele><time>2013-8-8T2:50:28Z</time></trkpt>
<trkpt lat="46.193500000" lon="7.440030000"><ele></ele><time>2013-8-8T2:50:31Z</time></trkpt>
<trkpt lat="46.193500000" lon="7.440070000"><ele></ele><time>2013-8-8T2:50:34Z</time></trkpt>
<trkpt lat="46.193540000" lon="7.440310000"><ele></ele><time>2013-8-8T2:50:37Z</time></trkpt>
<trkpt lat="46.193550000" lon="7.440350000"><ele></ele><time>2013-8-8T2:50:40Z</time></trkpt>
<trkpt lat="46.193550000" lon="7.440380000"><ele></ele><time>2013-8-8T2:50:43Z</time></trkpt>
<trkpt lat="46.193550000" lon="7.440410000"><ele></ele><time>2013-8-8T2:50:46Z</time></trkpt>
<trkpt lat="46.193590000" lon="7.440550000"><ele></ele><time>2013-8-8T2:50:49Z</time></trkpt>
<trkpt lat="46.193600000" lon="7.440630000"><ele></ele><time>2013-8-8T2:50:52Z</time></trkpt>
<trkpt lat="46.193620000" lon="7.440700000"><ele></ele><time>2013-8-8T2:50:55Z</time></trkpt>
<trkpt lat="46.193630000" lon="7.440730000"><ele></ele><time>2013-8-8T2:50:58Z</time></trkpt>
<trkpt lat="46.193640000" lon="7.440770000"><ele></ele><time>2013-8-8T2:51:1Z</time></trkpt>
<trkpt lat="46.193650000" lon="7.440810000"><ele></ele><time>2013-8-8T2:51:4Z</time></trkpt>
<trkpt lat="46.193650000" lon="7.440840000"><ele></ele><time>2013-8-8T2:51:7Z</time></trkpt>
<trkpt lat="46.193670000" lon="7.440920000"><ele></ele><time>2013-8-8T2:51:10Z</time></trkpt>
<trkpt lat="46.193740000" lon="7.441170000"><ele></ele><time>2013-8-8T2:51:13Z</time></trkpt>
<trkpt lat="46.193740000" lon="7.441210000"><ele></ele><time>2013-8-8T2:51:16Z</time></trkpt>
<trkpt lat="46.193760000" lon="7.441250000"><ele></ele><time>2013-8-8T2:51:19Z</time></trkpt>
<trkpt lat="46.193770000" lon="7.441290000"><ele></ele><time>2013-8-8T2:51:22Z</time></trkpt>
<trkpt lat="46.193780000" lon="7.441340000"><ele></ele><time>2013-8-8T2:51:25Z</time></trkpt>
<trkpt lat="46.193830000" lon="7.441520000"><ele></ele><time>2013-8-8T2:51:28Z</time></trkpt>
<trkpt lat="46.193910000" lon="7.441820000"><ele></ele><time>2013-8-8T2:51:31Z</time></trkpt>
<trkpt lat="46.193920000" lon="7.441860000"><ele></ele><time>2013-8-8T2:51:34Z</time></trkpt>
<trkpt lat="46.193990000" lon="7.442160000"><ele></ele><time>2013-8-8T2:51:37Z</time></trkpt>
<trkpt lat="46.194000000" lon="7.442210000"><ele></ele><time>2013-8-8T2:51:40Z</time></trkpt>
<trkpt lat="46.194010000" lon="7.442260000"><ele></ele><time>2013-8-8T2:51:43Z</time></trkpt>
<trkpt lat="46.194020000" lon="7.442310000"><ele></ele><time>2013-8-8T2:51:46Z</time></trkpt>
<trkpt lat="46.194020000" lon="7.442360000"><ele></ele><time>2013-8-8T2:51:49Z</time></trkpt>
<trkpt lat="46.194040000" lon="7.442570000"><ele></ele><time>2013-8-8T2:51:52Z</time></trkpt>
<trkpt lat="46.194050000" lon="7.442630000"><ele></ele><time>2013-8-8T2:51:55Z</time></trkpt>
<trkpt lat="46.194080000" lon="7.442900000"><ele></ele><time>2013-8-8T2:51:58Z</time></trkpt>
<trkpt lat="46.194100000" lon="7.443010000"><ele></ele><time>2013-8-8T2:52:1Z</time></trkpt>
<trkpt lat="46.194160000" lon="7.443330000"><ele></ele><time>2013-8-8T2:52:4Z</time></trkpt>
<trkpt lat="46.194160000" lon="7.443380000"><ele></ele><time>2013-8-8T2:52:7Z</time></trkpt>
<trkpt lat="46.194170000" lon="7.443440000"><ele></ele><time>2013-8-8T2:52:10Z</time></trkpt>
<trkpt lat="46.194160000" lon="7.443500000"><ele></ele><time>2013-8-8T2:52:13Z</time></trkpt>
<trkpt lat="46.194160000" lon="7.443550000"><ele></ele><time>2013-8-8T2:52:16Z</time></trkpt>
<trkpt lat="46.194100000" lon="7.443820000"><ele></ele><time>2013-8-8T2:52:19Z</time></trkpt>
<trkpt lat="46.193970000" lon="7.444170000"><ele></ele><time>2013-8-8T2:52:22Z</time></trkpt>
<trkpt lat="46.193870000" lon="7.444460000"><ele></ele><time>2013-8-8T2:52:25Z</time></trkpt>
<trkpt lat="46.193860000" lon="7.444520000"><ele></ele><time>2013-8-8T2:52:28Z</time></trkpt>
<trkpt lat="46.193840000" lon="7.444570000"><ele></ele><time>2013-8-8T2:52:31Z</time></trkpt>
<trkpt lat="46.193820000" lon="7.444630000"><ele></ele><time>2013-8-8T2:52:34Z</time></trkpt>
<trkpt lat="46.193810000" lon="7.444680000"><ele></ele><time>2013-8-8T2:52:37Z</time></trkpt>
<trkpt lat="46.193730000" lon="7.444960000"><ele></ele><time>2013-8-8T2:52:40Z</time></trkpt>
<trkpt lat="46.193570000" lon="7.445270000"><ele></ele><time>2013-8-8T2:52:43Z</time></trkpt>
<trkpt lat="46.193540000" lon="7.445300000"><ele></ele><time>2013-8-8T2:52:46Z</time></trkpt>
<trkpt lat="46.193510000" lon="7.445340000"><ele></ele><time>2013-8-8T2:52:49Z</time></trkpt>
<trkpt lat="46.193480000" lon="7.445370000"><ele></ele><time>2013-8-8T2:52:52Z</time></trkpt>
<trkpt lat="46.193450000" lon="7.445410000"><ele></ele><time>2013-8-8T2:52:55Z</time></trkpt>
<trkpt lat="46.193420000" lon="7.445450000"><ele></ele><time>2013-8-8T2:52:58Z</time></trkpt>
<trkpt lat="46.193390000" lon="7.445480000"><ele></ele><time>2013-8-8T2:53:1Z</time></trkpt>
<trkpt lat="46.193220000" lon="7.445770000"><ele></ele><time>2013-8-8T2:53:4Z</time></trkpt>
<trkpt lat="46.193200000" lon="7.446040000"><ele></ele><time>2013-8-8T2:53:7Z</time></trkpt>
<trkpt lat="46.193160000" lon="7.446380000"><ele></ele><time>2013-8-8T2:53:10Z</time></trkpt>
<trkpt lat="46.193160000" lon="7.446440000"><ele></ele><time>2013-8-8T2:53:13Z</time></trkpt>
<trkpt lat="46.193160000" lon="7.446500000"><ele></ele><time>2013-8-8T2:53:16Z</time></trkpt>
<trkpt lat="46.193160000" lon="7.446560000"><ele></ele><time>2013-8-8T2:53:19Z</time></trkpt>
<trkpt lat="46.193170000" lon="7.446610000"><ele></ele><time>2013-8-8T2:53:22Z</time></trkpt>
<trkpt lat="46.193190000" lon="7.446840000"><ele></ele><time>2013-8-8T2:53:25Z</time></trkpt>
<trkpt lat="46.193240000" lon="7.447250000"><ele></ele><time>2013-8-8T2:53:28Z</time></trkpt>
<trkpt lat="46.193230000" lon="7.447410000"><ele></ele><time>2013-8-8T2:53:31Z</time></trkpt>
<trkpt lat="46.193210000" lon="7.447470000"><ele></ele><time>2013-8-8T2:53:34Z</time></trkpt>
<trkpt lat="46.193210000" lon="7.447530000"><ele></ele><time>2013-8-8T2:53:37Z</time></trkpt>
<trkpt lat="46.193200000" lon="7.447590000"><ele></ele><time>2013-8-8T2:53:40Z</time></trkpt>
<trkpt lat="46.193190000" lon="7.447640000"><ele></ele><time>2013-8-8T2:53:43Z</time></trkpt>
<trkpt lat="46.193130000" lon="7.447940000"><ele></ele><time>2013-8-8T2:53:46Z</time></trkpt>
<trkpt lat="46.193070000" lon="7.448170000"><ele></ele><time>2013-8-8T2:53:49Z</time></trkpt>
<trkpt lat="46.192990000" lon="7.448340000"><ele></ele><time>2013-8-8T2:53:52Z</time></trkpt>
<trkpt lat="46.192940000" lon="7.448450000"><ele></ele><time>2013-8-8T2:53:55Z</time></trkpt>
<trkpt lat="46.192810000" lon="7.448730000"><ele></ele><time>2013-8-8T2:53:58Z</time></trkpt>
<trkpt lat="46.192720000" lon="7.449180000"><ele></ele><time>2013-8-8T2:54:1Z</time></trkpt>
<trkpt lat="46.192640000" lon="7.449610000"><ele></ele><time>2013-8-8T2:54:4Z</time></trkpt>
<trkpt lat="46.192610000" lon="7.449730000"><ele></ele><time>2013-8-8T2:54:7Z</time></trkpt>
<trkpt lat="46.192590000" lon="7.449790000"><ele></ele><time>2013-8-8T2:54:10Z</time></trkpt>
<trkpt lat="46.192570000" lon="7.449850000"><ele></ele><time>2013-8-8T2:54:13Z</time></trkpt>
<trkpt lat="46.192550000" lon="7.449910000"><ele></ele><time>2013-8-8T2:54:16Z</time></trkpt>
<trkpt lat="46.192530000" lon="7.449970000"><ele></ele><time>2013-8-8T2:54:19Z</time></trkpt>
<trkpt lat="46.192500000" lon="7.450090000"><ele></ele><time>2013-8-8T2:54:22Z</time></trkpt>
<trkpt lat="46.192420000" lon="7.450340000"><ele></ele><time>2013-8-8T2:54:25Z</time></trkpt>
<trkpt lat="46.192400000" lon="7.450400000"><ele></ele><time>2013-8-8T2:54:28Z</time></trkpt>
<trkpt lat="46.192380000" lon="7.450460000"><ele></ele><time>2013-8-8T2:54:31Z</time></trkpt>
<trkpt lat="46.192360000" lon="7.450530000"><ele></ele><time>2013-8-8T2:54:34Z</time></trkpt>
<trkpt lat="46.192330000" lon="7.450580000"><ele></ele><time>2013-8-8T2:54:37Z</time></trkpt>
<trkpt lat="46.192310000" lon="7.450640000"><ele></ele><time>2013-8-8T2:54:40Z</time></trkpt>
<trkpt lat="46.192120000" lon="7.450770000"><ele></ele><time>2013-8-8T2:54:43Z</time></trkpt>
<trkpt lat="46.191990000" lon="7.450670000"><ele></ele><time>2013-8-8T2:54:46Z</time></trkpt>
<trkpt lat="46.191920000" lon="7.450470000"><ele></ele><time>2013-8-8T2:54:49Z</time></trkpt>
<trkpt lat="46.191920000" lon="7.450310000"><ele></ele><time>2013-8-8T2:54:52Z</time></trkpt>
<trkpt lat="46.191920000" lon="7.450050000"><ele></ele><time>2013-8-8T2:54:55Z</time></trkpt>
<trkpt lat="46.191910000" lon="7.449810000"><ele></ele><time>2013-8-8T2:54:58Z</time></trkpt>
<trkpt lat="46.191900000" lon="7.449730000"><ele></ele><time>2013-8-8T2:55:1Z</time></trkpt>
<trkpt lat="46.191890000" lon="7.449650000"><ele></ele><time>2013-8-8T2:55:4Z</time></trkpt>
<trkpt lat="46.191880000" lon="7.449580000"><ele></ele><time>2013-8-8T2:55:7Z</time></trkpt>
<trkpt lat="46.191860000" lon="7.449510000"><ele></ele><time>2013-8-8T2:55:10Z</time></trkpt>
<trkpt lat="46.191720000" lon="7.449060000"><ele></ele><time>2013-8-8T2:55:13Z</time></trkpt>
<trkpt lat="46.191540000" lon="7.448770000"><ele></ele><time>2013-8-8T2:55:16Z</time></trkpt>
<trkpt lat="46.191420000" lon="7.448580000"><ele></ele><time>2013-8-8T2:55:19Z</time></trkpt>
<trkpt lat="46.191400000" lon="7.448540000"><ele></ele><time>2013-8-8T2:55:22Z</time></trkpt>
<trkpt lat="46.191370000" lon="7.448490000"><ele></ele><time>2013-8-8T2:55:25Z</time></trkpt>
<trkpt lat="46.191340000" lon="7.448440000"><ele></ele><time>2013-8-8T2:55:28Z</time></trkpt>
<trkpt lat="46.191320000" lon="7.448400000"><ele></ele><time>2013-8-8T2:55:31Z</time></trkpt>
<trkpt lat="46.191170000" lon="7.448170000"><ele></ele><time>2013-8-8T2:55:34Z</time></trkpt>
<trkpt lat="46.191150000" lon="7.448110000"><ele></ele><time>2013-8-8T2:55:37Z</time></trkpt>
<trkpt lat="46.191120000" lon="7.448000000"><ele></ele><time>2013-8-8T2:55:40Z</time></trkpt>
<trkpt lat="46.191100000" lon="7.447880000"><ele></ele><time>2013-8-8T2:55:43Z</time></trkpt>
<trkpt lat="46.191090000" lon="7.447820000"><ele></ele><time>2013-8-8T2:55:46Z</time></trkpt>
<trkpt lat="46.191090000" lon="7.447760000"><ele></ele><time>2013-8-8T2:55:49Z</time></trkpt>
<trkpt lat="46.191080000" lon="7.447700000"><ele></ele><time>2013-8-8T2:55:52Z</time></trkpt>
<trkpt lat="46.191070000" lon="7.447630000"><ele></ele><time>2013-8-8T2:55:55Z</time></trkpt>
<trkpt lat="46.191020000" lon="7.447310000"><ele></ele><time>2013-8-8T2:55:58Z</time></trkpt>
<trkpt lat="46.191010000" lon="7.447240000"><ele></ele><time>2013-8-8T2:56:1Z</time></trkpt>
<trkpt lat="46.190950000" lon="7.447000000"><ele></ele><time>2013-8-8T2:56:4Z</time></trkpt>
<trkpt lat="46.190910000" lon="7.446880000"><ele></ele><time>2013-8-8T2:56:7Z</time></trkpt>
<trkpt lat="46.190860000" lon="7.446710000"><ele></ele><time>2013-8-8T2:56:10Z</time></trkpt>
<trkpt lat="46.190850000" lon="7.446660000"><ele></ele><time>2013-8-8T2:56:13Z</time></trkpt>
<trkpt lat="46.190840000" lon="7.446610000"><ele></ele><time>2013-8-8T2:56:16Z</time></trkpt>
<trkpt lat="46.190830000" lon="7.446550000"><ele></ele><time>2013-8-8T2:56:19Z</time></trkpt>
<trkpt lat="46.190800000" lon="7.446500000"><ele></ele><time>2013-8-8T2:56:22Z</time></trkpt>
<trkpt lat="46.190780000" lon="7.446440000"><ele></ele><time>2013-8-8T2:56:25Z</time></trkpt>
<trkpt lat="46.190720000" lon="7.446290000"><ele></ele><time>2013-8-8T2:56:28Z</time></trkpt>
<trkpt lat="46.190680000" lon="7.446170000"><ele></ele><time>2013-8-8T2:56:31Z</time></trkpt>
<trkpt lat="46.190650000" lon="7.446120000"><ele></ele><time>2013-8-8T2:56:34Z</time></trkpt>
<trkpt lat="46.190540000" lon="7.445900000"><ele></ele><time>2013-8-8T2:56:37Z</time></trkpt>
<trkpt lat="46.190410000" lon="7.445660000"><ele></ele><time>2013-8-8T2:56:40Z</time></trkpt>
<trkpt lat="46.190390000" lon="7.445620000"><ele></ele><time>2013-8-8T2:56:43Z</time></trkpt>
<trkpt lat="46.190260000" lon="7.445450000"><ele></ele><time>2013-8-8T2:56:46Z</time></trkpt>
<trkpt lat="46.190220000" lon="7.445420000"><ele></ele><time>2013-8-8T2:56:49Z</time></trkpt>
<trkpt lat="46.190190000" lon="7.445400000"><ele></ele><time>2013-8-8T2:56:52Z</time></trkpt>
<trkpt lat="46.190160000" lon="7.445370000"><ele></ele><time>2013-8-8T2:56:55Z</time></trkpt>
<trkpt lat="46.190130000" lon="7.445350000"><ele></ele><time>2013-8-8T2:56:58Z</time></trkpt>
<trkpt lat="46.190000000" lon="7.445240000"><ele></ele><time>2013-8-8T2:57:1Z</time></trkpt>
<trkpt lat="46.189940000" lon="7.445190000"><ele></ele><time>2013-8-8T2:57:4Z</time></trkpt>
<trkpt lat="46.189910000" lon="7.445150000"><ele></ele><time>2013-8-8T2:57:7Z</time></trkpt>
<trkpt lat="46.189880000" lon="7.445120000"><ele></ele><time>2013-8-8T2:57:10Z</time></trkpt>
<trkpt lat="46.189850000" lon="7.445070000"><ele></ele><time>2013-8-8T2:57:13Z</time></trkpt>
<trkpt lat="46.189830000" lon="7.445030000"><ele></ele><time>2013-8-8T2:57:16Z</time></trkpt>
<trkpt lat="46.189740000" lon="7.444770000"><ele></ele><time>2013-8-8T2:57:19Z</time></trkpt>
<trkpt lat="46.189690000" lon="7.444480000"><ele></ele><time>2013-8-8T2:57:22Z</time></trkpt>
<trkpt lat="46.189680000" lon="7.444420000"><ele></ele><time>2013-8-8T2:57:25Z</time></trkpt>
<trkpt lat="46.189670000" lon="7.444360000"><ele></ele><time>2013-8-8T2:57:28Z</time></trkpt>
<trkpt lat="46.189670000" lon="7.444300000"><ele></ele><time>2013-8-8T2:57:31Z</time></trkpt>
<trkpt lat="46.189580000" lon="7.443900000"><ele></ele><time>2013-8-8T2:57:34Z</time></trkpt>
<trkpt lat="46.189530000" lon="7.443730000"><ele></ele><time>2013-8-8T2:57:37Z</time></trkpt>
<trkpt lat="46.189460000" lon="7.443580000"><ele></ele><time>2013-8-8T2:57:40Z</time></trkpt>
<trkpt lat="46.189410000" lon="7.443490000"><ele></ele><time>2013-8-8T2:57:43Z</time></trkpt>
<trkpt lat="46.187690000" lon="7.440740000"><ele></ele><time>2013-8-8T2:57:46Z</time></trkpt>
<trkpt lat="46.187630000" lon="7.440650000"><ele></ele><time>2013-8-8T2:57:49Z</time></trkpt>
<trkpt lat="46.187600000" lon="7.440600000"><ele></ele><time>2013-8-8T2:57:52Z</time></trkpt>
<trkpt lat="46.187570000" lon="7.440560000"><ele></ele><time>2013-8-8T2:57:55Z</time></trkpt>
<trkpt lat="46.187540000" lon="7.440520000"><ele></ele><time>2013-8-8T2:57:58Z</time></trkpt>
<trkpt lat="46.187510000" lon="7.440480000"><ele></ele><time>2013-8-8T2:58:1Z</time></trkpt>
<trkpt lat="46.187470000" lon="7.440450000"><ele></ele><time>2013-8-8T2:58:4Z</time></trkpt>
<trkpt lat="46.187370000" lon="7.440350000"><ele></ele><time>2013-8-8T2:58:7Z</time></trkpt>
<trkpt lat="46.187190000" lon="7.440220000"><ele></ele><time>2013-8-8T2:58:10Z</time></trkpt>
<trkpt lat="46.187100000" lon="7.440150000"><ele></ele><time>2013-8-8T2:58:13Z</time></trkpt>
<trkpt lat="46.187070000" lon="7.440120000"><ele></ele><time>2013-8-8T2:58:16Z</time></trkpt>
<trkpt lat="46.187030000" lon="7.440090000"><ele></ele><time>2013-8-8T2:58:19Z</time></trkpt>
<trkpt lat="46.187000000" lon="7.440070000"><ele></ele><time>2013-8-8T2:58:22Z</time></trkpt>
<trkpt lat="46.186870000" lon="7.439980000"><ele></ele><time>2013-8-8T2:58:25Z</time></trkpt>
<trkpt lat="46.186840000" lon="7.439960000"><ele></ele><time>2013-8-8T2:58:28Z</time></trkpt>
<trkpt lat="46.186810000" lon="7.439940000"><ele></ele><time>2013-8-8T2:58:31Z</time></trkpt>
<trkpt lat="46.186780000" lon="7.439920000"><ele></ele><time>2013-8-8T2:58:34Z</time></trkpt>
<trkpt lat="46.186750000" lon="7.439900000"><ele></ele><time>2013-8-8T2:58:37Z</time></trkpt>
<trkpt lat="46.186500000" lon="7.439750000"><ele></ele><time>2013-8-8T2:58:40Z</time></trkpt>
<trkpt lat="46.186410000" lon="7.439650000"><ele></ele><time>2013-8-8T2:58:43Z</time></trkpt>
<trkpt lat="46.186380000" lon="7.439620000"><ele></ele><time>2013-8-8T2:58:46Z</time></trkpt>
<trkpt lat="46.186360000" lon="7.439580000"><ele></ele><time>2013-8-8T2:58:49Z</time></trkpt>
<trkpt lat="46.186330000" lon="7.439530000"><ele></ele><time>2013-8-8T2:58:52Z</time></trkpt>
<trkpt lat="46.186310000" lon="7.439500000"><ele></ele><time>2013-8-8T2:58:55Z</time></trkpt>
<trkpt lat="46.186150000" lon="7.439240000"><ele></ele><time>2013-8-8T2:58:58Z</time></trkpt>
<trkpt lat="46.186010000" lon="7.438970000"><ele></ele><time>2013-8-8T2:59:1Z</time></trkpt>
<trkpt lat="46.185980000" lon="7.438940000"><ele></ele><time>2013-8-8T2:59:4Z</time></trkpt>
<trkpt lat="46.185960000" lon="7.438900000"><ele></ele><time>2013-8-8T2:59:7Z</time></trkpt>
<trkpt lat="46.185940000" lon="7.438860000"><ele></ele><time>2013-8-8T2:59:10Z</time></trkpt>
<trkpt lat="46.185910000" lon="7.438820000"><ele></ele><time>2013-8-8T2:59:13Z</time></trkpt>
<trkpt lat="46.185890000" lon="7.438780000"><ele></ele><time>2013-8-8T2:59:16Z</time></trkpt>
<trkpt lat="46.185870000" lon="7.438740000"><ele></ele><time>2013-8-8T2:59:19Z</time></trkpt>
<trkpt lat="46.185850000" lon="7.438690000"><ele></ele><time>2013-8-8T2:59:22Z</time></trkpt>
<trkpt lat="46.185830000" lon="7.438650000"><ele></ele><time>2013-8-8T2:59:25Z</time></trkpt>
<trkpt lat="46.185800000" lon="7.438620000"><ele></ele><time>2013-8-8T2:59:28Z</time></trkpt>
<trkpt lat="46.185780000" lon="7.438580000"><ele></ele><time>2013-8-8T2:59:31Z</time></trkpt>
<trkpt lat="46.185750000" lon="7.438550000"><ele></ele><time>2013-8-8T2:59:34Z</time></trkpt>
<trkpt lat="46.185590000" lon="7.438310000"><ele></ele><time>2013-8-8T2:59:37Z</time></trkpt>
<trkpt lat="46.185430000" lon="7.438080000"><ele></ele><time>2013-8-8T2:59:40Z</time></trkpt>
<trkpt lat="46.185400000" lon="7.438050000"><ele></ele><time>2013-8-8T2:59:43Z</time></trkpt>
<trkpt lat="46.185370000" lon="7.438010000"><ele></ele><time>2013-8-8T2:59:46Z</time></trkpt>
<trkpt lat="46.185340000" lon="7.437980000"><ele></ele><time>2013-8-8T2:59:49Z</time></trkpt>
<trkpt lat="46.185310000" lon="7.437950000"><ele></ele><time>2013-8-8T2:59:52Z</time></trkpt>
<trkpt lat="46.185280000" lon="7.437920000"><ele></ele><time>2013-8-8T2:59:55Z</time></trkpt>
<trkpt lat="46.185250000" lon="7.437890000"><ele></ele><time>2013-8-8T2:59:58Z</time></trkpt>
<trkpt lat="46.185100000" lon="7.437690000"><ele></ele><time>2013-8-8T3:0:1Z</time></trkpt>
<trkpt lat="46.185080000" lon="7.437660000"><ele></ele><time>2013-8-8T3:0:4Z</time></trkpt>
<trkpt lat="46.185060000" lon="7.437630000"><ele></ele><time>2013-8-8T3:0:7Z</time></trkpt>
<trkpt lat="46.185040000" lon="7.437590000"><ele></ele><time>2013-8-8T3:0:10Z</time></trkpt>
<trkpt lat="46.185020000" lon="7.437560000"><ele></ele><time>2013-8-8T3:0:13Z</time></trkpt>
<trkpt lat="46.185000000" lon="7.437520000"><ele></ele><time>2013-8-8T3:0:16Z</time></trkpt>
<trkpt lat="46.184880000" lon="7.437280000"><ele></ele><time>2013-8-8T3:0:19Z</time></trkpt>
<trkpt lat="46.184850000" lon="7.437240000"><ele></ele><time>2013-8-8T3:0:22Z</time></trkpt>
<trkpt lat="46.184830000" lon="7.437200000"><ele></ele><time>2013-8-8T3:0:25Z</time></trkpt>
<trkpt lat="46.184810000" lon="7.437170000"><ele></ele><time>2013-8-8T3:0:28Z</time></trkpt>
<trkpt lat="46.184800000" lon="7.437130000"><ele></ele><time>2013-8-8T3:0:31Z</time></trkpt>
<trkpt lat="46.184780000" lon="7.437100000"><ele></ele><time>2013-8-8T3:0:34Z</time></trkpt>
<trkpt lat="46.184720000" lon="7.437040000"><ele></ele><time>2013-8-8T3:0:37Z</time></trkpt>
<trkpt lat="46.184560000" lon="7.436930000"><ele></ele><time>2013-8-8T3:0:40Z</time></trkpt>
<trkpt lat="46.184470000" lon="7.436880000"><ele></ele><time>2013-8-8T3:0:43Z</time></trkpt>
<trkpt lat="46.184440000" lon="7.436870000"><ele></ele><time>2013-8-8T3:0:46Z</time></trkpt>
<trkpt lat="46.184410000" lon="7.436860000"><ele></ele><time>2013-8-8T3:0:49Z</time></trkpt>
<trkpt lat="46.184380000" lon="7.436850000"><ele></ele><time>2013-8-8T3:0:52Z</time></trkpt>
<trkpt lat="46.184350000" lon="7.436830000"><ele></ele><time>2013-8-8T3:0:55Z</time></trkpt>
<trkpt lat="46.184120000" lon="7.436730000"><ele></ele><time>2013-8-8T3:0:58Z</time></trkpt>
<trkpt lat="46.184010000" lon="7.436660000"><ele></ele><time>2013-8-8T3:1:1Z</time></trkpt>
<trkpt lat="46.183980000" lon="7.436640000"><ele></ele><time>2013-8-8T3:1:4Z</time></trkpt>
<trkpt lat="46.183960000" lon="7.436630000"><ele></ele><time>2013-8-8T3:1:7Z</time></trkpt>
<trkpt lat="46.183930000" lon="7.436620000"><ele></ele><time>2013-8-8T3:1:10Z</time></trkpt>
<trkpt lat="46.183900000" lon="7.436600000"><ele></ele><time>2013-8-8T3:1:13Z</time></trkpt>
<trkpt lat="46.183730000" lon="7.436490000"><ele></ele><time>2013-8-8T3:1:16Z</time></trkpt>
<trkpt lat="46.183670000" lon="7.436450000"><ele></ele><time>2013-8-8T3:1:19Z</time></trkpt>
<trkpt lat="46.183640000" lon="7.436440000"><ele></ele><time>2013-8-8T3:1:22Z</time></trkpt>
<trkpt lat="46.183610000" lon="7.436420000"><ele></ele><time>2013-8-8T3:1:25Z</time></trkpt>
<trkpt lat="46.183570000" lon="7.436400000"><ele></ele><time>2013-8-8T3:1:28Z</time></trkpt>
<trkpt lat="46.183490000" lon="7.436380000"><ele></ele><time>2013-8-8T3:1:31Z</time></trkpt>
<trkpt lat="46.183270000" lon="7.436320000"><ele></ele><time>2013-8-8T3:1:34Z</time></trkpt>
<trkpt lat="46.183230000" lon="7.436320000"><ele></ele><time>2013-8-8T3:1:37Z</time></trkpt>
<trkpt lat="46.183190000" lon="7.436330000"><ele></ele><time>2013-8-8T3:1:40Z</time></trkpt>
<trkpt lat="46.183160000" lon="7.436320000"><ele></ele><time>2013-8-8T3:1:43Z</time></trkpt>
<trkpt lat="46.183120000" lon="7.436320000"><ele></ele><time>2013-8-8T3:1:46Z</time></trkpt>
<trkpt lat="46.183030000" lon="7.436340000"><ele></ele><time>2013-8-8T3:1:49Z</time></trkpt>
<trkpt lat="46.182930000" lon="7.436360000"><ele></ele><time>2013-8-8T3:1:52Z</time></trkpt>
<trkpt lat="46.182900000" lon="7.436360000"><ele></ele><time>2013-8-8T3:1:55Z</time></trkpt>
<trkpt lat="46.182870000" lon="7.436360000"><ele></ele><time>2013-8-8T3:1:58Z</time></trkpt>
<trkpt lat="46.182840000" lon="7.436360000"><ele></ele><time>2013-8-8T3:2:1Z</time></trkpt>
<trkpt lat="46.182810000" lon="7.436350000"><ele></ele><time>2013-8-8T3:2:4Z</time></trkpt>
<trkpt lat="46.182750000" lon="7.436340000"><ele></ele><time>2013-8-8T3:2:7Z</time></trkpt>
<trkpt lat="46.182570000" lon="7.436310000"><ele></ele><time>2013-8-8T3:2:10Z</time></trkpt>
<trkpt lat="46.182540000" lon="7.436300000"><ele></ele><time>2013-8-8T3:2:13Z</time></trkpt>
<trkpt lat="46.182510000" lon="7.436290000"><ele></ele><time>2013-8-8T3:2:16Z</time></trkpt>
<trkpt lat="46.182480000" lon="7.436280000"><ele></ele><time>2013-8-8T3:2:19Z</time></trkpt>
<trkpt lat="46.182450000" lon="7.436280000"><ele></ele><time>2013-8-8T3:2:22Z</time></trkpt>
<trkpt lat="46.182340000" lon="7.436250000"><ele></ele><time>2013-8-8T3:2:25Z</time></trkpt>
<trkpt lat="46.182140000" lon="7.436220000"><ele></ele><time>2013-8-8T3:2:28Z</time></trkpt>
<trkpt lat="46.182040000" lon="7.436210000"><ele></ele><time>2013-8-8T3:2:31Z</time></trkpt>
<trkpt lat="46.182000000" lon="7.436220000"><ele></ele><time>2013-8-8T3:2:34Z</time></trkpt>
<trkpt lat="46.181970000" lon="7.436210000"><ele></ele><time>2013-8-8T3:2:37Z</time></trkpt>
<trkpt lat="46.181930000" lon="7.436220000"><ele></ele><time>2013-8-8T3:2:40Z</time></trkpt>
<trkpt lat="46.181900000" lon="7.436220000"><ele></ele><time>2013-8-8T3:2:43Z</time></trkpt>
<trkpt lat="46.181710000" lon="7.436340000"><ele></ele><time>2013-8-8T3:2:46Z</time></trkpt>
<trkpt lat="46.181540000" lon="7.436470000"><ele></ele><time>2013-8-8T3:2:49Z</time></trkpt>
<trkpt lat="46.181420000" lon="7.436570000"><ele></ele><time>2013-8-8T3:2:52Z</time></trkpt>
<trkpt lat="46.181390000" lon="7.436600000"><ele></ele><time>2013-8-8T3:2:55Z</time></trkpt>
<trkpt lat="46.181350000" lon="7.436620000"><ele></ele><time>2013-8-8T3:2:58Z</time></trkpt>
<trkpt lat="46.181320000" lon="7.436650000"><ele></ele><time>2013-8-8T3:3:1Z</time></trkpt>
<trkpt lat="46.181290000" lon="7.436690000"><ele></ele><time>2013-8-8T3:3:4Z</time></trkpt>
<trkpt lat="46.181220000" lon="7.436750000"><ele></ele><time>2013-8-8T3:3:7Z</time></trkpt>
<trkpt lat="46.181150000" lon="7.436830000"><ele></ele><time>2013-8-8T3:3:10Z</time></trkpt>
<trkpt lat="46.181080000" lon="7.436920000"><ele></ele><time>2013-8-8T3:3:13Z</time></trkpt>
<trkpt lat="46.181010000" lon="7.437100000"><ele></ele><time>2013-8-8T3:3:16Z</time></trkpt>
<trkpt lat="46.180990000" lon="7.437160000"><ele></ele><time>2013-8-8T3:3:19Z</time></trkpt>
<trkpt lat="46.180910000" lon="7.437410000"><ele></ele><time>2013-8-8T3:3:22Z</time></trkpt>
<trkpt lat="46.180890000" lon="7.437480000"><ele></ele><time>2013-8-8T3:3:25Z</time></trkpt>
<trkpt lat="46.180800000" lon="7.437690000"><ele></ele><time>2013-8-8T3:3:28Z</time></trkpt>
<trkpt lat="46.180760000" lon="7.437760000"><ele></ele><time>2013-8-8T3:3:31Z</time></trkpt>
<trkpt lat="46.180650000" lon="7.437970000"><ele></ele><time>2013-8-8T3:3:34Z</time></trkpt>
<trkpt lat="46.180600000" lon="7.438020000"><ele></ele><time>2013-8-8T3:3:37Z</time></trkpt>
<trkpt lat="46.180550000" lon="7.438070000"><ele></ele><time>2013-8-8T3:3:40Z</time></trkpt>
<trkpt lat="46.180490000" lon="7.438100000"><ele></ele><time>2013-8-8T3:3:43Z</time></trkpt>
<trkpt lat="46.180430000" lon="7.438130000"><ele></ele><time>2013-8-8T3:3:46Z</time></trkpt>
<trkpt lat="46.180370000" lon="7.438140000"><ele></ele><time>2013-8-8T3:3:49Z</time></trkpt>
<trkpt lat="46.180300000" lon="7.438150000"><ele></ele><time>2013-8-8T3:3:52Z</time></trkpt>
<trkpt lat="46.180240000" lon="7.438160000"><ele></ele><time>2013-8-8T3:3:55Z</time></trkpt>
<trkpt lat="46.180170000" lon="7.438160000"><ele></ele><time>2013-8-8T3:3:58Z</time></trkpt>
<trkpt lat="46.180110000" lon="7.438180000"><ele></ele><time>2013-8-8T3:4:1Z</time></trkpt>
<trkpt lat="46.179990000" lon="7.438210000"><ele></ele><time>2013-8-8T3:4:4Z</time></trkpt>
<trkpt lat="46.179930000" lon="7.438230000"><ele></ele><time>2013-8-8T3:4:7Z</time></trkpt>
<trkpt lat="46.179600000" lon="7.438320000"><ele></ele><time>2013-8-8T3:4:10Z</time></trkpt>
<trkpt lat="46.179530000" lon="7.438330000"><ele></ele><time>2013-8-8T3:4:13Z</time></trkpt>
<trkpt lat="46.179450000" lon="7.438350000"><ele></ele><time>2013-8-8T3:4:16Z</time></trkpt>
<trkpt lat="46.179380000" lon="7.438360000"><ele></ele><time>2013-8-8T3:4:19Z</time></trkpt>
<trkpt lat="46.179310000" lon="7.438380000"><ele></ele><time>2013-8-8T3:4:22Z</time></trkpt>
<trkpt lat="46.179080000" lon="7.438390000"><ele></ele><time>2013-8-8T3:4:25Z</time></trkpt>
<trkpt lat="46.178920000" lon="7.438380000"><ele></ele><time>2013-8-8T3:4:28Z</time></trkpt>
<trkpt lat="46.178850000" lon="7.438380000"><ele></ele><time>2013-8-8T3:4:31Z</time></trkpt>
<trkpt lat="46.178770000" lon="7.438390000"><ele></ele><time>2013-8-8T3:4:34Z</time></trkpt>
<trkpt lat="46.178680000" lon="7.438390000"><ele></ele><time>2013-8-8T3:4:37Z</time></trkpt>
<trkpt lat="46.178600000" lon="7.438390000"><ele></ele><time>2013-8-8T3:4:40Z</time></trkpt>
<trkpt lat="46.178440000" lon="7.438410000"><ele></ele><time>2013-8-8T3:4:43Z</time></trkpt>
<trkpt lat="46.178360000" lon="7.438430000"><ele></ele><time>2013-8-8T3:4:46Z</time></trkpt>
<trkpt lat="46.178280000" lon="7.438460000"><ele></ele><time>2013-8-8T3:4:49Z</time></trkpt>
<trkpt lat="46.178210000" lon="7.438510000"><ele></ele><time>2013-8-8T3:4:52Z</time></trkpt>
<trkpt lat="46.178140000" lon="7.438580000"><ele></ele><time>2013-8-8T3:4:55Z</time></trkpt>
<trkpt lat="46.178070000" lon="7.438660000"><ele></ele><time>2013-8-8T3:4:58Z</time></trkpt>
<trkpt lat="46.178020000" lon="7.438760000"><ele></ele><time>2013-8-8T3:5:1Z</time></trkpt>
<trkpt lat="46.177960000" lon="7.438860000"><ele></ele><time>2013-8-8T3:5:4Z</time></trkpt>
<trkpt lat="46.177900000" lon="7.438940000"><ele></ele><time>2013-8-8T3:5:7Z</time></trkpt>
<trkpt lat="46.177840000" lon="7.439020000"><ele></ele><time>2013-8-8T3:5:10Z</time></trkpt>
<trkpt lat="46.177770000" lon="7.439100000"><ele></ele><time>2013-8-8T3:5:13Z</time></trkpt>
<trkpt lat="46.177630000" lon="7.439260000"><ele></ele><time>2013-8-8T3:5:16Z</time></trkpt>
<trkpt lat="46.177560000" lon="7.439340000"><ele></ele><time>2013-8-8T3:5:19Z</time></trkpt>
<trkpt lat="46.177490000" lon="7.439420000"><ele></ele><time>2013-8-8T3:5:22Z</time></trkpt>
<trkpt lat="46.177420000" lon="7.439500000"><ele></ele><time>2013-8-8T3:5:25Z</time></trkpt>
<trkpt lat="46.177350000" lon="7.439580000"><ele></ele><time>2013-8-8T3:5:28Z</time></trkpt>
<trkpt lat="46.177270000" lon="7.439660000"><ele></ele><time>2013-8-8T3:5:31Z</time></trkpt>
<trkpt lat="46.177190000" lon="7.439730000"><ele></ele><time>2013-8-8T3:5:34Z</time></trkpt>
<trkpt lat="46.177110000" lon="7.439800000"><ele></ele><time>2013-8-8T3:5:37Z</time></trkpt>
<trkpt lat="46.177020000" lon="7.439850000"><ele></ele><time>2013-8-8T3:5:40Z</time></trkpt>
<trkpt lat="46.176940000" lon="7.439910000"><ele></ele><time>2013-8-8T3:5:43Z</time></trkpt>
<trkpt lat="46.176850000" lon="7.439970000"><ele></ele><time>2013-8-8T3:5:46Z</time></trkpt>
<trkpt lat="46.176510000" lon="7.440190000"><ele></ele><time>2013-8-8T3:5:49Z</time></trkpt>
<trkpt lat="46.176250000" lon="7.440340000"><ele></ele><time>2013-8-8T3:5:52Z</time></trkpt>
<trkpt lat="46.176160000" lon="7.440390000"><ele></ele><time>2013-8-8T3:5:55Z</time></trkpt>
<trkpt lat="46.176080000" lon="7.440460000"><ele></ele><time>2013-8-8T3:5:58Z</time></trkpt>
<trkpt lat="46.175990000" lon="7.440520000"><ele></ele><time>2013-8-8T3:6:1Z</time></trkpt>
<trkpt lat="46.175910000" lon="7.440590000"><ele></ele><time>2013-8-8T3:6:4Z</time></trkpt>
<trkpt lat="46.175830000" lon="7.440660000"><ele></ele><time>2013-8-8T3:6:7Z</time></trkpt>
<trkpt lat="46.175750000" lon="7.440740000"><ele></ele><time>2013-8-8T3:6:10Z</time></trkpt>
<trkpt lat="46.175660000" lon="7.440810000"><ele></ele><time>2013-8-8T3:6:13Z</time></trkpt>
<trkpt lat="46.175580000" lon="7.440880000"><ele></ele><time>2013-8-8T3:6:16Z</time></trkpt>
<trkpt lat="46.175490000" lon="7.440940000"><ele></ele><time>2013-8-8T3:6:19Z</time></trkpt>
<trkpt lat="46.175040000" lon="7.441200000"><ele></ele><time>2013-8-8T3:6:22Z</time></trkpt>
<trkpt lat="46.174950000" lon="7.441250000"><ele></ele><time>2013-8-8T3:6:25Z</time></trkpt>
<trkpt lat="46.174860000" lon="7.441300000"><ele></ele><time>2013-8-8T3:6:28Z</time></trkpt>
<trkpt lat="46.174770000" lon="7.441340000"><ele></ele><time>2013-8-8T3:6:31Z</time></trkpt>
<trkpt lat="46.174690000" lon="7.441390000"><ele></ele><time>2013-8-8T3:6:34Z</time></trkpt>
<trkpt lat="46.174430000" lon="7.441550000"><ele></ele><time>2013-8-8T3:6:37Z</time></trkpt>
<trkpt lat="46.174190000" lon="7.441750000"><ele></ele><time>2013-8-8T3:6:40Z</time></trkpt>
<trkpt lat="46.174080000" lon="7.441960000"><ele></ele><time>2013-8-8T3:6:43Z</time></trkpt>
<trkpt lat="46.174020000" lon="7.442050000"><ele></ele><time>2013-8-8T3:6:46Z</time></trkpt>
<trkpt lat="46.173950000" lon="7.442150000"><ele></ele><time>2013-8-8T3:6:49Z</time></trkpt>
<trkpt lat="46.173900000" lon="7.442270000"><ele></ele><time>2013-8-8T3:6:52Z</time></trkpt>
<trkpt lat="46.173850000" lon="7.442370000"><ele></ele><time>2013-8-8T3:6:55Z</time></trkpt>
<trkpt lat="46.173800000" lon="7.442480000"><ele></ele><time>2013-8-8T3:6:58Z</time></trkpt>
<trkpt lat="46.173750000" lon="7.442580000"><ele></ele><time>2013-8-8T3:7:1Z</time></trkpt>
<trkpt lat="46.173690000" lon="7.442690000"><ele></ele><time>2013-8-8T3:7:4Z</time></trkpt>
<trkpt lat="46.173640000" lon="7.442780000"><ele></ele><time>2013-8-8T3:7:7Z</time></trkpt>
<trkpt lat="46.173530000" lon="7.442960000"><ele></ele><time>2013-8-8T3:7:10Z</time></trkpt>
<trkpt lat="46.173470000" lon="7.443040000"><ele></ele><time>2013-8-8T3:7:13Z</time></trkpt>
<trkpt lat="46.173420000" lon="7.443110000"><ele></ele><time>2013-8-8T3:7:16Z</time></trkpt>
<trkpt lat="46.173360000" lon="7.443180000"><ele></ele><time>2013-8-8T3:7:19Z</time></trkpt>
<trkpt lat="46.173310000" lon="7.443240000"><ele></ele><time>2013-8-8T3:7:22Z</time></trkpt>
<trkpt lat="46.173280000" lon="7.443290000"><ele></ele><time>2013-8-8T3:7:25Z</time></trkpt>
<trkpt lat="46.173280000" lon="7.443330000"><ele></ele><time>2013-8-8T3:7:28Z</time></trkpt>
<trkpt lat="46.173310000" lon="7.443350000"><ele></ele><time>2013-8-8T3:7:31Z</time></trkpt>
<trkpt lat="46.173310000" lon="7.443370000"><ele></ele><time>2013-8-8T3:7:34Z</time></trkpt>
<trkpt lat="46.173300000" lon="7.443370000"><ele></ele><time>2013-8-8T3:7:37Z</time></trkpt>
<trkpt lat="46.173310000" lon="7.443370000"><ele></ele><time>2013-8-8T3:7:40Z</time></trkpt>
<trkpt lat="46.173310000" lon="7.443370000"><ele></ele><time>2013-8-8T3:7:43Z</time></trkpt>
<trkpt lat="46.173310000" lon="7.443370000"><ele></ele><time>2013-8-8T3:7:46Z</time></trkpt>
<trkpt lat="46.173310000" lon="7.443370000"><ele></ele><time>2013-8-8T3:7:49Z</time></trkpt>
<trkpt lat="46.173310000" lon="7.443370000"><ele></ele><time>2013-8-8T3:7:52Z</time></trkpt>
<trkpt lat="46.173310000" lon="7.443370000"><ele></ele><time>2013-8-8T3:7:55Z</time></trkpt>
<trkpt lat="46.173300000" lon="7.443370000"><ele></ele><time>2013-8-8T3:7:58Z</time></trkpt>
<trkpt lat="46.173230000" lon="7.443430000"><ele></ele><time>2013-8-8T3:8:1Z</time></trkpt>
<trkpt lat="46.173220000" lon="7.443450000"><ele></ele><time>2013-8-8T3:8:4Z</time></trkpt>
<trkpt lat="46.173150000" lon="7.443490000"><ele></ele><time>2013-8-8T3:8:7Z</time></trkpt>
<trkpt lat="46.173030000" lon="7.443600000"><ele></ele><time>2013-8-8T3:8:10Z</time></trkpt>
<trkpt lat="46.172970000" lon="7.443660000"><ele></ele><time>2013-8-8T3:8:13Z</time></trkpt>
<trkpt lat="46.172940000" lon="7.443690000"><ele></ele><time>2013-8-8T3:8:16Z</time></trkpt>
<trkpt lat="46.172900000" lon="7.443730000"><ele></ele><time>2013-8-8T3:8:19Z</time></trkpt>
<trkpt lat="46.172870000" lon="7.443750000"><ele></ele><time>2013-8-8T3:8:22Z</time></trkpt>
<trkpt lat="46.172850000" lon="7.443780000"><ele></ele><time>2013-8-8T3:8:25Z</time></trkpt>
<trkpt lat="46.172820000" lon="7.443810000"><ele></ele><time>2013-8-8T3:8:28Z</time></trkpt>
<trkpt lat="46.172710000" lon="7.443950000"><ele></ele><time>2013-8-8T3:8:31Z</time></trkpt>
<trkpt lat="46.172670000" lon="7.443970000"><ele></ele><time>2013-8-8T3:8:34Z</time></trkpt>
<trkpt lat="46.172640000" lon="7.443980000"><ele></ele><time>2013-8-8T3:8:37Z</time></trkpt>
<trkpt lat="46.172610000" lon="7.444000000"><ele></ele><time>2013-8-8T3:8:40Z</time></trkpt>
<trkpt lat="46.172510000" lon="7.444060000"><ele></ele><time>2013-8-8T3:8:43Z</time></trkpt>
<trkpt lat="46.172480000" lon="7.444080000"><ele></ele><time>2013-8-8T3:8:46Z</time></trkpt>
<trkpt lat="46.172440000" lon="7.444090000"><ele></ele><time>2013-8-8T3:8:49Z</time></trkpt>
<trkpt lat="46.172410000" lon="7.444100000"><ele></ele><time>2013-8-8T3:8:52Z</time></trkpt>
<trkpt lat="46.172370000" lon="7.444110000"><ele></ele><time>2013-8-8T3:8:55Z</time></trkpt>
<trkpt lat="46.172230000" lon="7.444140000"><ele></ele><time>2013-8-8T3:8:58Z</time></trkpt>
<trkpt lat="46.172020000" lon="7.444280000"><ele></ele><time>2013-8-8T3:9:1Z</time></trkpt>
<trkpt lat="46.171920000" lon="7.444340000"><ele></ele><time>2013-8-8T3:9:4Z</time></trkpt>
<trkpt lat="46.171890000" lon="7.444350000"><ele></ele><time>2013-8-8T3:9:7Z</time></trkpt>
<trkpt lat="46.171860000" lon="7.444380000"><ele></ele><time>2013-8-8T3:9:10Z</time></trkpt>
<trkpt lat="46.171830000" lon="7.444400000"><ele></ele><time>2013-8-8T3:9:13Z</time></trkpt>
<trkpt lat="46.171810000" lon="7.444420000"><ele></ele><time>2013-8-8T3:9:16Z</time></trkpt>
<trkpt lat="46.171770000" lon="7.444480000"><ele></ele><time>2013-8-8T3:9:19Z</time></trkpt>
<trkpt lat="46.171750000" lon="7.444510000"><ele></ele><time>2013-8-8T3:9:22Z</time></trkpt>
<trkpt lat="46.171750000" lon="7.444540000"><ele></ele><time>2013-8-8T3:9:25Z</time></trkpt>
<trkpt lat="46.171730000" lon="7.444580000"><ele></ele><time>2013-8-8T3:9:28Z</time></trkpt>
<trkpt lat="46.171720000" lon="7.444620000"><ele></ele><time>2013-8-8T3:9:31Z</time></trkpt>
<trkpt lat="46.171670000" lon="7.444750000"><ele></ele><time>2013-8-8T3:9:34Z</time></trkpt>
<trkpt lat="46.171660000" lon="7.444790000"><ele></ele><time>2013-8-8T3:9:37Z</time></trkpt>
<trkpt lat="46.171650000" lon="7.444820000"><ele></ele><time>2013-8-8T3:9:40Z</time></trkpt>
<trkpt lat="46.171640000" lon="7.444850000"><ele></ele><time>2013-8-8T3:9:43Z</time></trkpt>
<trkpt lat="46.171630000" lon="7.444890000"><ele></ele><time>2013-8-8T3:9:46Z</time></trkpt>
<trkpt lat="46.171550000" lon="7.444970000"><ele></ele><time>2013-8-8T3:9:49Z</time></trkpt>
<trkpt lat="46.171530000" lon="7.444970000"><ele></ele><time>2013-8-8T3:9:52Z</time></trkpt>
<trkpt lat="46.171500000" lon="7.444990000"><ele></ele><time>2013-8-8T3:9:55Z</time></trkpt>
<trkpt lat="46.171480000" lon="7.445000000"><ele></ele><time>2013-8-8T3:9:58Z</time></trkpt>
<trkpt lat="46.171460000" lon="7.445000000"><ele></ele><time>2013-8-8T3:10:1Z</time></trkpt>
<trkpt lat="46.171440000" lon="7.445010000"><ele></ele><time>2013-8-8T3:10:4Z</time></trkpt>
<trkpt lat="46.171420000" lon="7.445020000"><ele></ele><time>2013-8-8T3:10:7Z</time></trkpt>
<trkpt lat="46.171380000" lon="7.445040000"><ele></ele><time>2013-8-8T3:10:10Z</time></trkpt>
<trkpt lat="46.171350000" lon="7.445050000"><ele></ele><time>2013-8-8T3:10:13Z</time></trkpt>
<trkpt lat="46.171330000" lon="7.445060000"><ele></ele><time>2013-8-8T3:10:16Z</time></trkpt>
<trkpt lat="46.171310000" lon="7.445070000"><ele></ele><time>2013-8-8T3:10:19Z</time></trkpt>
<trkpt lat="46.171290000" lon="7.445090000"><ele></ele><time>2013-8-8T3:10:22Z</time></trkpt>
<trkpt lat="46.171190000" lon="7.445200000"><ele></ele><time>2013-8-8T3:10:25Z</time></trkpt>
<trkpt lat="46.171170000" lon="7.445230000"><ele></ele><time>2013-8-8T3:10:28Z</time></trkpt>
<trkpt lat="46.171150000" lon="7.445260000"><ele></ele><time>2013-8-8T3:10:31Z</time></trkpt>
<trkpt lat="46.171140000" lon="7.445280000"><ele></ele><time>2013-8-8T3:10:34Z</time></trkpt>
<trkpt lat="46.171120000" lon="7.445310000"><ele></ele><time>2013-8-8T3:10:37Z</time></trkpt>
<trkpt lat="46.171020000" lon="7.445480000"><ele></ele><time>2013-8-8T3:10:40Z</time></trkpt>
<trkpt lat="46.171010000" lon="7.445500000"><ele></ele><time>2013-8-8T3:10:43Z</time></trkpt>
<trkpt lat="46.171000000" lon="7.445530000"><ele></ele><time>2013-8-8T3:10:46Z</time></trkpt>
<trkpt lat="46.170990000" lon="7.445560000"><ele></ele><time>2013-8-8T3:10:49Z</time></trkpt>
<trkpt lat="46.170970000" lon="7.445590000"><ele></ele><time>2013-8-8T3:10:52Z</time></trkpt>
<trkpt lat="46.170930000" lon="7.445720000"><ele></ele><time>2013-8-8T3:10:55Z</time></trkpt>
<trkpt lat="46.170920000" lon="7.445760000"><ele></ele><time>2013-8-8T3:10:58Z</time></trkpt>
<trkpt lat="46.170920000" lon="7.445790000"><ele></ele><time>2013-8-8T3:11:1Z</time></trkpt>
<trkpt lat="46.170910000" lon="7.445820000"><ele></ele><time>2013-8-8T3:11:4Z</time></trkpt>
<trkpt lat="46.170910000" lon="7.445860000"><ele></ele><time>2013-8-8T3:11:7Z</time></trkpt>
<trkpt lat="46.170890000" lon="7.445960000"><ele></ele><time>2013-8-8T3:11:10Z</time></trkpt>
<trkpt lat="46.170860000" lon="7.446090000"><ele></ele><time>2013-8-8T3:11:13Z</time></trkpt>
<trkpt lat="46.170860000" lon="7.446120000"><ele></ele><time>2013-8-8T3:11:16Z</time></trkpt>
<trkpt lat="46.170850000" lon="7.446160000"><ele></ele><time>2013-8-8T3:11:19Z</time></trkpt>
<trkpt lat="46.170850000" lon="7.446190000"><ele></ele><time>2013-8-8T3:11:22Z</time></trkpt>
<trkpt lat="46.170850000" lon="7.446220000"><ele></ele><time>2013-8-8T3:11:25Z</time></trkpt>
<trkpt lat="46.170800000" lon="7.446420000"><ele></ele><time>2013-8-8T3:11:28Z</time></trkpt>
<trkpt lat="46.170780000" lon="7.446460000"><ele></ele><time>2013-8-8T3:11:31Z</time></trkpt>
<trkpt lat="46.170770000" lon="7.446490000"><ele></ele><time>2013-8-8T3:11:34Z</time></trkpt>
<trkpt lat="46.170760000" lon="7.446520000"><ele></ele><time>2013-8-8T3:11:37Z</time></trkpt>
<trkpt lat="46.170710000" lon="7.446670000"><ele></ele><time>2013-8-8T3:11:40Z</time></trkpt>
<trkpt lat="46.170700000" lon="7.446700000"><ele></ele><time>2013-8-8T3:11:43Z</time></trkpt>
<trkpt lat="46.170690000" lon="7.446730000"><ele></ele><time>2013-8-8T3:11:46Z</time></trkpt>
<trkpt lat="46.170680000" lon="7.446760000"><ele></ele><time>2013-8-8T3:11:49Z</time></trkpt>
<trkpt lat="46.170670000" lon="7.446790000"><ele></ele><time>2013-8-8T3:11:52Z</time></trkpt>
<trkpt lat="46.170650000" lon="7.446880000"><ele></ele><time>2013-8-8T3:11:55Z</time></trkpt>
<trkpt lat="46.170630000" lon="7.446970000"><ele></ele><time>2013-8-8T3:11:58Z</time></trkpt>
<trkpt lat="46.170620000" lon="7.447010000"><ele></ele><time>2013-8-8T3:12:1Z</time></trkpt>
<trkpt lat="46.170610000" lon="7.447040000"><ele></ele><time>2013-8-8T3:12:4Z</time></trkpt>
<trkpt lat="46.170600000" lon="7.447060000"><ele></ele><time>2013-8-8T3:12:7Z</time></trkpt>
<trkpt lat="46.170590000" lon="7.447100000"><ele></ele><time>2013-8-8T3:12:10Z</time></trkpt>
<trkpt lat="46.170540000" lon="7.447300000"><ele></ele><time>2013-8-8T3:12:13Z</time></trkpt>
<trkpt lat="46.170520000" lon="7.447330000"><ele></ele><time>2013-8-8T3:12:16Z</time></trkpt>
<trkpt lat="46.170510000" lon="7.447370000"><ele></ele><time>2013-8-8T3:12:19Z</time></trkpt>
<trkpt lat="46.170500000" lon="7.447400000"><ele></ele><time>2013-8-8T3:12:22Z</time></trkpt>
<trkpt lat="46.170490000" lon="7.447430000"><ele></ele><time>2013-8-8T3:12:25Z</time></trkpt>
<trkpt lat="46.170480000" lon="7.447460000"><ele></ele><time>2013-8-8T3:12:28Z</time></trkpt>
<trkpt lat="46.170440000" lon="7.447550000"><ele></ele><time>2013-8-8T3:12:31Z</time></trkpt>
<trkpt lat="46.170430000" lon="7.447580000"><ele></ele><time>2013-8-8T3:12:34Z</time></trkpt>
<trkpt lat="46.170430000" lon="7.447610000"><ele></ele><time>2013-8-8T3:12:37Z</time></trkpt>
<trkpt lat="46.170410000" lon="7.447640000"><ele></ele><time>2013-8-8T3:12:40Z</time></trkpt>
<trkpt lat="46.170410000" lon="7.447670000"><ele></ele><time>2013-8-8T3:12:43Z</time></trkpt>
<trkpt lat="46.170370000" lon="7.447790000"><ele></ele><time>2013-8-8T3:12:46Z</time></trkpt>
<trkpt lat="46.170360000" lon="7.447830000"><ele></ele><time>2013-8-8T3:12:49Z</time></trkpt>
<trkpt lat="46.170360000" lon="7.447860000"><ele></ele><time>2013-8-8T3:12:52Z</time></trkpt>
<trkpt lat="46.170360000" lon="7.447890000"><ele></ele><time>2013-8-8T3:12:55Z</time></trkpt>
<trkpt lat="46.170360000" lon="7.447920000"><ele></ele><time>2013-8-8T3:12:58Z</time></trkpt>
<trkpt lat="46.170350000" lon="7.448060000"><ele></ele><time>2013-8-8T3:13:1Z</time></trkpt>
<trkpt lat="46.170340000" lon="7.448120000"><ele></ele><time>2013-8-8T3:13:4Z</time></trkpt>
<trkpt lat="46.170330000" lon="7.448160000"><ele></ele><time>2013-8-8T3:13:7Z</time></trkpt>
<trkpt lat="46.170330000" lon="7.448190000"><ele></ele><time>2013-8-8T3:13:10Z</time></trkpt>
<trkpt lat="46.170320000" lon="7.448230000"><ele></ele><time>2013-8-8T3:13:13Z</time></trkpt>
<trkpt lat="46.170320000" lon="7.448260000"><ele></ele><time>2013-8-8T3:13:16Z</time></trkpt>
<trkpt lat="46.170300000" lon="7.448330000"><ele></ele><time>2013-8-8T3:13:19Z</time></trkpt>
<trkpt lat="46.170280000" lon="7.448420000"><ele></ele><time>2013-8-8T3:13:22Z</time></trkpt>
<trkpt lat="46.170270000" lon="7.448450000"><ele></ele><time>2013-8-8T3:13:25Z</time></trkpt>
<trkpt lat="46.170270000" lon="7.448480000"><ele></ele><time>2013-8-8T3:13:28Z</time></trkpt>
<trkpt lat="46.170260000" lon="7.448510000"><ele></ele><time>2013-8-8T3:13:31Z</time></trkpt>
<trkpt lat="46.170250000" lon="7.448540000"><ele></ele><time>2013-8-8T3:13:34Z</time></trkpt>
<trkpt lat="46.170210000" lon="7.448700000"><ele></ele><time>2013-8-8T3:13:37Z</time></trkpt>
<trkpt lat="46.170200000" lon="7.448740000"><ele></ele><time>2013-8-8T3:13:40Z</time></trkpt>
<trkpt lat="46.170190000" lon="7.448770000"><ele></ele><time>2013-8-8T3:13:43Z</time></trkpt>
<trkpt lat="46.170180000" lon="7.448800000"><ele></ele><time>2013-8-8T3:13:46Z</time></trkpt>
<trkpt lat="46.170120000" lon="7.448960000"><ele></ele><time>2013-8-8T3:13:49Z</time></trkpt>
<trkpt lat="46.170110000" lon="7.448990000"><ele></ele><time>2013-8-8T3:13:52Z</time></trkpt>
<trkpt lat="46.170090000" lon="7.449020000"><ele></ele><time>2013-8-8T3:13:55Z</time></trkpt>
<trkpt lat="46.170070000" lon="7.449040000"><ele></ele><time>2013-8-8T3:13:58Z</time></trkpt>
<trkpt lat="46.170050000" lon="7.449070000"><ele></ele><time>2013-8-8T3:14:1Z</time></trkpt>
<trkpt lat="46.169950000" lon="7.449170000"><ele></ele><time>2013-8-8T3:14:4Z</time></trkpt>
<trkpt lat="46.169930000" lon="7.449180000"><ele></ele><time>2013-8-8T3:14:7Z</time></trkpt>
<trkpt lat="46.169910000" lon="7.449180000"><ele></ele><time>2013-8-8T3:14:10Z</time></trkpt>
<trkpt lat="46.169880000" lon="7.449190000"><ele></ele><time>2013-8-8T3:14:13Z</time></trkpt>
<trkpt lat="46.169860000" lon="7.449200000"><ele></ele><time>2013-8-8T3:14:16Z</time></trkpt>
<trkpt lat="46.169750000" lon="7.449230000"><ele></ele><time>2013-8-8T3:14:19Z</time></trkpt>
<trkpt lat="46.169730000" lon="7.449230000"><ele></ele><time>2013-8-8T3:14:22Z</time></trkpt>
<trkpt lat="46.169700000" lon="7.449240000"><ele></ele><time>2013-8-8T3:14:25Z</time></trkpt>
<trkpt lat="46.169680000" lon="7.449250000"><ele></ele><time>2013-8-8T3:14:28Z</time></trkpt>
<trkpt lat="46.169600000" lon="7.449250000"><ele></ele><time>2013-8-8T3:14:31Z</time></trkpt>
<trkpt lat="46.169570000" lon="7.449250000"><ele></ele><time>2013-8-8T3:14:34Z</time></trkpt>
<trkpt lat="46.169550000" lon="7.449250000"><ele></ele><time>2013-8-8T3:14:37Z</time></trkpt>
<trkpt lat="46.169520000" lon="7.449250000"><ele></ele><time>2013-8-8T3:14:40Z</time></trkpt>
<trkpt lat="46.169500000" lon="7.449250000"><ele></ele><time>2013-8-8T3:14:43Z</time></trkpt>
<trkpt lat="46.169480000" lon="7.449240000"><ele></ele><time>2013-8-8T3:14:46Z</time></trkpt>
<trkpt lat="46.169430000" lon="7.449240000"><ele></ele><time>2013-8-8T3:14:49Z</time></trkpt>
<trkpt lat="46.169380000" lon="7.449240000"><ele></ele><time>2013-8-8T3:14:52Z</time></trkpt>
<trkpt lat="46.169360000" lon="7.449250000"><ele></ele><time>2013-8-8T3:14:55Z</time></trkpt>
<trkpt lat="46.169330000" lon="7.449250000"><ele></ele><time>2013-8-8T3:14:58Z</time></trkpt>
<trkpt lat="46.169310000" lon="7.449270000"><ele></ele><time>2013-8-8T3:15:1Z</time></trkpt>
<trkpt lat="46.169290000" lon="7.449280000"><ele></ele><time>2013-8-8T3:15:4Z</time></trkpt>
<trkpt lat="46.169220000" lon="7.449310000"><ele></ele><time>2013-8-8T3:15:7Z</time></trkpt>
<trkpt lat="46.169190000" lon="7.449320000"><ele></ele><time>2013-8-8T3:15:10Z</time></trkpt>
<trkpt lat="46.169170000" lon="7.449330000"><ele></ele><time>2013-8-8T3:15:13Z</time></trkpt>
<trkpt lat="46.169150000" lon="7.449350000"><ele></ele><time>2013-8-8T3:15:16Z</time></trkpt>
<trkpt lat="46.169100000" lon="7.449380000"><ele></ele><time>2013-8-8T3:15:19Z</time></trkpt>
<trkpt lat="46.169060000" lon="7.449420000"><ele></ele><time>2013-8-8T3:15:22Z</time></trkpt>
<trkpt lat="46.169050000" lon="7.449450000"><ele></ele><time>2013-8-8T3:15:25Z</time></trkpt>
<trkpt lat="46.169030000" lon="7.449470000"><ele></ele><time>2013-8-8T3:15:28Z</time></trkpt>
<trkpt lat="46.169010000" lon="7.449500000"><ele></ele><time>2013-8-8T3:15:31Z</time></trkpt>
<trkpt lat="46.168990000" lon="7.449530000"><ele></ele><time>2013-8-8T3:15:34Z</time></trkpt>
<trkpt lat="46.168980000" lon="7.449540000"><ele></ele><time>2013-8-8T3:15:37Z</time></trkpt>
<trkpt lat="46.168910000" lon="7.449650000"><ele></ele><time>2013-8-8T3:15:40Z</time></trkpt>
<trkpt lat="46.168900000" lon="7.449680000"><ele></ele><time>2013-8-8T3:15:43Z</time></trkpt>
<trkpt lat="46.168880000" lon="7.449710000"><ele></ele><time>2013-8-8T3:15:46Z</time></trkpt>
<trkpt lat="46.168860000" lon="7.449740000"><ele></ele><time>2013-8-8T3:15:49Z</time></trkpt>
<trkpt lat="46.168850000" lon="7.449770000"><ele></ele><time>2013-8-8T3:15:52Z</time></trkpt>
<trkpt lat="46.168830000" lon="7.449800000"><ele></ele><time>2013-8-8T3:15:55Z</time></trkpt>
<trkpt lat="46.168750000" lon="7.449980000"><ele></ele><time>2013-8-8T3:15:58Z</time></trkpt>
<trkpt lat="46.168740000" lon="7.450010000"><ele></ele><time>2013-8-8T3:16:1Z</time></trkpt>
<trkpt lat="46.168730000" lon="7.450050000"><ele></ele><time>2013-8-8T3:16:4Z</time></trkpt>
<trkpt lat="46.168710000" lon="7.450080000"><ele></ele><time>2013-8-8T3:16:7Z</time></trkpt>
<trkpt lat="46.168670000" lon="7.450200000"><ele></ele><time>2013-8-8T3:16:10Z</time></trkpt>
<trkpt lat="46.168660000" lon="7.450230000"><ele></ele><time>2013-8-8T3:16:13Z</time></trkpt>
<trkpt lat="46.168640000" lon="7.450270000"><ele></ele><time>2013-8-8T3:16:16Z</time></trkpt>
<trkpt lat="46.168630000" lon="7.450290000"><ele></ele><time>2013-8-8T3:16:19Z</time></trkpt>
<trkpt lat="46.168620000" lon="7.450330000"><ele></ele><time>2013-8-8T3:16:22Z</time></trkpt>
<trkpt lat="46.168610000" lon="7.450360000"><ele></ele><time>2013-8-8T3:16:25Z</time></trkpt>
<trkpt lat="46.168600000" lon="7.450390000"><ele></ele><time>2013-8-8T3:16:28Z</time></trkpt>
<trkpt lat="46.168580000" lon="7.450410000"><ele></ele><time>2013-8-8T3:16:31Z</time></trkpt>
<trkpt lat="46.168570000" lon="7.450440000"><ele></ele><time>2013-8-8T3:16:34Z</time></trkpt>
<trkpt lat="46.168560000" lon="7.450480000"><ele></ele><time>2013-8-8T3:16:37Z</time></trkpt>
<trkpt lat="46.168540000" lon="7.450510000"><ele></ele><time>2013-8-8T3:16:40Z</time></trkpt>
<trkpt lat="46.168530000" lon="7.450540000"><ele></ele><time>2013-8-8T3:16:43Z</time></trkpt>
<trkpt lat="46.168510000" lon="7.450560000"><ele></ele><time>2013-8-8T3:16:46Z</time></trkpt>
<trkpt lat="46.168500000" lon="7.450590000"><ele></ele><time>2013-8-8T3:16:49Z</time></trkpt>
<trkpt lat="46.168420000" lon="7.450760000"><ele></ele><time>2013-8-8T3:16:52Z</time></trkpt>
<trkpt lat="46.168400000" lon="7.450790000"><ele></ele><time>2013-8-8T3:16:55Z</time></trkpt>
<trkpt lat="46.168390000" lon="7.450820000"><ele></ele><time>2013-8-8T3:16:58Z</time></trkpt>
<trkpt lat="46.168370000" lon="7.450850000"><ele></ele><time>2013-8-8T3:17:1Z</time></trkpt>
<trkpt lat="46.168350000" lon="7.450880000"><ele></ele><time>2013-8-8T3:17:4Z</time></trkpt>
<trkpt lat="46.168220000" lon="7.451070000"><ele></ele><time>2013-8-8T3:17:7Z</time></trkpt>
<trkpt lat="46.168200000" lon="7.451100000"><ele></ele><time>2013-8-8T3:17:10Z</time></trkpt>
<trkpt lat="46.168180000" lon="7.451120000"><ele></ele><time>2013-8-8T3:17:13Z</time></trkpt>
<trkpt lat="46.168160000" lon="7.451150000"><ele></ele><time>2013-8-8T3:17:16Z</time></trkpt>
<trkpt lat="46.168140000" lon="7.451170000"><ele></ele><time>2013-8-8T3:17:19Z</time></trkpt>
<trkpt lat="46.168030000" lon="7.451280000"><ele></ele><time>2013-8-8T3:17:22Z</time></trkpt>
<trkpt lat="46.168010000" lon="7.451300000"><ele></ele><time>2013-8-8T3:17:25Z</time></trkpt>
<trkpt lat="46.168000000" lon="7.451320000"><ele></ele><time>2013-8-8T3:17:28Z</time></trkpt>
<trkpt lat="46.167970000" lon="7.451340000"><ele></ele><time>2013-8-8T3:17:31Z</time></trkpt>
<trkpt lat="46.167950000" lon="7.451360000"><ele></ele><time>2013-8-8T3:17:34Z</time></trkpt>
<trkpt lat="46.167870000" lon="7.451440000"><ele></ele><time>2013-8-8T3:17:37Z</time></trkpt>
<trkpt lat="46.167850000" lon="7.451460000"><ele></ele><time>2013-8-8T3:17:40Z</time></trkpt>
<trkpt lat="46.167840000" lon="7.451480000"><ele></ele><time>2013-8-8T3:17:43Z</time></trkpt>
<trkpt lat="46.167820000" lon="7.451500000"><ele></ele><time>2013-8-8T3:17:46Z</time></trkpt>
<trkpt lat="46.167810000" lon="7.451530000"><ele></ele><time>2013-8-8T3:17:49Z</time></trkpt>
<trkpt lat="46.167750000" lon="7.451620000"><ele></ele><time>2013-8-8T3:17:52Z</time></trkpt>
<trkpt lat="46.167740000" lon="7.451650000"><ele></ele><time>2013-8-8T3:17:55Z</time></trkpt>
<trkpt lat="46.167720000" lon="7.451680000"><ele></ele><time>2013-8-8T3:17:58Z</time></trkpt>
<trkpt lat="46.167710000" lon="7.451710000"><ele></ele><time>2013-8-8T3:18:1Z</time></trkpt>
<trkpt lat="46.167690000" lon="7.451740000"><ele></ele><time>2013-8-8T3:18:4Z</time></trkpt>
<trkpt lat="46.167680000" lon="7.451760000"><ele></ele><time>2013-8-8T3:18:7Z</time></trkpt>
<trkpt lat="46.167640000" lon="7.451860000"><ele></ele><time>2013-8-8T3:18:10Z</time></trkpt>
<trkpt lat="46.167630000" lon="7.451890000"><ele></ele><time>2013-8-8T3:18:13Z</time></trkpt>
<trkpt lat="46.167630000" lon="7.451920000"><ele></ele><time>2013-8-8T3:18:16Z</time></trkpt>
<trkpt lat="46.167620000" lon="7.451950000"><ele></ele><time>2013-8-8T3:18:19Z</time></trkpt>
<trkpt lat="46.167610000" lon="7.451980000"><ele></ele><time>2013-8-8T3:18:22Z</time></trkpt>
<trkpt lat="46.167600000" lon="7.452020000"><ele></ele><time>2013-8-8T3:18:25Z</time></trkpt>
<trkpt lat="46.167590000" lon="7.452090000"><ele></ele><time>2013-8-8T3:18:28Z</time></trkpt>
<trkpt lat="46.167590000" lon="7.452160000"><ele></ele><time>2013-8-8T3:18:31Z</time></trkpt>
<trkpt lat="46.167590000" lon="7.452190000"><ele></ele><time>2013-8-8T3:18:34Z</time></trkpt>
<trkpt lat="46.167590000" lon="7.452220000"><ele></ele><time>2013-8-8T3:18:37Z</time></trkpt>
<trkpt lat="46.167590000" lon="7.452250000"><ele></ele><time>2013-8-8T3:18:40Z</time></trkpt>
<trkpt lat="46.167590000" lon="7.452280000"><ele></ele><time>2013-8-8T3:18:43Z</time></trkpt>
<trkpt lat="46.167600000" lon="7.452310000"><ele></ele><time>2013-8-8T3:18:46Z</time></trkpt>
<trkpt lat="46.167610000" lon="7.452470000"><ele></ele><time>2013-8-8T3:18:49Z</time></trkpt>
<trkpt lat="46.167610000" lon="7.452500000"><ele></ele><time>2013-8-8T3:18:52Z</time></trkpt>
<trkpt lat="46.167620000" lon="7.452540000"><ele></ele><time>2013-8-8T3:18:55Z</time></trkpt>
<trkpt lat="46.167620000" lon="7.452570000"><ele></ele><time>2013-8-8T3:18:58Z</time></trkpt>
<trkpt lat="46.167630000" lon="7.452600000"><ele></ele><time>2013-8-8T3:19:1Z</time></trkpt>
<trkpt lat="46.167640000" lon="7.452740000"><ele></ele><time>2013-8-8T3:19:4Z</time></trkpt>
<trkpt lat="46.167650000" lon="7.452800000"><ele></ele><time>2013-8-8T3:19:7Z</time></trkpt>
<trkpt lat="46.167650000" lon="7.452840000"><ele></ele><time>2013-8-8T3:19:10Z</time></trkpt>
<trkpt lat="46.167650000" lon="7.452870000"><ele></ele><time>2013-8-8T3:19:13Z</time></trkpt>
<trkpt lat="46.167650000" lon="7.452910000"><ele></ele><time>2013-8-8T3:19:16Z</time></trkpt>
<trkpt lat="46.167660000" lon="7.452940000"><ele></ele><time>2013-8-8T3:19:19Z</time></trkpt>
<trkpt lat="46.167660000" lon="7.453000000"><ele></ele><time>2013-8-8T3:19:22Z</time></trkpt>
<trkpt lat="46.167670000" lon="7.453090000"><ele></ele><time>2013-8-8T3:19:25Z</time></trkpt>
<trkpt lat="46.167670000" lon="7.453120000"><ele></ele><time>2013-8-8T3:19:28Z</time></trkpt>
<trkpt lat="46.167670000" lon="7.453160000"><ele></ele><time>2013-8-8T3:19:31Z</time></trkpt>
<trkpt lat="46.167680000" lon="7.453200000"><ele></ele><time>2013-8-8T3:19:34Z</time></trkpt>
<trkpt lat="46.167680000" lon="7.453230000"><ele></ele><time>2013-8-8T3:19:37Z</time></trkpt>
<trkpt lat="46.167700000" lon="7.453430000"><ele></ele><time>2013-8-8T3:19:40Z</time></trkpt>
<trkpt lat="46.167700000" lon="7.453460000"><ele></ele><time>2013-8-8T3:19:43Z</time></trkpt>
<trkpt lat="46.167710000" lon="7.453500000"><ele></ele><time>2013-8-8T3:19:46Z</time></trkpt>
<trkpt lat="46.167710000" lon="7.453530000"><ele></ele><time>2013-8-8T3:19:49Z</time></trkpt>
<trkpt lat="46.167720000" lon="7.453560000"><ele></ele><time>2013-8-8T3:19:52Z</time></trkpt>
<trkpt lat="46.167730000" lon="7.453690000"><ele></ele><time>2013-8-8T3:19:55Z</time></trkpt>
<trkpt lat="46.167740000" lon="7.453760000"><ele></ele><time>2013-8-8T3:19:58Z</time></trkpt>
<trkpt lat="46.167740000" lon="7.453790000"><ele></ele><time>2013-8-8T3:20:1Z</time></trkpt>
<trkpt lat="46.167740000" lon="7.453820000"><ele></ele><time>2013-8-8T3:20:4Z</time></trkpt>
<trkpt lat="46.167750000" lon="7.453860000"><ele></ele><time>2013-8-8T3:20:7Z</time></trkpt>
<trkpt lat="46.167760000" lon="7.453890000"><ele></ele><time>2013-8-8T3:20:10Z</time></trkpt>
<trkpt lat="46.167760000" lon="7.454070000"><ele></ele><time>2013-8-8T3:20:13Z</time></trkpt>
<trkpt lat="46.167760000" lon="7.454100000"><ele></ele><time>2013-8-8T3:20:16Z</time></trkpt>
<trkpt lat="46.167760000" lon="7.454140000"><ele></ele><time>2013-8-8T3:20:19Z</time></trkpt>
<trkpt lat="46.167760000" lon="7.454170000"><ele></ele><time>2013-8-8T3:20:22Z</time></trkpt>
<trkpt lat="46.167760000" lon="7.454210000"><ele></ele><time>2013-8-8T3:20:25Z</time></trkpt>
<trkpt lat="46.167760000" lon="7.454340000"><ele></ele><time>2013-8-8T3:20:28Z</time></trkpt>
<trkpt lat="46.167760000" lon="7.454370000"><ele></ele><time>2013-8-8T3:20:31Z</time></trkpt>
<trkpt lat="46.167760000" lon="7.454400000"><ele></ele><time>2013-8-8T3:20:34Z</time></trkpt>
<trkpt lat="46.167770000" lon="7.454440000"><ele></ele><time>2013-8-8T3:20:37Z</time></trkpt>
<trkpt lat="46.167770000" lon="7.454470000"><ele></ele><time>2013-8-8T3:20:40Z</time></trkpt>
<trkpt lat="46.167780000" lon="7.454650000"><ele></ele><time>2013-8-8T3:20:43Z</time></trkpt>
<trkpt lat="46.167780000" lon="7.454710000"><ele></ele><time>2013-8-8T3:20:46Z</time></trkpt>
<trkpt lat="46.167780000" lon="7.454750000"><ele></ele><time>2013-8-8T3:20:49Z</time></trkpt>
<trkpt lat="46.167780000" lon="7.454780000"><ele></ele><time>2013-8-8T3:20:52Z</time></trkpt>
<trkpt lat="46.167780000" lon="7.454810000"><ele></ele><time>2013-8-8T3:20:55Z</time></trkpt>
<trkpt lat="46.167790000" lon="7.454850000"><ele></ele><time>2013-8-8T3:20:58Z</time></trkpt>
<trkpt lat="46.167790000" lon="7.454910000"><ele></ele><time>2013-8-8T3:21:1Z</time></trkpt>
<trkpt lat="46.167790000" lon="7.455020000"><ele></ele><time>2013-8-8T3:21:4Z</time></trkpt>
<trkpt lat="46.167790000" lon="7.455050000"><ele></ele><time>2013-8-8T3:21:7Z</time></trkpt>
<trkpt lat="46.167790000" lon="7.455080000"><ele></ele><time>2013-8-8T3:21:10Z</time></trkpt>
<trkpt lat="46.167790000" lon="7.455110000"><ele></ele><time>2013-8-8T3:21:13Z</time></trkpt>
<trkpt lat="46.167780000" lon="7.455140000"><ele></ele><time>2013-8-8T3:21:16Z</time></trkpt>
<trkpt lat="46.167760000" lon="7.455310000"><ele></ele><time>2013-8-8T3:21:19Z</time></trkpt>
<trkpt lat="46.167760000" lon="7.455340000"><ele></ele><time>2013-8-8T3:21:22Z</time></trkpt>
<trkpt lat="46.167750000" lon="7.455370000"><ele></ele><time>2013-8-8T3:21:25Z</time></trkpt>
<trkpt lat="46.167740000" lon="7.455390000"><ele></ele><time>2013-8-8T3:21:28Z</time></trkpt>
<trkpt lat="46.167740000" lon="7.455420000"><ele></ele><time>2013-8-8T3:21:31Z</time></trkpt>
<trkpt lat="46.167690000" lon="7.455530000"><ele></ele><time>2013-8-8T3:21:34Z</time></trkpt>
<trkpt lat="46.167690000" lon="7.455560000"><ele></ele><time>2013-8-8T3:21:37Z</time></trkpt>
<trkpt lat="46.167680000" lon="7.455590000"><ele></ele><time>2013-8-8T3:21:40Z</time></trkpt>
<trkpt lat="46.167670000" lon="7.455620000"><ele></ele><time>2013-8-8T3:21:43Z</time></trkpt>
<trkpt lat="46.167660000" lon="7.455650000"><ele></ele><time>2013-8-8T3:21:46Z</time></trkpt>
<trkpt lat="46.167640000" lon="7.455710000"><ele></ele><time>2013-8-8T3:21:49Z</time></trkpt>
<trkpt lat="46.167620000" lon="7.455800000"><ele></ele><time>2013-8-8T3:21:52Z</time></trkpt>
<trkpt lat="46.167620000" lon="7.455830000"><ele></ele><time>2013-8-8T3:21:55Z</time></trkpt>
<trkpt lat="46.167610000" lon="7.455860000"><ele></ele><time>2013-8-8T3:21:58Z</time></trkpt>
<trkpt lat="46.167610000" lon="7.455890000"><ele></ele><time>2013-8-8T3:22:1Z</time></trkpt>
<trkpt lat="46.167610000" lon="7.455920000"><ele></ele><time>2013-8-8T3:22:4Z</time></trkpt>
<trkpt lat="46.167600000" lon="7.455950000"><ele></ele><time>2013-8-8T3:22:7Z</time></trkpt>
<trkpt lat="46.167580000" lon="7.456110000"><ele></ele><time>2013-8-8T3:22:10Z</time></trkpt>
<trkpt lat="46.167570000" lon="7.456140000"><ele></ele><time>2013-8-8T3:22:13Z</time></trkpt>
<trkpt lat="46.167570000" lon="7.456170000"><ele></ele><time>2013-8-8T3:22:16Z</time></trkpt>
<trkpt lat="46.167560000" lon="7.456200000"><ele></ele><time>2013-8-8T3:22:19Z</time></trkpt>
<trkpt lat="46.167560000" lon="7.456230000"><ele></ele><time>2013-8-8T3:22:22Z</time></trkpt>
<trkpt lat="46.167550000" lon="7.456420000"><ele></ele><time>2013-8-8T3:22:25Z</time></trkpt>
<trkpt lat="46.167540000" lon="7.456450000"><ele></ele><time>2013-8-8T3:22:28Z</time></trkpt>
<trkpt lat="46.167530000" lon="7.456480000"><ele></ele><time>2013-8-8T3:22:31Z</time></trkpt>
<trkpt lat="46.167530000" lon="7.456510000"><ele></ele><time>2013-8-8T3:22:34Z</time></trkpt>
<trkpt lat="46.167520000" lon="7.456540000"><ele></ele><time>2013-8-8T3:22:37Z</time></trkpt>
<trkpt lat="46.167490000" lon="7.456610000"><ele></ele><time>2013-8-8T3:22:40Z</time></trkpt>
<trkpt lat="46.167450000" lon="7.456670000"><ele></ele><time>2013-8-8T3:22:43Z</time></trkpt>
<trkpt lat="46.167430000" lon="7.456700000"><ele></ele><time>2013-8-8T3:22:46Z</time></trkpt>
<trkpt lat="46.167420000" lon="7.456720000"><ele></ele><time>2013-8-8T3:22:49Z</time></trkpt>
<trkpt lat="46.167410000" lon="7.456750000"><ele></ele><time>2013-8-8T3:22:52Z</time></trkpt>
<trkpt lat="46.167340000" lon="7.456940000"><ele></ele><time>2013-8-8T3:22:55Z</time></trkpt>
<trkpt lat="46.167330000" lon="7.456970000"><ele></ele><time>2013-8-8T3:22:58Z</time></trkpt>
<trkpt lat="46.167320000" lon="7.457000000"><ele></ele><time>2013-8-8T3:23:1Z</time></trkpt>
<trkpt lat="46.167310000" lon="7.457020000"><ele></ele><time>2013-8-8T3:23:4Z</time></trkpt>
<trkpt lat="46.167300000" lon="7.457050000"><ele></ele><time>2013-8-8T3:23:7Z</time></trkpt>
<trkpt lat="46.167290000" lon="7.457080000"><ele></ele><time>2013-8-8T3:23:10Z</time></trkpt>
<trkpt lat="46.167260000" lon="7.457160000"><ele></ele><time>2013-8-8T3:23:13Z</time></trkpt>
<trkpt lat="46.167240000" lon="7.457210000"><ele></ele><time>2013-8-8T3:23:16Z</time></trkpt>
<trkpt lat="46.167230000" lon="7.457230000"><ele></ele><time>2013-8-8T3:23:19Z</time></trkpt>
<trkpt lat="46.167220000" lon="7.457260000"><ele></ele><time>2013-8-8T3:23:22Z</time></trkpt>
<trkpt lat="46.167220000" lon="7.457290000"><ele></ele><time>2013-8-8T3:23:25Z</time></trkpt>
<trkpt lat="46.167210000" lon="7.457310000"><ele></ele><time>2013-8-8T3:23:28Z</time></trkpt>
<trkpt lat="46.167170000" lon="7.457410000"><ele></ele><time>2013-8-8T3:23:31Z</time></trkpt>
<trkpt lat="46.167160000" lon="7.457430000"><ele></ele><time>2013-8-8T3:23:34Z</time></trkpt>
<trkpt lat="46.167140000" lon="7.457460000"><ele></ele><time>2013-8-8T3:23:37Z</time></trkpt>
<trkpt lat="46.167130000" lon="7.457480000"><ele></ele><time>2013-8-8T3:23:40Z</time></trkpt>
<trkpt lat="46.167120000" lon="7.457510000"><ele></ele><time>2013-8-8T3:23:43Z</time></trkpt>
<trkpt lat="46.167110000" lon="7.457540000"><ele></ele><time>2013-8-8T3:23:46Z</time></trkpt>
<trkpt lat="46.167080000" lon="7.457590000"><ele></ele><time>2013-8-8T3:23:49Z</time></trkpt>
<trkpt lat="46.167020000" lon="7.457670000"><ele></ele><time>2013-8-8T3:23:52Z</time></trkpt>
<trkpt lat="46.166970000" lon="7.457730000"><ele></ele><time>2013-8-8T3:23:55Z</time></trkpt>
<trkpt lat="46.166950000" lon="7.457730000"><ele></ele><time>2013-8-8T3:23:58Z</time></trkpt>
<trkpt lat="46.166920000" lon="7.457730000"><ele></ele><time>2013-8-8T3:24:1Z</time></trkpt>
<trkpt lat="46.166900000" lon="7.457720000"><ele></ele><time>2013-8-8T3:24:4Z</time></trkpt>
<trkpt lat="46.166880000" lon="7.457710000"><ele></ele><time>2013-8-8T3:24:7Z</time></trkpt>
<trkpt lat="46.166860000" lon="7.457710000"><ele></ele><time>2013-8-8T3:24:10Z</time></trkpt>
<trkpt lat="46.166840000" lon="7.457700000"><ele></ele><time>2013-8-8T3:24:13Z</time></trkpt>
<trkpt lat="46.166780000" lon="7.457700000"><ele></ele><time>2013-8-8T3:24:16Z</time></trkpt>
<trkpt lat="46.166760000" lon="7.457700000"><ele></ele><time>2013-8-8T3:24:19Z</time></trkpt>
<trkpt lat="46.166740000" lon="7.457700000"><ele></ele><time>2013-8-8T3:24:22Z</time></trkpt>
<trkpt lat="46.166730000" lon="7.457710000"><ele></ele><time>2013-8-8T3:24:25Z</time></trkpt>
<trkpt lat="46.166660000" lon="7.457760000"><ele></ele><time>2013-8-8T3:24:28Z</time></trkpt>
<trkpt lat="46.166620000" lon="7.457840000"><ele></ele><time>2013-8-8T3:24:31Z</time></trkpt>
<trkpt lat="46.166620000" lon="7.457870000"><ele></ele><time>2013-8-8T3:24:34Z</time></trkpt>
<trkpt lat="46.166610000" lon="7.457900000"><ele></ele><time>2013-8-8T3:24:37Z</time></trkpt>
<trkpt lat="46.166610000" lon="7.457940000"><ele></ele><time>2013-8-8T3:24:40Z</time></trkpt>
<trkpt lat="46.166600000" lon="7.457970000"><ele></ele><time>2013-8-8T3:24:43Z</time></trkpt>
<trkpt lat="46.166600000" lon="7.458130000"><ele></ele><time>2013-8-8T3:24:46Z</time></trkpt>
<trkpt lat="46.166560000" lon="7.458280000"><ele></ele><time>2013-8-8T3:24:49Z</time></trkpt>
<trkpt lat="46.166500000" lon="7.458350000"><ele></ele><time>2013-8-8T3:24:52Z</time></trkpt>
<trkpt lat="46.166480000" lon="7.458370000"><ele></ele><time>2013-8-8T3:24:55Z</time></trkpt>
<trkpt lat="46.166470000" lon="7.458390000"><ele></ele><time>2013-8-8T3:24:58Z</time></trkpt>
<trkpt lat="46.166450000" lon="7.458410000"><ele></ele><time>2013-8-8T3:25:1Z</time></trkpt>
<trkpt lat="46.166370000" lon="7.458460000"><ele></ele><time>2013-8-8T3:25:4Z</time></trkpt>
<trkpt lat="46.166350000" lon="7.458460000"><ele></ele><time>2013-8-8T3:25:7Z</time></trkpt>
<trkpt lat="46.166330000" lon="7.458460000"><ele></ele><time>2013-8-8T3:25:10Z</time></trkpt>
<trkpt lat="46.166310000" lon="7.458460000"><ele></ele><time>2013-8-8T3:25:13Z</time></trkpt>
<trkpt lat="46.166290000" lon="7.458460000"><ele></ele><time>2013-8-8T3:25:16Z</time></trkpt>
<trkpt lat="46.166180000" lon="7.458440000"><ele></ele><time>2013-8-8T3:25:19Z</time></trkpt>
<trkpt lat="46.166130000" lon="7.458370000"><ele></ele><time>2013-8-8T3:25:22Z</time></trkpt>
<trkpt lat="46.166130000" lon="7.458350000"><ele></ele><time>2013-8-8T3:25:25Z</time></trkpt>
<trkpt lat="46.166110000" lon="7.458320000"><ele></ele><time>2013-8-8T3:25:28Z</time></trkpt>
<trkpt lat="46.166100000" lon="7.458290000"><ele></ele><time>2013-8-8T3:25:31Z</time></trkpt>
<trkpt lat="46.166090000" lon="7.458260000"><ele></ele><time>2013-8-8T3:25:34Z</time></trkpt>
<trkpt lat="46.166070000" lon="7.458210000"><ele></ele><time>2013-8-8T3:25:37Z</time></trkpt>
<trkpt lat="46.166010000" lon="7.458150000"><ele></ele><time>2013-8-8T3:25:40Z</time></trkpt>
<trkpt lat="46.165990000" lon="7.458140000"><ele></ele><time>2013-8-8T3:25:43Z</time></trkpt>
<trkpt lat="46.165960000" lon="7.458120000"><ele></ele><time>2013-8-8T3:25:46Z</time></trkpt>
<trkpt lat="46.165940000" lon="7.458100000"><ele></ele><time>2013-8-8T3:25:49Z</time></trkpt>
<trkpt lat="46.165920000" lon="7.458090000"><ele></ele><time>2013-8-8T3:25:52Z</time></trkpt>
<trkpt lat="46.165830000" lon="7.458050000"><ele></ele><time>2013-8-8T3:25:55Z</time></trkpt>
<trkpt lat="46.165790000" lon="7.458050000"><ele></ele><time>2013-8-8T3:25:58Z</time></trkpt>
<trkpt lat="46.165770000" lon="7.458050000"><ele></ele><time>2013-8-8T3:26:1Z</time></trkpt>
<trkpt lat="46.165740000" lon="7.458050000"><ele></ele><time>2013-8-8T3:26:4Z</time></trkpt>
<trkpt lat="46.165730000" lon="7.458060000"><ele></ele><time>2013-8-8T3:26:7Z</time></trkpt>
<trkpt lat="46.165710000" lon="7.458070000"><ele></ele><time>2013-8-8T3:26:10Z</time></trkpt>
<trkpt lat="46.165620000" lon="7.458190000"><ele></ele><time>2013-8-8T3:26:13Z</time></trkpt>
<trkpt lat="46.165600000" lon="7.458220000"><ele></ele><time>2013-8-8T3:26:16Z</time></trkpt>
<trkpt lat="46.165600000" lon="7.458240000"><ele></ele><time>2013-8-8T3:26:19Z</time></trkpt>
<trkpt lat="46.165590000" lon="7.458270000"><ele></ele><time>2013-8-8T3:26:22Z</time></trkpt>
<trkpt lat="46.165580000" lon="7.458350000"><ele></ele><time>2013-8-8T3:26:25Z</time></trkpt>
<trkpt lat="46.165570000" lon="7.458510000"><ele></ele><time>2013-8-8T3:26:28Z</time></trkpt>
<trkpt lat="46.165570000" lon="7.458540000"><ele></ele><time>2013-8-8T3:26:31Z</time></trkpt>
<trkpt lat="46.165570000" lon="7.458570000"><ele></ele><time>2013-8-8T3:26:34Z</time></trkpt>
<trkpt lat="46.165570000" lon="7.458600000"><ele></ele><time>2013-8-8T3:26:37Z</time></trkpt>
<trkpt lat="46.165570000" lon="7.458630000"><ele></ele><time>2013-8-8T3:26:40Z</time></trkpt>
<trkpt lat="46.165570000" lon="7.458750000"><ele></ele><time>2013-8-8T3:26:43Z</time></trkpt>
<trkpt lat="46.165580000" lon="7.458890000"><ele></ele><time>2013-8-8T3:26:46Z</time></trkpt>
<trkpt lat="46.165580000" lon="7.458920000"><ele></ele><time>2013-8-8T3:26:49Z</time></trkpt>
<trkpt lat="46.165580000" lon="7.458950000"><ele></ele><time>2013-8-8T3:26:52Z</time></trkpt>
<trkpt lat="46.165590000" lon="7.458980000"><ele></ele><time>2013-8-8T3:26:55Z</time></trkpt>
<trkpt lat="46.165580000" lon="7.459190000"><ele></ele><time>2013-8-8T3:26:58Z</time></trkpt>
<trkpt lat="46.165560000" lon="7.459260000"><ele></ele><time>2013-8-8T3:27:1Z</time></trkpt>
<trkpt lat="46.165540000" lon="7.459280000"><ele></ele><time>2013-8-8T3:27:4Z</time></trkpt>
<trkpt lat="46.165520000" lon="7.459300000"><ele></ele><time>2013-8-8T3:27:7Z</time></trkpt>
<trkpt lat="46.165490000" lon="7.459320000"><ele></ele><time>2013-8-8T3:27:10Z</time></trkpt>
<trkpt lat="46.165470000" lon="7.459330000"><ele></ele><time>2013-8-8T3:27:13Z</time></trkpt>
<trkpt lat="46.165420000" lon="7.459340000"><ele></ele><time>2013-8-8T3:27:16Z</time></trkpt>
<trkpt lat="46.165310000" lon="7.459270000"><ele></ele><time>2013-8-8T3:27:19Z</time></trkpt>
<trkpt lat="46.165250000" lon="7.459240000"><ele></ele><time>2013-8-8T3:27:22Z</time></trkpt>
<trkpt lat="46.165230000" lon="7.459220000"><ele></ele><time>2013-8-8T3:27:25Z</time></trkpt>
<trkpt lat="46.165210000" lon="7.459210000"><ele></ele><time>2013-8-8T3:27:28Z</time></trkpt>
<trkpt lat="46.165190000" lon="7.459200000"><ele></ele><time>2013-8-8T3:27:31Z</time></trkpt>
<trkpt lat="46.165070000" lon="7.459160000"><ele></ele><time>2013-8-8T3:27:34Z</time></trkpt>
<trkpt lat="46.165020000" lon="7.459160000"><ele></ele><time>2013-8-8T3:27:37Z</time></trkpt>
<trkpt lat="46.165000000" lon="7.459150000"><ele></ele><time>2013-8-8T3:27:40Z</time></trkpt>
<trkpt lat="46.164970000" lon="7.459140000"><ele></ele><time>2013-8-8T3:27:43Z</time></trkpt>
<trkpt lat="46.164960000" lon="7.459140000"><ele></ele><time>2013-8-8T3:27:46Z</time></trkpt>
<trkpt lat="46.164930000" lon="7.459130000"><ele></ele><time>2013-8-8T3:27:49Z</time></trkpt>
<trkpt lat="46.164750000" lon="7.459070000"><ele></ele><time>2013-8-8T3:27:52Z</time></trkpt>
<trkpt lat="46.164730000" lon="7.459060000"><ele></ele><time>2013-8-8T3:27:55Z</time></trkpt>
<trkpt lat="46.164710000" lon="7.459040000"><ele></ele><time>2013-8-8T3:27:58Z</time></trkpt>
<trkpt lat="46.164690000" lon="7.459030000"><ele></ele><time>2013-8-8T3:28:1Z</time></trkpt>
<trkpt lat="46.164670000" lon="7.459010000"><ele></ele><time>2013-8-8T3:28:4Z</time></trkpt>
<trkpt lat="46.164640000" lon="7.458980000"><ele></ele><time>2013-8-8T3:28:7Z</time></trkpt>
<trkpt lat="46.164570000" lon="7.458920000"><ele></ele><time>2013-8-8T3:28:10Z</time></trkpt>
<trkpt lat="46.164550000" lon="7.458900000"><ele></ele><time>2013-8-8T3:28:13Z</time></trkpt>
<trkpt lat="46.164530000" lon="7.458880000"><ele></ele><time>2013-8-8T3:28:16Z</time></trkpt>
<trkpt lat="46.164520000" lon="7.458870000"><ele></ele><time>2013-8-8T3:28:19Z</time></trkpt>
<trkpt lat="46.164500000" lon="7.458850000"><ele></ele><time>2013-8-8T3:28:22Z</time></trkpt>
<trkpt lat="46.164380000" lon="7.458790000"><ele></ele><time>2013-8-8T3:28:25Z</time></trkpt>
<trkpt lat="46.164360000" lon="7.458790000"><ele></ele><time>2013-8-8T3:28:28Z</time></trkpt>
<trkpt lat="46.164340000" lon="7.458780000"><ele></ele><time>2013-8-8T3:28:31Z</time></trkpt>
<trkpt lat="46.164320000" lon="7.458780000"><ele></ele><time>2013-8-8T3:28:34Z</time></trkpt>
<trkpt lat="46.164300000" lon="7.458780000"><ele></ele><time>2013-8-8T3:28:37Z</time></trkpt>
<trkpt lat="46.164230000" lon="7.458790000"><ele></ele><time>2013-8-8T3:28:40Z</time></trkpt>
<trkpt lat="46.164170000" lon="7.458800000"><ele></ele><time>2013-8-8T3:28:43Z</time></trkpt>
<trkpt lat="46.164150000" lon="7.458800000"><ele></ele><time>2013-8-8T3:28:46Z</time></trkpt>
<trkpt lat="46.164130000" lon="7.458800000"><ele></ele><time>2013-8-8T3:28:49Z</time></trkpt>
<trkpt lat="46.164110000" lon="7.458800000"><ele></ele><time>2013-8-8T3:28:52Z</time></trkpt>
<trkpt lat="46.164070000" lon="7.458800000"><ele></ele><time>2013-8-8T3:28:55Z</time></trkpt>
<trkpt lat="46.163940000" lon="7.458780000"><ele></ele><time>2013-8-8T3:28:58Z</time></trkpt>
<trkpt lat="46.163920000" lon="7.458780000"><ele></ele><time>2013-8-8T3:29:1Z</time></trkpt>
<trkpt lat="46.163900000" lon="7.458780000"><ele></ele><time>2013-8-8T3:29:4Z</time></trkpt>
<trkpt lat="46.163880000" lon="7.458780000"><ele></ele><time>2013-8-8T3:29:7Z</time></trkpt>
<trkpt lat="46.163850000" lon="7.458770000"><ele></ele><time>2013-8-8T3:29:10Z</time></trkpt>
<trkpt lat="46.163790000" lon="7.458790000"><ele></ele><time>2013-8-8T3:29:13Z</time></trkpt>
<trkpt lat="46.163750000" lon="7.458800000"><ele></ele><time>2013-8-8T3:29:16Z</time></trkpt>
<trkpt lat="46.163730000" lon="7.458810000"><ele></ele><time>2013-8-8T3:29:19Z</time></trkpt>
<trkpt lat="46.163710000" lon="7.458820000"><ele></ele><time>2013-8-8T3:29:22Z</time></trkpt>
<trkpt lat="46.163690000" lon="7.458840000"><ele></ele><time>2013-8-8T3:29:25Z</time></trkpt>
<trkpt lat="46.163670000" lon="7.458860000"><ele></ele><time>2013-8-8T3:29:28Z</time></trkpt>
<trkpt lat="46.163580000" lon="7.458970000"><ele></ele><time>2013-8-8T3:29:31Z</time></trkpt>
<trkpt lat="46.163570000" lon="7.458990000"><ele></ele><time>2013-8-8T3:29:34Z</time></trkpt>
<trkpt lat="46.163550000" lon="7.459020000"><ele></ele><time>2013-8-8T3:29:37Z</time></trkpt>
<trkpt lat="46.163530000" lon="7.459040000"><ele></ele><time>2013-8-8T3:29:40Z</time></trkpt>
<trkpt lat="46.163520000" lon="7.459070000"><ele></ele><time>2013-8-8T3:29:43Z</time></trkpt>
<trkpt lat="46.163420000" lon="7.459200000"><ele></ele><time>2013-8-8T3:29:46Z</time></trkpt>
<trkpt lat="46.163390000" lon="7.459250000"><ele></ele><time>2013-8-8T3:29:49Z</time></trkpt>
<trkpt lat="46.163370000" lon="7.459270000"><ele></ele><time>2013-8-8T3:29:52Z</time></trkpt>
<trkpt lat="46.163350000" lon="7.459290000"><ele></ele><time>2013-8-8T3:29:55Z</time></trkpt>
<trkpt lat="46.163340000" lon="7.459310000"><ele></ele><time>2013-8-8T3:29:58Z</time></trkpt>
<trkpt lat="46.163320000" lon="7.459330000"><ele></ele><time>2013-8-8T3:30:1Z</time></trkpt>
<trkpt lat="46.163200000" lon="7.459420000"><ele></ele><time>2013-8-8T3:30:4Z</time></trkpt>
<trkpt lat="46.163180000" lon="7.459430000"><ele></ele><time>2013-8-8T3:30:7Z</time></trkpt>
<trkpt lat="46.163150000" lon="7.459440000"><ele></ele><time>2013-8-8T3:30:10Z</time></trkpt>
<trkpt lat="46.163130000" lon="7.459440000"><ele></ele><time>2013-8-8T3:30:13Z</time></trkpt>
<trkpt lat="46.163110000" lon="7.459450000"><ele></ele><time>2013-8-8T3:30:16Z</time></trkpt>
<trkpt lat="46.163050000" lon="7.459440000"><ele></ele><time>2013-8-8T3:30:19Z</time></trkpt>
<trkpt lat="46.162970000" lon="7.459380000"><ele></ele><time>2013-8-8T3:30:22Z</time></trkpt>
<trkpt lat="46.162950000" lon="7.459360000"><ele></ele><time>2013-8-8T3:30:25Z</time></trkpt>
<trkpt lat="46.162940000" lon="7.459340000"><ele></ele><time>2013-8-8T3:30:28Z</time></trkpt>
<trkpt lat="46.162930000" lon="7.459310000"><ele></ele><time>2013-8-8T3:30:31Z</time></trkpt>
<trkpt lat="46.162910000" lon="7.459280000"><ele></ele><time>2013-8-8T3:30:34Z</time></trkpt>
<trkpt lat="46.162880000" lon="7.459230000"><ele></ele><time>2013-8-8T3:30:37Z</time></trkpt>
<trkpt lat="46.162870000" lon="7.459200000"><ele></ele><time>2013-8-8T3:30:40Z</time></trkpt>
<trkpt lat="46.162860000" lon="7.459180000"><ele></ele><time>2013-8-8T3:30:43Z</time></trkpt>
<trkpt lat="46.162850000" lon="7.459150000"><ele></ele><time>2013-8-8T3:30:46Z</time></trkpt>
<trkpt lat="46.162830000" lon="7.459130000"><ele></ele><time>2013-8-8T3:30:49Z</time></trkpt>
<trkpt lat="46.162810000" lon="7.459110000"><ele></ele><time>2013-8-8T3:30:52Z</time></trkpt>
<trkpt lat="46.162790000" lon="7.459080000"><ele></ele><time>2013-8-8T3:30:55Z</time></trkpt>
<trkpt lat="46.162710000" lon="7.459040000"><ele></ele><time>2013-8-8T3:30:58Z</time></trkpt>
<trkpt lat="46.162690000" lon="7.459030000"><ele></ele><time>2013-8-8T3:31:1Z</time></trkpt>
<trkpt lat="46.162670000" lon="7.459020000"><ele></ele><time>2013-8-8T3:31:4Z</time></trkpt>
<trkpt lat="46.162650000" lon="7.459020000"><ele></ele><time>2013-8-8T3:31:7Z</time></trkpt>
<trkpt lat="46.162630000" lon="7.459030000"><ele></ele><time>2013-8-8T3:31:10Z</time></trkpt>
<trkpt lat="46.162540000" lon="7.459070000"><ele></ele><time>2013-8-8T3:31:13Z</time></trkpt>
<trkpt lat="46.162410000" lon="7.459160000"><ele></ele><time>2013-8-8T3:31:16Z</time></trkpt>
<trkpt lat="46.162360000" lon="7.459200000"><ele></ele><time>2013-8-8T3:31:19Z</time></trkpt>
<trkpt lat="46.162340000" lon="7.459210000"><ele></ele><time>2013-8-8T3:31:22Z</time></trkpt>
<trkpt lat="46.162320000" lon="7.459230000"><ele></ele><time>2013-8-8T3:31:25Z</time></trkpt>
<trkpt lat="46.162290000" lon="7.459240000"><ele></ele><time>2013-8-8T3:31:28Z</time></trkpt>
<trkpt lat="46.162270000" lon="7.459260000"><ele></ele><time>2013-8-8T3:31:31Z</time></trkpt>
<trkpt lat="46.162170000" lon="7.459340000"><ele></ele><time>2013-8-8T3:31:34Z</time></trkpt>
<trkpt lat="46.162120000" lon="7.459380000"><ele></ele><time>2013-8-8T3:31:37Z</time></trkpt>
<trkpt lat="46.162110000" lon="7.459400000"><ele></ele><time>2013-8-8T3:31:40Z</time></trkpt>
<trkpt lat="46.162080000" lon="7.459420000"><ele></ele><time>2013-8-8T3:31:43Z</time></trkpt>
<trkpt lat="46.162060000" lon="7.459430000"><ele></ele><time>2013-8-8T3:31:46Z</time></trkpt>
<trkpt lat="46.162040000" lon="7.459450000"><ele></ele><time>2013-8-8T3:31:49Z</time></trkpt>
<trkpt lat="46.161940000" lon="7.459500000"><ele></ele><time>2013-8-8T3:31:52Z</time></trkpt>
<trkpt lat="46.161800000" lon="7.459570000"><ele></ele><time>2013-8-8T3:31:55Z</time></trkpt>
<trkpt lat="46.161780000" lon="7.459580000"><ele></ele><time>2013-8-8T3:31:58Z</time></trkpt>
<trkpt lat="46.161750000" lon="7.459590000"><ele></ele><time>2013-8-8T3:32:1Z</time></trkpt>
<trkpt lat="46.161730000" lon="7.459600000"><ele></ele><time>2013-8-8T3:32:4Z</time></trkpt>
<trkpt lat="46.161710000" lon="7.459610000"><ele></ele><time>2013-8-8T3:32:7Z</time></trkpt>
<trkpt lat="46.161640000" lon="7.459650000"><ele></ele><time>2013-8-8T3:32:10Z</time></trkpt>
<trkpt lat="46.161570000" lon="7.459710000"><ele></ele><time>2013-8-8T3:32:13Z</time></trkpt>
<trkpt lat="46.161550000" lon="7.459720000"><ele></ele><time>2013-8-8T3:32:16Z</time></trkpt>
<trkpt lat="46.161520000" lon="7.459750000"><ele></ele><time>2013-8-8T3:32:19Z</time></trkpt>
<trkpt lat="46.161500000" lon="7.459760000"><ele></ele><time>2013-8-8T3:32:22Z</time></trkpt>
<trkpt lat="46.161480000" lon="7.459780000"><ele></ele><time>2013-8-8T3:32:25Z</time></trkpt>
<trkpt lat="46.161390000" lon="7.459830000"><ele></ele><time>2013-8-8T3:32:28Z</time></trkpt>
<trkpt lat="46.161250000" lon="7.459880000"><ele></ele><time>2013-8-8T3:32:31Z</time></trkpt>
<trkpt lat="46.161220000" lon="7.459890000"><ele></ele><time>2013-8-8T3:32:34Z</time></trkpt>
<trkpt lat="46.161190000" lon="7.459890000"><ele></ele><time>2013-8-8T3:32:37Z</time></trkpt>
<trkpt lat="46.161160000" lon="7.459900000"><ele></ele><time>2013-8-8T3:32:40Z</time></trkpt>
<trkpt lat="46.161140000" lon="7.459890000"><ele></ele><time>2013-8-8T3:32:43Z</time></trkpt>
<trkpt lat="46.161070000" lon="7.459890000"><ele></ele><time>2013-8-8T3:32:46Z</time></trkpt>
<trkpt lat="46.161020000" lon="7.459880000"><ele></ele><time>2013-8-8T3:32:49Z</time></trkpt>
<trkpt lat="46.160990000" lon="7.459880000"><ele></ele><time>2013-8-8T3:32:52Z</time></trkpt>
<trkpt lat="46.160960000" lon="7.459880000"><ele></ele><time>2013-8-8T3:32:55Z</time></trkpt>
<trkpt lat="46.160930000" lon="7.459870000"><ele></ele><time>2013-8-8T3:32:58Z</time></trkpt>
<trkpt lat="46.160900000" lon="7.459880000"><ele></ele><time>2013-8-8T3:33:1Z</time></trkpt>
<trkpt lat="46.160750000" lon="7.459960000"><ele></ele><time>2013-8-8T3:33:4Z</time></trkpt>
<trkpt lat="46.160610000" lon="7.460090000"><ele></ele><time>2013-8-8T3:33:7Z</time></trkpt>
<trkpt lat="46.160590000" lon="7.460120000"><ele></ele><time>2013-8-8T3:33:10Z</time></trkpt>
<trkpt lat="46.160560000" lon="7.460150000"><ele></ele><time>2013-8-8T3:33:13Z</time></trkpt>
<trkpt lat="46.160550000" lon="7.460180000"><ele></ele><time>2013-8-8T3:33:16Z</time></trkpt>
<trkpt lat="46.160530000" lon="7.460210000"><ele></ele><time>2013-8-8T3:33:19Z</time></trkpt>
<trkpt lat="46.160450000" lon="7.460380000"><ele></ele><time>2013-8-8T3:33:22Z</time></trkpt>
<trkpt lat="46.160440000" lon="7.460420000"><ele></ele><time>2013-8-8T3:33:25Z</time></trkpt>
<trkpt lat="46.160430000" lon="7.460460000"><ele></ele><time>2013-8-8T3:33:28Z</time></trkpt>
<trkpt lat="46.160420000" lon="7.460490000"><ele></ele><time>2013-8-8T3:33:31Z</time></trkpt>
<trkpt lat="46.160400000" lon="7.460530000"><ele></ele><time>2013-8-8T3:33:34Z</time></trkpt>
<trkpt lat="46.160310000" lon="7.460670000"><ele></ele><time>2013-8-8T3:33:37Z</time></trkpt>
<trkpt lat="46.160230000" lon="7.460720000"><ele></ele><time>2013-8-8T3:33:40Z</time></trkpt>
<trkpt lat="46.160200000" lon="7.460730000"><ele></ele><time>2013-8-8T3:33:43Z</time></trkpt>
<trkpt lat="46.160170000" lon="7.460740000"><ele></ele><time>2013-8-8T3:33:46Z</time></trkpt>
<trkpt lat="46.160140000" lon="7.460740000"><ele></ele><time>2013-8-8T3:33:49Z</time></trkpt>
<trkpt lat="46.160120000" lon="7.460740000"><ele></ele><time>2013-8-8T3:33:52Z</time></trkpt>
<trkpt lat="46.159980000" lon="7.460750000"><ele></ele><time>2013-8-8T3:33:55Z</time></trkpt>
<trkpt lat="46.159930000" lon="7.460760000"><ele></ele><time>2013-8-8T3:33:58Z</time></trkpt>
<trkpt lat="46.159900000" lon="7.460760000"><ele></ele><time>2013-8-8T3:34:1Z</time></trkpt>
<trkpt lat="46.159880000" lon="7.460760000"><ele></ele><time>2013-8-8T3:34:4Z</time></trkpt>
<trkpt lat="46.159850000" lon="7.460760000"><ele></ele><time>2013-8-8T3:34:7Z</time></trkpt>
<trkpt lat="46.159770000" lon="7.460770000"><ele></ele><time>2013-8-8T3:34:10Z</time></trkpt>
<trkpt lat="46.159660000" lon="7.460780000"><ele></ele><time>2013-8-8T3:34:13Z</time></trkpt>
<trkpt lat="46.159630000" lon="7.460790000"><ele></ele><time>2013-8-8T3:34:16Z</time></trkpt>
<trkpt lat="46.159610000" lon="7.460790000"><ele></ele><time>2013-8-8T3:34:19Z</time></trkpt>
<trkpt lat="46.159580000" lon="7.460800000"><ele></ele><time>2013-8-8T3:34:22Z</time></trkpt>
<trkpt lat="46.159560000" lon="7.460800000"><ele></ele><time>2013-8-8T3:34:25Z</time></trkpt>
<trkpt lat="46.159450000" lon="7.460840000"><ele></ele><time>2013-8-8T3:34:28Z</time></trkpt>
<trkpt lat="46.159420000" lon="7.460850000"><ele></ele><time>2013-8-8T3:34:31Z</time></trkpt>
<trkpt lat="46.159400000" lon="7.460860000"><ele></ele><time>2013-8-8T3:34:34Z</time></trkpt>
<trkpt lat="46.159370000" lon="7.460870000"><ele></ele><time>2013-8-8T3:34:37Z</time></trkpt>
<trkpt lat="46.159350000" lon="7.460890000"><ele></ele><time>2013-8-8T3:34:40Z</time></trkpt>
<trkpt lat="46.159320000" lon="7.460900000"><ele></ele><time>2013-8-8T3:34:43Z</time></trkpt>
<trkpt lat="46.159270000" lon="7.460930000"><ele></ele><time>2013-8-8T3:34:46Z</time></trkpt>
<trkpt lat="46.159150000" lon="7.461040000"><ele></ele><time>2013-8-8T3:34:49Z</time></trkpt>
<trkpt lat="46.159120000" lon="7.461060000"><ele></ele><time>2013-8-8T3:34:52Z</time></trkpt>
<trkpt lat="46.159100000" lon="7.461080000"><ele></ele><time>2013-8-8T3:34:55Z</time></trkpt>
<trkpt lat="46.159070000" lon="7.461100000"><ele></ele><time>2013-8-8T3:34:58Z</time></trkpt>
<trkpt lat="46.159050000" lon="7.461120000"><ele></ele><time>2013-8-8T3:35:1Z</time></trkpt>
<trkpt lat="46.158990000" lon="7.461200000"><ele></ele><time>2013-8-8T3:35:4Z</time></trkpt>
<trkpt lat="46.158860000" lon="7.461320000"><ele></ele><time>2013-8-8T3:35:7Z</time></trkpt>
<trkpt lat="46.158830000" lon="7.461340000"><ele></ele><time>2013-8-8T3:35:10Z</time></trkpt>
<trkpt lat="46.158810000" lon="7.461360000"><ele></ele><time>2013-8-8T3:35:13Z</time></trkpt>
<trkpt lat="46.158780000" lon="7.461370000"><ele></ele><time>2013-8-8T3:35:16Z</time></trkpt>
<trkpt lat="46.158760000" lon="7.461390000"><ele></ele><time>2013-8-8T3:35:19Z</time></trkpt>
<trkpt lat="46.158620000" lon="7.461470000"><ele></ele><time>2013-8-8T3:35:22Z</time></trkpt>
<trkpt lat="46.158590000" lon="7.461490000"><ele></ele><time>2013-8-8T3:35:25Z</time></trkpt>
<trkpt lat="46.158560000" lon="7.461510000"><ele></ele><time>2013-8-8T3:35:28Z</time></trkpt>
<trkpt lat="46.158540000" lon="7.461530000"><ele></ele><time>2013-8-8T3:35:31Z</time></trkpt>
<trkpt lat="46.158510000" lon="7.461550000"><ele></ele><time>2013-8-8T3:35:34Z</time></trkpt>
<trkpt lat="46.158400000" lon="7.461670000"><ele></ele><time>2013-8-8T3:35:37Z</time></trkpt>
<trkpt lat="46.158360000" lon="7.461720000"><ele></ele><time>2013-8-8T3:35:40Z</time></trkpt>
<trkpt lat="46.158340000" lon="7.461760000"><ele></ele><time>2013-8-8T3:35:43Z</time></trkpt>
<trkpt lat="46.158330000" lon="7.461800000"><ele></ele><time>2013-8-8T3:35:46Z</time></trkpt>
<trkpt lat="46.158320000" lon="7.461830000"><ele></ele><time>2013-8-8T3:35:49Z</time></trkpt>
<trkpt lat="46.158310000" lon="7.461870000"><ele></ele><time>2013-8-8T3:35:52Z</time></trkpt>
<trkpt lat="46.158180000" lon="7.462100000"><ele></ele><time>2013-8-8T3:35:55Z</time></trkpt>
<trkpt lat="46.158130000" lon="7.462140000"><ele></ele><time>2013-8-8T3:35:58Z</time></trkpt>
<trkpt lat="46.158100000" lon="7.462160000"><ele></ele><time>2013-8-8T3:36:1Z</time></trkpt>
<trkpt lat="46.158080000" lon="7.462170000"><ele></ele><time>2013-8-8T3:36:4Z</time></trkpt>
<trkpt lat="46.158050000" lon="7.462190000"><ele></ele><time>2013-8-8T3:36:7Z</time></trkpt>
<trkpt lat="46.158020000" lon="7.462200000"><ele></ele><time>2013-8-8T3:36:10Z</time></trkpt>
<trkpt lat="46.157880000" lon="7.462300000"><ele></ele><time>2013-8-8T3:36:13Z</time></trkpt>
<trkpt lat="46.157850000" lon="7.462320000"><ele></ele><time>2013-8-8T3:36:16Z</time></trkpt>
<trkpt lat="46.157820000" lon="7.462330000"><ele></ele><time>2013-8-8T3:36:19Z</time></trkpt>
<trkpt lat="46.157800000" lon="7.462350000"><ele></ele><time>2013-8-8T3:36:22Z</time></trkpt>
<trkpt lat="46.157770000" lon="7.462370000"><ele></ele><time>2013-8-8T3:36:25Z</time></trkpt>
<trkpt lat="46.157660000" lon="7.462430000"><ele></ele><time>2013-8-8T3:36:28Z</time></trkpt>
<trkpt lat="46.157580000" lon="7.462460000"><ele></ele><time>2013-8-8T3:36:31Z</time></trkpt>
<trkpt lat="46.157550000" lon="7.462470000"><ele></ele><time>2013-8-8T3:36:34Z</time></trkpt>
<trkpt lat="46.157530000" lon="7.462490000"><ele></ele><time>2013-8-8T3:36:37Z</time></trkpt>
<trkpt lat="46.157500000" lon="7.462510000"><ele></ele><time>2013-8-8T3:36:40Z</time></trkpt>
<trkpt lat="46.157350000" lon="7.462680000"><ele></ele><time>2013-8-8T3:36:43Z</time></trkpt>
<trkpt lat="46.157290000" lon="7.462770000"><ele></ele><time>2013-8-8T3:36:46Z</time></trkpt>
<trkpt lat="46.157260000" lon="7.462800000"><ele></ele><time>2013-8-8T3:36:49Z</time></trkpt>
<trkpt lat="46.157240000" lon="7.462830000"><ele></ele><time>2013-8-8T3:36:52Z</time></trkpt>
<trkpt lat="46.157220000" lon="7.462850000"><ele></ele><time>2013-8-8T3:36:55Z</time></trkpt>
<trkpt lat="46.157190000" lon="7.462880000"><ele></ele><time>2013-8-8T3:36:58Z</time></trkpt>
<trkpt lat="46.157170000" lon="7.462900000"><ele></ele><time>2013-8-8T3:37:1Z</time></trkpt>
<trkpt lat="46.157150000" lon="7.462920000"><ele></ele><time>2013-8-8T3:37:4Z</time></trkpt>
<trkpt lat="46.157010000" lon="7.462980000"><ele></ele><time>2013-8-8T3:37:7Z</time></trkpt>
<trkpt lat="46.156990000" lon="7.462990000"><ele></ele><time>2013-8-8T3:37:10Z</time></trkpt>
<trkpt lat="46.156960000" lon="7.463010000"><ele></ele><time>2013-8-8T3:37:13Z</time></trkpt>
<trkpt lat="46.156940000" lon="7.463020000"><ele></ele><time>2013-8-8T3:37:16Z</time></trkpt>
<trkpt lat="46.156910000" lon="7.463040000"><ele></ele><time>2013-8-8T3:37:19Z</time></trkpt>
<trkpt lat="46.156810000" lon="7.463100000"><ele></ele><time>2013-8-8T3:37:22Z</time></trkpt>
<trkpt lat="46.156790000" lon="7.463110000"><ele></ele><time>2013-8-8T3:37:25Z</time></trkpt>
<trkpt lat="46.156760000" lon="7.463130000"><ele></ele><time>2013-8-8T3:37:28Z</time></trkpt>
<trkpt lat="46.156730000" lon="7.463140000"><ele></ele><time>2013-8-8T3:37:31Z</time></trkpt>
<trkpt lat="46.156710000" lon="7.463160000"><ele></ele><time>2013-8-8T3:37:34Z</time></trkpt>
<trkpt lat="46.156680000" lon="7.463180000"><ele></ele><time>2013-8-8T3:37:37Z</time></trkpt>
<trkpt lat="46.156540000" lon="7.463280000"><ele></ele><time>2013-8-8T3:37:40Z</time></trkpt>
<trkpt lat="46.156510000" lon="7.463290000"><ele></ele><time>2013-8-8T3:37:43Z</time></trkpt>
<trkpt lat="46.156490000" lon="7.463310000"><ele></ele><time>2013-8-8T3:37:46Z</time></trkpt>
<trkpt lat="46.156460000" lon="7.463320000"><ele></ele><time>2013-8-8T3:37:49Z</time></trkpt>
<trkpt lat="46.156440000" lon="7.463340000"><ele></ele><time>2013-8-8T3:37:52Z</time></trkpt>
<trkpt lat="46.156290000" lon="7.463450000"><ele></ele><time>2013-8-8T3:37:55Z</time></trkpt>
<trkpt lat="46.156260000" lon="7.463460000"><ele></ele><time>2013-8-8T3:37:58Z</time></trkpt>
<trkpt lat="46.156230000" lon="7.463480000"><ele></ele><time>2013-8-8T3:38:1Z</time></trkpt>
<trkpt lat="46.156200000" lon="7.463500000"><ele></ele><time>2013-8-8T3:38:4Z</time></trkpt>
<trkpt lat="46.156130000" lon="7.463550000"><ele></ele><time>2013-8-8T3:38:7Z</time></trkpt>
<trkpt lat="46.156090000" lon="7.463600000"><ele></ele><time>2013-8-8T3:38:10Z</time></trkpt>
<trkpt lat="46.156070000" lon="7.463620000"><ele></ele><time>2013-8-8T3:38:13Z</time></trkpt>
<trkpt lat="46.156040000" lon="7.463650000"><ele></ele><time>2013-8-8T3:38:16Z</time></trkpt>
<trkpt lat="46.156020000" lon="7.463680000"><ele></ele><time>2013-8-8T3:38:19Z</time></trkpt>
<trkpt lat="46.156010000" lon="7.463710000"><ele></ele><time>2013-8-8T3:38:22Z</time></trkpt>
<trkpt lat="46.155980000" lon="7.463740000"><ele></ele><time>2013-8-8T3:38:25Z</time></trkpt>
<trkpt lat="46.155890000" lon="7.463890000"><ele></ele><time>2013-8-8T3:38:28Z</time></trkpt>
<trkpt lat="46.155870000" lon="7.463920000"><ele></ele><time>2013-8-8T3:38:31Z</time></trkpt>
<trkpt lat="46.155850000" lon="7.463950000"><ele></ele><time>2013-8-8T3:38:34Z</time></trkpt>
<trkpt lat="46.155830000" lon="7.463990000"><ele></ele><time>2013-8-8T3:38:37Z</time></trkpt>
<trkpt lat="46.155820000" lon="7.464020000"><ele></ele><time>2013-8-8T3:38:40Z</time></trkpt>
<trkpt lat="46.155750000" lon="7.464220000"><ele></ele><time>2013-8-8T3:38:43Z</time></trkpt>
<trkpt lat="46.155740000" lon="7.464260000"><ele></ele><time>2013-8-8T3:38:46Z</time></trkpt>
<trkpt lat="46.155740000" lon="7.464300000"><ele></ele><time>2013-8-8T3:38:49Z</time></trkpt>
<trkpt lat="46.155730000" lon="7.464340000"><ele></ele><time>2013-8-8T3:38:52Z</time></trkpt>
<trkpt lat="46.155720000" lon="7.464390000"><ele></ele><time>2013-8-8T3:38:55Z</time></trkpt>
<trkpt lat="46.155650000" lon="7.464520000"><ele></ele><time>2013-8-8T3:38:58Z</time></trkpt>
<trkpt lat="46.155590000" lon="7.464610000"><ele></ele><time>2013-8-8T3:39:1Z</time></trkpt>
<trkpt lat="46.155570000" lon="7.464640000"><ele></ele><time>2013-8-8T3:39:4Z</time></trkpt>
<trkpt lat="46.155540000" lon="7.464670000"><ele></ele><time>2013-8-8T3:39:7Z</time></trkpt>
<trkpt lat="46.155510000" lon="7.464690000"><ele></ele><time>2013-8-8T3:39:10Z</time></trkpt>
<trkpt lat="46.155490000" lon="7.464710000"><ele></ele><time>2013-8-8T3:39:13Z</time></trkpt>
<trkpt lat="46.155270000" lon="7.464840000"><ele></ele><time>2013-8-8T3:39:16Z</time></trkpt>
<trkpt lat="46.155240000" lon="7.464860000"><ele></ele><time>2013-8-8T3:39:19Z</time></trkpt>
<trkpt lat="46.155220000" lon="7.464880000"><ele></ele><time>2013-8-8T3:39:22Z</time></trkpt>
<trkpt lat="46.155190000" lon="7.464890000"><ele></ele><time>2013-8-8T3:39:25Z</time></trkpt>
<trkpt lat="46.155090000" lon="7.464960000"><ele></ele><time>2013-8-8T3:39:28Z</time></trkpt>
<trkpt lat="46.155070000" lon="7.464980000"><ele></ele><time>2013-8-8T3:39:31Z</time></trkpt>
<trkpt lat="46.155040000" lon="7.465010000"><ele></ele><time>2013-8-8T3:39:34Z</time></trkpt>
<trkpt lat="46.155030000" lon="7.465040000"><ele></ele><time>2013-8-8T3:39:37Z</time></trkpt>
<trkpt lat="46.155000000" lon="7.465080000"><ele></ele><time>2013-8-8T3:39:40Z</time></trkpt>
<trkpt lat="46.154960000" lon="7.465150000"><ele></ele><time>2013-8-8T3:39:43Z</time></trkpt>
<trkpt lat="46.154890000" lon="7.465280000"><ele></ele><time>2013-8-8T3:39:46Z</time></trkpt>
<trkpt lat="46.154800000" lon="7.465400000"><ele></ele><time>2013-8-8T3:39:49Z</time></trkpt>
<trkpt lat="46.154780000" lon="7.465430000"><ele></ele><time>2013-8-8T3:39:52Z</time></trkpt>
<trkpt lat="46.154760000" lon="7.465470000"><ele></ele><time>2013-8-8T3:39:55Z</time></trkpt>
<trkpt lat="46.154740000" lon="7.465500000"><ele></ele><time>2013-8-8T3:39:58Z</time></trkpt>
<trkpt lat="46.154720000" lon="7.465540000"><ele></ele><time>2013-8-8T3:40:1Z</time></trkpt>
<trkpt lat="46.154660000" lon="7.465630000"><ele></ele><time>2013-8-8T3:40:4Z</time></trkpt>
<trkpt lat="46.154510000" lon="7.465850000"><ele></ele><time>2013-8-8T3:40:7Z</time></trkpt>
<trkpt lat="46.154420000" lon="7.465960000"><ele></ele><time>2013-8-8T3:40:10Z</time></trkpt>
<trkpt lat="46.154380000" lon="7.465990000"><ele></ele><time>2013-8-8T3:40:13Z</time></trkpt>
<trkpt lat="46.154360000" lon="7.466030000"><ele></ele><time>2013-8-8T3:40:16Z</time></trkpt>
<trkpt lat="46.154330000" lon="7.466060000"><ele></ele><time>2013-8-8T3:40:19Z</time></trkpt>
<trkpt lat="46.154320000" lon="7.466110000"><ele></ele><time>2013-8-8T3:40:22Z</time></trkpt>
<trkpt lat="46.154270000" lon="7.466380000"><ele></ele><time>2013-8-8T3:40:25Z</time></trkpt>
<trkpt lat="46.154210000" lon="7.466570000"><ele></ele><time>2013-8-8T3:40:28Z</time></trkpt>
<trkpt lat="46.154170000" lon="7.466600000"><ele></ele><time>2013-8-8T3:40:31Z</time></trkpt>
<trkpt lat="46.154070000" lon="7.466630000"><ele></ele><time>2013-8-8T3:40:34Z</time></trkpt>
<trkpt lat="46.154040000" lon="7.466630000"><ele></ele><time>2013-8-8T3:40:37Z</time></trkpt>
<trkpt lat="46.153920000" lon="7.466590000"><ele></ele><time>2013-8-8T3:40:40Z</time></trkpt>
<trkpt lat="46.153890000" lon="7.466590000"><ele></ele><time>2013-8-8T3:40:43Z</time></trkpt>
<trkpt lat="46.153860000" lon="7.466590000"><ele></ele><time>2013-8-8T3:40:46Z</time></trkpt>
<trkpt lat="46.153820000" lon="7.466610000"><ele></ele><time>2013-8-8T3:40:49Z</time></trkpt>
<trkpt lat="46.153790000" lon="7.466620000"><ele></ele><time>2013-8-8T3:40:52Z</time></trkpt>
<trkpt lat="46.153630000" lon="7.466780000"><ele></ele><time>2013-8-8T3:40:55Z</time></trkpt>
<trkpt lat="46.153500000" lon="7.466980000"><ele></ele><time>2013-8-8T3:40:58Z</time></trkpt>
<trkpt lat="46.153480000" lon="7.467030000"><ele></ele><time>2013-8-8T3:41:1Z</time></trkpt>
<trkpt lat="46.153520000" lon="7.467260000"><ele></ele><time>2013-8-8T3:41:4Z</time></trkpt>
<trkpt lat="46.153510000" lon="7.467390000"><ele></ele><time>2013-8-8T3:41:7Z</time></trkpt>
<trkpt lat="46.153510000" lon="7.467450000"><ele></ele><time>2013-8-8T3:41:10Z</time></trkpt>
<trkpt lat="46.153470000" lon="7.467620000"><ele></ele><time>2013-8-8T3:41:13Z</time></trkpt>
<trkpt lat="46.153450000" lon="7.467670000"><ele></ele><time>2013-8-8T3:41:16Z</time></trkpt>
<trkpt lat="46.153430000" lon="7.467720000"><ele></ele><time>2013-8-8T3:41:19Z</time></trkpt>
<trkpt lat="46.153410000" lon="7.467770000"><ele></ele><time>2013-8-8T3:41:22Z</time></trkpt>
<trkpt lat="46.153380000" lon="7.467810000"><ele></ele><time>2013-8-8T3:41:25Z</time></trkpt>
<trkpt lat="46.153300000" lon="7.467920000"><ele></ele><time>2013-8-8T3:41:28Z</time></trkpt>
<trkpt lat="46.153140000" lon="7.468060000"><ele></ele><time>2013-8-8T3:41:31Z</time></trkpt>
<trkpt lat="46.153110000" lon="7.468080000"><ele></ele><time>2013-8-8T3:41:34Z</time></trkpt>
<trkpt lat="46.153080000" lon="7.468090000"><ele></ele><time>2013-8-8T3:41:37Z</time></trkpt>
<trkpt lat="46.153050000" lon="7.468110000"><ele></ele><time>2013-8-8T3:41:40Z</time></trkpt>
<trkpt lat="46.152870000" lon="7.468270000"><ele></ele><time>2013-8-8T3:41:43Z</time></trkpt>
<trkpt lat="46.152860000" lon="7.468320000"><ele></ele><time>2013-8-8T3:41:46Z</time></trkpt>
<trkpt lat="46.152850000" lon="7.468510000"><ele></ele><time>2013-8-8T3:41:49Z</time></trkpt>
<trkpt lat="46.152810000" lon="7.468890000"><ele></ele><time>2013-8-8T3:41:52Z</time></trkpt>
<trkpt lat="46.152780000" lon="7.469010000"><ele></ele><time>2013-8-8T3:41:55Z</time></trkpt>
<trkpt lat="46.152740000" lon="7.469120000"><ele></ele><time>2013-8-8T3:41:58Z</time></trkpt>
<trkpt lat="46.152720000" lon="7.469170000"><ele></ele><time>2013-8-8T3:42:1Z</time></trkpt>
<trkpt lat="46.152690000" lon="7.469210000"><ele></ele><time>2013-8-8T3:42:4Z</time></trkpt>
<trkpt lat="46.152660000" lon="7.469260000"><ele></ele><time>2013-8-8T3:42:7Z</time></trkpt>
<trkpt lat="46.152630000" lon="7.469300000"><ele></ele><time>2013-8-8T3:42:10Z</time></trkpt>
<trkpt lat="46.152380000" lon="7.469570000"><ele></ele><time>2013-8-8T3:42:13Z</time></trkpt>
<trkpt lat="46.152190000" lon="7.469750000"><ele></ele><time>2013-8-8T3:42:16Z</time></trkpt>
<trkpt lat="46.152160000" lon="7.469780000"><ele></ele><time>2013-8-8T3:42:19Z</time></trkpt>
<trkpt lat="46.152120000" lon="7.469810000"><ele></ele><time>2013-8-8T3:42:22Z</time></trkpt>
<trkpt lat="46.152080000" lon="7.469830000"><ele></ele><time>2013-8-8T3:42:25Z</time></trkpt>
<trkpt lat="46.152030000" lon="7.469840000"><ele></ele><time>2013-8-8T3:42:28Z</time></trkpt>
<trkpt lat="46.151990000" lon="7.469830000"><ele></ele><time>2013-8-8T3:42:31Z</time></trkpt>
<trkpt lat="46.151950000" lon="7.469830000"><ele></ele><time>2013-8-8T3:42:34Z</time></trkpt>
<trkpt lat="46.151820000" lon="7.469810000"><ele></ele><time>2013-8-8T3:42:37Z</time></trkpt>
<trkpt lat="46.151750000" lon="7.469850000"><ele></ele><time>2013-8-8T3:42:40Z</time></trkpt>
<trkpt lat="46.151620000" lon="7.470000000"><ele></ele><time>2013-8-8T3:42:43Z</time></trkpt>
<trkpt lat="46.151600000" lon="7.470060000"><ele></ele><time>2013-8-8T3:42:46Z</time></trkpt>
<trkpt lat="46.151520000" lon="7.470210000"><ele></ele><time>2013-8-8T3:42:49Z</time></trkpt>
<trkpt lat="46.151490000" lon="7.470260000"><ele></ele><time>2013-8-8T3:42:52Z</time></trkpt>
<trkpt lat="46.151470000" lon="7.470310000"><ele></ele><time>2013-8-8T3:42:55Z</time></trkpt>
<trkpt lat="46.151440000" lon="7.470360000"><ele></ele><time>2013-8-8T3:42:58Z</time></trkpt>
<trkpt lat="46.151420000" lon="7.470400000"><ele></ele><time>2013-8-8T3:43:1Z</time></trkpt>
<trkpt lat="46.151350000" lon="7.470550000"><ele></ele><time>2013-8-8T3:43:4Z</time></trkpt>
<trkpt lat="46.151250000" lon="7.470740000"><ele></ele><time>2013-8-8T3:43:7Z</time></trkpt>
<trkpt lat="46.151100000" lon="7.470860000"><ele></ele><time>2013-8-8T3:43:10Z</time></trkpt>
<trkpt lat="46.150930000" lon="7.470920000"><ele></ele><time>2013-8-8T3:43:13Z</time></trkpt>
<trkpt lat="46.150900000" lon="7.470910000"><ele></ele><time>2013-8-8T3:43:16Z</time></trkpt>
<trkpt lat="46.150880000" lon="7.470900000"><ele></ele><time>2013-8-8T3:43:19Z</time></trkpt>
<trkpt lat="46.150850000" lon="7.470910000"><ele></ele><time>2013-8-8T3:43:22Z</time></trkpt>
<trkpt lat="46.150840000" lon="7.470920000"><ele></ele><time>2013-8-8T3:43:25Z</time></trkpt>
<trkpt lat="46.150830000" lon="7.470930000"><ele></ele><time>2013-8-8T3:43:28Z</time></trkpt>
<trkpt lat="46.150820000" lon="7.470970000"><ele></ele><time>2013-8-8T3:43:31Z</time></trkpt>
<trkpt lat="46.150820000" lon="7.470970000"><ele></ele><time>2013-8-8T3:43:34Z</time></trkpt>
</trkseg></trk></gpx>